<?xml version="1.0" encoding="UTF-8" standalone="no" ?>
<gpx xmlns="http://www.topografix.com/GPX/1/1" xmlns:xsi="http://www.w3.org/2001/XMLSchema-instance" xsi:schemaLocation="http://www.topografix.com/GPX/1/1 http://www.topografix.com/GPX/1/1/gpx.xsd" version="1.1" creator="VisuGPX - https://www.visugpx.com">
  <metadata>
    <name>Pornichet 06/09/2020</name>
    <desc><![CDATA[Sortie VTT du dimanche 06 septembre 2020]]></desc>
  </metadata>
  <trk>
    <name><![CDATA[Pornichet Cyclisme]]></name>
    <trkseg>
      <trkpt lat="47.26419" lon="-2.31547">
        <ele>10.5</ele>
        <time>2020-09-06T06:51:57.000Z</time>
      </trkpt>
      <trkpt lat="47.26419" lon="-2.31547">
        <ele>10.5</ele>
        <time>2020-09-06T06:51:58.000Z</time>
      </trkpt>
      <trkpt lat="47.26415" lon="-2.31551">
        <ele>10.1</ele>
        <time>2020-09-06T06:52:11.000Z</time>
      </trkpt>
      <trkpt lat="47.2641" lon="-2.31552">
        <ele>9.9</ele>
        <time>2020-09-06T06:52:13.000Z</time>
      </trkpt>
      <trkpt lat="47.26406" lon="-2.31557">
        <ele>9.6</ele>
        <time>2020-09-06T06:52:15.000Z</time>
      </trkpt>
      <trkpt lat="47.26406" lon="-2.31566">
        <ele>9.6</ele>
        <time>2020-09-06T06:52:17.000Z</time>
      </trkpt>
      <trkpt lat="47.26406" lon="-2.31575">
        <ele>9.6</ele>
        <time>2020-09-06T06:52:19.000Z</time>
      </trkpt>
      <trkpt lat="47.26407" lon="-2.31597">
        <ele>9.6</ele>
        <time>2020-09-06T06:52:24.000Z</time>
      </trkpt>
      <trkpt lat="47.26406" lon="-2.31627">
        <ele>9.3</ele>
        <time>2020-09-06T06:52:30.000Z</time>
      </trkpt>
      <trkpt lat="47.26407" lon="-2.31657">
        <ele>8.3</ele>
        <time>2020-09-06T06:52:36.000Z</time>
      </trkpt>
      <trkpt lat="47.26405" lon="-2.3166">
        <ele>8.2</ele>
        <time>2020-09-06T06:52:37.000Z</time>
      </trkpt>
      <trkpt lat="47.26395" lon="-2.31665">
        <ele>-0.40000000596046</ele>
        <time>2020-09-06T06:52:40.000Z</time>
      </trkpt>
      <trkpt lat="47.26391" lon="-2.31666">
        <ele>-0.80000001192093</ele>
        <time>2020-09-06T06:52:41.000Z</time>
      </trkpt>
      <trkpt lat="47.26388" lon="-2.31667">
        <ele>-1.3999999761581</ele>
        <time>2020-09-06T06:52:42.000Z</time>
      </trkpt>
      <trkpt lat="47.26384" lon="-2.31669">
        <ele>-1.7999999523163</ele>
        <time>2020-09-06T06:52:43.000Z</time>
      </trkpt>
      <trkpt lat="47.26381" lon="-2.31672">
        <ele>-2.2000000476837</ele>
        <time>2020-09-06T06:52:44.000Z</time>
      </trkpt>
      <trkpt lat="47.26376" lon="-2.31675">
        <ele>-2.2000000476837</ele>
        <time>2020-09-06T06:52:45.000Z</time>
      </trkpt>
      <trkpt lat="47.26373" lon="-2.31678">
        <ele>-2.2000000476837</ele>
        <time>2020-09-06T06:52:46.000Z</time>
      </trkpt>
      <trkpt lat="47.26341" lon="-2.31696">
        <ele>-2.2000000476837</ele>
        <time>2020-09-06T06:52:53.000Z</time>
      </trkpt>
      <trkpt lat="47.26336" lon="-2.31698">
        <ele>-2.2000000476837</ele>
        <time>2020-09-06T06:52:54.000Z</time>
      </trkpt>
      <trkpt lat="47.26313" lon="-2.31708">
        <ele>-2.2000000476837</ele>
        <time>2020-09-06T06:52:58.000Z</time>
      </trkpt>
      <trkpt lat="47.26309" lon="-2.3171">
        <ele>-2.5999999046326</ele>
        <time>2020-09-06T06:52:59.000Z</time>
      </trkpt>
      <trkpt lat="47.26305" lon="-2.31714">
        <ele>-3</ele>
        <time>2020-09-06T06:53:00.000Z</time>
      </trkpt>
      <trkpt lat="47.26303" lon="-2.31719">
        <ele>-3.4000000953674</ele>
        <time>2020-09-06T06:53:01.000Z</time>
      </trkpt>
      <trkpt lat="47.26302" lon="-2.31725">
        <ele>-3.7999999523163</ele>
        <time>2020-09-06T06:53:02.000Z</time>
      </trkpt>
      <trkpt lat="47.26302" lon="-2.3173">
        <ele>-4.1999998092651</ele>
        <time>2020-09-06T06:53:03.000Z</time>
      </trkpt>
      <trkpt lat="47.26304" lon="-2.31741">
        <ele>-4.1999998092651</ele>
        <time>2020-09-06T06:53:04.000Z</time>
      </trkpt>
      <trkpt lat="47.26304" lon="-2.31741">
        <ele>-4.1999998092651</ele>
        <time>2020-09-06T06:53:05.000Z</time>
      </trkpt>
      <trkpt lat="47.26307" lon="-2.31765">
        <ele>-4.1999998092651</ele>
        <time>2020-09-06T06:53:09.000Z</time>
      </trkpt>
      <trkpt lat="47.26307" lon="-2.31776">
        <ele>-4.1999998092651</ele>
        <time>2020-09-06T06:53:11.000Z</time>
      </trkpt>
      <trkpt lat="47.26306" lon="-2.31803">
        <ele>-4.1999998092651</ele>
        <time>2020-09-06T06:53:15.000Z</time>
      </trkpt>
      <trkpt lat="47.26304" lon="-2.31822">
        <ele>-4.1999998092651</ele>
        <time>2020-09-06T06:53:18.000Z</time>
      </trkpt>
      <trkpt lat="47.26304" lon="-2.31828">
        <ele>-4.1999998092651</ele>
        <time>2020-09-06T06:53:19.000Z</time>
      </trkpt>
      <trkpt lat="47.26301" lon="-2.31859">
        <ele>-4.1999998092651</ele>
        <time>2020-09-06T06:53:24.000Z</time>
      </trkpt>
      <trkpt lat="47.26298" lon="-2.31879">
        <ele>-4.5999999046326</ele>
        <time>2020-09-06T06:53:28.000Z</time>
      </trkpt>
      <trkpt lat="47.26296" lon="-2.31881">
        <ele>-5</ele>
        <time>2020-09-06T06:53:29.000Z</time>
      </trkpt>
      <trkpt lat="47.26293" lon="-2.31884">
        <ele>-5.4000000953674</ele>
        <time>2020-09-06T06:53:30.000Z</time>
      </trkpt>
      <trkpt lat="47.2629" lon="-2.31887">
        <ele>-5.8000001907349</ele>
        <time>2020-09-06T06:53:31.000Z</time>
      </trkpt>
      <trkpt lat="47.26287" lon="-2.31889">
        <ele>-6.1999998092651</ele>
        <time>2020-09-06T06:53:32.000Z</time>
      </trkpt>
      <trkpt lat="47.26278" lon="-2.31901">
        <ele>-6.1999998092651</ele>
        <time>2020-09-06T06:53:35.000Z</time>
      </trkpt>
      <trkpt lat="47.26261" lon="-2.3193">
        <ele>-6.1999998092651</ele>
        <time>2020-09-06T06:53:42.000Z</time>
      </trkpt>
      <trkpt lat="47.26254" lon="-2.31944">
        <ele>-6.1999998092651</ele>
        <time>2020-09-06T06:53:45.000Z</time>
      </trkpt>
      <trkpt lat="47.26249" lon="-2.31958">
        <ele>-6.1999998092651</ele>
        <time>2020-09-06T06:53:48.000Z</time>
      </trkpt>
      <trkpt lat="47.26245" lon="-2.31963">
        <ele>-6.1999998092651</ele>
        <time>2020-09-06T06:53:49.000Z</time>
      </trkpt>
      <trkpt lat="47.26237" lon="-2.31963">
        <ele>-6.1999998092651</ele>
        <time>2020-09-06T06:53:51.000Z</time>
      </trkpt>
      <trkpt lat="47.2623" lon="-2.31969">
        <ele>-6.1999998092651</ele>
        <time>2020-09-06T06:53:53.000Z</time>
      </trkpt>
      <trkpt lat="47.26224" lon="-2.31976">
        <ele>-6.1999998092651</ele>
        <time>2020-09-06T06:53:55.000Z</time>
      </trkpt>
      <trkpt lat="47.26219" lon="-2.3198">
        <ele>-6.1999998092651</ele>
        <time>2020-09-06T06:53:57.000Z</time>
      </trkpt>
      <trkpt lat="47.26208" lon="-2.31988">
        <ele>-6.1999998092651</ele>
        <time>2020-09-06T06:54:01.000Z</time>
      </trkpt>
      <trkpt lat="47.26205" lon="-2.31995">
        <ele>-6.1999998092651</ele>
        <time>2020-09-06T06:54:03.000Z</time>
      </trkpt>
      <trkpt lat="47.26204" lon="-2.32001">
        <ele>-6.1999998092651</ele>
        <time>2020-09-06T06:54:05.000Z</time>
      </trkpt>
      <trkpt lat="47.26202" lon="-2.32005">
        <ele>-6.1999998092651</ele>
        <time>2020-09-06T06:54:07.000Z</time>
      </trkpt>
      <trkpt lat="47.26198" lon="-2.32005">
        <ele>-6.1999998092651</ele>
        <time>2020-09-06T06:54:09.000Z</time>
      </trkpt>
      <trkpt lat="47.26184" lon="-2.32001">
        <ele>-6.1999998092651</ele>
        <time>2020-09-06T06:54:14.000Z</time>
      </trkpt>
      <trkpt lat="47.26182" lon="-2.32001">
        <ele>-6.1999998092651</ele>
        <time>2020-09-06T06:54:15.000Z</time>
      </trkpt>
      <trkpt lat="47.26168" lon="-2.32011">
        <ele>-6.1999998092651</ele>
        <time>2020-09-06T06:54:20.000Z</time>
      </trkpt>
      <trkpt lat="47.26159" lon="-2.32027">
        <ele>-6.1999998092651</ele>
        <time>2020-09-06T06:54:25.000Z</time>
      </trkpt>
      <trkpt lat="47.26157" lon="-2.32037">
        <ele>-6.1999998092651</ele>
        <time>2020-09-06T06:54:27.000Z</time>
      </trkpt>
      <trkpt lat="47.26152" lon="-2.32053">
        <ele>-6.1999998092651</ele>
        <time>2020-09-06T06:54:30.000Z</time>
      </trkpt>
      <trkpt lat="47.26136" lon="-2.32105">
        <ele>-6.1999998092651</ele>
        <time>2020-09-06T06:54:39.000Z</time>
      </trkpt>
      <trkpt lat="47.26126" lon="-2.32133">
        <ele>-6.1999998092651</ele>
        <time>2020-09-06T06:54:44.000Z</time>
      </trkpt>
      <trkpt lat="47.26121" lon="-2.32145">
        <ele>-6.1999998092651</ele>
        <time>2020-09-06T06:54:46.000Z</time>
      </trkpt>
      <trkpt lat="47.26106" lon="-2.32182">
        <ele>-6.1999998092651</ele>
        <time>2020-09-06T06:54:52.000Z</time>
      </trkpt>
      <trkpt lat="47.26086" lon="-2.32214">
        <ele>-6.1999998092651</ele>
        <time>2020-09-06T06:54:58.000Z</time>
      </trkpt>
      <trkpt lat="47.26073" lon="-2.32233">
        <ele>-6.1999998092651</ele>
        <time>2020-09-06T06:55:02.000Z</time>
      </trkpt>
      <trkpt lat="47.26065" lon="-2.32242">
        <ele>-6.1999998092651</ele>
        <time>2020-09-06T06:55:04.000Z</time>
      </trkpt>
      <trkpt lat="47.26033" lon="-2.32277">
        <ele>-6.1999998092651</ele>
        <time>2020-09-06T06:55:12.000Z</time>
      </trkpt>
      <trkpt lat="47.26021" lon="-2.32291">
        <ele>-6.1999998092651</ele>
        <time>2020-09-06T06:55:15.000Z</time>
      </trkpt>
      <trkpt lat="47.26007" lon="-2.3231">
        <ele>-6.1999998092651</ele>
        <time>2020-09-06T06:55:19.000Z</time>
      </trkpt>
      <trkpt lat="47.25982" lon="-2.32346">
        <ele>-6.1999998092651</ele>
        <time>2020-09-06T06:55:26.000Z</time>
      </trkpt>
      <trkpt lat="47.25952" lon="-2.32384">
        <ele>-6.1999998092651</ele>
        <time>2020-09-06T06:55:34.000Z</time>
      </trkpt>
      <trkpt lat="47.25931" lon="-2.32412">
        <ele>-6.1999998092651</ele>
        <time>2020-09-06T06:55:40.000Z</time>
      </trkpt>
      <trkpt lat="47.25924" lon="-2.32422">
        <ele>-6.1999998092651</ele>
        <time>2020-09-06T06:55:42.000Z</time>
      </trkpt>
      <trkpt lat="47.25908" lon="-2.32445">
        <ele>-6.1999998092651</ele>
        <time>2020-09-06T06:55:47.000Z</time>
      </trkpt>
      <trkpt lat="47.25904" lon="-2.32449">
        <ele>-6.1999998092651</ele>
        <time>2020-09-06T06:55:48.000Z</time>
      </trkpt>
      <trkpt lat="47.25878" lon="-2.32468">
        <ele>-6.1999998092651</ele>
        <time>2020-09-06T06:55:55.000Z</time>
      </trkpt>
      <trkpt lat="47.2585" lon="-2.3247">
        <ele>-6.1999998092651</ele>
        <time>2020-09-06T06:56:01.000Z</time>
      </trkpt>
      <trkpt lat="47.25819" lon="-2.32459">
        <ele>-6.1999998092651</ele>
        <time>2020-09-06T06:56:08.000Z</time>
      </trkpt>
      <trkpt lat="47.25802" lon="-2.32451">
        <ele>-6.1999998092651</ele>
        <time>2020-09-06T06:56:12.000Z</time>
      </trkpt>
      <trkpt lat="47.25795" lon="-2.32451">
        <ele>-6.1999998092651</ele>
        <time>2020-09-06T06:56:14.000Z</time>
      </trkpt>
      <trkpt lat="47.2578" lon="-2.32448">
        <ele>-6.1999998092651</ele>
        <time>2020-09-06T06:56:18.000Z</time>
      </trkpt>
      <trkpt lat="47.25777" lon="-2.32443">
        <ele>-6.1999998092651</ele>
        <time>2020-09-06T06:56:19.000Z</time>
      </trkpt>
      <trkpt lat="47.25775" lon="-2.32438">
        <ele>-5.8000001907349</ele>
        <time>2020-09-06T06:56:20.000Z</time>
      </trkpt>
      <trkpt lat="47.25772" lon="-2.32434">
        <ele>-5.4000000953674</ele>
        <time>2020-09-06T06:56:21.000Z</time>
      </trkpt>
      <trkpt lat="47.25769" lon="-2.3243">
        <ele>-5</ele>
        <time>2020-09-06T06:56:22.000Z</time>
      </trkpt>
      <trkpt lat="47.25767" lon="-2.32426">
        <ele>-4.5999999046326</ele>
        <time>2020-09-06T06:56:23.000Z</time>
      </trkpt>
      <trkpt lat="47.25764" lon="-2.32422">
        <ele>-4.1999998092651</ele>
        <time>2020-09-06T06:56:24.000Z</time>
      </trkpt>
      <trkpt lat="47.2576" lon="-2.32419">
        <ele>-4.1999998092651</ele>
        <time>2020-09-06T06:56:25.000Z</time>
      </trkpt>
      <trkpt lat="47.2574" lon="-2.32417">
        <ele>-4.1999998092651</ele>
        <time>2020-09-06T06:56:29.000Z</time>
      </trkpt>
      <trkpt lat="47.25698" lon="-2.32418">
        <ele>-4.1999998092651</ele>
        <time>2020-09-06T06:56:37.000Z</time>
      </trkpt>
      <trkpt lat="47.25664" lon="-2.32418">
        <ele>-4.1999998092651</ele>
        <time>2020-09-06T06:56:44.000Z</time>
      </trkpt>
      <trkpt lat="47.25662" lon="-2.32439">
        <ele>-4.1999998092651</ele>
        <time>2020-09-06T06:56:47.000Z</time>
      </trkpt>
      <trkpt lat="47.25668" lon="-2.32465">
        <ele>-4.1999998092651</ele>
        <time>2020-09-06T06:56:51.000Z</time>
      </trkpt>
      <trkpt lat="47.25682" lon="-2.32511">
        <ele>-4.1999998092651</ele>
        <time>2020-09-06T06:56:59.000Z</time>
      </trkpt>
      <trkpt lat="47.2569" lon="-2.32534">
        <ele>-3.7999999523163</ele>
        <time>2020-09-06T06:57:03.000Z</time>
      </trkpt>
      <trkpt lat="47.25692" lon="-2.3254">
        <ele>-3.4000000953674</ele>
        <time>2020-09-06T06:57:04.000Z</time>
      </trkpt>
      <trkpt lat="47.25693" lon="-2.32545">
        <ele>-2.7999999523163</ele>
        <time>2020-09-06T06:57:05.000Z</time>
      </trkpt>
      <trkpt lat="47.25695" lon="-2.3255">
        <ele>-2.4000000953674</ele>
        <time>2020-09-06T06:57:06.000Z</time>
      </trkpt>
      <trkpt lat="47.25697" lon="-2.32555">
        <ele>-2</ele>
        <time>2020-09-06T06:57:07.000Z</time>
      </trkpt>
      <trkpt lat="47.25699" lon="-2.32561">
        <ele>-2</ele>
        <time>2020-09-06T06:57:08.000Z</time>
      </trkpt>
      <trkpt lat="47.25709" lon="-2.32605">
        <ele>-2</ele>
        <time>2020-09-06T06:57:16.000Z</time>
      </trkpt>
      <trkpt lat="47.25709" lon="-2.32611">
        <ele>-1.6000000238419</ele>
        <time>2020-09-06T06:57:17.000Z</time>
      </trkpt>
      <trkpt lat="47.25709" lon="-2.32617">
        <ele>-1.2000000476837</ele>
        <time>2020-09-06T06:57:18.000Z</time>
      </trkpt>
      <trkpt lat="47.25705" lon="-2.32621">
        <ele>-0.80000001192093</ele>
        <time>2020-09-06T06:57:19.000Z</time>
      </trkpt>
      <trkpt lat="47.25702" lon="-2.32624">
        <ele>-0.40000000596046</ele>
        <time>2020-09-06T06:57:20.000Z</time>
      </trkpt>
      <trkpt lat="47.25698" lon="-2.32627">
        <ele>9.9</ele>
        <time>2020-09-06T06:57:21.000Z</time>
      </trkpt>
      <trkpt lat="47.25686" lon="-2.32632">
        <ele>10.3</ele>
        <time>2020-09-06T06:57:24.000Z</time>
      </trkpt>
      <trkpt lat="47.25683" lon="-2.32633">
        <ele>10.4</ele>
        <time>2020-09-06T06:57:25.000Z</time>
      </trkpt>
      <trkpt lat="47.25656" lon="-2.32642">
        <ele>11.4</ele>
        <time>2020-09-06T06:57:32.000Z</time>
      </trkpt>
      <trkpt lat="47.25641" lon="-2.32649">
        <ele>0.40000000596046</ele>
        <time>2020-09-06T06:57:36.000Z</time>
      </trkpt>
      <trkpt lat="47.25637" lon="-2.3265">
        <ele>0.80000001192093</ele>
        <time>2020-09-06T06:57:37.000Z</time>
      </trkpt>
      <trkpt lat="47.25633" lon="-2.32652">
        <ele>1.2000000476837</ele>
        <time>2020-09-06T06:57:38.000Z</time>
      </trkpt>
      <trkpt lat="47.25629" lon="-2.32653">
        <ele>2.2000000476837</ele>
        <time>2020-09-06T06:57:39.000Z</time>
      </trkpt>
      <trkpt lat="47.25614" lon="-2.3266">
        <ele>2.2000000476837</ele>
        <time>2020-09-06T06:57:43.000Z</time>
      </trkpt>
      <trkpt lat="47.25578" lon="-2.32675">
        <ele>2.2000000476837</ele>
        <time>2020-09-06T06:57:52.000Z</time>
      </trkpt>
      <trkpt lat="47.25546" lon="-2.32689">
        <ele>2.2000000476837</ele>
        <time>2020-09-06T06:57:59.000Z</time>
      </trkpt>
      <trkpt lat="47.25513" lon="-2.32699">
        <ele>2.2000000476837</ele>
        <time>2020-09-06T06:58:06.000Z</time>
      </trkpt>
      <trkpt lat="47.25494" lon="-2.327">
        <ele>2.2000000476837</ele>
        <time>2020-09-06T06:58:10.000Z</time>
      </trkpt>
      <trkpt lat="47.25485" lon="-2.32704">
        <ele>2.2000000476837</ele>
        <time>2020-09-06T06:58:12.000Z</time>
      </trkpt>
      <trkpt lat="47.25476" lon="-2.32711">
        <ele>2.2000000476837</ele>
        <time>2020-09-06T06:58:14.000Z</time>
      </trkpt>
      <trkpt lat="47.25472" lon="-2.32716">
        <ele>2.2000000476837</ele>
        <time>2020-09-06T06:58:15.000Z</time>
      </trkpt>
      <trkpt lat="47.25461" lon="-2.3273">
        <ele>2.2000000476837</ele>
        <time>2020-09-06T06:58:18.000Z</time>
      </trkpt>
      <trkpt lat="47.25439" lon="-2.32768">
        <ele>2.2000000476837</ele>
        <time>2020-09-06T06:58:25.000Z</time>
      </trkpt>
      <trkpt lat="47.25429" lon="-2.3279">
        <ele>2.2000000476837</ele>
        <time>2020-09-06T06:58:29.000Z</time>
      </trkpt>
      <trkpt lat="47.25418" lon="-2.32805">
        <ele>2.2000000476837</ele>
        <time>2020-09-06T06:58:32.000Z</time>
      </trkpt>
      <trkpt lat="47.25411" lon="-2.32816">
        <ele>2.2000000476837</ele>
        <time>2020-09-06T06:58:34.000Z</time>
      </trkpt>
      <trkpt lat="47.25398" lon="-2.32832">
        <ele>2.2000000476837</ele>
        <time>2020-09-06T06:58:37.000Z</time>
      </trkpt>
      <trkpt lat="47.25376" lon="-2.32857">
        <ele>2.2000000476837</ele>
        <time>2020-09-06T06:58:42.000Z</time>
      </trkpt>
      <trkpt lat="47.25345" lon="-2.32889">
        <ele>2.2000000476837</ele>
        <time>2020-09-06T06:58:49.000Z</time>
      </trkpt>
      <trkpt lat="47.25331" lon="-2.32902">
        <ele>2.2000000476837</ele>
        <time>2020-09-06T06:58:52.000Z</time>
      </trkpt>
      <trkpt lat="47.25322" lon="-2.32912">
        <ele>2.2000000476837</ele>
        <time>2020-09-06T06:58:54.000Z</time>
      </trkpt>
      <trkpt lat="47.25318" lon="-2.32915">
        <ele>2.2000000476837</ele>
        <time>2020-09-06T06:58:55.000Z</time>
      </trkpt>
      <trkpt lat="47.25314" lon="-2.3292">
        <ele>2.2000000476837</ele>
        <time>2020-09-06T06:58:56.000Z</time>
      </trkpt>
      <trkpt lat="47.2531" lon="-2.32935">
        <ele>2.2000000476837</ele>
        <time>2020-09-06T06:58:58.000Z</time>
      </trkpt>
      <trkpt lat="47.25312" lon="-2.32957">
        <ele>2.2000000476837</ele>
        <time>2020-09-06T06:59:01.000Z</time>
      </trkpt>
      <trkpt lat="47.25314" lon="-2.32964">
        <ele>1.6000000238419</ele>
        <time>2020-09-06T06:59:02.000Z</time>
      </trkpt>
      <trkpt lat="47.25316" lon="-2.32972">
        <ele>1.2000000476837</ele>
        <time>2020-09-06T06:59:03.000Z</time>
      </trkpt>
      <trkpt lat="47.25318" lon="-2.32979">
        <ele>0.80000001192093</ele>
        <time>2020-09-06T06:59:04.000Z</time>
      </trkpt>
      <trkpt lat="47.25321" lon="-2.32986">
        <ele>0.40000000596046</ele>
        <time>2020-09-06T06:59:05.000Z</time>
      </trkpt>
      <trkpt lat="47.25323" lon="-2.32992">
        <ele>8.7</ele>
        <time>2020-09-06T06:59:06.000Z</time>
      </trkpt>
      <trkpt lat="47.25328" lon="-2.33006">
        <ele>8.8</ele>
        <time>2020-09-06T06:59:08.000Z</time>
      </trkpt>
      <trkpt lat="47.25344" lon="-2.33045">
        <ele>7.9</ele>
        <time>2020-09-06T06:59:14.000Z</time>
      </trkpt>
      <trkpt lat="47.25348" lon="-2.33058">
        <ele>7.6</ele>
        <time>2020-09-06T06:59:16.000Z</time>
      </trkpt>
      <trkpt lat="47.25364" lon="-2.33102">
        <ele>8</ele>
        <time>2020-09-06T06:59:23.000Z</time>
      </trkpt>
      <trkpt lat="47.25367" lon="-2.3311">
        <ele>8</ele>
        <time>2020-09-06T06:59:26.000Z</time>
      </trkpt>
      <trkpt lat="47.25368" lon="-2.33111">
        <ele>8</ele>
        <time>2020-09-06T06:59:27.000Z</time>
      </trkpt>
      <trkpt lat="47.25377" lon="-2.33119">
        <ele>-2</ele>
        <time>2020-09-06T07:09:26.000Z</time>
      </trkpt>
      <trkpt lat="47.25379" lon="-2.33123">
        <ele>-2</ele>
        <time>2020-09-06T07:09:28.000Z</time>
      </trkpt>
      <trkpt lat="47.25392" lon="-2.33151">
        <ele>-2</ele>
        <time>2020-09-06T07:09:36.000Z</time>
      </trkpt>
      <trkpt lat="47.25406" lon="-2.33181">
        <ele>-2</ele>
        <time>2020-09-06T07:09:43.000Z</time>
      </trkpt>
      <trkpt lat="47.25416" lon="-2.33203">
        <ele>-2</ele>
        <time>2020-09-06T07:09:49.000Z</time>
      </trkpt>
      <trkpt lat="47.25424" lon="-2.33223">
        <ele>-2</ele>
        <time>2020-09-06T07:09:55.000Z</time>
      </trkpt>
      <trkpt lat="47.25435" lon="-2.33248">
        <ele>-2</ele>
        <time>2020-09-06T07:10:00.000Z</time>
      </trkpt>
      <trkpt lat="47.25442" lon="-2.33265">
        <ele>-2</ele>
        <time>2020-09-06T07:10:03.000Z</time>
      </trkpt>
      <trkpt lat="47.25448" lon="-2.3328">
        <ele>-2</ele>
        <time>2020-09-06T07:10:06.000Z</time>
      </trkpt>
      <trkpt lat="47.25449" lon="-2.33306">
        <ele>-2</ele>
        <time>2020-09-06T07:10:11.000Z</time>
      </trkpt>
      <trkpt lat="47.25435" lon="-2.33339">
        <ele>-2</ele>
        <time>2020-09-06T07:10:18.000Z</time>
      </trkpt>
      <trkpt lat="47.25433" lon="-2.33345">
        <ele>-2</ele>
        <time>2020-09-06T07:10:19.000Z</time>
      </trkpt>
      <trkpt lat="47.25433" lon="-2.33359">
        <ele>-2</ele>
        <time>2020-09-06T07:10:21.000Z</time>
      </trkpt>
      <trkpt lat="47.25433" lon="-2.33372">
        <ele>-2</ele>
        <time>2020-09-06T07:10:23.000Z</time>
      </trkpt>
      <trkpt lat="47.25433" lon="-2.33397">
        <ele>-2</ele>
        <time>2020-09-06T07:10:27.000Z</time>
      </trkpt>
      <trkpt lat="47.25432" lon="-2.33452">
        <ele>-2</ele>
        <time>2020-09-06T07:10:36.000Z</time>
      </trkpt>
      <trkpt lat="47.25439" lon="-2.33485">
        <ele>-2</ele>
        <time>2020-09-06T07:10:43.000Z</time>
      </trkpt>
      <trkpt lat="47.25448" lon="-2.33514">
        <ele>-2</ele>
        <time>2020-09-06T07:10:50.000Z</time>
      </trkpt>
      <trkpt lat="47.25452" lon="-2.33543">
        <ele>-2</ele>
        <time>2020-09-06T07:10:56.000Z</time>
      </trkpt>
      <trkpt lat="47.25455" lon="-2.33561">
        <ele>-2</ele>
        <time>2020-09-06T07:11:01.000Z</time>
      </trkpt>
      <trkpt lat="47.25457" lon="-2.33571">
        <ele>-2.4000000953674</ele>
        <time>2020-09-06T07:11:04.000Z</time>
      </trkpt>
      <trkpt lat="47.25457" lon="-2.33574">
        <ele>-2.7999999523163</ele>
        <time>2020-09-06T07:11:05.000Z</time>
      </trkpt>
      <trkpt lat="47.25456" lon="-2.33577">
        <ele>-3.2000000476837</ele>
        <time>2020-09-06T07:11:06.000Z</time>
      </trkpt>
      <trkpt lat="47.25454" lon="-2.33579">
        <ele>-3.5999999046326</ele>
        <time>2020-09-06T07:11:07.000Z</time>
      </trkpt>
      <trkpt lat="47.25451" lon="-2.3358">
        <ele>-4</ele>
        <time>2020-09-06T07:11:08.000Z</time>
      </trkpt>
      <trkpt lat="47.2544" lon="-2.33591">
        <ele>-4</ele>
        <time>2020-09-06T07:11:12.000Z</time>
      </trkpt>
      <trkpt lat="47.25441" lon="-2.33612">
        <ele>-4</ele>
        <time>2020-09-06T07:11:16.000Z</time>
      </trkpt>
      <trkpt lat="47.25443" lon="-2.33643">
        <ele>-4</ele>
        <time>2020-09-06T07:11:21.000Z</time>
      </trkpt>
      <trkpt lat="47.25444" lon="-2.3365">
        <ele>-4</ele>
        <time>2020-09-06T07:11:22.000Z</time>
      </trkpt>
      <trkpt lat="47.25449" lon="-2.33681">
        <ele>-4</ele>
        <time>2020-09-06T07:11:27.000Z</time>
      </trkpt>
      <trkpt lat="47.2545" lon="-2.33694">
        <ele>-4</ele>
        <time>2020-09-06T07:11:29.000Z</time>
      </trkpt>
      <trkpt lat="47.25457" lon="-2.33735">
        <ele>-4</ele>
        <time>2020-09-06T07:11:35.000Z</time>
      </trkpt>
      <trkpt lat="47.25469" lon="-2.3375">
        <ele>-4</ele>
        <time>2020-09-06T07:11:39.000Z</time>
      </trkpt>
      <trkpt lat="47.25491" lon="-2.33756">
        <ele>-4</ele>
        <time>2020-09-06T07:11:44.000Z</time>
      </trkpt>
      <trkpt lat="47.25525" lon="-2.33755">
        <ele>-4</ele>
        <time>2020-09-06T07:11:51.000Z</time>
      </trkpt>
      <trkpt lat="47.25556" lon="-2.33754">
        <ele>-4</ele>
        <time>2020-09-06T07:11:58.000Z</time>
      </trkpt>
      <trkpt lat="47.25591" lon="-2.33753">
        <ele>-4</ele>
        <time>2020-09-06T07:12:06.000Z</time>
      </trkpt>
      <trkpt lat="47.25618" lon="-2.33759">
        <ele>-4</ele>
        <time>2020-09-06T07:12:13.000Z</time>
      </trkpt>
      <trkpt lat="47.25635" lon="-2.33771">
        <ele>-4</ele>
        <time>2020-09-06T07:12:18.000Z</time>
      </trkpt>
      <trkpt lat="47.25637" lon="-2.33776">
        <ele>-4</ele>
        <time>2020-09-06T07:12:19.000Z</time>
      </trkpt>
      <trkpt lat="47.25638" lon="-2.33787">
        <ele>-4</ele>
        <time>2020-09-06T07:12:21.000Z</time>
      </trkpt>
      <trkpt lat="47.25641" lon="-2.33822">
        <ele>-4</ele>
        <time>2020-09-06T07:12:26.000Z</time>
      </trkpt>
      <trkpt lat="47.25649" lon="-2.3387">
        <ele>-4</ele>
        <time>2020-09-06T07:12:33.000Z</time>
      </trkpt>
      <trkpt lat="47.25658" lon="-2.33918">
        <ele>-4</ele>
        <time>2020-09-06T07:12:40.000Z</time>
      </trkpt>
      <trkpt lat="47.25663" lon="-2.3396">
        <ele>-4</ele>
        <time>2020-09-06T07:12:46.000Z</time>
      </trkpt>
      <trkpt lat="47.25662" lon="-2.33967">
        <ele>-4</ele>
        <time>2020-09-06T07:12:47.000Z</time>
      </trkpt>
      <trkpt lat="47.25653" lon="-2.34016">
        <ele>-4</ele>
        <time>2020-09-06T07:12:54.000Z</time>
      </trkpt>
      <trkpt lat="47.25648" lon="-2.34051">
        <ele>-4</ele>
        <time>2020-09-06T07:12:59.000Z</time>
      </trkpt>
      <trkpt lat="47.25645" lon="-2.34072">
        <ele>-4</ele>
        <time>2020-09-06T07:13:02.000Z</time>
      </trkpt>
      <trkpt lat="47.25643" lon="-2.34092">
        <ele>-4</ele>
        <time>2020-09-06T07:13:05.000Z</time>
      </trkpt>
      <trkpt lat="47.25644" lon="-2.34114">
        <ele>-4</ele>
        <time>2020-09-06T07:13:08.000Z</time>
      </trkpt>
      <trkpt lat="47.25644" lon="-2.34121">
        <ele>-4</ele>
        <time>2020-09-06T07:13:09.000Z</time>
      </trkpt>
      <trkpt lat="47.25652" lon="-2.34146">
        <ele>-4</ele>
        <time>2020-09-06T07:13:13.000Z</time>
      </trkpt>
      <trkpt lat="47.25657" lon="-2.34156">
        <ele>-4</ele>
        <time>2020-09-06T07:13:15.000Z</time>
      </trkpt>
      <trkpt lat="47.25672" lon="-2.34184">
        <ele>-4</ele>
        <time>2020-09-06T07:13:20.000Z</time>
      </trkpt>
      <trkpt lat="47.25675" lon="-2.34188">
        <ele>-4</ele>
        <time>2020-09-06T07:13:21.000Z</time>
      </trkpt>
      <trkpt lat="47.25689" lon="-2.34192">
        <ele>-4</ele>
        <time>2020-09-06T07:13:24.000Z</time>
      </trkpt>
      <trkpt lat="47.257" lon="-2.3419">
        <ele>-4</ele>
        <time>2020-09-06T07:13:26.000Z</time>
      </trkpt>
      <trkpt lat="47.25716" lon="-2.34186">
        <ele>-4</ele>
        <time>2020-09-06T07:13:29.000Z</time>
      </trkpt>
      <trkpt lat="47.25757" lon="-2.34179">
        <ele>-4</ele>
        <time>2020-09-06T07:13:36.000Z</time>
      </trkpt>
      <trkpt lat="47.25788" lon="-2.34172">
        <ele>-4</ele>
        <time>2020-09-06T07:13:42.000Z</time>
      </trkpt>
      <trkpt lat="47.25798" lon="-2.34173">
        <ele>-4</ele>
        <time>2020-09-06T07:13:44.000Z</time>
      </trkpt>
      <trkpt lat="47.2581" lon="-2.34176">
        <ele>-4</ele>
        <time>2020-09-06T07:13:47.000Z</time>
      </trkpt>
      <trkpt lat="47.25828" lon="-2.34175">
        <ele>-4</ele>
        <time>2020-09-06T07:13:51.000Z</time>
      </trkpt>
      <trkpt lat="47.25832" lon="-2.34172">
        <ele>-4</ele>
        <time>2020-09-06T07:13:52.000Z</time>
      </trkpt>
      <trkpt lat="47.25837" lon="-2.34157">
        <ele>-4</ele>
        <time>2020-09-06T07:13:55.000Z</time>
      </trkpt>
      <trkpt lat="47.25846" lon="-2.34154">
        <ele>-4</ele>
        <time>2020-09-06T07:13:58.000Z</time>
      </trkpt>
      <trkpt lat="47.25854" lon="-2.34156">
        <ele>-4</ele>
        <time>2020-09-06T07:14:00.000Z</time>
      </trkpt>
      <trkpt lat="47.25858" lon="-2.34157">
        <ele>-4</ele>
        <time>2020-09-06T07:14:01.000Z</time>
      </trkpt>
      <trkpt lat="47.25863" lon="-2.34158">
        <ele>-4</ele>
        <time>2020-09-06T07:14:02.000Z</time>
      </trkpt>
      <trkpt lat="47.25869" lon="-2.34162">
        <ele>-4.4000000953674</ele>
        <time>2020-09-06T07:14:04.000Z</time>
      </trkpt>
      <trkpt lat="47.25871" lon="-2.34162">
        <ele>-4.8000001907349</ele>
        <time>2020-09-06T07:14:05.000Z</time>
      </trkpt>
      <trkpt lat="47.25873" lon="-2.34162">
        <ele>-5.4000000953674</ele>
        <time>2020-09-06T07:14:06.000Z</time>
      </trkpt>
      <trkpt lat="47.25875" lon="-2.3416">
        <ele>-5.8000001907349</ele>
        <time>2020-09-06T07:14:07.000Z</time>
      </trkpt>
      <trkpt lat="47.25876" lon="-2.34157">
        <ele>-6.1999998092651</ele>
        <time>2020-09-06T07:14:08.000Z</time>
      </trkpt>
      <trkpt lat="47.25877" lon="-2.34154">
        <ele>-6.1999998092651</ele>
        <time>2020-09-06T07:14:09.000Z</time>
      </trkpt>
      <trkpt lat="47.25879" lon="-2.34152">
        <ele>-6.1999998092651</ele>
        <time>2020-09-06T07:14:10.000Z</time>
      </trkpt>
      <trkpt lat="47.25885" lon="-2.3415">
        <ele>-6.1999998092651</ele>
        <time>2020-09-06T07:14:12.000Z</time>
      </trkpt>
      <trkpt lat="47.25895" lon="-2.34147">
        <ele>-6.1999998092651</ele>
        <time>2020-09-06T07:14:15.000Z</time>
      </trkpt>
      <trkpt lat="47.25899" lon="-2.34146">
        <ele>-6.1999998092651</ele>
        <time>2020-09-06T07:14:16.000Z</time>
      </trkpt>
      <trkpt lat="47.25912" lon="-2.34139">
        <ele>-6.1999998092651</ele>
        <time>2020-09-06T07:14:19.000Z</time>
      </trkpt>
      <trkpt lat="47.25924" lon="-2.34133">
        <ele>-6.1999998092651</ele>
        <time>2020-09-06T07:14:22.000Z</time>
      </trkpt>
      <trkpt lat="47.25959" lon="-2.3411">
        <ele>-6.1999998092651</ele>
        <time>2020-09-06T07:14:31.000Z</time>
      </trkpt>
      <trkpt lat="47.25977" lon="-2.3411">
        <ele>-6.1999998092651</ele>
        <time>2020-09-06T07:14:35.000Z</time>
      </trkpt>
      <trkpt lat="47.26009" lon="-2.34121">
        <ele>-6.1999998092651</ele>
        <time>2020-09-06T07:14:42.000Z</time>
      </trkpt>
      <trkpt lat="47.26042" lon="-2.34135">
        <ele>-6.1999998092651</ele>
        <time>2020-09-06T07:14:49.000Z</time>
      </trkpt>
      <trkpt lat="47.26088" lon="-2.34157">
        <ele>-6.1999998092651</ele>
        <time>2020-09-06T07:14:59.000Z</time>
      </trkpt>
      <trkpt lat="47.26117" lon="-2.34171">
        <ele>-6.1999998092651</ele>
        <time>2020-09-06T07:15:06.000Z</time>
      </trkpt>
      <trkpt lat="47.2612" lon="-2.34175">
        <ele>-6.1999998092651</ele>
        <time>2020-09-06T07:15:07.000Z</time>
      </trkpt>
      <trkpt lat="47.26134" lon="-2.34188">
        <ele>-6.1999998092651</ele>
        <time>2020-09-06T07:15:12.000Z</time>
      </trkpt>
      <trkpt lat="47.26147" lon="-2.34193">
        <ele>-6.1999998092651</ele>
        <time>2020-09-06T07:15:17.000Z</time>
      </trkpt>
      <trkpt lat="47.26152" lon="-2.34194">
        <ele>-6.1999998092651</ele>
        <time>2020-09-06T07:15:19.000Z</time>
      </trkpt>
      <trkpt lat="47.26155" lon="-2.3419">
        <ele>-6.1999998092651</ele>
        <time>2020-09-06T07:15:21.000Z</time>
      </trkpt>
      <trkpt lat="47.26157" lon="-2.34184">
        <ele>-6.1999998092651</ele>
        <time>2020-09-06T07:15:23.000Z</time>
      </trkpt>
      <trkpt lat="47.26159" lon="-2.34181">
        <ele>-6.1999998092651</ele>
        <time>2020-09-06T07:15:24.000Z</time>
      </trkpt>
      <trkpt lat="47.26166" lon="-2.34182">
        <ele>-6.1999998092651</ele>
        <time>2020-09-06T07:15:26.000Z</time>
      </trkpt>
      <trkpt lat="47.26177" lon="-2.34192">
        <ele>-6.1999998092651</ele>
        <time>2020-09-06T07:15:29.000Z</time>
      </trkpt>
      <trkpt lat="47.26182" lon="-2.34197">
        <ele>-6.1999998092651</ele>
        <time>2020-09-06T07:15:30.000Z</time>
      </trkpt>
      <trkpt lat="47.26216" lon="-2.34234">
        <ele>-6.1999998092651</ele>
        <time>2020-09-06T07:15:38.000Z</time>
      </trkpt>
      <trkpt lat="47.2626" lon="-2.34281">
        <ele>-6.1999998092651</ele>
        <time>2020-09-06T07:15:48.000Z</time>
      </trkpt>
      <trkpt lat="47.26293" lon="-2.34318">
        <ele>-6.1999998092651</ele>
        <time>2020-09-06T07:15:56.000Z</time>
      </trkpt>
      <trkpt lat="47.26324" lon="-2.34348">
        <ele>-6.1999998092651</ele>
        <time>2020-09-06T07:16:03.000Z</time>
      </trkpt>
      <trkpt lat="47.26329" lon="-2.3435">
        <ele>-6.1999998092651</ele>
        <time>2020-09-06T07:16:04.000Z</time>
      </trkpt>
      <trkpt lat="47.26339" lon="-2.34357">
        <ele>-6.1999998092651</ele>
        <time>2020-09-06T07:16:06.000Z</time>
      </trkpt>
      <trkpt lat="47.26347" lon="-2.34369">
        <ele>-6.1999998092651</ele>
        <time>2020-09-06T07:16:08.000Z</time>
      </trkpt>
      <trkpt lat="47.26352" lon="-2.34373">
        <ele>-6.1999998092651</ele>
        <time>2020-09-06T07:16:09.000Z</time>
      </trkpt>
      <trkpt lat="47.26367" lon="-2.34385">
        <ele>-6.1999998092651</ele>
        <time>2020-09-06T07:16:12.000Z</time>
      </trkpt>
      <trkpt lat="47.2641" lon="-2.3442">
        <ele>-6.1999998092651</ele>
        <time>2020-09-06T07:16:20.000Z</time>
      </trkpt>
      <trkpt lat="47.26427" lon="-2.34434">
        <ele>-6.1999998092651</ele>
        <time>2020-09-06T07:16:23.000Z</time>
      </trkpt>
      <trkpt lat="47.26454" lon="-2.34454">
        <ele>-6.1999998092651</ele>
        <time>2020-09-06T07:16:28.000Z</time>
      </trkpt>
      <trkpt lat="47.26502" lon="-2.34492">
        <ele>-6.1999998092651</ele>
        <time>2020-09-06T07:16:37.000Z</time>
      </trkpt>
      <trkpt lat="47.2653" lon="-2.34513">
        <ele>-6.1999998092651</ele>
        <time>2020-09-06T07:16:42.000Z</time>
      </trkpt>
      <trkpt lat="47.26541" lon="-2.3452">
        <ele>-6.1999998092651</ele>
        <time>2020-09-06T07:16:44.000Z</time>
      </trkpt>
      <trkpt lat="47.26549" lon="-2.34532">
        <ele>-6.1999998092651</ele>
        <time>2020-09-06T07:16:46.000Z</time>
      </trkpt>
      <trkpt lat="47.26563" lon="-2.34548">
        <ele>-6.1999998092651</ele>
        <time>2020-09-06T07:16:49.000Z</time>
      </trkpt>
      <trkpt lat="47.26573" lon="-2.34559">
        <ele>-6.1999998092651</ele>
        <time>2020-09-06T07:16:51.000Z</time>
      </trkpt>
      <trkpt lat="47.26606" lon="-2.34595">
        <ele>-6.1999998092651</ele>
        <time>2020-09-06T07:16:58.000Z</time>
      </trkpt>
      <trkpt lat="47.26647" lon="-2.34643">
        <ele>-6.1999998092651</ele>
        <time>2020-09-06T07:17:06.000Z</time>
      </trkpt>
      <trkpt lat="47.26657" lon="-2.34655">
        <ele>-5.8000001907349</ele>
        <time>2020-09-06T07:17:08.000Z</time>
      </trkpt>
      <trkpt lat="47.26662" lon="-2.34661">
        <ele>-5.4000000953674</ele>
        <time>2020-09-06T07:17:09.000Z</time>
      </trkpt>
      <trkpt lat="47.26667" lon="-2.34667">
        <ele>-5</ele>
        <time>2020-09-06T07:17:10.000Z</time>
      </trkpt>
      <trkpt lat="47.26671" lon="-2.34673">
        <ele>-4.5999999046326</ele>
        <time>2020-09-06T07:17:11.000Z</time>
      </trkpt>
      <trkpt lat="47.26676" lon="-2.34679">
        <ele>-4.1999998092651</ele>
        <time>2020-09-06T07:17:12.000Z</time>
      </trkpt>
      <trkpt lat="47.26691" lon="-2.34697">
        <ele>-4.1999998092651</ele>
        <time>2020-09-06T07:17:15.000Z</time>
      </trkpt>
      <trkpt lat="47.2673" lon="-2.34745">
        <ele>-4.1999998092651</ele>
        <time>2020-09-06T07:17:23.000Z</time>
      </trkpt>
      <trkpt lat="47.26775" lon="-2.348">
        <ele>-4.1999998092651</ele>
        <time>2020-09-06T07:17:32.000Z</time>
      </trkpt>
      <trkpt lat="47.26779" lon="-2.34807">
        <ele>-4.1999998092651</ele>
        <time>2020-09-06T07:17:33.000Z</time>
      </trkpt>
      <trkpt lat="47.26802" lon="-2.3484">
        <ele>-4.1999998092651</ele>
        <time>2020-09-06T07:17:38.000Z</time>
      </trkpt>
      <trkpt lat="47.2684" lon="-2.34896">
        <ele>-4.1999998092651</ele>
        <time>2020-09-06T07:17:47.000Z</time>
      </trkpt>
      <trkpt lat="47.26879" lon="-2.34956">
        <ele>-4.1999998092651</ele>
        <time>2020-09-06T07:17:56.000Z</time>
      </trkpt>
      <trkpt lat="47.2692" lon="-2.35017">
        <ele>-4.1999998092651</ele>
        <time>2020-09-06T07:18:05.000Z</time>
      </trkpt>
      <trkpt lat="47.26958" lon="-2.35076">
        <ele>-4.1999998092651</ele>
        <time>2020-09-06T07:18:14.000Z</time>
      </trkpt>
      <trkpt lat="47.26991" lon="-2.35126">
        <ele>-4.1999998092651</ele>
        <time>2020-09-06T07:18:22.000Z</time>
      </trkpt>
      <trkpt lat="47.27018" lon="-2.35169">
        <ele>-4.1999998092651</ele>
        <time>2020-09-06T07:18:29.000Z</time>
      </trkpt>
      <trkpt lat="47.27045" lon="-2.35208">
        <ele>-4.1999998092651</ele>
        <time>2020-09-06T07:18:36.000Z</time>
      </trkpt>
      <trkpt lat="47.27049" lon="-2.35215">
        <ele>-4.1999998092651</ele>
        <time>2020-09-06T07:18:37.000Z</time>
      </trkpt>
      <trkpt lat="47.27068" lon="-2.35244">
        <ele>-4.1999998092651</ele>
        <time>2020-09-06T07:18:41.000Z</time>
      </trkpt>
      <trkpt lat="47.27103" lon="-2.35298">
        <ele>-4.1999998092651</ele>
        <time>2020-09-06T07:18:49.000Z</time>
      </trkpt>
      <trkpt lat="47.27139" lon="-2.35358">
        <ele>-4.1999998092651</ele>
        <time>2020-09-06T07:18:58.000Z</time>
      </trkpt>
      <trkpt lat="47.2717" lon="-2.35418">
        <ele>-4.1999998092651</ele>
        <time>2020-09-06T07:19:07.000Z</time>
      </trkpt>
      <trkpt lat="47.27198" lon="-2.35472">
        <ele>-4.1999998092651</ele>
        <time>2020-09-06T07:19:15.000Z</time>
      </trkpt>
      <trkpt lat="47.27226" lon="-2.35527">
        <ele>-4.1999998092651</ele>
        <time>2020-09-06T07:19:23.000Z</time>
      </trkpt>
      <trkpt lat="47.27257" lon="-2.35594">
        <ele>-4.1999998092651</ele>
        <time>2020-09-06T07:19:32.000Z</time>
      </trkpt>
      <trkpt lat="47.27285" lon="-2.35658">
        <ele>-4.1999998092651</ele>
        <time>2020-09-06T07:19:40.000Z</time>
      </trkpt>
      <trkpt lat="47.27307" lon="-2.357">
        <ele>-4.1999998092651</ele>
        <time>2020-09-06T07:19:46.000Z</time>
      </trkpt>
      <trkpt lat="47.27316" lon="-2.35719">
        <ele>-4.5999999046326</ele>
        <time>2020-09-06T07:19:49.000Z</time>
      </trkpt>
      <trkpt lat="47.27319" lon="-2.35725">
        <ele>-5</ele>
        <time>2020-09-06T07:19:50.000Z</time>
      </trkpt>
      <trkpt lat="47.27322" lon="-2.35731">
        <ele>-5.4000000953674</ele>
        <time>2020-09-06T07:19:51.000Z</time>
      </trkpt>
      <trkpt lat="47.27325" lon="-2.35739">
        <ele>-5.8000001907349</ele>
        <time>2020-09-06T07:19:52.000Z</time>
      </trkpt>
      <trkpt lat="47.27327" lon="-2.35747">
        <ele>-6.1999998092651</ele>
        <time>2020-09-06T07:19:53.000Z</time>
      </trkpt>
      <trkpt lat="47.27336" lon="-2.35771">
        <ele>-6.1999998092651</ele>
        <time>2020-09-06T07:19:56.000Z</time>
      </trkpt>
      <trkpt lat="47.27338" lon="-2.3578">
        <ele>-6.1999998092651</ele>
        <time>2020-09-06T07:19:57.000Z</time>
      </trkpt>
      <trkpt lat="47.2736" lon="-2.35838">
        <ele>-6.1999998092651</ele>
        <time>2020-09-06T07:20:04.000Z</time>
      </trkpt>
      <trkpt lat="47.27384" lon="-2.35902">
        <ele>-6.1999998092651</ele>
        <time>2020-09-06T07:20:12.000Z</time>
      </trkpt>
      <trkpt lat="47.27393" lon="-2.35925">
        <ele>-5.8000001907349</ele>
        <time>2020-09-06T07:20:15.000Z</time>
      </trkpt>
      <trkpt lat="47.27397" lon="-2.35933">
        <ele>-5.4000000953674</ele>
        <time>2020-09-06T07:20:16.000Z</time>
      </trkpt>
      <trkpt lat="47.274" lon="-2.3594">
        <ele>-5</ele>
        <time>2020-09-06T07:20:17.000Z</time>
      </trkpt>
      <trkpt lat="47.27403" lon="-2.35947">
        <ele>-4.5999999046326</ele>
        <time>2020-09-06T07:20:18.000Z</time>
      </trkpt>
      <trkpt lat="47.27405" lon="-2.35954">
        <ele>-4.1999998092651</ele>
        <time>2020-09-06T07:20:19.000Z</time>
      </trkpt>
      <trkpt lat="47.27416" lon="-2.35984">
        <ele>-4.1999998092651</ele>
        <time>2020-09-06T07:20:23.000Z</time>
      </trkpt>
      <trkpt lat="47.2744" lon="-2.36035">
        <ele>-4.1999998092651</ele>
        <time>2020-09-06T07:20:31.000Z</time>
      </trkpt>
      <trkpt lat="47.27447" lon="-2.36046">
        <ele>-4.1999998092651</ele>
        <time>2020-09-06T07:20:33.000Z</time>
      </trkpt>
      <trkpt lat="47.27457" lon="-2.36056">
        <ele>-4.1999998092651</ele>
        <time>2020-09-06T07:20:36.000Z</time>
      </trkpt>
      <trkpt lat="47.27474" lon="-2.36071">
        <ele>-4.1999998092651</ele>
        <time>2020-09-06T07:20:40.000Z</time>
      </trkpt>
      <trkpt lat="47.27483" lon="-2.36076">
        <ele>-4.1999998092651</ele>
        <time>2020-09-06T07:20:42.000Z</time>
      </trkpt>
      <trkpt lat="47.27492" lon="-2.36084">
        <ele>-4.1999998092651</ele>
        <time>2020-09-06T07:20:44.000Z</time>
      </trkpt>
      <trkpt lat="47.27507" lon="-2.36099">
        <ele>-4.1999998092651</ele>
        <time>2020-09-06T07:20:47.000Z</time>
      </trkpt>
      <trkpt lat="47.27547" lon="-2.36135">
        <ele>-4.1999998092651</ele>
        <time>2020-09-06T07:20:55.000Z</time>
      </trkpt>
      <trkpt lat="47.27586" lon="-2.36171">
        <ele>-4.1999998092651</ele>
        <time>2020-09-06T07:21:03.000Z</time>
      </trkpt>
      <trkpt lat="47.27625" lon="-2.36205">
        <ele>-4.1999998092651</ele>
        <time>2020-09-06T07:21:11.000Z</time>
      </trkpt>
      <trkpt lat="47.27646" lon="-2.36211">
        <ele>-4.1999998092651</ele>
        <time>2020-09-06T07:21:15.000Z</time>
      </trkpt>
      <trkpt lat="47.27659" lon="-2.36232">
        <ele>-4.1999998092651</ele>
        <time>2020-09-06T07:21:18.000Z</time>
      </trkpt>
      <trkpt lat="47.27675" lon="-2.36248">
        <ele>-4.1999998092651</ele>
        <time>2020-09-06T07:21:21.000Z</time>
      </trkpt>
      <trkpt lat="47.27681" lon="-2.36253">
        <ele>-4.1999998092651</ele>
        <time>2020-09-06T07:21:22.000Z</time>
      </trkpt>
      <trkpt lat="47.27721" lon="-2.36288">
        <ele>-4.1999998092651</ele>
        <time>2020-09-06T07:21:29.000Z</time>
      </trkpt>
      <trkpt lat="47.27772" lon="-2.3633">
        <ele>-4.1999998092651</ele>
        <time>2020-09-06T07:21:38.000Z</time>
      </trkpt>
      <trkpt lat="47.27814" lon="-2.36366">
        <ele>-4.1999998092651</ele>
        <time>2020-09-06T07:21:45.000Z</time>
      </trkpt>
      <trkpt lat="47.27826" lon="-2.36376">
        <ele>-4.5999999046326</ele>
        <time>2020-09-06T07:21:47.000Z</time>
      </trkpt>
      <trkpt lat="47.27832" lon="-2.36381">
        <ele>-5</ele>
        <time>2020-09-06T07:21:48.000Z</time>
      </trkpt>
      <trkpt lat="47.27837" lon="-2.36386">
        <ele>-5.4000000953674</ele>
        <time>2020-09-06T07:21:49.000Z</time>
      </trkpt>
      <trkpt lat="47.27843" lon="-2.36391">
        <ele>-5.8000001907349</ele>
        <time>2020-09-06T07:21:50.000Z</time>
      </trkpt>
      <trkpt lat="47.27848" lon="-2.36396">
        <ele>-6.1999998092651</ele>
        <time>2020-09-06T07:21:51.000Z</time>
      </trkpt>
      <trkpt lat="47.27881" lon="-2.36421">
        <ele>-6.1999998092651</ele>
        <time>2020-09-06T07:21:57.000Z</time>
      </trkpt>
      <trkpt lat="47.279" lon="-2.36421">
        <ele>-6.1999998092651</ele>
        <time>2020-09-06T07:22:00.000Z</time>
      </trkpt>
      <trkpt lat="47.27915" lon="-2.36405">
        <ele>-6.1999998092651</ele>
        <time>2020-09-06T07:22:03.000Z</time>
      </trkpt>
      <trkpt lat="47.27919" lon="-2.36399">
        <ele>-6.1999998092651</ele>
        <time>2020-09-06T07:22:04.000Z</time>
      </trkpt>
      <trkpt lat="47.27958" lon="-2.36356">
        <ele>-6.1999998092651</ele>
        <time>2020-09-06T07:22:12.000Z</time>
      </trkpt>
      <trkpt lat="47.27982" lon="-2.36328">
        <ele>-6.1999998092651</ele>
        <time>2020-09-06T07:22:18.000Z</time>
      </trkpt>
      <trkpt lat="47.27995" lon="-2.36312">
        <ele>-6.1999998092651</ele>
        <time>2020-09-06T07:22:22.000Z</time>
      </trkpt>
      <trkpt lat="47.28004" lon="-2.36312">
        <ele>-6.1999998092651</ele>
        <time>2020-09-06T07:22:24.000Z</time>
      </trkpt>
      <trkpt lat="47.28016" lon="-2.36327">
        <ele>-6.1999998092651</ele>
        <time>2020-09-06T07:22:27.000Z</time>
      </trkpt>
      <trkpt lat="47.28019" lon="-2.36332">
        <ele>-6.1999998092651</ele>
        <time>2020-09-06T07:22:28.000Z</time>
      </trkpt>
      <trkpt lat="47.28039" lon="-2.36366">
        <ele>-6.1999998092651</ele>
        <time>2020-09-06T07:22:34.000Z</time>
      </trkpt>
      <trkpt lat="47.28063" lon="-2.36408">
        <ele>-6.1999998092651</ele>
        <time>2020-09-06T07:22:41.000Z</time>
      </trkpt>
      <trkpt lat="47.28083" lon="-2.36442">
        <ele>-6.1999998092651</ele>
        <time>2020-09-06T07:22:47.000Z</time>
      </trkpt>
      <trkpt lat="47.28095" lon="-2.36462">
        <ele>-5.8000001907349</ele>
        <time>2020-09-06T07:22:51.000Z</time>
      </trkpt>
      <trkpt lat="47.28097" lon="-2.36466">
        <ele>-5.4000000953674</ele>
        <time>2020-09-06T07:22:52.000Z</time>
      </trkpt>
      <trkpt lat="47.281" lon="-2.3647">
        <ele>-4.8000001907349</ele>
        <time>2020-09-06T07:22:53.000Z</time>
      </trkpt>
      <trkpt lat="47.28102" lon="-2.36474">
        <ele>-4.4000000953674</ele>
        <time>2020-09-06T07:22:54.000Z</time>
      </trkpt>
      <trkpt lat="47.28105" lon="-2.36477">
        <ele>-4</ele>
        <time>2020-09-06T07:22:55.000Z</time>
      </trkpt>
      <trkpt lat="47.28113" lon="-2.36485">
        <ele>-4</ele>
        <time>2020-09-06T07:22:59.000Z</time>
      </trkpt>
      <trkpt lat="47.28114" lon="-2.36483">
        <ele>-3.5999999046326</ele>
        <time>2020-09-06T07:23:00.000Z</time>
      </trkpt>
      <trkpt lat="47.28115" lon="-2.3648">
        <ele>-3.2000000476837</ele>
        <time>2020-09-06T07:23:01.000Z</time>
      </trkpt>
      <trkpt lat="47.28115" lon="-2.36476">
        <ele>-2.7999999523163</ele>
        <time>2020-09-06T07:23:02.000Z</time>
      </trkpt>
      <trkpt lat="47.28117" lon="-2.3647">
        <ele>-2.2000000476837</ele>
        <time>2020-09-06T07:23:03.000Z</time>
      </trkpt>
      <trkpt lat="47.28117" lon="-2.36465">
        <ele>-1.7999999523163</ele>
        <time>2020-09-06T07:23:04.000Z</time>
      </trkpt>
      <trkpt lat="47.28123" lon="-2.36434">
        <ele>-1.7999999523163</ele>
        <time>2020-09-06T07:23:09.000Z</time>
      </trkpt>
      <trkpt lat="47.28125" lon="-2.36427">
        <ele>-1.7999999523163</ele>
        <time>2020-09-06T07:23:10.000Z</time>
      </trkpt>
      <trkpt lat="47.28137" lon="-2.36408">
        <ele>-1.7999999523163</ele>
        <time>2020-09-06T07:23:14.000Z</time>
      </trkpt>
      <trkpt lat="47.28139" lon="-2.36404">
        <ele>-1.7999999523163</ele>
        <time>2020-09-06T07:23:15.000Z</time>
      </trkpt>
      <trkpt lat="47.28149" lon="-2.36386">
        <ele>-1.3999999761581</ele>
        <time>2020-09-06T07:23:20.000Z</time>
      </trkpt>
      <trkpt lat="47.28151" lon="-2.36382">
        <ele>-1</ele>
        <time>2020-09-06T07:23:21.000Z</time>
      </trkpt>
      <trkpt lat="47.28154" lon="-2.36378">
        <ele>-0.60000002384186</ele>
        <time>2020-09-06T07:23:22.000Z</time>
      </trkpt>
      <trkpt lat="47.28156" lon="-2.36373">
        <ele>-0.20000000298023</ele>
        <time>2020-09-06T07:23:23.000Z</time>
      </trkpt>
      <trkpt lat="47.2816" lon="-2.36369">
        <ele>0.40000000596046</ele>
        <time>2020-09-06T07:23:24.000Z</time>
      </trkpt>
      <trkpt lat="47.28163" lon="-2.36368">
        <ele>0.40000000596046</ele>
        <time>2020-09-06T07:23:25.000Z</time>
      </trkpt>
      <trkpt lat="47.28179" lon="-2.36361">
        <ele>0.40000000596046</ele>
        <time>2020-09-06T07:23:29.000Z</time>
      </trkpt>
      <trkpt lat="47.28183" lon="-2.36363">
        <ele>0.80000001192093</ele>
        <time>2020-09-06T07:23:30.000Z</time>
      </trkpt>
      <trkpt lat="47.28187" lon="-2.36365">
        <ele>1.2000000476837</ele>
        <time>2020-09-06T07:23:31.000Z</time>
      </trkpt>
      <trkpt lat="47.28191" lon="-2.36366">
        <ele>1.6000000238419</ele>
        <time>2020-09-06T07:23:32.000Z</time>
      </trkpt>
      <trkpt lat="47.28195" lon="-2.36368">
        <ele>2</ele>
        <time>2020-09-06T07:23:33.000Z</time>
      </trkpt>
      <trkpt lat="47.282" lon="-2.36369">
        <ele>2.4000000953674</ele>
        <time>2020-09-06T07:23:34.000Z</time>
      </trkpt>
      <trkpt lat="47.28208" lon="-2.36371">
        <ele>2.4000000953674</ele>
        <time>2020-09-06T07:23:36.000Z</time>
      </trkpt>
      <trkpt lat="47.28229" lon="-2.36379">
        <ele>2.4000000953674</ele>
        <time>2020-09-06T07:23:42.000Z</time>
      </trkpt>
      <trkpt lat="47.28238" lon="-2.36398">
        <ele>2.4000000953674</ele>
        <time>2020-09-06T07:23:46.000Z</time>
      </trkpt>
      <trkpt lat="47.28243" lon="-2.36419">
        <ele>2.4000000953674</ele>
        <time>2020-09-06T07:23:49.000Z</time>
      </trkpt>
      <trkpt lat="47.28243" lon="-2.36443">
        <ele>2.4000000953674</ele>
        <time>2020-09-06T07:23:52.000Z</time>
      </trkpt>
      <trkpt lat="47.2825" lon="-2.36498">
        <ele>2.4000000953674</ele>
        <time>2020-09-06T07:23:58.000Z</time>
      </trkpt>
      <trkpt lat="47.28257" lon="-2.36521">
        <ele>2.4000000953674</ele>
        <time>2020-09-06T07:24:01.000Z</time>
      </trkpt>
      <trkpt lat="47.28264" lon="-2.36536">
        <ele>2.4000000953674</ele>
        <time>2020-09-06T07:24:03.000Z</time>
      </trkpt>
      <trkpt lat="47.28289" lon="-2.36585">
        <ele>2.4000000953674</ele>
        <time>2020-09-06T07:24:10.000Z</time>
      </trkpt>
      <trkpt lat="47.28307" lon="-2.3662">
        <ele>2.4000000953674</ele>
        <time>2020-09-06T07:24:15.000Z</time>
      </trkpt>
      <trkpt lat="47.2831" lon="-2.36623">
        <ele>2</ele>
        <time>2020-09-06T07:24:16.000Z</time>
      </trkpt>
      <trkpt lat="47.28314" lon="-2.3662">
        <ele>1.6000000238419</ele>
        <time>2020-09-06T07:24:17.000Z</time>
      </trkpt>
      <trkpt lat="47.28318" lon="-2.36616">
        <ele>1.2000000476837</ele>
        <time>2020-09-06T07:24:18.000Z</time>
      </trkpt>
      <trkpt lat="47.28321" lon="-2.36612">
        <ele>0.80000001192093</ele>
        <time>2020-09-06T07:24:19.000Z</time>
      </trkpt>
      <trkpt lat="47.28325" lon="-2.36608">
        <ele>0.20000000298023</ele>
        <time>2020-09-06T07:24:20.000Z</time>
      </trkpt>
      <trkpt lat="47.28329" lon="-2.36604">
        <ele>0.20000000298023</ele>
        <time>2020-09-06T07:24:21.000Z</time>
      </trkpt>
      <trkpt lat="47.28344" lon="-2.36587">
        <ele>0.20000000298023</ele>
        <time>2020-09-06T07:24:25.000Z</time>
      </trkpt>
      <trkpt lat="47.28348" lon="-2.36583">
        <ele>0.80000001192093</ele>
        <time>2020-09-06T07:24:26.000Z</time>
      </trkpt>
      <trkpt lat="47.28351" lon="-2.36578">
        <ele>1.2000000476837</ele>
        <time>2020-09-06T07:24:27.000Z</time>
      </trkpt>
      <trkpt lat="47.28355" lon="-2.36574">
        <ele>2</ele>
        <time>2020-09-06T07:24:28.000Z</time>
      </trkpt>
      <trkpt lat="47.28358" lon="-2.36572">
        <ele>2.4000000953674</ele>
        <time>2020-09-06T07:24:29.000Z</time>
      </trkpt>
      <trkpt lat="47.28363" lon="-2.36573">
        <ele>2.4000000953674</ele>
        <time>2020-09-06T07:24:30.000Z</time>
      </trkpt>
      <trkpt lat="47.28374" lon="-2.36586">
        <ele>2.7999999523163</ele>
        <time>2020-09-06T07:24:33.000Z</time>
      </trkpt>
      <trkpt lat="47.28377" lon="-2.3659">
        <ele>3.2000000476837</ele>
        <time>2020-09-06T07:24:34.000Z</time>
      </trkpt>
      <trkpt lat="47.2838" lon="-2.36595">
        <ele>3.5999999046326</ele>
        <time>2020-09-06T07:24:35.000Z</time>
      </trkpt>
      <trkpt lat="47.28383" lon="-2.366">
        <ele>4</ele>
        <time>2020-09-06T07:24:36.000Z</time>
      </trkpt>
      <trkpt lat="47.28385" lon="-2.36605">
        <ele>4.5999999046326</ele>
        <time>2020-09-06T07:24:37.000Z</time>
      </trkpt>
      <trkpt lat="47.28394" lon="-2.36618">
        <ele>5</ele>
        <time>2020-09-06T07:24:40.000Z</time>
      </trkpt>
      <trkpt lat="47.28397" lon="-2.36623">
        <ele>5.4000000953674</ele>
        <time>2020-09-06T07:24:41.000Z</time>
      </trkpt>
      <trkpt lat="47.28399" lon="-2.36627">
        <ele>5.8000001907349</ele>
        <time>2020-09-06T07:24:42.000Z</time>
      </trkpt>
      <trkpt lat="47.28402" lon="-2.36631">
        <ele>6.4000000953674</ele>
        <time>2020-09-06T07:24:43.000Z</time>
      </trkpt>
      <trkpt lat="47.28405" lon="-2.36635">
        <ele>6.8000001907349</ele>
        <time>2020-09-06T07:24:44.000Z</time>
      </trkpt>
      <trkpt lat="47.28412" lon="-2.36643">
        <ele>6.8000001907349</ele>
        <time>2020-09-06T07:24:46.000Z</time>
      </trkpt>
      <trkpt lat="47.28414" lon="-2.36647">
        <ele>7.1999998092651</ele>
        <time>2020-09-06T07:24:47.000Z</time>
      </trkpt>
      <trkpt lat="47.28417" lon="-2.36653">
        <ele>7.5999999046326</ele>
        <time>2020-09-06T07:24:48.000Z</time>
      </trkpt>
      <trkpt lat="47.2842" lon="-2.36658">
        <ele>8</ele>
        <time>2020-09-06T07:24:49.000Z</time>
      </trkpt>
      <trkpt lat="47.28423" lon="-2.36662">
        <ele>8.6000003814697</ele>
        <time>2020-09-06T07:24:50.000Z</time>
      </trkpt>
      <trkpt lat="47.28426" lon="-2.36668">
        <ele>9</ele>
        <time>2020-09-06T07:24:51.000Z</time>
      </trkpt>
      <trkpt lat="47.28431" lon="-2.36679">
        <ele>9.3999996185303</ele>
        <time>2020-09-06T07:24:53.000Z</time>
      </trkpt>
      <trkpt lat="47.28433" lon="-2.36685">
        <ele>9.8000001907349</ele>
        <time>2020-09-06T07:24:54.000Z</time>
      </trkpt>
      <trkpt lat="47.28436" lon="-2.36691">
        <ele>10.39999961853</ele>
        <time>2020-09-06T07:24:55.000Z</time>
      </trkpt>
      <trkpt lat="47.28439" lon="-2.36697">
        <ele>10.800000190735</ele>
        <time>2020-09-06T07:24:56.000Z</time>
      </trkpt>
      <trkpt lat="47.28441" lon="-2.36703">
        <ele>11.199999809265</ele>
        <time>2020-09-06T07:24:57.000Z</time>
      </trkpt>
      <trkpt lat="47.28445" lon="-2.36709">
        <ele>11.199999809265</ele>
        <time>2020-09-06T07:24:58.000Z</time>
      </trkpt>
      <trkpt lat="47.28452" lon="-2.36716">
        <ele>11.199999809265</ele>
        <time>2020-09-06T07:25:00.000Z</time>
      </trkpt>
      <trkpt lat="47.28466" lon="-2.36706">
        <ele>11.199999809265</ele>
        <time>2020-09-06T07:25:03.000Z</time>
      </trkpt>
      <trkpt lat="47.2847" lon="-2.36701">
        <ele>11.199999809265</ele>
        <time>2020-09-06T07:25:04.000Z</time>
      </trkpt>
      <trkpt lat="47.28483" lon="-2.36689">
        <ele>11.199999809265</ele>
        <time>2020-09-06T07:25:07.000Z</time>
      </trkpt>
      <trkpt lat="47.28492" lon="-2.36682">
        <ele>11.199999809265</ele>
        <time>2020-09-06T07:25:09.000Z</time>
      </trkpt>
      <trkpt lat="47.28496" lon="-2.3668">
        <ele>11.199999809265</ele>
        <time>2020-09-06T07:25:10.000Z</time>
      </trkpt>
      <trkpt lat="47.28509" lon="-2.36684">
        <ele>11.199999809265</ele>
        <time>2020-09-06T07:25:13.000Z</time>
      </trkpt>
      <trkpt lat="47.28519" lon="-2.36698">
        <ele>11.199999809265</ele>
        <time>2020-09-06T07:25:16.000Z</time>
      </trkpt>
      <trkpt lat="47.28523" lon="-2.36704">
        <ele>11.199999809265</ele>
        <time>2020-09-06T07:25:17.000Z</time>
      </trkpt>
      <trkpt lat="47.28547" lon="-2.36742">
        <ele>11.199999809265</ele>
        <time>2020-09-06T07:25:22.000Z</time>
      </trkpt>
      <trkpt lat="47.2857" lon="-2.3679">
        <ele>10.800000190735</ele>
        <time>2020-09-06T07:25:27.000Z</time>
      </trkpt>
      <trkpt lat="47.28574" lon="-2.36799">
        <ele>10.39999961853</ele>
        <time>2020-09-06T07:25:28.000Z</time>
      </trkpt>
      <trkpt lat="47.28579" lon="-2.36808">
        <ele>9.8000001907349</ele>
        <time>2020-09-06T07:25:29.000Z</time>
      </trkpt>
      <trkpt lat="47.28584" lon="-2.36817">
        <ele>9.3999996185303</ele>
        <time>2020-09-06T07:25:30.000Z</time>
      </trkpt>
      <trkpt lat="47.28588" lon="-2.36825">
        <ele>9</ele>
        <time>2020-09-06T07:25:31.000Z</time>
      </trkpt>
      <trkpt lat="47.28598" lon="-2.3684">
        <ele>9</ele>
        <time>2020-09-06T07:25:33.000Z</time>
      </trkpt>
      <trkpt lat="47.28603" lon="-2.36844">
        <ele>8.6000003814697</ele>
        <time>2020-09-06T07:25:34.000Z</time>
      </trkpt>
      <trkpt lat="47.28608" lon="-2.36847">
        <ele>8.1999998092651</ele>
        <time>2020-09-06T07:25:35.000Z</time>
      </trkpt>
      <trkpt lat="47.28613" lon="-2.36845">
        <ele>7.8000001907349</ele>
        <time>2020-09-06T07:25:36.000Z</time>
      </trkpt>
      <trkpt lat="47.28618" lon="-2.36841">
        <ele>7.4000000953674</ele>
        <time>2020-09-06T07:25:37.000Z</time>
      </trkpt>
      <trkpt lat="47.28622" lon="-2.36836">
        <ele>7</ele>
        <time>2020-09-06T07:25:38.000Z</time>
      </trkpt>
      <trkpt lat="47.28627" lon="-2.36832">
        <ele>7</ele>
        <time>2020-09-06T07:25:39.000Z</time>
      </trkpt>
      <trkpt lat="47.28655" lon="-2.36799">
        <ele>7</ele>
        <time>2020-09-06T07:25:46.000Z</time>
      </trkpt>
      <trkpt lat="47.28668" lon="-2.36794">
        <ele>7</ele>
        <time>2020-09-06T07:25:50.000Z</time>
      </trkpt>
      <trkpt lat="47.28679" lon="-2.36806">
        <ele>7</ele>
        <time>2020-09-06T07:25:54.000Z</time>
      </trkpt>
      <trkpt lat="47.28682" lon="-2.36811">
        <ele>7</ele>
        <time>2020-09-06T07:25:55.000Z</time>
      </trkpt>
      <trkpt lat="47.2869" lon="-2.36831">
        <ele>7</ele>
        <time>2020-09-06T07:25:58.000Z</time>
      </trkpt>
      <trkpt lat="47.28706" lon="-2.36873">
        <ele>7</ele>
        <time>2020-09-06T07:26:04.000Z</time>
      </trkpt>
      <trkpt lat="47.28713" lon="-2.36893">
        <ele>6.5999999046326</ele>
        <time>2020-09-06T07:26:08.000Z</time>
      </trkpt>
      <trkpt lat="47.28714" lon="-2.36896">
        <ele>6.1999998092651</ele>
        <time>2020-09-06T07:26:09.000Z</time>
      </trkpt>
      <trkpt lat="47.28715" lon="-2.36899">
        <ele>5.8000001907349</ele>
        <time>2020-09-06T07:26:10.000Z</time>
      </trkpt>
      <trkpt lat="47.28716" lon="-2.36902">
        <ele>5.1999998092651</ele>
        <time>2020-09-06T07:26:11.000Z</time>
      </trkpt>
      <trkpt lat="47.28717" lon="-2.36904">
        <ele>4.8000001907349</ele>
        <time>2020-09-06T07:26:12.000Z</time>
      </trkpt>
      <trkpt lat="47.28723" lon="-2.36907">
        <ele>4.4000000953674</ele>
        <time>2020-09-06T07:26:14.000Z</time>
      </trkpt>
      <trkpt lat="47.28727" lon="-2.36911">
        <ele>4</ele>
        <time>2020-09-06T07:26:15.000Z</time>
      </trkpt>
      <trkpt lat="47.2873" lon="-2.36914">
        <ele>3.5999999046326</ele>
        <time>2020-09-06T07:26:16.000Z</time>
      </trkpt>
      <trkpt lat="47.28733" lon="-2.36919">
        <ele>3.2000000476837</ele>
        <time>2020-09-06T07:26:17.000Z</time>
      </trkpt>
      <trkpt lat="47.28736" lon="-2.36923">
        <ele>2.5999999046326</ele>
        <time>2020-09-06T07:26:18.000Z</time>
      </trkpt>
      <trkpt lat="47.28746" lon="-2.36944">
        <ele>3.2000000476837</ele>
        <time>2020-09-06T07:26:23.000Z</time>
      </trkpt>
      <trkpt lat="47.28747" lon="-2.36948">
        <ele>3.5999999046326</ele>
        <time>2020-09-06T07:26:24.000Z</time>
      </trkpt>
      <trkpt lat="47.28748" lon="-2.36951">
        <ele>4</ele>
        <time>2020-09-06T07:26:25.000Z</time>
      </trkpt>
      <trkpt lat="47.28749" lon="-2.36954">
        <ele>4.5999999046326</ele>
        <time>2020-09-06T07:26:26.000Z</time>
      </trkpt>
      <trkpt lat="47.28749" lon="-2.36956">
        <ele>5</ele>
        <time>2020-09-06T07:26:27.000Z</time>
      </trkpt>
      <trkpt lat="47.2875" lon="-2.36958">
        <ele>5.4000000953674</ele>
        <time>2020-09-06T07:26:28.000Z</time>
      </trkpt>
      <trkpt lat="47.2875" lon="-2.36961">
        <ele>5.8000001907349</ele>
        <time>2020-09-06T07:26:29.000Z</time>
      </trkpt>
      <trkpt lat="47.28751" lon="-2.36963">
        <ele>6.1999998092651</ele>
        <time>2020-09-06T07:26:30.000Z</time>
      </trkpt>
      <trkpt lat="47.28752" lon="-2.36966">
        <ele>7.1999998092651</ele>
        <time>2020-09-06T07:26:31.000Z</time>
      </trkpt>
      <trkpt lat="47.28756" lon="-2.36977">
        <ele>7.1999998092651</ele>
        <time>2020-09-06T07:26:34.000Z</time>
      </trkpt>
      <trkpt lat="47.28769" lon="-2.36991">
        <ele>7.1999998092651</ele>
        <time>2020-09-06T07:26:39.000Z</time>
      </trkpt>
      <trkpt lat="47.28771" lon="-2.36995">
        <ele>7.1999998092651</ele>
        <time>2020-09-06T07:26:40.000Z</time>
      </trkpt>
      <trkpt lat="47.28777" lon="-2.37008">
        <ele>7.1999998092651</ele>
        <time>2020-09-06T07:26:43.000Z</time>
      </trkpt>
      <trkpt lat="47.28786" lon="-2.37035">
        <ele>7.1999998092651</ele>
        <time>2020-09-06T07:26:48.000Z</time>
      </trkpt>
      <trkpt lat="47.28794" lon="-2.37073">
        <ele>6.5999999046326</ele>
        <time>2020-09-06T07:26:53.000Z</time>
      </trkpt>
      <trkpt lat="47.28795" lon="-2.37081">
        <ele>6.1999998092651</ele>
        <time>2020-09-06T07:26:54.000Z</time>
      </trkpt>
      <trkpt lat="47.28796" lon="-2.37088">
        <ele>5.5999999046326</ele>
        <time>2020-09-06T07:26:55.000Z</time>
      </trkpt>
      <trkpt lat="47.28798" lon="-2.37093">
        <ele>4.5999999046326</ele>
        <time>2020-09-06T07:26:56.000Z</time>
      </trkpt>
      <trkpt lat="47.288" lon="-2.37098">
        <ele>4.1999998092651</ele>
        <time>2020-09-06T07:26:57.000Z</time>
      </trkpt>
      <trkpt lat="47.28803" lon="-2.37101">
        <ele>3.5999999046326</ele>
        <time>2020-09-06T07:26:58.000Z</time>
      </trkpt>
      <trkpt lat="47.28805" lon="-2.37105">
        <ele>3</ele>
        <time>2020-09-06T07:26:59.000Z</time>
      </trkpt>
      <trkpt lat="47.28808" lon="-2.37108">
        <ele>2.5999999046326</ele>
        <time>2020-09-06T07:27:00.000Z</time>
      </trkpt>
      <trkpt lat="47.2881" lon="-2.3711">
        <ele>2</ele>
        <time>2020-09-06T07:27:01.000Z</time>
      </trkpt>
      <trkpt lat="47.28813" lon="-2.37111">
        <ele>1.6000000238419</ele>
        <time>2020-09-06T07:27:02.000Z</time>
      </trkpt>
      <trkpt lat="47.28815" lon="-2.37111">
        <ele>1.2000000476837</ele>
        <time>2020-09-06T07:27:03.000Z</time>
      </trkpt>
      <trkpt lat="47.2882" lon="-2.37105">
        <ele>0.80000001192093</ele>
        <time>2020-09-06T07:27:04.000Z</time>
      </trkpt>
      <trkpt lat="47.28823" lon="-2.37104">
        <ele>0.40000000596046</ele>
        <time>2020-09-06T07:27:05.000Z</time>
      </trkpt>
      <trkpt lat="47.28827" lon="-2.37104">
        <ele>-0.20000000298023</ele>
        <time>2020-09-06T07:27:06.000Z</time>
      </trkpt>
      <trkpt lat="47.2883" lon="-2.37107">
        <ele>-0.80000001192093</ele>
        <time>2020-09-06T07:27:07.000Z</time>
      </trkpt>
      <trkpt lat="47.28832" lon="-2.3711">
        <ele>-1.2000000476837</ele>
        <time>2020-09-06T07:27:08.000Z</time>
      </trkpt>
      <trkpt lat="47.28833" lon="-2.37114">
        <ele>-1.7999999523163</ele>
        <time>2020-09-06T07:27:09.000Z</time>
      </trkpt>
      <trkpt lat="47.28831" lon="-2.37127">
        <ele>-1.7999999523163</ele>
        <time>2020-09-06T07:27:11.000Z</time>
      </trkpt>
      <trkpt lat="47.28833" lon="-2.37154">
        <ele>-1.7999999523163</ele>
        <time>2020-09-06T07:27:15.000Z</time>
      </trkpt>
      <trkpt lat="47.28837" lon="-2.37183">
        <ele>-1.7999999523163</ele>
        <time>2020-09-06T07:27:19.000Z</time>
      </trkpt>
      <trkpt lat="47.28839" lon="-2.37198">
        <ele>-1.7999999523163</ele>
        <time>2020-09-06T07:27:21.000Z</time>
      </trkpt>
      <trkpt lat="47.28841" lon="-2.37216">
        <ele>-2.2000000476837</ele>
        <time>2020-09-06T07:27:24.000Z</time>
      </trkpt>
      <trkpt lat="47.28843" lon="-2.37222">
        <ele>-2.5999999046326</ele>
        <time>2020-09-06T07:27:25.000Z</time>
      </trkpt>
      <trkpt lat="47.28844" lon="-2.37227">
        <ele>-3</ele>
        <time>2020-09-06T07:27:26.000Z</time>
      </trkpt>
      <trkpt lat="47.28845" lon="-2.37232">
        <ele>-3.5999999046326</ele>
        <time>2020-09-06T07:27:27.000Z</time>
      </trkpt>
      <trkpt lat="47.28846" lon="-2.37236">
        <ele>-4</ele>
        <time>2020-09-06T07:27:28.000Z</time>
      </trkpt>
      <trkpt lat="47.28848" lon="-2.3724">
        <ele>-4</ele>
        <time>2020-09-06T07:27:30.000Z</time>
      </trkpt>
      <trkpt lat="47.2885" lon="-2.37247">
        <ele>-4</ele>
        <time>2020-09-06T07:27:35.000Z</time>
      </trkpt>
      <trkpt lat="47.28851" lon="-2.37251">
        <ele>-4</ele>
        <time>2020-09-06T07:27:38.000Z</time>
      </trkpt>
      <trkpt lat="47.28853" lon="-2.37273">
        <ele>-4</ele>
        <time>2020-09-06T07:27:44.000Z</time>
      </trkpt>
      <trkpt lat="47.28857" lon="-2.37306">
        <ele>-4</ele>
        <time>2020-09-06T07:27:51.000Z</time>
      </trkpt>
      <trkpt lat="47.28861" lon="-2.37333">
        <ele>-4</ele>
        <time>2020-09-06T07:27:57.000Z</time>
      </trkpt>
      <trkpt lat="47.28863" lon="-2.37364">
        <ele>-4</ele>
        <time>2020-09-06T07:28:03.000Z</time>
      </trkpt>
      <trkpt lat="47.28866" lon="-2.37389">
        <ele>-4</ele>
        <time>2020-09-06T07:28:08.000Z</time>
      </trkpt>
      <trkpt lat="47.28871" lon="-2.37428">
        <ele>-4</ele>
        <time>2020-09-06T07:28:15.000Z</time>
      </trkpt>
      <trkpt lat="47.28875" lon="-2.37465">
        <ele>-4</ele>
        <time>2020-09-06T07:28:22.000Z</time>
      </trkpt>
      <trkpt lat="47.28881" lon="-2.37512">
        <ele>-4</ele>
        <time>2020-09-06T07:28:30.000Z</time>
      </trkpt>
      <trkpt lat="47.28882" lon="-2.37517">
        <ele>-4.4000000953674</ele>
        <time>2020-09-06T07:28:31.000Z</time>
      </trkpt>
      <trkpt lat="47.28883" lon="-2.37523">
        <ele>-4.8000001907349</ele>
        <time>2020-09-06T07:28:32.000Z</time>
      </trkpt>
      <trkpt lat="47.28883" lon="-2.37528">
        <ele>-5.1999998092651</ele>
        <time>2020-09-06T07:28:33.000Z</time>
      </trkpt>
      <trkpt lat="47.28883" lon="-2.37532">
        <ele>-5.5999999046326</ele>
        <time>2020-09-06T07:28:34.000Z</time>
      </trkpt>
      <trkpt lat="47.28884" lon="-2.37535">
        <ele>-6</ele>
        <time>2020-09-06T07:28:35.000Z</time>
      </trkpt>
      <trkpt lat="47.28884" lon="-2.37538">
        <ele>-6</ele>
        <time>2020-09-06T07:28:36.000Z</time>
      </trkpt>
      <trkpt lat="47.28894" lon="-2.37554">
        <ele>-6</ele>
        <time>2020-09-06T07:28:41.000Z</time>
      </trkpt>
      <trkpt lat="47.28899" lon="-2.37563">
        <ele>-6</ele>
        <time>2020-09-06T07:28:43.000Z</time>
      </trkpt>
      <trkpt lat="47.28901" lon="-2.37576">
        <ele>-6</ele>
        <time>2020-09-06T07:28:45.000Z</time>
      </trkpt>
      <trkpt lat="47.28903" lon="-2.37596">
        <ele>-6</ele>
        <time>2020-09-06T07:28:48.000Z</time>
      </trkpt>
      <trkpt lat="47.28906" lon="-2.37615">
        <ele>-6</ele>
        <time>2020-09-06T07:28:51.000Z</time>
      </trkpt>
      <trkpt lat="47.28911" lon="-2.37646">
        <ele>-6</ele>
        <time>2020-09-06T07:28:57.000Z</time>
      </trkpt>
      <trkpt lat="47.28914" lon="-2.37649">
        <ele>-6</ele>
        <time>2020-09-06T07:28:59.000Z</time>
      </trkpt>
      <trkpt lat="47.2892" lon="-2.37648">
        <ele>-6</ele>
        <time>2020-09-06T07:29:01.000Z</time>
      </trkpt>
      <trkpt lat="47.28929" lon="-2.37644">
        <ele>-6</ele>
        <time>2020-09-06T07:29:04.000Z</time>
      </trkpt>
      <trkpt lat="47.28937" lon="-2.37647">
        <ele>-6</ele>
        <time>2020-09-06T07:29:07.000Z</time>
      </trkpt>
      <trkpt lat="47.28939" lon="-2.37664">
        <ele>-6</ele>
        <time>2020-09-06T07:29:10.000Z</time>
      </trkpt>
      <trkpt lat="47.28936" lon="-2.37692">
        <ele>-6</ele>
        <time>2020-09-06T07:29:14.000Z</time>
      </trkpt>
      <trkpt lat="47.28933" lon="-2.37753">
        <ele>-6</ele>
        <time>2020-09-06T07:29:22.000Z</time>
      </trkpt>
      <trkpt lat="47.28928" lon="-2.37812">
        <ele>-6</ele>
        <time>2020-09-06T07:29:29.000Z</time>
      </trkpt>
      <trkpt lat="47.28923" lon="-2.37879">
        <ele>-6</ele>
        <time>2020-09-06T07:29:37.000Z</time>
      </trkpt>
      <trkpt lat="47.2892" lon="-2.37921">
        <ele>-6.4000000953674</ele>
        <time>2020-09-06T07:29:42.000Z</time>
      </trkpt>
      <trkpt lat="47.2892" lon="-2.37929">
        <ele>-6.8000001907349</ele>
        <time>2020-09-06T07:29:43.000Z</time>
      </trkpt>
      <trkpt lat="47.28919" lon="-2.37939">
        <ele>-7.1999998092651</ele>
        <time>2020-09-06T07:29:44.000Z</time>
      </trkpt>
      <trkpt lat="47.28919" lon="-2.37947">
        <ele>-7.5999999046326</ele>
        <time>2020-09-06T07:29:45.000Z</time>
      </trkpt>
      <trkpt lat="47.28918" lon="-2.37956">
        <ele>-8</ele>
        <time>2020-09-06T07:29:46.000Z</time>
      </trkpt>
      <trkpt lat="47.28914" lon="-2.38013">
        <ele>-8</ele>
        <time>2020-09-06T07:29:53.000Z</time>
      </trkpt>
      <trkpt lat="47.28912" lon="-2.38053">
        <ele>-8</ele>
        <time>2020-09-06T07:29:58.000Z</time>
      </trkpt>
      <trkpt lat="47.28915" lon="-2.38061">
        <ele>-8</ele>
        <time>2020-09-06T07:29:59.000Z</time>
      </trkpt>
      <trkpt lat="47.28927" lon="-2.38102">
        <ele>-8</ele>
        <time>2020-09-06T07:30:04.000Z</time>
      </trkpt>
      <trkpt lat="47.28936" lon="-2.38171">
        <ele>-8</ele>
        <time>2020-09-06T07:30:12.000Z</time>
      </trkpt>
      <trkpt lat="47.28941" lon="-2.38241">
        <ele>-8</ele>
        <time>2020-09-06T07:30:20.000Z</time>
      </trkpt>
      <trkpt lat="47.2894" lon="-2.38259">
        <ele>-8</ele>
        <time>2020-09-06T07:30:22.000Z</time>
      </trkpt>
      <trkpt lat="47.28937" lon="-2.38294">
        <ele>-8</ele>
        <time>2020-09-06T07:30:26.000Z</time>
      </trkpt>
      <trkpt lat="47.28937" lon="-2.38347">
        <ele>-8</ele>
        <time>2020-09-06T07:30:32.000Z</time>
      </trkpt>
      <trkpt lat="47.28942" lon="-2.38415">
        <ele>-8</ele>
        <time>2020-09-06T07:30:40.000Z</time>
      </trkpt>
      <trkpt lat="47.28948" lon="-2.38486">
        <ele>-8</ele>
        <time>2020-09-06T07:30:48.000Z</time>
      </trkpt>
      <trkpt lat="47.28956" lon="-2.38567">
        <ele>-8</ele>
        <time>2020-09-06T07:30:57.000Z</time>
      </trkpt>
      <trkpt lat="47.2896" lon="-2.38627">
        <ele>-8</ele>
        <time>2020-09-06T07:31:04.000Z</time>
      </trkpt>
      <trkpt lat="47.28961" lon="-2.38712">
        <ele>-8</ele>
        <time>2020-09-06T07:31:14.000Z</time>
      </trkpt>
      <trkpt lat="47.28962" lon="-2.38774">
        <ele>-8</ele>
        <time>2020-09-06T07:31:21.000Z</time>
      </trkpt>
      <trkpt lat="47.28962" lon="-2.38856">
        <ele>-8</ele>
        <time>2020-09-06T07:31:30.000Z</time>
      </trkpt>
      <trkpt lat="47.28962" lon="-2.38865">
        <ele>-8</ele>
        <time>2020-09-06T07:31:31.000Z</time>
      </trkpt>
      <trkpt lat="47.2896" lon="-2.38901">
        <ele>-8</ele>
        <time>2020-09-06T07:31:35.000Z</time>
      </trkpt>
      <trkpt lat="47.28957" lon="-2.38969">
        <ele>-8</ele>
        <time>2020-09-06T07:31:43.000Z</time>
      </trkpt>
      <trkpt lat="47.28954" lon="-2.39028">
        <ele>-8</ele>
        <time>2020-09-06T07:31:50.000Z</time>
      </trkpt>
      <trkpt lat="47.28953" lon="-2.39044">
        <ele>-8</ele>
        <time>2020-09-06T07:31:52.000Z</time>
      </trkpt>
      <trkpt lat="47.28949" lon="-2.39079">
        <ele>-8</ele>
        <time>2020-09-06T07:31:56.000Z</time>
      </trkpt>
      <trkpt lat="47.2894" lon="-2.39149">
        <ele>-8</ele>
        <time>2020-09-06T07:32:04.000Z</time>
      </trkpt>
      <trkpt lat="47.28936" lon="-2.39192">
        <ele>-8</ele>
        <time>2020-09-06T07:32:09.000Z</time>
      </trkpt>
      <trkpt lat="47.28937" lon="-2.39201">
        <ele>-8</ele>
        <time>2020-09-06T07:32:10.000Z</time>
      </trkpt>
      <trkpt lat="47.28939" lon="-2.39264">
        <ele>-8</ele>
        <time>2020-09-06T07:32:17.000Z</time>
      </trkpt>
      <trkpt lat="47.28945" lon="-2.3929">
        <ele>-8</ele>
        <time>2020-09-06T07:32:20.000Z</time>
      </trkpt>
      <trkpt lat="47.28953" lon="-2.39304">
        <ele>-8</ele>
        <time>2020-09-06T07:32:22.000Z</time>
      </trkpt>
      <trkpt lat="47.2897" lon="-2.39314">
        <ele>-8</ele>
        <time>2020-09-06T07:32:25.000Z</time>
      </trkpt>
      <trkpt lat="47.28976" lon="-2.39317">
        <ele>-8</ele>
        <time>2020-09-06T07:32:26.000Z</time>
      </trkpt>
      <trkpt lat="47.29009" lon="-2.39326">
        <ele>-8</ele>
        <time>2020-09-06T07:32:31.000Z</time>
      </trkpt>
      <trkpt lat="47.29053" lon="-2.39346">
        <ele>-8</ele>
        <time>2020-09-06T07:32:38.000Z</time>
      </trkpt>
      <trkpt lat="47.29089" lon="-2.39364">
        <ele>-8</ele>
        <time>2020-09-06T07:32:45.000Z</time>
      </trkpt>
      <trkpt lat="47.29101" lon="-2.39374">
        <ele>-8</ele>
        <time>2020-09-06T07:32:48.000Z</time>
      </trkpt>
      <trkpt lat="47.29106" lon="-2.39374">
        <ele>-8</ele>
        <time>2020-09-06T07:32:49.000Z</time>
      </trkpt>
      <trkpt lat="47.29122" lon="-2.39364">
        <ele>-8</ele>
        <time>2020-09-06T07:32:52.000Z</time>
      </trkpt>
      <trkpt lat="47.29133" lon="-2.39354">
        <ele>-8</ele>
        <time>2020-09-06T07:32:54.000Z</time>
      </trkpt>
      <trkpt lat="47.29152" lon="-2.39339">
        <ele>-8</ele>
        <time>2020-09-06T07:32:57.000Z</time>
      </trkpt>
      <trkpt lat="47.2917" lon="-2.39326">
        <ele>-8</ele>
        <time>2020-09-06T07:33:00.000Z</time>
      </trkpt>
      <trkpt lat="47.29184" lon="-2.39323">
        <ele>-8</ele>
        <time>2020-09-06T07:33:02.000Z</time>
      </trkpt>
      <trkpt lat="47.29223" lon="-2.39312">
        <ele>-8</ele>
        <time>2020-09-06T07:33:08.000Z</time>
      </trkpt>
      <trkpt lat="47.29259" lon="-2.39292">
        <ele>-8</ele>
        <time>2020-09-06T07:33:14.000Z</time>
      </trkpt>
      <trkpt lat="47.29271" lon="-2.39288">
        <ele>-8</ele>
        <time>2020-09-06T07:33:16.000Z</time>
      </trkpt>
      <trkpt lat="47.29289" lon="-2.39289">
        <ele>-8</ele>
        <time>2020-09-06T07:33:19.000Z</time>
      </trkpt>
      <trkpt lat="47.29304" lon="-2.39297">
        <ele>-8</ele>
        <time>2020-09-06T07:33:22.000Z</time>
      </trkpt>
      <trkpt lat="47.29314" lon="-2.39303">
        <ele>-8</ele>
        <time>2020-09-06T07:33:24.000Z</time>
      </trkpt>
      <trkpt lat="47.29337" lon="-2.39318">
        <ele>-8</ele>
        <time>2020-09-06T07:33:29.000Z</time>
      </trkpt>
      <trkpt lat="47.29343" lon="-2.39319">
        <ele>-8</ele>
        <time>2020-09-06T07:33:31.000Z</time>
      </trkpt>
      <trkpt lat="47.29349" lon="-2.39318">
        <ele>-8</ele>
        <time>2020-09-06T07:33:34.000Z</time>
      </trkpt>
      <trkpt lat="47.29351" lon="-2.39326">
        <ele>-8</ele>
        <time>2020-09-06T07:33:36.000Z</time>
      </trkpt>
      <trkpt lat="47.29352" lon="-2.39355">
        <ele>-8</ele>
        <time>2020-09-06T07:33:40.000Z</time>
      </trkpt>
      <trkpt lat="47.29352" lon="-2.39362">
        <ele>-8</ele>
        <time>2020-09-06T07:33:41.000Z</time>
      </trkpt>
      <trkpt lat="47.29352" lon="-2.39378">
        <ele>-8</ele>
        <time>2020-09-06T07:33:43.000Z</time>
      </trkpt>
      <trkpt lat="47.29355" lon="-2.39425">
        <ele>-8</ele>
        <time>2020-09-06T07:33:49.000Z</time>
      </trkpt>
      <trkpt lat="47.29358" lon="-2.39441">
        <ele>-8</ele>
        <time>2020-09-06T07:33:51.000Z</time>
      </trkpt>
      <trkpt lat="47.29363" lon="-2.39455">
        <ele>-8</ele>
        <time>2020-09-06T07:33:53.000Z</time>
      </trkpt>
      <trkpt lat="47.29367" lon="-2.3946">
        <ele>-8</ele>
        <time>2020-09-06T07:33:54.000Z</time>
      </trkpt>
      <trkpt lat="47.29383" lon="-2.39463">
        <ele>-8</ele>
        <time>2020-09-06T07:33:57.000Z</time>
      </trkpt>
      <trkpt lat="47.29389" lon="-2.39463">
        <ele>-8</ele>
        <time>2020-09-06T07:33:58.000Z</time>
      </trkpt>
      <trkpt lat="47.29429" lon="-2.39466">
        <ele>-8</ele>
        <time>2020-09-06T07:34:04.000Z</time>
      </trkpt>
      <trkpt lat="47.29477" lon="-2.3947">
        <ele>-8</ele>
        <time>2020-09-06T07:34:11.000Z</time>
      </trkpt>
      <trkpt lat="47.29489" lon="-2.39471">
        <ele>-8</ele>
        <time>2020-09-06T07:34:13.000Z</time>
      </trkpt>
      <trkpt lat="47.29513" lon="-2.3947">
        <ele>-8</ele>
        <time>2020-09-06T07:34:17.000Z</time>
      </trkpt>
      <trkpt lat="47.29524" lon="-2.39472">
        <ele>-8</ele>
        <time>2020-09-06T07:34:19.000Z</time>
      </trkpt>
      <trkpt lat="47.29557" lon="-2.39482">
        <ele>-8</ele>
        <time>2020-09-06T07:34:26.000Z</time>
      </trkpt>
      <trkpt lat="47.29563" lon="-2.39487">
        <ele>-8</ele>
        <time>2020-09-06T07:34:28.000Z</time>
      </trkpt>
      <trkpt lat="47.29564" lon="-2.39491">
        <ele>-8</ele>
        <time>2020-09-06T07:34:29.000Z</time>
      </trkpt>
      <trkpt lat="47.29564" lon="-2.39495">
        <ele>-8.3999996185303</ele>
        <time>2020-09-06T07:34:30.000Z</time>
      </trkpt>
      <trkpt lat="47.2956" lon="-2.395">
        <ele>-8.8000001907349</ele>
        <time>2020-09-06T07:34:31.000Z</time>
      </trkpt>
      <trkpt lat="47.29558" lon="-2.39505">
        <ele>-9.1999998092651</ele>
        <time>2020-09-06T07:34:32.000Z</time>
      </trkpt>
      <trkpt lat="47.29558" lon="-2.39509">
        <ele>-9.6000003814697</ele>
        <time>2020-09-06T07:34:33.000Z</time>
      </trkpt>
      <trkpt lat="47.29558" lon="-2.39514">
        <ele>-10</ele>
        <time>2020-09-06T07:34:34.000Z</time>
      </trkpt>
      <trkpt lat="47.29558" lon="-2.39529">
        <ele>-9.6000003814697</ele>
        <time>2020-09-06T07:34:37.000Z</time>
      </trkpt>
      <trkpt lat="47.29559" lon="-2.39533">
        <ele>-9.1999998092651</ele>
        <time>2020-09-06T07:34:38.000Z</time>
      </trkpt>
      <trkpt lat="47.29559" lon="-2.39536">
        <ele>-8.8000001907349</ele>
        <time>2020-09-06T07:34:39.000Z</time>
      </trkpt>
      <trkpt lat="47.29558" lon="-2.3954">
        <ele>-8.3999996185303</ele>
        <time>2020-09-06T07:34:40.000Z</time>
      </trkpt>
      <trkpt lat="47.29558" lon="-2.39543">
        <ele>-8</ele>
        <time>2020-09-06T07:34:41.000Z</time>
      </trkpt>
      <trkpt lat="47.2956" lon="-2.39545">
        <ele>-8</ele>
        <time>2020-09-06T07:34:42.000Z</time>
      </trkpt>
      <trkpt lat="47.29565" lon="-2.39546">
        <ele>-8</ele>
        <time>2020-09-06T07:34:44.000Z</time>
      </trkpt>
      <trkpt lat="47.29568" lon="-2.39546">
        <ele>-7.5999999046326</ele>
        <time>2020-09-06T07:34:45.000Z</time>
      </trkpt>
      <trkpt lat="47.29571" lon="-2.39546">
        <ele>-7.1999998092651</ele>
        <time>2020-09-06T07:34:46.000Z</time>
      </trkpt>
      <trkpt lat="47.29573" lon="-2.39547">
        <ele>-6.4000000953674</ele>
        <time>2020-09-06T07:34:47.000Z</time>
      </trkpt>
      <trkpt lat="47.29576" lon="-2.39548">
        <ele>-6</ele>
        <time>2020-09-06T07:34:48.000Z</time>
      </trkpt>
      <trkpt lat="47.29586" lon="-2.39549">
        <ele>-5.5999999046326</ele>
        <time>2020-09-06T07:34:51.000Z</time>
      </trkpt>
      <trkpt lat="47.29589" lon="-2.39549">
        <ele>-5.1999998092651</ele>
        <time>2020-09-06T07:34:52.000Z</time>
      </trkpt>
      <trkpt lat="47.29592" lon="-2.3955">
        <ele>-4.8000001907349</ele>
        <time>2020-09-06T07:34:53.000Z</time>
      </trkpt>
      <trkpt lat="47.29595" lon="-2.3955">
        <ele>-4.4000000953674</ele>
        <time>2020-09-06T07:34:54.000Z</time>
      </trkpt>
      <trkpt lat="47.29598" lon="-2.39551">
        <ele>-4</ele>
        <time>2020-09-06T07:34:55.000Z</time>
      </trkpt>
      <trkpt lat="47.29611" lon="-2.39554">
        <ele>-4</ele>
        <time>2020-09-06T07:34:58.000Z</time>
      </trkpt>
      <trkpt lat="47.29626" lon="-2.39559">
        <ele>-4</ele>
        <time>2020-09-06T07:35:02.000Z</time>
      </trkpt>
      <trkpt lat="47.2962" lon="-2.39565">
        <ele>-4</ele>
        <time>2020-09-06T07:35:05.000Z</time>
      </trkpt>
      <trkpt lat="47.29616" lon="-2.39566">
        <ele>-4.4000000953674</ele>
        <time>2020-09-06T07:35:06.000Z</time>
      </trkpt>
      <trkpt lat="47.29613" lon="-2.39568">
        <ele>-4.8000001907349</ele>
        <time>2020-09-06T07:35:07.000Z</time>
      </trkpt>
      <trkpt lat="47.29612" lon="-2.39571">
        <ele>-5.4000000953674</ele>
        <time>2020-09-06T07:35:08.000Z</time>
      </trkpt>
      <trkpt lat="47.29613" lon="-2.39575">
        <ele>-6.1999998092651</ele>
        <time>2020-09-06T07:35:09.000Z</time>
      </trkpt>
      <trkpt lat="47.29624" lon="-2.39576">
        <ele>-6.5999999046326</ele>
        <time>2020-09-06T07:35:12.000Z</time>
      </trkpt>
      <trkpt lat="47.29628" lon="-2.39577">
        <ele>-7</ele>
        <time>2020-09-06T07:35:13.000Z</time>
      </trkpt>
      <trkpt lat="47.29631" lon="-2.3958">
        <ele>-7.5999999046326</ele>
        <time>2020-09-06T07:35:14.000Z</time>
      </trkpt>
      <trkpt lat="47.29632" lon="-2.39584">
        <ele>-8</ele>
        <time>2020-09-06T07:35:15.000Z</time>
      </trkpt>
      <trkpt lat="47.29633" lon="-2.3959">
        <ele>-8.3999996185303</ele>
        <time>2020-09-06T07:35:16.000Z</time>
      </trkpt>
      <trkpt lat="47.29631" lon="-2.39603">
        <ele>-8.3999996185303</ele>
        <time>2020-09-06T07:35:18.000Z</time>
      </trkpt>
      <trkpt lat="47.2963" lon="-2.39609">
        <ele>-8.3999996185303</ele>
        <time>2020-09-06T07:35:19.000Z</time>
      </trkpt>
      <trkpt lat="47.29628" lon="-2.39639">
        <ele>-8.3999996185303</ele>
        <time>2020-09-06T07:35:23.000Z</time>
      </trkpt>
      <trkpt lat="47.29626" lon="-2.39647">
        <ele>-8.3999996185303</ele>
        <time>2020-09-06T07:35:24.000Z</time>
      </trkpt>
      <trkpt lat="47.29612" lon="-2.3968">
        <ele>-8.3999996185303</ele>
        <time>2020-09-06T07:35:29.000Z</time>
      </trkpt>
      <trkpt lat="47.29592" lon="-2.39715">
        <ele>-8.8000001907349</ele>
        <time>2020-09-06T07:35:35.000Z</time>
      </trkpt>
      <trkpt lat="47.29589" lon="-2.3972">
        <ele>-9.6000003814697</ele>
        <time>2020-09-06T07:35:36.000Z</time>
      </trkpt>
      <trkpt lat="47.29587" lon="-2.39725">
        <ele>-10</ele>
        <time>2020-09-06T07:35:37.000Z</time>
      </trkpt>
      <trkpt lat="47.29584" lon="-2.3973">
        <ele>-10.60000038147</ele>
        <time>2020-09-06T07:35:38.000Z</time>
      </trkpt>
      <trkpt lat="47.29576" lon="-2.39745">
        <ele>-10.60000038147</ele>
        <time>2020-09-06T07:35:41.000Z</time>
      </trkpt>
      <trkpt lat="47.29556" lon="-2.3979">
        <ele>-10.60000038147</ele>
        <time>2020-09-06T07:35:49.000Z</time>
      </trkpt>
      <trkpt lat="47.29536" lon="-2.3983">
        <ele>-10.60000038147</ele>
        <time>2020-09-06T07:35:56.000Z</time>
      </trkpt>
      <trkpt lat="47.29516" lon="-2.39871">
        <ele>-10.60000038147</ele>
        <time>2020-09-06T07:36:04.000Z</time>
      </trkpt>
      <trkpt lat="47.295" lon="-2.39898">
        <ele>-10.60000038147</ele>
        <time>2020-09-06T07:36:11.000Z</time>
      </trkpt>
      <trkpt lat="47.29491" lon="-2.39905">
        <ele>-10.60000038147</ele>
        <time>2020-09-06T07:36:16.000Z</time>
      </trkpt>
      <trkpt lat="47.29485" lon="-2.39922">
        <ele>-10.60000038147</ele>
        <time>2020-09-06T07:36:21.000Z</time>
      </trkpt>
      <trkpt lat="47.29477" lon="-2.39944">
        <ele>-10.60000038147</ele>
        <time>2020-09-06T07:36:26.000Z</time>
      </trkpt>
      <trkpt lat="47.2947" lon="-2.39962">
        <ele>-10.60000038147</ele>
        <time>2020-09-06T07:36:29.000Z</time>
      </trkpt>
      <trkpt lat="47.29466" lon="-2.39976">
        <ele>-10.60000038147</ele>
        <time>2020-09-06T07:36:31.000Z</time>
      </trkpt>
      <trkpt lat="47.29463" lon="-2.39993">
        <ele>-10.60000038147</ele>
        <time>2020-09-06T07:36:33.000Z</time>
      </trkpt>
      <trkpt lat="47.29462" lon="-2.40002">
        <ele>-10.60000038147</ele>
        <time>2020-09-06T07:36:34.000Z</time>
      </trkpt>
      <trkpt lat="47.29461" lon="-2.40019">
        <ele>-10.60000038147</ele>
        <time>2020-09-06T07:36:36.000Z</time>
      </trkpt>
      <trkpt lat="47.29464" lon="-2.40072">
        <ele>-10.60000038147</ele>
        <time>2020-09-06T07:36:42.000Z</time>
      </trkpt>
      <trkpt lat="47.29458" lon="-2.40116">
        <ele>-10.60000038147</ele>
        <time>2020-09-06T07:36:47.000Z</time>
      </trkpt>
      <trkpt lat="47.29456" lon="-2.40159">
        <ele>-10.60000038147</ele>
        <time>2020-09-06T07:36:52.000Z</time>
      </trkpt>
      <trkpt lat="47.29455" lon="-2.40167">
        <ele>-10.60000038147</ele>
        <time>2020-09-06T07:36:53.000Z</time>
      </trkpt>
      <trkpt lat="47.29448" lon="-2.40202">
        <ele>-10.60000038147</ele>
        <time>2020-09-06T07:36:57.000Z</time>
      </trkpt>
      <trkpt lat="47.29443" lon="-2.40219">
        <ele>-10.60000038147</ele>
        <time>2020-09-06T07:37:00.000Z</time>
      </trkpt>
      <trkpt lat="47.2944" lon="-2.4022">
        <ele>-10.60000038147</ele>
        <time>2020-09-06T07:37:01.000Z</time>
      </trkpt>
      <trkpt lat="47.29435" lon="-2.40219">
        <ele>-10.60000038147</ele>
        <time>2020-09-06T07:37:03.000Z</time>
      </trkpt>
      <trkpt lat="47.29421" lon="-2.40221">
        <ele>-10.60000038147</ele>
        <time>2020-09-06T07:37:07.000Z</time>
      </trkpt>
      <trkpt lat="47.29409" lon="-2.40228">
        <ele>-10.60000038147</ele>
        <time>2020-09-06T07:37:10.000Z</time>
      </trkpt>
      <trkpt lat="47.29396" lon="-2.40236">
        <ele>-10.60000038147</ele>
        <time>2020-09-06T07:37:13.000Z</time>
      </trkpt>
      <trkpt lat="47.29371" lon="-2.40253">
        <ele>-10.60000038147</ele>
        <time>2020-09-06T07:37:18.000Z</time>
      </trkpt>
      <trkpt lat="47.29366" lon="-2.40259">
        <ele>-10.60000038147</ele>
        <time>2020-09-06T07:37:19.000Z</time>
      </trkpt>
      <trkpt lat="47.29356" lon="-2.4027">
        <ele>-10.60000038147</ele>
        <time>2020-09-06T07:37:21.000Z</time>
      </trkpt>
      <trkpt lat="47.2934" lon="-2.40283">
        <ele>-10.60000038147</ele>
        <time>2020-09-06T07:37:24.000Z</time>
      </trkpt>
      <trkpt lat="47.2931" lon="-2.40316">
        <ele>-10.60000038147</ele>
        <time>2020-09-06T07:37:30.000Z</time>
      </trkpt>
      <trkpt lat="47.29305" lon="-2.40321">
        <ele>-10.60000038147</ele>
        <time>2020-09-06T07:37:31.000Z</time>
      </trkpt>
      <trkpt lat="47.2929" lon="-2.40335">
        <ele>-10.60000038147</ele>
        <time>2020-09-06T07:37:34.000Z</time>
      </trkpt>
      <trkpt lat="47.29287" lon="-2.40342">
        <ele>-10.60000038147</ele>
        <time>2020-09-06T07:37:35.000Z</time>
      </trkpt>
      <trkpt lat="47.29287" lon="-2.40368">
        <ele>-10.60000038147</ele>
        <time>2020-09-06T07:37:38.000Z</time>
      </trkpt>
      <trkpt lat="47.29294" lon="-2.40384">
        <ele>-10.60000038147</ele>
        <time>2020-09-06T07:37:40.000Z</time>
      </trkpt>
      <trkpt lat="47.29302" lon="-2.40399">
        <ele>-10.60000038147</ele>
        <time>2020-09-06T07:37:42.000Z</time>
      </trkpt>
      <trkpt lat="47.29305" lon="-2.40406">
        <ele>-10.60000038147</ele>
        <time>2020-09-06T07:37:43.000Z</time>
      </trkpt>
      <trkpt lat="47.29304" lon="-2.40422">
        <ele>-10.60000038147</ele>
        <time>2020-09-06T07:37:45.000Z</time>
      </trkpt>
      <trkpt lat="47.2929" lon="-2.40458">
        <ele>-10.60000038147</ele>
        <time>2020-09-06T07:37:50.000Z</time>
      </trkpt>
      <trkpt lat="47.29286" lon="-2.40464">
        <ele>-10.60000038147</ele>
        <time>2020-09-06T07:37:51.000Z</time>
      </trkpt>
      <trkpt lat="47.2927" lon="-2.40473">
        <ele>-10.60000038147</ele>
        <time>2020-09-06T07:37:54.000Z</time>
      </trkpt>
      <trkpt lat="47.29264" lon="-2.40475">
        <ele>-10.60000038147</ele>
        <time>2020-09-06T07:37:55.000Z</time>
      </trkpt>
      <trkpt lat="47.29235" lon="-2.40489">
        <ele>-10.60000038147</ele>
        <time>2020-09-06T07:38:00.000Z</time>
      </trkpt>
      <trkpt lat="47.29201" lon="-2.4051">
        <ele>-10.60000038147</ele>
        <time>2020-09-06T07:38:06.000Z</time>
      </trkpt>
      <trkpt lat="47.29179" lon="-2.40519">
        <ele>-10.60000038147</ele>
        <time>2020-09-06T07:38:10.000Z</time>
      </trkpt>
      <trkpt lat="47.29174" lon="-2.40518">
        <ele>-10.60000038147</ele>
        <time>2020-09-06T07:38:11.000Z</time>
      </trkpt>
      <trkpt lat="47.29165" lon="-2.40502">
        <ele>-10.60000038147</ele>
        <time>2020-09-06T07:38:14.000Z</time>
      </trkpt>
      <trkpt lat="47.29162" lon="-2.40496">
        <ele>-10.60000038147</ele>
        <time>2020-09-06T07:38:15.000Z</time>
      </trkpt>
      <trkpt lat="47.29153" lon="-2.40487">
        <ele>-10.60000038147</ele>
        <time>2020-09-06T07:38:17.000Z</time>
      </trkpt>
      <trkpt lat="47.29135" lon="-2.40489">
        <ele>-10.60000038147</ele>
        <time>2020-09-06T07:38:20.000Z</time>
      </trkpt>
      <trkpt lat="47.29124" lon="-2.40496">
        <ele>-10.60000038147</ele>
        <time>2020-09-06T07:38:22.000Z</time>
      </trkpt>
      <trkpt lat="47.29107" lon="-2.40508">
        <ele>-10.60000038147</ele>
        <time>2020-09-06T07:38:25.000Z</time>
      </trkpt>
      <trkpt lat="47.29099" lon="-2.40532">
        <ele>-10.60000038147</ele>
        <time>2020-09-06T07:38:28.000Z</time>
      </trkpt>
      <trkpt lat="47.29106" lon="-2.40556">
        <ele>-10.60000038147</ele>
        <time>2020-09-06T07:38:31.000Z</time>
      </trkpt>
      <trkpt lat="47.29111" lon="-2.40561">
        <ele>-10.60000038147</ele>
        <time>2020-09-06T07:38:32.000Z</time>
      </trkpt>
      <trkpt lat="47.29122" lon="-2.40572">
        <ele>-10.60000038147</ele>
        <time>2020-09-06T07:38:34.000Z</time>
      </trkpt>
      <trkpt lat="47.29131" lon="-2.40586">
        <ele>-10.60000038147</ele>
        <time>2020-09-06T07:38:36.000Z</time>
      </trkpt>
      <trkpt lat="47.29141" lon="-2.4062">
        <ele>-10.60000038147</ele>
        <time>2020-09-06T07:38:40.000Z</time>
      </trkpt>
      <trkpt lat="47.29145" lon="-2.40643">
        <ele>-10.60000038147</ele>
        <time>2020-09-06T07:38:43.000Z</time>
      </trkpt>
      <trkpt lat="47.29153" lon="-2.40647">
        <ele>-10.60000038147</ele>
        <time>2020-09-06T07:38:45.000Z</time>
      </trkpt>
      <trkpt lat="47.29168" lon="-2.40635">
        <ele>-10.60000038147</ele>
        <time>2020-09-06T07:38:48.000Z</time>
      </trkpt>
      <trkpt lat="47.29179" lon="-2.40628">
        <ele>-10.60000038147</ele>
        <time>2020-09-06T07:38:50.000Z</time>
      </trkpt>
      <trkpt lat="47.29184" lon="-2.40624">
        <ele>-10.60000038147</ele>
        <time>2020-09-06T07:38:51.000Z</time>
      </trkpt>
      <trkpt lat="47.29194" lon="-2.40616">
        <ele>-10.60000038147</ele>
        <time>2020-09-06T07:38:53.000Z</time>
      </trkpt>
      <trkpt lat="47.29206" lon="-2.40617">
        <ele>-10.60000038147</ele>
        <time>2020-09-06T07:38:55.000Z</time>
      </trkpt>
      <trkpt lat="47.29221" lon="-2.40637">
        <ele>-10.60000038147</ele>
        <time>2020-09-06T07:38:58.000Z</time>
      </trkpt>
      <trkpt lat="47.29232" lon="-2.4067">
        <ele>-10.60000038147</ele>
        <time>2020-09-06T07:39:02.000Z</time>
      </trkpt>
      <trkpt lat="47.29229" lon="-2.40695">
        <ele>-10.60000038147</ele>
        <time>2020-09-06T07:39:05.000Z</time>
      </trkpt>
      <trkpt lat="47.29225" lon="-2.40703">
        <ele>-10.60000038147</ele>
        <time>2020-09-06T07:39:06.000Z</time>
      </trkpt>
      <trkpt lat="47.29222" lon="-2.4071">
        <ele>-10.60000038147</ele>
        <time>2020-09-06T07:39:07.000Z</time>
      </trkpt>
      <trkpt lat="47.2921" lon="-2.4073">
        <ele>-10.60000038147</ele>
        <time>2020-09-06T07:39:10.000Z</time>
      </trkpt>
      <trkpt lat="47.29192" lon="-2.40761">
        <ele>-10.60000038147</ele>
        <time>2020-09-06T07:39:14.000Z</time>
      </trkpt>
      <trkpt lat="47.29189" lon="-2.4077">
        <ele>-10.60000038147</ele>
        <time>2020-09-06T07:39:15.000Z</time>
      </trkpt>
      <trkpt lat="47.29176" lon="-2.40805">
        <ele>-10.60000038147</ele>
        <time>2020-09-06T07:39:19.000Z</time>
      </trkpt>
      <trkpt lat="47.29173" lon="-2.40814">
        <ele>-10.60000038147</ele>
        <time>2020-09-06T07:39:20.000Z</time>
      </trkpt>
      <trkpt lat="47.29173" lon="-2.40844">
        <ele>-10.60000038147</ele>
        <time>2020-09-06T07:39:23.000Z</time>
      </trkpt>
      <trkpt lat="47.29171" lon="-2.40881">
        <ele>-10.60000038147</ele>
        <time>2020-09-06T07:39:27.000Z</time>
      </trkpt>
      <trkpt lat="47.29166" lon="-2.40899">
        <ele>-10.60000038147</ele>
        <time>2020-09-06T07:39:29.000Z</time>
      </trkpt>
      <trkpt lat="47.29164" lon="-2.40908">
        <ele>-10.60000038147</ele>
        <time>2020-09-06T07:39:30.000Z</time>
      </trkpt>
      <trkpt lat="47.29163" lon="-2.40927">
        <ele>-10.60000038147</ele>
        <time>2020-09-06T07:39:32.000Z</time>
      </trkpt>
      <trkpt lat="47.29172" lon="-2.40952">
        <ele>-10.60000038147</ele>
        <time>2020-09-06T07:39:35.000Z</time>
      </trkpt>
      <trkpt lat="47.29176" lon="-2.40957">
        <ele>-10.60000038147</ele>
        <time>2020-09-06T07:39:36.000Z</time>
      </trkpt>
      <trkpt lat="47.29194" lon="-2.40963">
        <ele>-10.60000038147</ele>
        <time>2020-09-06T07:39:39.000Z</time>
      </trkpt>
      <trkpt lat="47.292" lon="-2.40966">
        <ele>-10.60000038147</ele>
        <time>2020-09-06T07:39:40.000Z</time>
      </trkpt>
      <trkpt lat="47.29205" lon="-2.4097">
        <ele>-10.60000038147</ele>
        <time>2020-09-06T07:39:41.000Z</time>
      </trkpt>
      <trkpt lat="47.29214" lon="-2.40983">
        <ele>-10.60000038147</ele>
        <time>2020-09-06T07:39:43.000Z</time>
      </trkpt>
      <trkpt lat="47.2922" lon="-2.40998">
        <ele>-10.60000038147</ele>
        <time>2020-09-06T07:39:45.000Z</time>
      </trkpt>
      <trkpt lat="47.29224" lon="-2.41005">
        <ele>-10.60000038147</ele>
        <time>2020-09-06T07:39:46.000Z</time>
      </trkpt>
      <trkpt lat="47.29231" lon="-2.4102">
        <ele>-10.60000038147</ele>
        <time>2020-09-06T07:39:48.000Z</time>
      </trkpt>
      <trkpt lat="47.29235" lon="-2.41026">
        <ele>-10.60000038147</ele>
        <time>2020-09-06T07:39:49.000Z</time>
      </trkpt>
      <trkpt lat="47.29245" lon="-2.41038">
        <ele>-10.60000038147</ele>
        <time>2020-09-06T07:39:51.000Z</time>
      </trkpt>
      <trkpt lat="47.29253" lon="-2.41051">
        <ele>-10.60000038147</ele>
        <time>2020-09-06T07:39:53.000Z</time>
      </trkpt>
      <trkpt lat="47.29252" lon="-2.41066">
        <ele>-10.60000038147</ele>
        <time>2020-09-06T07:39:55.000Z</time>
      </trkpt>
      <trkpt lat="47.29244" lon="-2.41086">
        <ele>-10.60000038147</ele>
        <time>2020-09-06T07:39:58.000Z</time>
      </trkpt>
      <trkpt lat="47.29251" lon="-2.41106">
        <ele>-10.60000038147</ele>
        <time>2020-09-06T07:40:01.000Z</time>
      </trkpt>
      <trkpt lat="47.29256" lon="-2.41112">
        <ele>-10.60000038147</ele>
        <time>2020-09-06T07:40:02.000Z</time>
      </trkpt>
      <trkpt lat="47.29279" lon="-2.41139">
        <ele>-10.60000038147</ele>
        <time>2020-09-06T07:40:07.000Z</time>
      </trkpt>
      <trkpt lat="47.29294" lon="-2.41166">
        <ele>-10.60000038147</ele>
        <time>2020-09-06T07:40:11.000Z</time>
      </trkpt>
      <trkpt lat="47.29296" lon="-2.41174">
        <ele>-10.60000038147</ele>
        <time>2020-09-06T07:40:12.000Z</time>
      </trkpt>
      <trkpt lat="47.29303" lon="-2.41189">
        <ele>-10.60000038147</ele>
        <time>2020-09-06T07:40:14.000Z</time>
      </trkpt>
      <trkpt lat="47.29312" lon="-2.41202">
        <ele>-10.60000038147</ele>
        <time>2020-09-06T07:40:16.000Z</time>
      </trkpt>
      <trkpt lat="47.29346" lon="-2.41242">
        <ele>-10.60000038147</ele>
        <time>2020-09-06T07:40:23.000Z</time>
      </trkpt>
      <trkpt lat="47.2935" lon="-2.41248">
        <ele>-10.60000038147</ele>
        <time>2020-09-06T07:40:24.000Z</time>
      </trkpt>
      <trkpt lat="47.29356" lon="-2.41271">
        <ele>-10.60000038147</ele>
        <time>2020-09-06T07:40:27.000Z</time>
      </trkpt>
      <trkpt lat="47.29358" lon="-2.41279">
        <ele>-10.60000038147</ele>
        <time>2020-09-06T07:40:28.000Z</time>
      </trkpt>
      <trkpt lat="47.2936" lon="-2.41302">
        <ele>-10.60000038147</ele>
        <time>2020-09-06T07:40:31.000Z</time>
      </trkpt>
      <trkpt lat="47.29359" lon="-2.4131">
        <ele>-10.60000038147</ele>
        <time>2020-09-06T07:40:32.000Z</time>
      </trkpt>
      <trkpt lat="47.29351" lon="-2.41331">
        <ele>-10.60000038147</ele>
        <time>2020-09-06T07:40:35.000Z</time>
      </trkpt>
      <trkpt lat="47.29349" lon="-2.41339">
        <ele>-10.60000038147</ele>
        <time>2020-09-06T07:40:36.000Z</time>
      </trkpt>
      <trkpt lat="47.29354" lon="-2.41362">
        <ele>-10.60000038147</ele>
        <time>2020-09-06T07:40:39.000Z</time>
      </trkpt>
      <trkpt lat="47.29365" lon="-2.41378">
        <ele>-10.60000038147</ele>
        <time>2020-09-06T07:40:42.000Z</time>
      </trkpt>
      <trkpt lat="47.29369" lon="-2.41383">
        <ele>-10.60000038147</ele>
        <time>2020-09-06T07:40:43.000Z</time>
      </trkpt>
      <trkpt lat="47.29383" lon="-2.41405">
        <ele>-10.60000038147</ele>
        <time>2020-09-06T07:40:47.000Z</time>
      </trkpt>
      <trkpt lat="47.29386" lon="-2.41411">
        <ele>-10.60000038147</ele>
        <time>2020-09-06T07:40:48.000Z</time>
      </trkpt>
      <trkpt lat="47.29407" lon="-2.41457">
        <ele>-10.60000038147</ele>
        <time>2020-09-06T07:40:55.000Z</time>
      </trkpt>
      <trkpt lat="47.29432" lon="-2.41486">
        <ele>-10.60000038147</ele>
        <time>2020-09-06T07:41:01.000Z</time>
      </trkpt>
      <trkpt lat="47.29453" lon="-2.41488">
        <ele>-10.60000038147</ele>
        <time>2020-09-06T07:41:05.000Z</time>
      </trkpt>
      <trkpt lat="47.2947" lon="-2.41485">
        <ele>-10.60000038147</ele>
        <time>2020-09-06T07:41:08.000Z</time>
      </trkpt>
      <trkpt lat="47.2948" lon="-2.41487">
        <ele>-10.60000038147</ele>
        <time>2020-09-06T07:41:10.000Z</time>
      </trkpt>
      <trkpt lat="47.29486" lon="-2.41488">
        <ele>-10.60000038147</ele>
        <time>2020-09-06T07:41:11.000Z</time>
      </trkpt>
      <trkpt lat="47.29501" lon="-2.41482">
        <ele>-10.60000038147</ele>
        <time>2020-09-06T07:41:14.000Z</time>
      </trkpt>
      <trkpt lat="47.29506" lon="-2.41479">
        <ele>-10.60000038147</ele>
        <time>2020-09-06T07:41:15.000Z</time>
      </trkpt>
      <trkpt lat="47.29517" lon="-2.41481">
        <ele>-10.60000038147</ele>
        <time>2020-09-06T07:41:17.000Z</time>
      </trkpt>
      <trkpt lat="47.29529" lon="-2.41494">
        <ele>-10.60000038147</ele>
        <time>2020-09-06T07:41:20.000Z</time>
      </trkpt>
      <trkpt lat="47.29534" lon="-2.41504">
        <ele>-10.60000038147</ele>
        <time>2020-09-06T07:41:22.000Z</time>
      </trkpt>
      <trkpt lat="47.29537" lon="-2.41511">
        <ele>-10.60000038147</ele>
        <time>2020-09-06T07:41:24.000Z</time>
      </trkpt>
      <trkpt lat="47.29539" lon="-2.41518">
        <ele>-10.60000038147</ele>
        <time>2020-09-06T07:41:28.000Z</time>
      </trkpt>
      <trkpt lat="47.29539" lon="-2.41518">
        <ele>-10.60000038147</ele>
        <time>2020-09-06T07:41:29.000Z</time>
      </trkpt>
      <trkpt lat="47.29541" lon="-2.41523">
        <ele>-12.199999809265</ele>
        <time>2020-09-06T07:41:56.000Z</time>
      </trkpt>
      <trkpt lat="47.29541" lon="-2.41525">
        <ele>-12.60000038147</ele>
        <time>2020-09-06T07:41:57.000Z</time>
      </trkpt>
      <trkpt lat="47.29542" lon="-2.41528">
        <ele>-12.60000038147</ele>
        <time>2020-09-06T07:41:58.000Z</time>
      </trkpt>
      <trkpt lat="47.29542" lon="-2.41548">
        <ele>-12.60000038147</ele>
        <time>2020-09-06T07:42:02.000Z</time>
      </trkpt>
      <trkpt lat="47.29532" lon="-2.41579">
        <ele>-12.60000038147</ele>
        <time>2020-09-06T07:42:08.000Z</time>
      </trkpt>
      <trkpt lat="47.29528" lon="-2.41606">
        <ele>-12.60000038147</ele>
        <time>2020-09-06T07:42:13.000Z</time>
      </trkpt>
      <trkpt lat="47.29531" lon="-2.41639">
        <ele>-12.60000038147</ele>
        <time>2020-09-06T07:42:19.000Z</time>
      </trkpt>
      <trkpt lat="47.29535" lon="-2.41657">
        <ele>-12.60000038147</ele>
        <time>2020-09-06T07:42:22.000Z</time>
      </trkpt>
      <trkpt lat="47.29539" lon="-2.41668">
        <ele>-12.199999809265</ele>
        <time>2020-09-06T07:42:24.000Z</time>
      </trkpt>
      <trkpt lat="47.29542" lon="-2.41674">
        <ele>-11.800000190735</ele>
        <time>2020-09-06T07:42:25.000Z</time>
      </trkpt>
      <trkpt lat="47.29544" lon="-2.4168">
        <ele>-11.39999961853</ele>
        <time>2020-09-06T07:42:26.000Z</time>
      </trkpt>
      <trkpt lat="47.29546" lon="-2.41686">
        <ele>-10.800000190735</ele>
        <time>2020-09-06T07:42:27.000Z</time>
      </trkpt>
      <trkpt lat="47.29549" lon="-2.41691">
        <ele>-10.39999961853</ele>
        <time>2020-09-06T07:42:28.000Z</time>
      </trkpt>
      <trkpt lat="47.29558" lon="-2.41706">
        <ele>-10.39999961853</ele>
        <time>2020-09-06T07:42:31.000Z</time>
      </trkpt>
      <trkpt lat="47.29562" lon="-2.41709">
        <ele>-10.39999961853</ele>
        <time>2020-09-06T07:42:32.000Z</time>
      </trkpt>
      <trkpt lat="47.2958" lon="-2.41716">
        <ele>-10.39999961853</ele>
        <time>2020-09-06T07:42:36.000Z</time>
      </trkpt>
      <trkpt lat="47.29595" lon="-2.41727">
        <ele>-10.39999961853</ele>
        <time>2020-09-06T07:42:39.000Z</time>
      </trkpt>
      <trkpt lat="47.29604" lon="-2.41736">
        <ele>-10.39999961853</ele>
        <time>2020-09-06T07:42:41.000Z</time>
      </trkpt>
      <trkpt lat="47.29626" lon="-2.41762">
        <ele>-10.39999961853</ele>
        <time>2020-09-06T07:42:46.000Z</time>
      </trkpt>
      <trkpt lat="47.29634" lon="-2.41775">
        <ele>-10.39999961853</ele>
        <time>2020-09-06T07:42:48.000Z</time>
      </trkpt>
      <trkpt lat="47.2964" lon="-2.41806">
        <ele>-10.39999961853</ele>
        <time>2020-09-06T07:42:52.000Z</time>
      </trkpt>
      <trkpt lat="47.2965" lon="-2.41825">
        <ele>-10.39999961853</ele>
        <time>2020-09-06T07:42:55.000Z</time>
      </trkpt>
      <trkpt lat="47.29666" lon="-2.41829">
        <ele>-10.39999961853</ele>
        <time>2020-09-06T07:42:58.000Z</time>
      </trkpt>
      <trkpt lat="47.29693" lon="-2.41823">
        <ele>-10.39999961853</ele>
        <time>2020-09-06T07:43:03.000Z</time>
      </trkpt>
      <trkpt lat="47.29699" lon="-2.41819">
        <ele>-10.39999961853</ele>
        <time>2020-09-06T07:43:04.000Z</time>
      </trkpt>
      <trkpt lat="47.29707" lon="-2.41809">
        <ele>-10.39999961853</ele>
        <time>2020-09-06T07:43:06.000Z</time>
      </trkpt>
      <trkpt lat="47.29714" lon="-2.41796">
        <ele>-10.39999961853</ele>
        <time>2020-09-06T07:43:08.000Z</time>
      </trkpt>
      <trkpt lat="47.29724" lon="-2.41779">
        <ele>-10.39999961853</ele>
        <time>2020-09-06T07:43:11.000Z</time>
      </trkpt>
      <trkpt lat="47.29742" lon="-2.41758">
        <ele>-10.39999961853</ele>
        <time>2020-09-06T07:43:16.000Z</time>
      </trkpt>
      <trkpt lat="47.29746" lon="-2.41755">
        <ele>-10.39999961853</ele>
        <time>2020-09-06T07:43:17.000Z</time>
      </trkpt>
      <trkpt lat="47.29762" lon="-2.41751">
        <ele>-10.39999961853</ele>
        <time>2020-09-06T07:43:21.000Z</time>
      </trkpt>
      <trkpt lat="47.29766" lon="-2.41754">
        <ele>-10.39999961853</ele>
        <time>2020-09-06T07:43:22.000Z</time>
      </trkpt>
      <trkpt lat="47.29771" lon="-2.41766">
        <ele>-10.39999961853</ele>
        <time>2020-09-06T07:43:25.000Z</time>
      </trkpt>
      <trkpt lat="47.29772" lon="-2.41776">
        <ele>-10.39999961853</ele>
        <time>2020-09-06T07:43:27.000Z</time>
      </trkpt>
      <trkpt lat="47.29774" lon="-2.41803">
        <ele>-10.39999961853</ele>
        <time>2020-09-06T07:43:32.000Z</time>
      </trkpt>
      <trkpt lat="47.29772" lon="-2.41834">
        <ele>-10.39999961853</ele>
        <time>2020-09-06T07:43:38.000Z</time>
      </trkpt>
      <trkpt lat="47.29771" lon="-2.41876">
        <ele>-10.39999961853</ele>
        <time>2020-09-06T07:43:44.000Z</time>
      </trkpt>
      <trkpt lat="47.29779" lon="-2.41931">
        <ele>-10.39999961853</ele>
        <time>2020-09-06T07:43:51.000Z</time>
      </trkpt>
      <trkpt lat="47.29791" lon="-2.42008">
        <ele>-10.39999961853</ele>
        <time>2020-09-06T07:44:00.000Z</time>
      </trkpt>
      <trkpt lat="47.29786" lon="-2.42032">
        <ele>-10.39999961853</ele>
        <time>2020-09-06T07:44:03.000Z</time>
      </trkpt>
      <trkpt lat="47.29778" lon="-2.42046">
        <ele>-10.39999961853</ele>
        <time>2020-09-06T07:44:05.000Z</time>
      </trkpt>
      <trkpt lat="47.29766" lon="-2.42067">
        <ele>-10.39999961853</ele>
        <time>2020-09-06T07:44:08.000Z</time>
      </trkpt>
      <trkpt lat="47.29751" lon="-2.42094">
        <ele>-10.800000190735</ele>
        <time>2020-09-06T07:44:12.000Z</time>
      </trkpt>
      <trkpt lat="47.29747" lon="-2.42101">
        <ele>-11.199999809265</ele>
        <time>2020-09-06T07:44:13.000Z</time>
      </trkpt>
      <trkpt lat="47.29743" lon="-2.42108">
        <ele>-11.800000190735</ele>
        <time>2020-09-06T07:44:14.000Z</time>
      </trkpt>
      <trkpt lat="47.2974" lon="-2.42114">
        <ele>-12.60000038147</ele>
        <time>2020-09-06T07:44:15.000Z</time>
      </trkpt>
      <trkpt lat="47.29732" lon="-2.42128">
        <ele>-12.60000038147</ele>
        <time>2020-09-06T07:44:17.000Z</time>
      </trkpt>
      <trkpt lat="47.297" lon="-2.42182">
        <ele>-12.60000038147</ele>
        <time>2020-09-06T07:44:25.000Z</time>
      </trkpt>
      <trkpt lat="47.29671" lon="-2.4224">
        <ele>-12.60000038147</ele>
        <time>2020-09-06T07:44:33.000Z</time>
      </trkpt>
      <trkpt lat="47.29664" lon="-2.42265">
        <ele>-12.60000038147</ele>
        <time>2020-09-06T07:44:36.000Z</time>
      </trkpt>
      <trkpt lat="47.2966" lon="-2.42282">
        <ele>-12.60000038147</ele>
        <time>2020-09-06T07:44:38.000Z</time>
      </trkpt>
      <trkpt lat="47.29644" lon="-2.42351">
        <ele>-12.60000038147</ele>
        <time>2020-09-06T07:44:46.000Z</time>
      </trkpt>
      <trkpt lat="47.29629" lon="-2.42416">
        <ele>-12.60000038147</ele>
        <time>2020-09-06T07:44:54.000Z</time>
      </trkpt>
      <trkpt lat="47.29621" lon="-2.42437">
        <ele>-12.60000038147</ele>
        <time>2020-09-06T07:44:58.000Z</time>
      </trkpt>
      <trkpt lat="47.29608" lon="-2.42437">
        <ele>-12.60000038147</ele>
        <time>2020-09-06T07:45:02.000Z</time>
      </trkpt>
      <trkpt lat="47.29604" lon="-2.42435">
        <ele>-12.60000038147</ele>
        <time>2020-09-06T07:45:03.000Z</time>
      </trkpt>
      <trkpt lat="47.29584" lon="-2.42428">
        <ele>-12.60000038147</ele>
        <time>2020-09-06T07:45:08.000Z</time>
      </trkpt>
      <trkpt lat="47.29567" lon="-2.42427">
        <ele>-12.60000038147</ele>
        <time>2020-09-06T07:45:12.000Z</time>
      </trkpt>
      <trkpt lat="47.29563" lon="-2.42429">
        <ele>-12.60000038147</ele>
        <time>2020-09-06T07:45:13.000Z</time>
      </trkpt>
      <trkpt lat="47.29552" lon="-2.42438">
        <ele>-12.60000038147</ele>
        <time>2020-09-06T07:45:16.000Z</time>
      </trkpt>
      <trkpt lat="47.29546" lon="-2.42445">
        <ele>-12.60000038147</ele>
        <time>2020-09-06T07:45:18.000Z</time>
      </trkpt>
      <trkpt lat="47.29532" lon="-2.42471">
        <ele>-12.60000038147</ele>
        <time>2020-09-06T07:45:23.000Z</time>
      </trkpt>
      <trkpt lat="47.29514" lon="-2.42487">
        <ele>-12.60000038147</ele>
        <time>2020-09-06T07:45:27.000Z</time>
      </trkpt>
      <trkpt lat="47.29509" lon="-2.42491">
        <ele>-12.60000038147</ele>
        <time>2020-09-06T07:45:28.000Z</time>
      </trkpt>
      <trkpt lat="47.2949" lon="-2.42512">
        <ele>-12.60000038147</ele>
        <time>2020-09-06T07:45:33.000Z</time>
      </trkpt>
      <trkpt lat="47.2947" lon="-2.42534">
        <ele>-12.60000038147</ele>
        <time>2020-09-06T07:45:40.000Z</time>
      </trkpt>
      <trkpt lat="47.2946" lon="-2.42545">
        <ele>-12.60000038147</ele>
        <time>2020-09-06T07:45:43.000Z</time>
      </trkpt>
      <trkpt lat="47.2945" lon="-2.42553">
        <ele>-12.60000038147</ele>
        <time>2020-09-06T07:45:46.000Z</time>
      </trkpt>
      <trkpt lat="47.29447" lon="-2.42557">
        <ele>-12.60000038147</ele>
        <time>2020-09-06T07:45:47.000Z</time>
      </trkpt>
      <trkpt lat="47.29436" lon="-2.42571">
        <ele>-12.60000038147</ele>
        <time>2020-09-06T07:45:50.000Z</time>
      </trkpt>
      <trkpt lat="47.29425" lon="-2.42586">
        <ele>-12.60000038147</ele>
        <time>2020-09-06T07:45:53.000Z</time>
      </trkpt>
      <trkpt lat="47.29421" lon="-2.42601">
        <ele>-12.60000038147</ele>
        <time>2020-09-06T07:45:55.000Z</time>
      </trkpt>
      <trkpt lat="47.29421" lon="-2.42618">
        <ele>-12.60000038147</ele>
        <time>2020-09-06T07:45:57.000Z</time>
      </trkpt>
      <trkpt lat="47.29419" lon="-2.42644">
        <ele>-12.60000038147</ele>
        <time>2020-09-06T07:46:00.000Z</time>
      </trkpt>
      <trkpt lat="47.29416" lon="-2.42677">
        <ele>-12.60000038147</ele>
        <time>2020-09-06T07:46:04.000Z</time>
      </trkpt>
      <trkpt lat="47.29412" lon="-2.42689">
        <ele>-12.60000038147</ele>
        <time>2020-09-06T07:46:06.000Z</time>
      </trkpt>
      <trkpt lat="47.29404" lon="-2.42705">
        <ele>-12.60000038147</ele>
        <time>2020-09-06T07:46:09.000Z</time>
      </trkpt>
      <trkpt lat="47.29397" lon="-2.42722">
        <ele>-12.60000038147</ele>
        <time>2020-09-06T07:46:12.000Z</time>
      </trkpt>
      <trkpt lat="47.29385" lon="-2.4276">
        <ele>-12.60000038147</ele>
        <time>2020-09-06T07:46:18.000Z</time>
      </trkpt>
      <trkpt lat="47.29373" lon="-2.42802">
        <ele>-12.60000038147</ele>
        <time>2020-09-06T07:46:25.000Z</time>
      </trkpt>
      <trkpt lat="47.29359" lon="-2.4282">
        <ele>-12.60000038147</ele>
        <time>2020-09-06T07:46:29.000Z</time>
      </trkpt>
      <trkpt lat="47.29354" lon="-2.42825">
        <ele>-12.60000038147</ele>
        <time>2020-09-06T07:46:30.000Z</time>
      </trkpt>
      <trkpt lat="47.29346" lon="-2.42835">
        <ele>-12.60000038147</ele>
        <time>2020-09-06T07:46:32.000Z</time>
      </trkpt>
      <trkpt lat="47.29339" lon="-2.42848">
        <ele>-12.60000038147</ele>
        <time>2020-09-06T07:46:34.000Z</time>
      </trkpt>
      <trkpt lat="47.29325" lon="-2.42883">
        <ele>-12.60000038147</ele>
        <time>2020-09-06T07:46:39.000Z</time>
      </trkpt>
      <trkpt lat="47.29321" lon="-2.42899">
        <ele>-12.60000038147</ele>
        <time>2020-09-06T07:46:41.000Z</time>
      </trkpt>
      <trkpt lat="47.29313" lon="-2.42939">
        <ele>-12.60000038147</ele>
        <time>2020-09-06T07:46:46.000Z</time>
      </trkpt>
      <trkpt lat="47.29313" lon="-2.42957">
        <ele>-12.60000038147</ele>
        <time>2020-09-06T07:46:48.000Z</time>
      </trkpt>
      <trkpt lat="47.29313" lon="-2.42983">
        <ele>-12.60000038147</ele>
        <time>2020-09-06T07:46:51.000Z</time>
      </trkpt>
      <trkpt lat="47.29312" lon="-2.42999">
        <ele>-12.60000038147</ele>
        <time>2020-09-06T07:46:53.000Z</time>
      </trkpt>
      <trkpt lat="47.29308" lon="-2.43023">
        <ele>-12.60000038147</ele>
        <time>2020-09-06T07:46:56.000Z</time>
      </trkpt>
      <trkpt lat="47.29304" lon="-2.43049">
        <ele>-12.60000038147</ele>
        <time>2020-09-06T07:46:59.000Z</time>
      </trkpt>
      <trkpt lat="47.29304" lon="-2.43057">
        <ele>-12.60000038147</ele>
        <time>2020-09-06T07:47:00.000Z</time>
      </trkpt>
      <trkpt lat="47.29309" lon="-2.43073">
        <ele>-12.60000038147</ele>
        <time>2020-09-06T07:47:02.000Z</time>
      </trkpt>
      <trkpt lat="47.29323" lon="-2.43084">
        <ele>-12.60000038147</ele>
        <time>2020-09-06T07:47:05.000Z</time>
      </trkpt>
      <trkpt lat="47.29342" lon="-2.43097">
        <ele>-12.60000038147</ele>
        <time>2020-09-06T07:47:09.000Z</time>
      </trkpt>
      <trkpt lat="47.29346" lon="-2.43102">
        <ele>-12.60000038147</ele>
        <time>2020-09-06T07:47:10.000Z</time>
      </trkpt>
      <trkpt lat="47.2936" lon="-2.43134">
        <ele>-12.60000038147</ele>
        <time>2020-09-06T07:47:15.000Z</time>
      </trkpt>
      <trkpt lat="47.29366" lon="-2.43148">
        <ele>-12.60000038147</ele>
        <time>2020-09-06T07:47:17.000Z</time>
      </trkpt>
      <trkpt lat="47.29372" lon="-2.4317">
        <ele>-12.60000038147</ele>
        <time>2020-09-06T07:47:20.000Z</time>
      </trkpt>
      <trkpt lat="47.29373" lon="-2.43178">
        <ele>-12.60000038147</ele>
        <time>2020-09-06T07:47:21.000Z</time>
      </trkpt>
      <trkpt lat="47.29375" lon="-2.43194">
        <ele>-12.60000038147</ele>
        <time>2020-09-06T07:47:23.000Z</time>
      </trkpt>
      <trkpt lat="47.29375" lon="-2.4321">
        <ele>-12.60000038147</ele>
        <time>2020-09-06T07:47:25.000Z</time>
      </trkpt>
      <trkpt lat="47.29373" lon="-2.43218">
        <ele>-12.60000038147</ele>
        <time>2020-09-06T07:47:26.000Z</time>
      </trkpt>
      <trkpt lat="47.29365" lon="-2.43233">
        <ele>-12.60000038147</ele>
        <time>2020-09-06T07:47:29.000Z</time>
      </trkpt>
      <trkpt lat="47.29357" lon="-2.43256">
        <ele>-12.60000038147</ele>
        <time>2020-09-06T07:47:34.000Z</time>
      </trkpt>
      <trkpt lat="47.29361" lon="-2.43292">
        <ele>-12.60000038147</ele>
        <time>2020-09-06T07:47:40.000Z</time>
      </trkpt>
      <trkpt lat="47.29374" lon="-2.43309">
        <ele>-12.60000038147</ele>
        <time>2020-09-06T07:47:44.000Z</time>
      </trkpt>
      <trkpt lat="47.29391" lon="-2.43331">
        <ele>-12.60000038147</ele>
        <time>2020-09-06T07:47:49.000Z</time>
      </trkpt>
      <trkpt lat="47.29397" lon="-2.43341">
        <ele>-12.60000038147</ele>
        <time>2020-09-06T07:47:51.000Z</time>
      </trkpt>
      <trkpt lat="47.29409" lon="-2.43365">
        <ele>-12.60000038147</ele>
        <time>2020-09-06T07:47:56.000Z</time>
      </trkpt>
      <trkpt lat="47.29411" lon="-2.43383">
        <ele>-12.60000038147</ele>
        <time>2020-09-06T07:47:59.000Z</time>
      </trkpt>
      <trkpt lat="47.29414" lon="-2.43387">
        <ele>-12.60000038147</ele>
        <time>2020-09-06T07:48:00.000Z</time>
      </trkpt>
      <trkpt lat="47.29421" lon="-2.43391">
        <ele>-12.60000038147</ele>
        <time>2020-09-06T07:48:03.000Z</time>
      </trkpt>
      <trkpt lat="47.29432" lon="-2.43402">
        <ele>-12.60000038147</ele>
        <time>2020-09-06T07:48:07.000Z</time>
      </trkpt>
      <trkpt lat="47.29437" lon="-2.4343">
        <ele>-12.60000038147</ele>
        <time>2020-09-06T07:48:12.000Z</time>
      </trkpt>
      <trkpt lat="47.29444" lon="-2.43451">
        <ele>-12.60000038147</ele>
        <time>2020-09-06T07:48:17.000Z</time>
      </trkpt>
      <trkpt lat="47.29452" lon="-2.43467">
        <ele>-12.60000038147</ele>
        <time>2020-09-06T07:48:21.000Z</time>
      </trkpt>
      <trkpt lat="47.29454" lon="-2.43468">
        <ele>-12.60000038147</ele>
        <time>2020-09-06T07:48:22.000Z</time>
      </trkpt>
      <trkpt lat="47.29465" lon="-2.43466">
        <ele>-12.60000038147</ele>
        <time>2020-09-06T07:48:26.000Z</time>
      </trkpt>
      <trkpt lat="47.29468" lon="-2.43465">
        <ele>-12.60000038147</ele>
        <time>2020-09-06T07:48:27.000Z</time>
      </trkpt>
      <trkpt lat="47.29478" lon="-2.4346">
        <ele>-12.60000038147</ele>
        <time>2020-09-06T07:48:33.000Z</time>
      </trkpt>
      <trkpt lat="47.29479" lon="-2.43462">
        <ele>-12.60000038147</ele>
        <time>2020-09-06T07:48:36.000Z</time>
      </trkpt>
      <trkpt lat="47.2948" lon="-2.43464">
        <ele>-12.60000038147</ele>
        <time>2020-09-06T07:48:50.000Z</time>
      </trkpt>
      <trkpt lat="47.29491" lon="-2.43475">
        <ele>-12.60000038147</ele>
        <time>2020-09-06T07:48:55.000Z</time>
      </trkpt>
      <trkpt lat="47.29511" lon="-2.43483">
        <ele>-12.60000038147</ele>
        <time>2020-09-06T07:49:01.000Z</time>
      </trkpt>
      <trkpt lat="47.29537" lon="-2.43492">
        <ele>-12.60000038147</ele>
        <time>2020-09-06T07:49:09.000Z</time>
      </trkpt>
      <trkpt lat="47.29555" lon="-2.43494">
        <ele>-12.60000038147</ele>
        <time>2020-09-06T07:49:15.000Z</time>
      </trkpt>
      <trkpt lat="47.29577" lon="-2.43495">
        <ele>-12.60000038147</ele>
        <time>2020-09-06T07:49:22.000Z</time>
      </trkpt>
      <trkpt lat="47.29602" lon="-2.43494">
        <ele>-12.60000038147</ele>
        <time>2020-09-06T07:49:29.000Z</time>
      </trkpt>
      <trkpt lat="47.29616" lon="-2.43491">
        <ele>-12.60000038147</ele>
        <time>2020-09-06T07:49:33.000Z</time>
      </trkpt>
      <trkpt lat="47.29629" lon="-2.43493">
        <ele>-12.60000038147</ele>
        <time>2020-09-06T07:49:38.000Z</time>
      </trkpt>
      <trkpt lat="47.29631" lon="-2.43509">
        <ele>-12.60000038147</ele>
        <time>2020-09-06T07:49:42.000Z</time>
      </trkpt>
      <trkpt lat="47.29641" lon="-2.43524">
        <ele>-12.60000038147</ele>
        <time>2020-09-06T07:49:47.000Z</time>
      </trkpt>
      <trkpt lat="47.29653" lon="-2.43523">
        <ele>-12.60000038147</ele>
        <time>2020-09-06T07:49:50.000Z</time>
      </trkpt>
      <trkpt lat="47.29678" lon="-2.43509">
        <ele>-12.60000038147</ele>
        <time>2020-09-06T07:49:56.000Z</time>
      </trkpt>
      <trkpt lat="47.2969" lon="-2.43502">
        <ele>-12.60000038147</ele>
        <time>2020-09-06T07:49:59.000Z</time>
      </trkpt>
      <trkpt lat="47.29702" lon="-2.43494">
        <ele>-12.60000038147</ele>
        <time>2020-09-06T07:50:02.000Z</time>
      </trkpt>
      <trkpt lat="47.29739" lon="-2.43465">
        <ele>-12.60000038147</ele>
        <time>2020-09-06T07:50:11.000Z</time>
      </trkpt>
      <trkpt lat="47.29764" lon="-2.43441">
        <ele>-12.60000038147</ele>
        <time>2020-09-06T07:50:17.000Z</time>
      </trkpt>
      <trkpt lat="47.29803" lon="-2.43399">
        <ele>-12.60000038147</ele>
        <time>2020-09-06T07:50:26.000Z</time>
      </trkpt>
      <trkpt lat="47.29835" lon="-2.43366">
        <ele>-12.60000038147</ele>
        <time>2020-09-06T07:50:33.000Z</time>
      </trkpt>
      <trkpt lat="47.29863" lon="-2.43337">
        <ele>-12.60000038147</ele>
        <time>2020-09-06T07:50:40.000Z</time>
      </trkpt>
      <trkpt lat="47.29871" lon="-2.43331">
        <ele>-12.60000038147</ele>
        <time>2020-09-06T07:50:42.000Z</time>
      </trkpt>
      <trkpt lat="47.2989" lon="-2.43322">
        <ele>-12.60000038147</ele>
        <time>2020-09-06T07:50:46.000Z</time>
      </trkpt>
      <trkpt lat="47.29924" lon="-2.4331">
        <ele>-12.60000038147</ele>
        <time>2020-09-06T07:50:53.000Z</time>
      </trkpt>
      <trkpt lat="47.29963" lon="-2.43295">
        <ele>-12.60000038147</ele>
        <time>2020-09-06T07:51:01.000Z</time>
      </trkpt>
      <trkpt lat="47.29983" lon="-2.43302">
        <ele>-12.60000038147</ele>
        <time>2020-09-06T07:51:05.000Z</time>
      </trkpt>
      <trkpt lat="47.29993" lon="-2.4331">
        <ele>-12.60000038147</ele>
        <time>2020-09-06T07:51:07.000Z</time>
      </trkpt>
      <trkpt lat="47.30011" lon="-2.43327">
        <ele>-12.60000038147</ele>
        <time>2020-09-06T07:51:11.000Z</time>
      </trkpt>
      <trkpt lat="47.30017" lon="-2.43331">
        <ele>-12.60000038147</ele>
        <time>2020-09-06T07:51:12.000Z</time>
      </trkpt>
      <trkpt lat="47.3004" lon="-2.43337">
        <ele>-12.60000038147</ele>
        <time>2020-09-06T07:51:16.000Z</time>
      </trkpt>
      <trkpt lat="47.30058" lon="-2.43336">
        <ele>-12.60000038147</ele>
        <time>2020-09-06T07:51:19.000Z</time>
      </trkpt>
      <trkpt lat="47.30075" lon="-2.43332">
        <ele>-12.60000038147</ele>
        <time>2020-09-06T07:51:22.000Z</time>
      </trkpt>
      <trkpt lat="47.3012" lon="-2.43321">
        <ele>-12.60000038147</ele>
        <time>2020-09-06T07:51:30.000Z</time>
      </trkpt>
      <trkpt lat="47.30132" lon="-2.43317">
        <ele>-12.60000038147</ele>
        <time>2020-09-06T07:51:32.000Z</time>
      </trkpt>
      <trkpt lat="47.30156" lon="-2.4331">
        <ele>-12.60000038147</ele>
        <time>2020-09-06T07:51:36.000Z</time>
      </trkpt>
      <trkpt lat="47.30192" lon="-2.43295">
        <ele>-12.60000038147</ele>
        <time>2020-09-06T07:51:42.000Z</time>
      </trkpt>
      <trkpt lat="47.30247" lon="-2.43272">
        <ele>-12.60000038147</ele>
        <time>2020-09-06T07:51:51.000Z</time>
      </trkpt>
      <trkpt lat="47.30283" lon="-2.43259">
        <ele>-12.60000038147</ele>
        <time>2020-09-06T07:51:57.000Z</time>
      </trkpt>
      <trkpt lat="47.30319" lon="-2.43249">
        <ele>-12.60000038147</ele>
        <time>2020-09-06T07:52:03.000Z</time>
      </trkpt>
      <trkpt lat="47.30355" lon="-2.43242">
        <ele>-12.60000038147</ele>
        <time>2020-09-06T07:52:09.000Z</time>
      </trkpt>
      <trkpt lat="47.3037" lon="-2.43238">
        <ele>-12.60000038147</ele>
        <time>2020-09-06T07:52:12.000Z</time>
      </trkpt>
      <trkpt lat="47.30379" lon="-2.43235">
        <ele>-12.60000038147</ele>
        <time>2020-09-06T07:52:14.000Z</time>
      </trkpt>
      <trkpt lat="47.30393" lon="-2.43244">
        <ele>-12.60000038147</ele>
        <time>2020-09-06T07:52:17.000Z</time>
      </trkpt>
      <trkpt lat="47.30404" lon="-2.43272">
        <ele>-12.60000038147</ele>
        <time>2020-09-06T07:52:21.000Z</time>
      </trkpt>
      <trkpt lat="47.30418" lon="-2.43331">
        <ele>-12.60000038147</ele>
        <time>2020-09-06T07:52:28.000Z</time>
      </trkpt>
      <trkpt lat="47.30428" lon="-2.43388">
        <ele>-12.60000038147</ele>
        <time>2020-09-06T07:52:35.000Z</time>
      </trkpt>
      <trkpt lat="47.30434" lon="-2.43415">
        <ele>-12.60000038147</ele>
        <time>2020-09-06T07:52:39.000Z</time>
      </trkpt>
      <trkpt lat="47.30438" lon="-2.4342">
        <ele>-12.60000038147</ele>
        <time>2020-09-06T07:52:40.000Z</time>
      </trkpt>
      <trkpt lat="47.30452" lon="-2.43419">
        <ele>-12.60000038147</ele>
        <time>2020-09-06T07:52:43.000Z</time>
      </trkpt>
      <trkpt lat="47.30458" lon="-2.43417">
        <ele>-12.60000038147</ele>
        <time>2020-09-06T07:52:44.000Z</time>
      </trkpt>
      <trkpt lat="47.30463" lon="-2.43415">
        <ele>-12.60000038147</ele>
        <time>2020-09-06T07:52:45.000Z</time>
      </trkpt>
      <trkpt lat="47.3048" lon="-2.43411">
        <ele>-12.60000038147</ele>
        <time>2020-09-06T07:52:48.000Z</time>
      </trkpt>
      <trkpt lat="47.30497" lon="-2.43412">
        <ele>-12.60000038147</ele>
        <time>2020-09-06T07:52:51.000Z</time>
      </trkpt>
      <trkpt lat="47.30514" lon="-2.43414">
        <ele>-12.60000038147</ele>
        <time>2020-09-06T07:52:54.000Z</time>
      </trkpt>
      <trkpt lat="47.30555" lon="-2.4342">
        <ele>-12.60000038147</ele>
        <time>2020-09-06T07:53:01.000Z</time>
      </trkpt>
      <trkpt lat="47.30592" lon="-2.43417">
        <ele>-12.60000038147</ele>
        <time>2020-09-06T07:53:07.000Z</time>
      </trkpt>
      <trkpt lat="47.3064" lon="-2.43404">
        <ele>-12.60000038147</ele>
        <time>2020-09-06T07:53:15.000Z</time>
      </trkpt>
      <trkpt lat="47.30687" lon="-2.43394">
        <ele>-12.60000038147</ele>
        <time>2020-09-06T07:53:23.000Z</time>
      </trkpt>
      <trkpt lat="47.30732" lon="-2.43389">
        <ele>-12.60000038147</ele>
        <time>2020-09-06T07:53:31.000Z</time>
      </trkpt>
      <trkpt lat="47.30773" lon="-2.43389">
        <ele>-12.60000038147</ele>
        <time>2020-09-06T07:53:38.000Z</time>
      </trkpt>
      <trkpt lat="47.30818" lon="-2.43385">
        <ele>-12.60000038147</ele>
        <time>2020-09-06T07:53:46.000Z</time>
      </trkpt>
      <trkpt lat="47.30863" lon="-2.43365">
        <ele>-12.60000038147</ele>
        <time>2020-09-06T07:53:54.000Z</time>
      </trkpt>
      <trkpt lat="47.30901" lon="-2.43349">
        <ele>-12.60000038147</ele>
        <time>2020-09-06T07:54:01.000Z</time>
      </trkpt>
      <trkpt lat="47.3094" lon="-2.43334">
        <ele>-12.60000038147</ele>
        <time>2020-09-06T07:54:08.000Z</time>
      </trkpt>
      <trkpt lat="47.30976" lon="-2.43318">
        <ele>-12.60000038147</ele>
        <time>2020-09-06T07:54:15.000Z</time>
      </trkpt>
      <trkpt lat="47.3101" lon="-2.43295">
        <ele>-12.60000038147</ele>
        <time>2020-09-06T07:54:22.000Z</time>
      </trkpt>
      <trkpt lat="47.31034" lon="-2.43262">
        <ele>-12.60000038147</ele>
        <time>2020-09-06T07:54:28.000Z</time>
      </trkpt>
      <trkpt lat="47.31059" lon="-2.43231">
        <ele>-12.60000038147</ele>
        <time>2020-09-06T07:54:34.000Z</time>
      </trkpt>
      <trkpt lat="47.31063" lon="-2.43226">
        <ele>-12.60000038147</ele>
        <time>2020-09-06T07:54:35.000Z</time>
      </trkpt>
      <trkpt lat="47.31095" lon="-2.43199">
        <ele>-12.60000038147</ele>
        <time>2020-09-06T07:54:43.000Z</time>
      </trkpt>
      <trkpt lat="47.31111" lon="-2.43191">
        <ele>-12.60000038147</ele>
        <time>2020-09-06T07:54:48.000Z</time>
      </trkpt>
      <trkpt lat="47.31122" lon="-2.43201">
        <ele>-12.60000038147</ele>
        <time>2020-09-06T07:54:52.000Z</time>
      </trkpt>
      <trkpt lat="47.31128" lon="-2.43209">
        <ele>-12.60000038147</ele>
        <time>2020-09-06T07:54:54.000Z</time>
      </trkpt>
      <trkpt lat="47.31141" lon="-2.43229">
        <ele>-12.60000038147</ele>
        <time>2020-09-06T07:54:58.000Z</time>
      </trkpt>
      <trkpt lat="47.31166" lon="-2.4327">
        <ele>-12.60000038147</ele>
        <time>2020-09-06T07:55:05.000Z</time>
      </trkpt>
      <trkpt lat="47.31186" lon="-2.43304">
        <ele>-12.60000038147</ele>
        <time>2020-09-06T07:55:11.000Z</time>
      </trkpt>
      <trkpt lat="47.31189" lon="-2.43311">
        <ele>-12.60000038147</ele>
        <time>2020-09-06T07:55:12.000Z</time>
      </trkpt>
      <trkpt lat="47.31201" lon="-2.43356">
        <ele>-12.60000038147</ele>
        <time>2020-09-06T07:55:18.000Z</time>
      </trkpt>
      <trkpt lat="47.31208" lon="-2.43403">
        <ele>-12.60000038147</ele>
        <time>2020-09-06T07:55:24.000Z</time>
      </trkpt>
      <trkpt lat="47.3122" lon="-2.43489">
        <ele>-12.60000038147</ele>
        <time>2020-09-06T07:55:35.000Z</time>
      </trkpt>
      <trkpt lat="47.31229" lon="-2.43548">
        <ele>-12.60000038147</ele>
        <time>2020-09-06T07:55:42.000Z</time>
      </trkpt>
      <trkpt lat="47.31242" lon="-2.43634">
        <ele>-12.60000038147</ele>
        <time>2020-09-06T07:55:52.000Z</time>
      </trkpt>
      <trkpt lat="47.31251" lon="-2.43683">
        <ele>-12.60000038147</ele>
        <time>2020-09-06T07:55:58.000Z</time>
      </trkpt>
      <trkpt lat="47.31256" lon="-2.43697">
        <ele>-12.60000038147</ele>
        <time>2020-09-06T07:56:00.000Z</time>
      </trkpt>
      <trkpt lat="47.31276" lon="-2.43748">
        <ele>-12.60000038147</ele>
        <time>2020-09-06T07:56:07.000Z</time>
      </trkpt>
      <trkpt lat="47.31305" lon="-2.4381">
        <ele>-12.60000038147</ele>
        <time>2020-09-06T07:56:16.000Z</time>
      </trkpt>
      <trkpt lat="47.31335" lon="-2.43858">
        <ele>-12.60000038147</ele>
        <time>2020-09-06T07:56:24.000Z</time>
      </trkpt>
      <trkpt lat="47.31354" lon="-2.4391">
        <ele>-12.60000038147</ele>
        <time>2020-09-06T07:56:31.000Z</time>
      </trkpt>
      <trkpt lat="47.3138" lon="-2.43968">
        <ele>-12.60000038147</ele>
        <time>2020-09-06T07:56:39.000Z</time>
      </trkpt>
      <trkpt lat="47.31384" lon="-2.43974">
        <ele>-12.60000038147</ele>
        <time>2020-09-06T07:56:40.000Z</time>
      </trkpt>
      <trkpt lat="47.31407" lon="-2.44003">
        <ele>-12.60000038147</ele>
        <time>2020-09-06T07:56:45.000Z</time>
      </trkpt>
      <trkpt lat="47.31445" lon="-2.44052">
        <ele>-12.60000038147</ele>
        <time>2020-09-06T07:56:53.000Z</time>
      </trkpt>
      <trkpt lat="47.3148" lon="-2.44097">
        <ele>-12.60000038147</ele>
        <time>2020-09-06T07:57:01.000Z</time>
      </trkpt>
      <trkpt lat="47.31513" lon="-2.44138">
        <ele>-12.60000038147</ele>
        <time>2020-09-06T07:57:09.000Z</time>
      </trkpt>
      <trkpt lat="47.31523" lon="-2.44144">
        <ele>-12.60000038147</ele>
        <time>2020-09-06T07:57:13.000Z</time>
      </trkpt>
      <trkpt lat="47.31523" lon="-2.44147">
        <ele>-12.60000038147</ele>
        <time>2020-09-06T07:57:14.000Z</time>
      </trkpt>
      <trkpt lat="47.31525" lon="-2.44157">
        <ele>-12.60000038147</ele>
        <time>2020-09-06T07:57:17.000Z</time>
      </trkpt>
      <trkpt lat="47.31533" lon="-2.44176">
        <ele>-12.60000038147</ele>
        <time>2020-09-06T07:57:21.000Z</time>
      </trkpt>
      <trkpt lat="47.31546" lon="-2.44218">
        <ele>-12.60000038147</ele>
        <time>2020-09-06T07:57:27.000Z</time>
      </trkpt>
      <trkpt lat="47.31558" lon="-2.44285">
        <ele>-12.60000038147</ele>
        <time>2020-09-06T07:57:35.000Z</time>
      </trkpt>
      <trkpt lat="47.31567" lon="-2.44348">
        <ele>-12.60000038147</ele>
        <time>2020-09-06T07:57:42.000Z</time>
      </trkpt>
      <trkpt lat="47.31578" lon="-2.44413">
        <ele>-12.60000038147</ele>
        <time>2020-09-06T07:57:49.000Z</time>
      </trkpt>
      <trkpt lat="47.31587" lon="-2.44471">
        <ele>-12.60000038147</ele>
        <time>2020-09-06T07:57:56.000Z</time>
      </trkpt>
      <trkpt lat="47.31604" lon="-2.44523">
        <ele>-12.60000038147</ele>
        <time>2020-09-06T07:58:03.000Z</time>
      </trkpt>
      <trkpt lat="47.31632" lon="-2.4457">
        <ele>-12.60000038147</ele>
        <time>2020-09-06T07:58:10.000Z</time>
      </trkpt>
      <trkpt lat="47.31658" lon="-2.44622">
        <ele>-12.60000038147</ele>
        <time>2020-09-06T07:58:17.000Z</time>
      </trkpt>
      <trkpt lat="47.3169" lon="-2.44697">
        <ele>-12.60000038147</ele>
        <time>2020-09-06T07:58:26.000Z</time>
      </trkpt>
      <trkpt lat="47.31713" lon="-2.44755">
        <ele>-12.60000038147</ele>
        <time>2020-09-06T07:58:34.000Z</time>
      </trkpt>
      <trkpt lat="47.31718" lon="-2.44767">
        <ele>-12.60000038147</ele>
        <time>2020-09-06T07:58:36.000Z</time>
      </trkpt>
      <trkpt lat="47.31726" lon="-2.44784">
        <ele>-12.60000038147</ele>
        <time>2020-09-06T07:58:39.000Z</time>
      </trkpt>
      <trkpt lat="47.3173" lon="-2.44787">
        <ele>-12.60000038147</ele>
        <time>2020-09-06T07:58:40.000Z</time>
      </trkpt>
      <trkpt lat="47.31741" lon="-2.44782">
        <ele>-12.60000038147</ele>
        <time>2020-09-06T07:58:43.000Z</time>
      </trkpt>
      <trkpt lat="47.31748" lon="-2.44773">
        <ele>-12.60000038147</ele>
        <time>2020-09-06T07:58:45.000Z</time>
      </trkpt>
      <trkpt lat="47.31761" lon="-2.44761">
        <ele>-12.60000038147</ele>
        <time>2020-09-06T07:58:48.000Z</time>
      </trkpt>
      <trkpt lat="47.3177" lon="-2.44754">
        <ele>-12.60000038147</ele>
        <time>2020-09-06T07:58:50.000Z</time>
      </trkpt>
      <trkpt lat="47.31787" lon="-2.44742">
        <ele>-12.199999809265</ele>
        <time>2020-09-06T07:58:54.000Z</time>
      </trkpt>
      <trkpt lat="47.31792" lon="-2.4474">
        <ele>-11.800000190735</ele>
        <time>2020-09-06T07:58:55.000Z</time>
      </trkpt>
      <trkpt lat="47.31797" lon="-2.44737">
        <ele>-11.39999961853</ele>
        <time>2020-09-06T07:58:56.000Z</time>
      </trkpt>
      <trkpt lat="47.31802" lon="-2.44735">
        <ele>-11</ele>
        <time>2020-09-06T07:58:57.000Z</time>
      </trkpt>
      <trkpt lat="47.31807" lon="-2.44733">
        <ele>-10.60000038147</ele>
        <time>2020-09-06T07:58:58.000Z</time>
      </trkpt>
      <trkpt lat="47.31816" lon="-2.44728">
        <ele>-10.60000038147</ele>
        <time>2020-09-06T07:59:00.000Z</time>
      </trkpt>
      <trkpt lat="47.31833" lon="-2.44712">
        <ele>-10.60000038147</ele>
        <time>2020-09-06T07:59:04.000Z</time>
      </trkpt>
      <trkpt lat="47.31837" lon="-2.44708">
        <ele>-10.60000038147</ele>
        <time>2020-09-06T07:59:05.000Z</time>
      </trkpt>
      <trkpt lat="47.3184" lon="-2.44703">
        <ele>-10.60000038147</ele>
        <time>2020-09-06T07:59:06.000Z</time>
      </trkpt>
      <trkpt lat="47.31857" lon="-2.44674">
        <ele>-10.60000038147</ele>
        <time>2020-09-06T07:59:11.000Z</time>
      </trkpt>
      <trkpt lat="47.31877" lon="-2.44627">
        <ele>-10.60000038147</ele>
        <time>2020-09-06T07:59:18.000Z</time>
      </trkpt>
      <trkpt lat="47.31889" lon="-2.44595">
        <ele>-10.60000038147</ele>
        <time>2020-09-06T07:59:23.000Z</time>
      </trkpt>
      <trkpt lat="47.31894" lon="-2.44583">
        <ele>-10.60000038147</ele>
        <time>2020-09-06T07:59:25.000Z</time>
      </trkpt>
      <trkpt lat="47.31908" lon="-2.44569">
        <ele>-10.60000038147</ele>
        <time>2020-09-06T07:59:30.000Z</time>
      </trkpt>
      <trkpt lat="47.31918" lon="-2.44581">
        <ele>-10.60000038147</ele>
        <time>2020-09-06T07:59:33.000Z</time>
      </trkpt>
      <trkpt lat="47.31922" lon="-2.44586">
        <ele>-10.60000038147</ele>
        <time>2020-09-06T07:59:34.000Z</time>
      </trkpt>
      <trkpt lat="47.31949" lon="-2.44619">
        <ele>-10.60000038147</ele>
        <time>2020-09-06T07:59:41.000Z</time>
      </trkpt>
      <trkpt lat="47.31976" lon="-2.44649">
        <ele>-10.60000038147</ele>
        <time>2020-09-06T07:59:48.000Z</time>
      </trkpt>
      <trkpt lat="47.31997" lon="-2.44674">
        <ele>-10</ele>
        <time>2020-09-06T07:59:53.000Z</time>
      </trkpt>
      <trkpt lat="47.32002" lon="-2.44678">
        <ele>-9.6000003814697</ele>
        <time>2020-09-06T07:59:54.000Z</time>
      </trkpt>
      <trkpt lat="47.32005" lon="-2.44684">
        <ele>-9.1999998092651</ele>
        <time>2020-09-06T07:59:55.000Z</time>
      </trkpt>
      <trkpt lat="47.32009" lon="-2.4469">
        <ele>-8.8000001907349</ele>
        <time>2020-09-06T07:59:56.000Z</time>
      </trkpt>
      <trkpt lat="47.32012" lon="-2.44695">
        <ele>-8.3999996185303</ele>
        <time>2020-09-06T07:59:57.000Z</time>
      </trkpt>
      <trkpt lat="47.32031" lon="-2.44721">
        <ele>-8.3999996185303</ele>
        <time>2020-09-06T08:00:02.000Z</time>
      </trkpt>
      <trkpt lat="47.32056" lon="-2.44759">
        <ele>-8.3999996185303</ele>
        <time>2020-09-06T08:00:09.000Z</time>
      </trkpt>
      <trkpt lat="47.32073" lon="-2.44791">
        <ele>-8.3999996185303</ele>
        <time>2020-09-06T08:00:14.000Z</time>
      </trkpt>
      <trkpt lat="47.3208" lon="-2.44806">
        <ele>-8.3999996185303</ele>
        <time>2020-09-06T08:00:16.000Z</time>
      </trkpt>
      <trkpt lat="47.32104" lon="-2.44865">
        <ele>-8.3999996185303</ele>
        <time>2020-09-06T08:00:24.000Z</time>
      </trkpt>
      <trkpt lat="47.3211" lon="-2.44879">
        <ele>-8</ele>
        <time>2020-09-06T08:00:26.000Z</time>
      </trkpt>
      <trkpt lat="47.32113" lon="-2.44886">
        <ele>-7.5999999046326</ele>
        <time>2020-09-06T08:00:27.000Z</time>
      </trkpt>
      <trkpt lat="47.32116" lon="-2.44894">
        <ele>-7.1999998092651</ele>
        <time>2020-09-06T08:00:28.000Z</time>
      </trkpt>
      <trkpt lat="47.3212" lon="-2.449">
        <ele>-6.8000001907349</ele>
        <time>2020-09-06T08:00:29.000Z</time>
      </trkpt>
      <trkpt lat="47.32123" lon="-2.44907">
        <ele>-6.1999998092651</ele>
        <time>2020-09-06T08:00:30.000Z</time>
      </trkpt>
      <trkpt lat="47.32146" lon="-2.44942">
        <ele>-6.1999998092651</ele>
        <time>2020-09-06T08:00:36.000Z</time>
      </trkpt>
      <trkpt lat="47.32155" lon="-2.44949">
        <ele>-6.1999998092651</ele>
        <time>2020-09-06T08:00:38.000Z</time>
      </trkpt>
      <trkpt lat="47.32173" lon="-2.44964">
        <ele>-6.1999998092651</ele>
        <time>2020-09-06T08:00:42.000Z</time>
      </trkpt>
      <trkpt lat="47.32191" lon="-2.44982">
        <ele>-5.8000001907349</ele>
        <time>2020-09-06T08:00:47.000Z</time>
      </trkpt>
      <trkpt lat="47.32194" lon="-2.44986">
        <ele>-5.4000000953674</ele>
        <time>2020-09-06T08:00:48.000Z</time>
      </trkpt>
      <trkpt lat="47.32197" lon="-2.44991">
        <ele>-5</ele>
        <time>2020-09-06T08:00:49.000Z</time>
      </trkpt>
      <trkpt lat="47.32199" lon="-2.44996">
        <ele>-4.5999999046326</ele>
        <time>2020-09-06T08:00:50.000Z</time>
      </trkpt>
      <trkpt lat="47.32202" lon="-2.45002">
        <ele>-4.1999998092651</ele>
        <time>2020-09-06T08:00:51.000Z</time>
      </trkpt>
      <trkpt lat="47.32207" lon="-2.45013">
        <ele>-4.1999998092651</ele>
        <time>2020-09-06T08:00:53.000Z</time>
      </trkpt>
      <trkpt lat="47.3221" lon="-2.45019">
        <ele>-3.7999999523163</ele>
        <time>2020-09-06T08:00:54.000Z</time>
      </trkpt>
      <trkpt lat="47.32213" lon="-2.45024">
        <ele>-3.4000000953674</ele>
        <time>2020-09-06T08:00:55.000Z</time>
      </trkpt>
      <trkpt lat="47.32215" lon="-2.4503">
        <ele>-3</ele>
        <time>2020-09-06T08:00:56.000Z</time>
      </trkpt>
      <trkpt lat="47.32217" lon="-2.45036">
        <ele>-2.5999999046326</ele>
        <time>2020-09-06T08:00:57.000Z</time>
      </trkpt>
      <trkpt lat="47.32221" lon="-2.45042">
        <ele>-2.2000000476837</ele>
        <time>2020-09-06T08:00:58.000Z</time>
      </trkpt>
      <trkpt lat="47.32226" lon="-2.45055">
        <ele>-2.2000000476837</ele>
        <time>2020-09-06T08:01:00.000Z</time>
      </trkpt>
      <trkpt lat="47.32245" lon="-2.45097">
        <ele>-2.2000000476837</ele>
        <time>2020-09-06T08:01:07.000Z</time>
      </trkpt>
      <trkpt lat="47.32261" lon="-2.45145">
        <ele>-2.2000000476837</ele>
        <time>2020-09-06T08:01:13.000Z</time>
      </trkpt>
      <trkpt lat="47.32268" lon="-2.4518">
        <ele>-2.5999999046326</ele>
        <time>2020-09-06T08:01:17.000Z</time>
      </trkpt>
      <trkpt lat="47.32271" lon="-2.4519">
        <ele>-3</ele>
        <time>2020-09-06T08:01:18.000Z</time>
      </trkpt>
      <trkpt lat="47.32276" lon="-2.45199">
        <ele>-3.4000000953674</ele>
        <time>2020-09-06T08:01:19.000Z</time>
      </trkpt>
      <trkpt lat="47.32281" lon="-2.45209">
        <ele>-3.7999999523163</ele>
        <time>2020-09-06T08:01:20.000Z</time>
      </trkpt>
      <trkpt lat="47.32286" lon="-2.45218">
        <ele>-4.4000000953674</ele>
        <time>2020-09-06T08:01:21.000Z</time>
      </trkpt>
      <trkpt lat="47.32291" lon="-2.45226">
        <ele>-5</ele>
        <time>2020-09-06T08:01:22.000Z</time>
      </trkpt>
      <trkpt lat="47.32295" lon="-2.45234">
        <ele>-5.4000000953674</ele>
        <time>2020-09-06T08:01:23.000Z</time>
      </trkpt>
      <trkpt lat="47.32299" lon="-2.45242">
        <ele>-6</ele>
        <time>2020-09-06T08:01:24.000Z</time>
      </trkpt>
      <trkpt lat="47.32302" lon="-2.4525">
        <ele>-6.5999999046326</ele>
        <time>2020-09-06T08:01:25.000Z</time>
      </trkpt>
      <trkpt lat="47.32307" lon="-2.45264">
        <ele>-6.5999999046326</ele>
        <time>2020-09-06T08:01:27.000Z</time>
      </trkpt>
      <trkpt lat="47.32317" lon="-2.45303">
        <ele>-6.5999999046326</ele>
        <time>2020-09-06T08:01:33.000Z</time>
      </trkpt>
      <trkpt lat="47.32318" lon="-2.45322">
        <ele>-6</ele>
        <time>2020-09-06T08:01:36.000Z</time>
      </trkpt>
      <trkpt lat="47.32318" lon="-2.45328">
        <ele>-5.5999999046326</ele>
        <time>2020-09-06T08:01:37.000Z</time>
      </trkpt>
      <trkpt lat="47.32318" lon="-2.45335">
        <ele>-5.1999998092651</ele>
        <time>2020-09-06T08:01:38.000Z</time>
      </trkpt>
      <trkpt lat="47.32318" lon="-2.45342">
        <ele>-4.8000001907349</ele>
        <time>2020-09-06T08:01:39.000Z</time>
      </trkpt>
      <trkpt lat="47.32318" lon="-2.4535">
        <ele>-4.4000000953674</ele>
        <time>2020-09-06T08:01:40.000Z</time>
      </trkpt>
      <trkpt lat="47.3232" lon="-2.45366">
        <ele>-4.4000000953674</ele>
        <time>2020-09-06T08:01:42.000Z</time>
      </trkpt>
      <trkpt lat="47.32322" lon="-2.45383">
        <ele>-4.4000000953674</ele>
        <time>2020-09-06T08:01:44.000Z</time>
      </trkpt>
      <trkpt lat="47.32322" lon="-2.45392">
        <ele>-5</ele>
        <time>2020-09-06T08:01:46.000Z</time>
      </trkpt>
      <trkpt lat="47.3232" lon="-2.45397">
        <ele>-5.5999999046326</ele>
        <time>2020-09-06T08:01:47.000Z</time>
      </trkpt>
      <trkpt lat="47.32318" lon="-2.45402">
        <ele>-6.1999998092651</ele>
        <time>2020-09-06T08:01:48.000Z</time>
      </trkpt>
      <trkpt lat="47.32316" lon="-2.4541">
        <ele>-6.8000001907349</ele>
        <time>2020-09-06T08:01:49.000Z</time>
      </trkpt>
      <trkpt lat="47.32315" lon="-2.45418">
        <ele>-7.4000000953674</ele>
        <time>2020-09-06T08:01:50.000Z</time>
      </trkpt>
      <trkpt lat="47.3232" lon="-2.45431">
        <ele>-7.8000001907349</ele>
        <time>2020-09-06T08:01:52.000Z</time>
      </trkpt>
      <trkpt lat="47.32323" lon="-2.45436">
        <ele>-8.1999998092651</ele>
        <time>2020-09-06T08:01:53.000Z</time>
      </trkpt>
      <trkpt lat="47.32326" lon="-2.4544">
        <ele>-8.6000003814697</ele>
        <time>2020-09-06T08:01:54.000Z</time>
      </trkpt>
      <trkpt lat="47.32329" lon="-2.45444">
        <ele>-9.3999996185303</ele>
        <time>2020-09-06T08:01:55.000Z</time>
      </trkpt>
      <trkpt lat="47.32332" lon="-2.45448">
        <ele>-9.3999996185303</ele>
        <time>2020-09-06T08:01:56.000Z</time>
      </trkpt>
      <trkpt lat="47.32338" lon="-2.45457">
        <ele>-9.3999996185303</ele>
        <time>2020-09-06T08:01:58.000Z</time>
      </trkpt>
      <trkpt lat="47.32353" lon="-2.4548">
        <ele>-9.3999996185303</ele>
        <time>2020-09-06T08:02:04.000Z</time>
      </trkpt>
      <trkpt lat="47.32369" lon="-2.45508">
        <ele>-9.3999996185303</ele>
        <time>2020-09-06T08:02:11.000Z</time>
      </trkpt>
      <trkpt lat="47.32379" lon="-2.45527">
        <ele>-9.3999996185303</ele>
        <time>2020-09-06T08:02:17.000Z</time>
      </trkpt>
      <trkpt lat="47.32387" lon="-2.45542">
        <ele>-9.3999996185303</ele>
        <time>2020-09-06T08:02:23.000Z</time>
      </trkpt>
      <trkpt lat="47.32388" lon="-2.45545">
        <ele>-9</ele>
        <time>2020-09-06T08:02:24.000Z</time>
      </trkpt>
      <trkpt lat="47.3239" lon="-2.45547">
        <ele>-8.6000003814697</ele>
        <time>2020-09-06T08:02:25.000Z</time>
      </trkpt>
      <trkpt lat="47.32391" lon="-2.4555">
        <ele>-8.1999998092651</ele>
        <time>2020-09-06T08:02:26.000Z</time>
      </trkpt>
      <trkpt lat="47.32392" lon="-2.45552">
        <ele>-7.8000001907349</ele>
        <time>2020-09-06T08:02:27.000Z</time>
      </trkpt>
      <trkpt lat="47.32394" lon="-2.45554">
        <ele>-7.4000000953674</ele>
        <time>2020-09-06T08:02:28.000Z</time>
      </trkpt>
      <trkpt lat="47.32398" lon="-2.45561">
        <ele>-7.4000000953674</ele>
        <time>2020-09-06T08:02:31.000Z</time>
      </trkpt>
      <trkpt lat="47.32404" lon="-2.45571">
        <ele>-7.4000000953674</ele>
        <time>2020-09-06T08:02:35.000Z</time>
      </trkpt>
      <trkpt lat="47.32406" lon="-2.45572">
        <ele>-7.4000000953674</ele>
        <time>2020-09-06T08:02:36.000Z</time>
      </trkpt>
      <trkpt lat="47.32412" lon="-2.45583">
        <ele>-7.4000000953674</ele>
        <time>2020-09-06T08:02:41.000Z</time>
      </trkpt>
      <trkpt lat="47.32414" lon="-2.45589">
        <ele>-7.4000000953674</ele>
        <time>2020-09-06T08:02:43.000Z</time>
      </trkpt>
      <trkpt lat="47.32415" lon="-2.45603">
        <ele>-7.4000000953674</ele>
        <time>2020-09-06T08:02:48.000Z</time>
      </trkpt>
      <trkpt lat="47.32414" lon="-2.45603">
        <ele>-7.4000000953674</ele>
        <time>2020-09-06T08:02:50.000Z</time>
      </trkpt>
      <trkpt lat="47.32415" lon="-2.45607">
        <ele>-7.4000000953674</ele>
        <time>2020-09-06T08:03:01.000Z</time>
      </trkpt>
      <trkpt lat="47.32416" lon="-2.45608">
        <ele>-7.4000000953674</ele>
        <time>2020-09-06T08:03:02.000Z</time>
      </trkpt>
      <trkpt lat="47.32423" lon="-2.45615">
        <ele>-7.4000000953674</ele>
        <time>2020-09-06T08:03:06.000Z</time>
      </trkpt>
      <trkpt lat="47.32424" lon="-2.45618">
        <ele>-7.4000000953674</ele>
        <time>2020-09-06T08:03:07.000Z</time>
      </trkpt>
      <trkpt lat="47.32434" lon="-2.45635">
        <ele>-7.4000000953674</ele>
        <time>2020-09-06T08:03:12.000Z</time>
      </trkpt>
      <trkpt lat="47.32453" lon="-2.45666">
        <ele>-7.4000000953674</ele>
        <time>2020-09-06T08:03:19.000Z</time>
      </trkpt>
      <trkpt lat="47.32475" lon="-2.45703">
        <ele>-7.8000001907349</ele>
        <time>2020-09-06T08:03:26.000Z</time>
      </trkpt>
      <trkpt lat="47.32478" lon="-2.45708">
        <ele>-8.1999998092651</ele>
        <time>2020-09-06T08:03:27.000Z</time>
      </trkpt>
      <trkpt lat="47.32482" lon="-2.45714">
        <ele>-8.6000003814697</ele>
        <time>2020-09-06T08:03:28.000Z</time>
      </trkpt>
      <trkpt lat="47.32485" lon="-2.45719">
        <ele>-9</ele>
        <time>2020-09-06T08:03:29.000Z</time>
      </trkpt>
      <trkpt lat="47.32489" lon="-2.45725">
        <ele>-9.3999996185303</ele>
        <time>2020-09-06T08:03:30.000Z</time>
      </trkpt>
      <trkpt lat="47.32501" lon="-2.45748">
        <ele>-9.3999996185303</ele>
        <time>2020-09-06T08:03:34.000Z</time>
      </trkpt>
      <trkpt lat="47.32525" lon="-2.45789">
        <ele>-9.3999996185303</ele>
        <time>2020-09-06T08:03:42.000Z</time>
      </trkpt>
      <trkpt lat="47.32546" lon="-2.4582">
        <ele>-9.3999996185303</ele>
        <time>2020-09-06T08:03:49.000Z</time>
      </trkpt>
      <trkpt lat="47.32549" lon="-2.45823">
        <ele>-9.3999996185303</ele>
        <time>2020-09-06T08:03:50.000Z</time>
      </trkpt>
      <trkpt lat="47.32559" lon="-2.45837">
        <ele>-9.3999996185303</ele>
        <time>2020-09-06T08:03:53.000Z</time>
      </trkpt>
      <trkpt lat="47.32566" lon="-2.45852">
        <ele>-9.3999996185303</ele>
        <time>2020-09-06T08:03:56.000Z</time>
      </trkpt>
      <trkpt lat="47.32571" lon="-2.45861">
        <ele>-9</ele>
        <time>2020-09-06T08:03:58.000Z</time>
      </trkpt>
      <trkpt lat="47.32573" lon="-2.45866">
        <ele>-8.6000003814697</ele>
        <time>2020-09-06T08:03:59.000Z</time>
      </trkpt>
      <trkpt lat="47.32576" lon="-2.4587">
        <ele>-8.1999998092651</ele>
        <time>2020-09-06T08:04:00.000Z</time>
      </trkpt>
      <trkpt lat="47.32578" lon="-2.45873">
        <ele>-7.8000001907349</ele>
        <time>2020-09-06T08:04:01.000Z</time>
      </trkpt>
      <trkpt lat="47.32581" lon="-2.45876">
        <ele>-7.4000000953674</ele>
        <time>2020-09-06T08:04:02.000Z</time>
      </trkpt>
      <trkpt lat="47.3259" lon="-2.45888">
        <ele>-7.4000000953674</ele>
        <time>2020-09-06T08:04:07.000Z</time>
      </trkpt>
      <trkpt lat="47.32607" lon="-2.45909">
        <ele>-7.4000000953674</ele>
        <time>2020-09-06T08:04:15.000Z</time>
      </trkpt>
      <trkpt lat="47.32615" lon="-2.45925">
        <ele>-7.4000000953674</ele>
        <time>2020-09-06T08:04:21.000Z</time>
      </trkpt>
      <trkpt lat="47.32626" lon="-2.45945">
        <ele>-7.4000000953674</ele>
        <time>2020-09-06T08:04:28.000Z</time>
      </trkpt>
      <trkpt lat="47.32636" lon="-2.45962">
        <ele>-7.4000000953674</ele>
        <time>2020-09-06T08:04:32.000Z</time>
      </trkpt>
      <trkpt lat="47.32641" lon="-2.45966">
        <ele>-7.4000000953674</ele>
        <time>2020-09-06T08:04:33.000Z</time>
      </trkpt>
      <trkpt lat="47.32663" lon="-2.45984">
        <ele>-7.4000000953674</ele>
        <time>2020-09-06T08:04:38.000Z</time>
      </trkpt>
      <trkpt lat="47.32668" lon="-2.45986">
        <ele>-7.4000000953674</ele>
        <time>2020-09-06T08:04:39.000Z</time>
      </trkpt>
      <trkpt lat="47.32678" lon="-2.45995">
        <ele>-7.4000000953674</ele>
        <time>2020-09-06T08:04:42.000Z</time>
      </trkpt>
      <trkpt lat="47.32681" lon="-2.45999">
        <ele>-7.4000000953674</ele>
        <time>2020-09-06T08:04:43.000Z</time>
      </trkpt>
      <trkpt lat="47.32693" lon="-2.46019">
        <ele>-7.4000000953674</ele>
        <time>2020-09-06T08:04:48.000Z</time>
      </trkpt>
      <trkpt lat="47.32707" lon="-2.46038">
        <ele>-7.4000000953674</ele>
        <time>2020-09-06T08:04:53.000Z</time>
      </trkpt>
      <trkpt lat="47.32715" lon="-2.46045">
        <ele>-7.4000000953674</ele>
        <time>2020-09-06T08:04:57.000Z</time>
      </trkpt>
      <trkpt lat="47.32725" lon="-2.46058">
        <ele>-7.4000000953674</ele>
        <time>2020-09-06T08:05:02.000Z</time>
      </trkpt>
      <trkpt lat="47.32739" lon="-2.46074">
        <ele>-7.4000000953674</ele>
        <time>2020-09-06T08:05:08.000Z</time>
      </trkpt>
      <trkpt lat="47.32753" lon="-2.46095">
        <ele>-7</ele>
        <time>2020-09-06T08:05:15.000Z</time>
      </trkpt>
      <trkpt lat="47.32755" lon="-2.46098">
        <ele>-6.5999999046326</ele>
        <time>2020-09-06T08:05:16.000Z</time>
      </trkpt>
      <trkpt lat="47.32757" lon="-2.46101">
        <ele>-6.1999998092651</ele>
        <time>2020-09-06T08:05:17.000Z</time>
      </trkpt>
      <trkpt lat="47.32758" lon="-2.46106">
        <ele>-5.8000001907349</ele>
        <time>2020-09-06T08:05:18.000Z</time>
      </trkpt>
      <trkpt lat="47.3276" lon="-2.46111">
        <ele>-5.4000000953674</ele>
        <time>2020-09-06T08:05:19.000Z</time>
      </trkpt>
      <trkpt lat="47.32761" lon="-2.46115">
        <ele>-5.4000000953674</ele>
        <time>2020-09-06T08:05:20.000Z</time>
      </trkpt>
      <trkpt lat="47.32768" lon="-2.46138">
        <ele>-5</ele>
        <time>2020-09-06T08:05:24.000Z</time>
      </trkpt>
      <trkpt lat="47.3277" lon="-2.46142">
        <ele>-4.5999999046326</ele>
        <time>2020-09-06T08:05:25.000Z</time>
      </trkpt>
      <trkpt lat="47.32772" lon="-2.46145">
        <ele>-4</ele>
        <time>2020-09-06T08:05:26.000Z</time>
      </trkpt>
      <trkpt lat="47.32773" lon="-2.46148">
        <ele>-3.5999999046326</ele>
        <time>2020-09-06T08:05:27.000Z</time>
      </trkpt>
      <trkpt lat="47.32775" lon="-2.4615">
        <ele>-3.2000000476837</ele>
        <time>2020-09-06T08:05:28.000Z</time>
      </trkpt>
      <trkpt lat="47.32788" lon="-2.46164">
        <ele>-3.2000000476837</ele>
        <time>2020-09-06T08:05:34.000Z</time>
      </trkpt>
      <trkpt lat="47.3281" lon="-2.46183">
        <ele>-3.2000000476837</ele>
        <time>2020-09-06T08:05:41.000Z</time>
      </trkpt>
      <trkpt lat="47.32819" lon="-2.46186">
        <ele>-2.7999999523163</ele>
        <time>2020-09-06T08:05:43.000Z</time>
      </trkpt>
      <trkpt lat="47.32822" lon="-2.46186">
        <ele>-2.4000000953674</ele>
        <time>2020-09-06T08:05:44.000Z</time>
      </trkpt>
      <trkpt lat="47.32826" lon="-2.46185">
        <ele>-2</ele>
        <time>2020-09-06T08:05:45.000Z</time>
      </trkpt>
      <trkpt lat="47.3283" lon="-2.46183">
        <ele>-1.6000000238419</ele>
        <time>2020-09-06T08:05:46.000Z</time>
      </trkpt>
      <trkpt lat="47.32833" lon="-2.46181">
        <ele>-1.2000000476837</ele>
        <time>2020-09-06T08:05:47.000Z</time>
      </trkpt>
      <trkpt lat="47.32852" lon="-2.46171">
        <ele>-0.80000001192093</ele>
        <time>2020-09-06T08:05:53.000Z</time>
      </trkpt>
      <trkpt lat="47.32856" lon="-2.4617">
        <ele>-0.40000000596046</ele>
        <time>2020-09-06T08:05:54.000Z</time>
      </trkpt>
      <trkpt lat="47.32859" lon="-2.46168">
        <ele>20.8</ele>
        <time>2020-09-06T08:05:55.000Z</time>
      </trkpt>
      <trkpt lat="47.32862" lon="-2.46167">
        <ele>0.40000000596046</ele>
        <time>2020-09-06T08:05:56.000Z</time>
      </trkpt>
      <trkpt lat="47.32865" lon="-2.46165">
        <ele>0.80000001192093</ele>
        <time>2020-09-06T08:05:57.000Z</time>
      </trkpt>
      <trkpt lat="47.32875" lon="-2.46158">
        <ele>1.2000000476837</ele>
        <time>2020-09-06T08:06:00.000Z</time>
      </trkpt>
      <trkpt lat="47.32877" lon="-2.46157">
        <ele>2.2000000476837</ele>
        <time>2020-09-06T08:06:01.000Z</time>
      </trkpt>
      <trkpt lat="47.3288" lon="-2.46155">
        <ele>2.5999999046326</ele>
        <time>2020-09-06T08:06:02.000Z</time>
      </trkpt>
      <trkpt lat="47.32882" lon="-2.46154">
        <ele>3</ele>
        <time>2020-09-06T08:06:03.000Z</time>
      </trkpt>
      <trkpt lat="47.32889" lon="-2.4615">
        <ele>3</ele>
        <time>2020-09-06T08:06:06.000Z</time>
      </trkpt>
      <trkpt lat="47.32896" lon="-2.46146">
        <ele>3</ele>
        <time>2020-09-06T08:06:11.000Z</time>
      </trkpt>
      <trkpt lat="47.32897" lon="-2.46146">
        <ele>3</ele>
        <time>2020-09-06T08:06:13.000Z</time>
      </trkpt>
      <trkpt lat="47.32902" lon="-2.46148">
        <ele>3.7999999523163</ele>
        <time>2020-09-06T08:07:32.000Z</time>
      </trkpt>
      <trkpt lat="47.32904" lon="-2.46151">
        <ele>4.1999998092651</ele>
        <time>2020-09-06T08:07:33.000Z</time>
      </trkpt>
      <trkpt lat="47.32905" lon="-2.46156">
        <ele>4.5999999046326</ele>
        <time>2020-09-06T08:07:34.000Z</time>
      </trkpt>
      <trkpt lat="47.32907" lon="-2.46161">
        <ele>5</ele>
        <time>2020-09-06T08:07:35.000Z</time>
      </trkpt>
      <trkpt lat="47.3291" lon="-2.46172">
        <ele>5</ele>
        <time>2020-09-06T08:07:37.000Z</time>
      </trkpt>
      <trkpt lat="47.32923" lon="-2.46218">
        <ele>5</ele>
        <time>2020-09-06T08:07:44.000Z</time>
      </trkpt>
      <trkpt lat="47.3294" lon="-2.46276">
        <ele>5</ele>
        <time>2020-09-06T08:07:53.000Z</time>
      </trkpt>
      <trkpt lat="47.32952" lon="-2.46322">
        <ele>5</ele>
        <time>2020-09-06T08:08:00.000Z</time>
      </trkpt>
      <trkpt lat="47.32964" lon="-2.46377">
        <ele>4.5999999046326</ele>
        <time>2020-09-06T08:08:05.000Z</time>
      </trkpt>
      <trkpt lat="47.32965" lon="-2.46389">
        <ele>4.1999998092651</ele>
        <time>2020-09-06T08:08:06.000Z</time>
      </trkpt>
      <trkpt lat="47.32965" lon="-2.46404">
        <ele>3.5999999046326</ele>
        <time>2020-09-06T08:08:07.000Z</time>
      </trkpt>
      <trkpt lat="47.32964" lon="-2.46418">
        <ele>3.2000000476837</ele>
        <time>2020-09-06T08:08:08.000Z</time>
      </trkpt>
      <trkpt lat="47.32963" lon="-2.46433">
        <ele>2.5999999046326</ele>
        <time>2020-09-06T08:08:09.000Z</time>
      </trkpt>
      <trkpt lat="47.32962" lon="-2.46448">
        <ele>2</ele>
        <time>2020-09-06T08:08:10.000Z</time>
      </trkpt>
      <trkpt lat="47.32961" lon="-2.46465">
        <ele>1.6000000238419</ele>
        <time>2020-09-06T08:08:11.000Z</time>
      </trkpt>
      <trkpt lat="47.3296" lon="-2.46481">
        <ele>1</ele>
        <time>2020-09-06T08:08:12.000Z</time>
      </trkpt>
      <trkpt lat="47.32959" lon="-2.46498">
        <ele>0.40000000596046</ele>
        <time>2020-09-06T08:08:13.000Z</time>
      </trkpt>
      <trkpt lat="47.32959" lon="-2.46514">
        <ele>-0.20000000298023</ele>
        <time>2020-09-06T08:08:14.000Z</time>
      </trkpt>
      <trkpt lat="47.32958" lon="-2.4653">
        <ele>-1</ele>
        <time>2020-09-06T08:08:15.000Z</time>
      </trkpt>
      <trkpt lat="47.32956" lon="-2.46543">
        <ele>-1.7999999523163</ele>
        <time>2020-09-06T08:08:16.000Z</time>
      </trkpt>
      <trkpt lat="47.32956" lon="-2.46553">
        <ele>-2.5999999046326</ele>
        <time>2020-09-06T08:08:17.000Z</time>
      </trkpt>
      <trkpt lat="47.32958" lon="-2.4656">
        <ele>-3.5999999046326</ele>
        <time>2020-09-06T08:08:18.000Z</time>
      </trkpt>
      <trkpt lat="47.32962" lon="-2.46565">
        <ele>-4.8000001907349</ele>
        <time>2020-09-06T08:08:19.000Z</time>
      </trkpt>
      <trkpt lat="47.32967" lon="-2.46568">
        <ele>-5.8000001907349</ele>
        <time>2020-09-06T08:08:20.000Z</time>
      </trkpt>
      <trkpt lat="47.32971" lon="-2.46566">
        <ele>-7</ele>
        <time>2020-09-06T08:08:21.000Z</time>
      </trkpt>
      <trkpt lat="47.32975" lon="-2.46563">
        <ele>-8</ele>
        <time>2020-09-06T08:08:22.000Z</time>
      </trkpt>
      <trkpt lat="47.32979" lon="-2.46561">
        <ele>-8</ele>
        <time>2020-09-06T08:08:23.000Z</time>
      </trkpt>
      <trkpt lat="47.32987" lon="-2.46558">
        <ele>-8</ele>
        <time>2020-09-06T08:08:25.000Z</time>
      </trkpt>
      <trkpt lat="47.32993" lon="-2.46553">
        <ele>-8</ele>
        <time>2020-09-06T08:08:27.000Z</time>
      </trkpt>
      <trkpt lat="47.32998" lon="-2.46552">
        <ele>-8</ele>
        <time>2020-09-06T08:08:28.000Z</time>
      </trkpt>
      <trkpt lat="47.33005" lon="-2.46546">
        <ele>-8</ele>
        <time>2020-09-06T08:08:30.000Z</time>
      </trkpt>
      <trkpt lat="47.3301" lon="-2.46543">
        <ele>-7.5999999046326</ele>
        <time>2020-09-06T08:08:31.000Z</time>
      </trkpt>
      <trkpt lat="47.33013" lon="-2.46542">
        <ele>-7.1999998092651</ele>
        <time>2020-09-06T08:08:32.000Z</time>
      </trkpt>
      <trkpt lat="47.33017" lon="-2.4654">
        <ele>-6.8000001907349</ele>
        <time>2020-09-06T08:08:33.000Z</time>
      </trkpt>
      <trkpt lat="47.33022" lon="-2.46539">
        <ele>-6.4000000953674</ele>
        <time>2020-09-06T08:08:34.000Z</time>
      </trkpt>
      <trkpt lat="47.33026" lon="-2.46539">
        <ele>-5.8000001907349</ele>
        <time>2020-09-06T08:08:35.000Z</time>
      </trkpt>
      <trkpt lat="47.33035" lon="-2.46539">
        <ele>-5.4000000953674</ele>
        <time>2020-09-06T08:08:37.000Z</time>
      </trkpt>
      <trkpt lat="47.3304" lon="-2.46539">
        <ele>-5</ele>
        <time>2020-09-06T08:08:38.000Z</time>
      </trkpt>
      <trkpt lat="47.33044" lon="-2.46537">
        <ele>-4.5999999046326</ele>
        <time>2020-09-06T08:08:39.000Z</time>
      </trkpt>
      <trkpt lat="47.33048" lon="-2.46536">
        <ele>-4.1999998092651</ele>
        <time>2020-09-06T08:08:40.000Z</time>
      </trkpt>
      <trkpt lat="47.33053" lon="-2.46534">
        <ele>-3.7999999523163</ele>
        <time>2020-09-06T08:08:41.000Z</time>
      </trkpt>
      <trkpt lat="47.33061" lon="-2.4653">
        <ele>-3.7999999523163</ele>
        <time>2020-09-06T08:08:43.000Z</time>
      </trkpt>
      <trkpt lat="47.33081" lon="-2.4652">
        <ele>-3.4000000953674</ele>
        <time>2020-09-06T08:08:48.000Z</time>
      </trkpt>
      <trkpt lat="47.33085" lon="-2.46518">
        <ele>-3</ele>
        <time>2020-09-06T08:08:49.000Z</time>
      </trkpt>
      <trkpt lat="47.33088" lon="-2.46517">
        <ele>-2.5999999046326</ele>
        <time>2020-09-06T08:08:50.000Z</time>
      </trkpt>
      <trkpt lat="47.33092" lon="-2.46515">
        <ele>-2.2000000476837</ele>
        <time>2020-09-06T08:08:51.000Z</time>
      </trkpt>
      <trkpt lat="47.33095" lon="-2.46514">
        <ele>-1.7999999523163</ele>
        <time>2020-09-06T08:08:52.000Z</time>
      </trkpt>
      <trkpt lat="47.33101" lon="-2.4651">
        <ele>-1.3999999761581</ele>
        <time>2020-09-06T08:08:54.000Z</time>
      </trkpt>
      <trkpt lat="47.33104" lon="-2.46507">
        <ele>-0.80000001192093</ele>
        <time>2020-09-06T08:08:55.000Z</time>
      </trkpt>
      <trkpt lat="47.33107" lon="-2.46506">
        <ele>-0.40000000596046</ele>
        <time>2020-09-06T08:08:56.000Z</time>
      </trkpt>
      <trkpt lat="47.3311" lon="-2.46504">
        <ele>20.8</ele>
        <time>2020-09-06T08:08:57.000Z</time>
      </trkpt>
      <trkpt lat="47.33112" lon="-2.46502">
        <ele>0.40000000596046</ele>
        <time>2020-09-06T08:08:58.000Z</time>
      </trkpt>
      <trkpt lat="47.33128" lon="-2.46498">
        <ele>0.40000000596046</ele>
        <time>2020-09-06T08:09:03.000Z</time>
      </trkpt>
      <trkpt lat="47.33136" lon="-2.46495">
        <ele>0.80000001192093</ele>
        <time>2020-09-06T08:09:06.000Z</time>
      </trkpt>
      <trkpt lat="47.3314" lon="-2.46494">
        <ele>1.2000000476837</ele>
        <time>2020-09-06T08:09:07.000Z</time>
      </trkpt>
      <trkpt lat="47.33143" lon="-2.46494">
        <ele>1.6000000238419</ele>
        <time>2020-09-06T08:09:08.000Z</time>
      </trkpt>
      <trkpt lat="47.33146" lon="-2.46494">
        <ele>2</ele>
        <time>2020-09-06T08:09:09.000Z</time>
      </trkpt>
      <trkpt lat="47.3315" lon="-2.46494">
        <ele>2.4000000953674</ele>
        <time>2020-09-06T08:09:10.000Z</time>
      </trkpt>
      <trkpt lat="47.33175" lon="-2.46483">
        <ele>2.7999999523163</ele>
        <time>2020-09-06T08:09:18.000Z</time>
      </trkpt>
      <trkpt lat="47.33177" lon="-2.46482">
        <ele>3.5999999046326</ele>
        <time>2020-09-06T08:09:19.000Z</time>
      </trkpt>
      <trkpt lat="47.3318" lon="-2.46481">
        <ele>4.1999998092651</ele>
        <time>2020-09-06T08:09:20.000Z</time>
      </trkpt>
      <trkpt lat="47.33183" lon="-2.4648">
        <ele>4.5999999046326</ele>
        <time>2020-09-06T08:09:21.000Z</time>
      </trkpt>
      <trkpt lat="47.33192" lon="-2.46476">
        <ele>4.5999999046326</ele>
        <time>2020-09-06T08:09:24.000Z</time>
      </trkpt>
      <trkpt lat="47.33196" lon="-2.46474">
        <ele>5</ele>
        <time>2020-09-06T08:09:26.000Z</time>
      </trkpt>
      <trkpt lat="47.33198" lon="-2.46473">
        <ele>5.4000000953674</ele>
        <time>2020-09-06T08:09:27.000Z</time>
      </trkpt>
      <trkpt lat="47.332" lon="-2.46472">
        <ele>5.8000001907349</ele>
        <time>2020-09-06T08:09:28.000Z</time>
      </trkpt>
      <trkpt lat="47.33203" lon="-2.46472">
        <ele>6.1999998092651</ele>
        <time>2020-09-06T08:09:29.000Z</time>
      </trkpt>
      <trkpt lat="47.33205" lon="-2.46472">
        <ele>6.5999999046326</ele>
        <time>2020-09-06T08:09:30.000Z</time>
      </trkpt>
      <trkpt lat="47.33211" lon="-2.46472">
        <ele>6.5999999046326</ele>
        <time>2020-09-06T08:09:32.000Z</time>
      </trkpt>
      <trkpt lat="47.33216" lon="-2.46471">
        <ele>7</ele>
        <time>2020-09-06T08:09:34.000Z</time>
      </trkpt>
      <trkpt lat="47.33218" lon="-2.46471">
        <ele>7.5999999046326</ele>
        <time>2020-09-06T08:09:35.000Z</time>
      </trkpt>
      <trkpt lat="47.3322" lon="-2.4647">
        <ele>8</ele>
        <time>2020-09-06T08:09:36.000Z</time>
      </trkpt>
      <trkpt lat="47.33222" lon="-2.46469">
        <ele>8.3999996185303</ele>
        <time>2020-09-06T08:09:37.000Z</time>
      </trkpt>
      <trkpt lat="47.33224" lon="-2.46467">
        <ele>9</ele>
        <time>2020-09-06T08:09:38.000Z</time>
      </trkpt>
      <trkpt lat="47.33228" lon="-2.46459">
        <ele>9</ele>
        <time>2020-09-06T08:09:40.000Z</time>
      </trkpt>
      <trkpt lat="47.33231" lon="-2.46452">
        <ele>9.3999996185303</ele>
        <time>2020-09-06T08:09:42.000Z</time>
      </trkpt>
      <trkpt lat="47.33233" lon="-2.46448">
        <ele>10.199999809265</ele>
        <time>2020-09-06T08:09:43.000Z</time>
      </trkpt>
      <trkpt lat="47.33235" lon="-2.46445">
        <ele>10.60000038147</ele>
        <time>2020-09-06T08:09:44.000Z</time>
      </trkpt>
      <trkpt lat="47.33237" lon="-2.46442">
        <ele>11</ele>
        <time>2020-09-06T08:09:45.000Z</time>
      </trkpt>
      <trkpt lat="47.33247" lon="-2.46432">
        <ele>11</ele>
        <time>2020-09-06T08:09:49.000Z</time>
      </trkpt>
      <trkpt lat="47.33261" lon="-2.46429">
        <ele>11.39999961853</ele>
        <time>2020-09-06T08:09:54.000Z</time>
      </trkpt>
      <trkpt lat="47.33264" lon="-2.4643">
        <ele>11.800000190735</ele>
        <time>2020-09-06T08:09:55.000Z</time>
      </trkpt>
      <trkpt lat="47.33267" lon="-2.46431">
        <ele>12.199999809265</ele>
        <time>2020-09-06T08:09:56.000Z</time>
      </trkpt>
      <trkpt lat="47.3327" lon="-2.46432">
        <ele>12.60000038147</ele>
        <time>2020-09-06T08:09:57.000Z</time>
      </trkpt>
      <trkpt lat="47.33273" lon="-2.46434">
        <ele>13</ele>
        <time>2020-09-06T08:09:58.000Z</time>
      </trkpt>
      <trkpt lat="47.33277" lon="-2.46441">
        <ele>13</ele>
        <time>2020-09-06T08:10:00.000Z</time>
      </trkpt>
      <trkpt lat="47.33285" lon="-2.46468">
        <ele>13</ele>
        <time>2020-09-06T08:10:06.000Z</time>
      </trkpt>
      <trkpt lat="47.33285" lon="-2.46485">
        <ele>13</ele>
        <time>2020-09-06T08:10:10.000Z</time>
      </trkpt>
      <trkpt lat="47.3329" lon="-2.46515">
        <ele>13</ele>
        <time>2020-09-06T08:10:15.000Z</time>
      </trkpt>
      <trkpt lat="47.33295" lon="-2.46563">
        <ele>13</ele>
        <time>2020-09-06T08:10:21.000Z</time>
      </trkpt>
      <trkpt lat="47.33298" lon="-2.46578">
        <ele>12.60000038147</ele>
        <time>2020-09-06T08:10:23.000Z</time>
      </trkpt>
      <trkpt lat="47.333" lon="-2.46583">
        <ele>12.199999809265</ele>
        <time>2020-09-06T08:10:24.000Z</time>
      </trkpt>
      <trkpt lat="47.333" lon="-2.46586">
        <ele>11.60000038147</ele>
        <time>2020-09-06T08:10:25.000Z</time>
      </trkpt>
      <trkpt lat="47.33301" lon="-2.46588">
        <ele>11.199999809265</ele>
        <time>2020-09-06T08:10:26.000Z</time>
      </trkpt>
      <trkpt lat="47.33302" lon="-2.4659">
        <ele>10.800000190735</ele>
        <time>2020-09-06T08:10:27.000Z</time>
      </trkpt>
      <trkpt lat="47.3331" lon="-2.46601">
        <ele>10.800000190735</ele>
        <time>2020-09-06T08:10:31.000Z</time>
      </trkpt>
      <trkpt lat="47.33323" lon="-2.4662">
        <ele>10.800000190735</ele>
        <time>2020-09-06T08:10:37.000Z</time>
      </trkpt>
      <trkpt lat="47.3333" lon="-2.46642">
        <ele>10.800000190735</ele>
        <time>2020-09-06T08:10:42.000Z</time>
      </trkpt>
      <trkpt lat="47.33331" lon="-2.46655">
        <ele>10.39999961853</ele>
        <time>2020-09-06T08:10:46.000Z</time>
      </trkpt>
      <trkpt lat="47.33331" lon="-2.46656">
        <ele>10</ele>
        <time>2020-09-06T08:10:47.000Z</time>
      </trkpt>
      <trkpt lat="47.33331" lon="-2.46658">
        <ele>9.6000003814697</ele>
        <time>2020-09-06T08:10:48.000Z</time>
      </trkpt>
      <trkpt lat="47.3333" lon="-2.46659">
        <ele>9</ele>
        <time>2020-09-06T08:10:49.000Z</time>
      </trkpt>
      <trkpt lat="47.33329" lon="-2.4666">
        <ele>8.6000003814697</ele>
        <time>2020-09-06T08:10:50.000Z</time>
      </trkpt>
      <trkpt lat="47.33324" lon="-2.46655">
        <ele>8.6000003814697</ele>
        <time>2020-09-06T08:10:55.000Z</time>
      </trkpt>
      <trkpt lat="47.33326" lon="-2.46649">
        <ele>8.6000003814697</ele>
        <time>2020-09-06T08:10:58.000Z</time>
      </trkpt>
      <trkpt lat="47.33329" lon="-2.46645">
        <ele>8.6000003814697</ele>
        <time>2020-09-06T08:11:01.000Z</time>
      </trkpt>
      <trkpt lat="47.33331" lon="-2.46653">
        <ele>8.6000003814697</ele>
        <time>2020-09-06T08:11:05.000Z</time>
      </trkpt>
      <trkpt lat="47.33324" lon="-2.46661">
        <ele>8.6000003814697</ele>
        <time>2020-09-06T08:11:10.000Z</time>
      </trkpt>
      <trkpt lat="47.33323" lon="-2.46655">
        <ele>8.6000003814697</ele>
        <time>2020-09-06T08:11:13.000Z</time>
      </trkpt>
      <trkpt lat="47.33328" lon="-2.46648">
        <ele>8.6000003814697</ele>
        <time>2020-09-06T08:11:18.000Z</time>
      </trkpt>
      <trkpt lat="47.33329" lon="-2.46655">
        <ele>8.6000003814697</ele>
        <time>2020-09-06T08:11:22.000Z</time>
      </trkpt>
      <trkpt lat="47.33324" lon="-2.46657">
        <ele>8.6000003814697</ele>
        <time>2020-09-06T08:11:26.000Z</time>
      </trkpt>
      <trkpt lat="47.33327" lon="-2.46649">
        <ele>8.6000003814697</ele>
        <time>2020-09-06T08:11:30.000Z</time>
      </trkpt>
      <trkpt lat="47.3333" lon="-2.46654">
        <ele>8.6000003814697</ele>
        <time>2020-09-06T08:11:34.000Z</time>
      </trkpt>
      <trkpt lat="47.33325" lon="-2.46655">
        <ele>8.6000003814697</ele>
        <time>2020-09-06T08:11:38.000Z</time>
      </trkpt>
      <trkpt lat="47.33327" lon="-2.46648">
        <ele>8.6000003814697</ele>
        <time>2020-09-06T08:11:42.000Z</time>
      </trkpt>
      <trkpt lat="47.33331" lon="-2.46654">
        <ele>8.6000003814697</ele>
        <time>2020-09-06T08:11:47.000Z</time>
      </trkpt>
      <trkpt lat="47.33326" lon="-2.46652">
        <ele>8.6000003814697</ele>
        <time>2020-09-06T08:11:52.000Z</time>
      </trkpt>
      <trkpt lat="47.33329" lon="-2.46649">
        <ele>8.6000003814697</ele>
        <time>2020-09-06T08:11:56.000Z</time>
      </trkpt>
      <trkpt lat="47.33329" lon="-2.4665">
        <ele>8.6000003814697</ele>
        <time>2020-09-06T08:11:57.000Z</time>
      </trkpt>
      <trkpt lat="47.3333" lon="-2.46651">
        <ele>8.6000003814697</ele>
        <time>2020-09-06T08:13:04.000Z</time>
      </trkpt>
      <trkpt lat="47.33331" lon="-2.46654">
        <ele>8.6000003814697</ele>
        <time>2020-09-06T08:13:06.000Z</time>
      </trkpt>
      <trkpt lat="47.33336" lon="-2.46656">
        <ele>8.6000003814697</ele>
        <time>2020-09-06T08:13:08.000Z</time>
      </trkpt>
      <trkpt lat="47.3334" lon="-2.46654">
        <ele>8.6000003814697</ele>
        <time>2020-09-06T08:13:10.000Z</time>
      </trkpt>
      <trkpt lat="47.33356" lon="-2.46649">
        <ele>8.6000003814697</ele>
        <time>2020-09-06T08:13:16.000Z</time>
      </trkpt>
      <trkpt lat="47.33371" lon="-2.46641">
        <ele>8.6000003814697</ele>
        <time>2020-09-06T08:13:22.000Z</time>
      </trkpt>
      <trkpt lat="47.33377" lon="-2.46634">
        <ele>9.1999998092651</ele>
        <time>2020-09-06T08:13:25.000Z</time>
      </trkpt>
      <trkpt lat="47.33379" lon="-2.46632">
        <ele>9.6000003814697</ele>
        <time>2020-09-06T08:13:26.000Z</time>
      </trkpt>
      <trkpt lat="47.33381" lon="-2.4663">
        <ele>10.39999961853</ele>
        <time>2020-09-06T08:13:27.000Z</time>
      </trkpt>
      <trkpt lat="47.33383" lon="-2.46627">
        <ele>10.800000190735</ele>
        <time>2020-09-06T08:13:28.000Z</time>
      </trkpt>
      <trkpt lat="47.33395" lon="-2.46613">
        <ele>10.800000190735</ele>
        <time>2020-09-06T08:13:34.000Z</time>
      </trkpt>
      <trkpt lat="47.33405" lon="-2.46605">
        <ele>11.199999809265</ele>
        <time>2020-09-06T08:13:39.000Z</time>
      </trkpt>
      <trkpt lat="47.33406" lon="-2.46603">
        <ele>11.60000038147</ele>
        <time>2020-09-06T08:13:40.000Z</time>
      </trkpt>
      <trkpt lat="47.33408" lon="-2.46601">
        <ele>12</ele>
        <time>2020-09-06T08:13:41.000Z</time>
      </trkpt>
      <trkpt lat="47.3341" lon="-2.46599">
        <ele>12.39999961853</ele>
        <time>2020-09-06T08:13:42.000Z</time>
      </trkpt>
      <trkpt lat="47.33411" lon="-2.46598">
        <ele>12.800000190735</ele>
        <time>2020-09-06T08:13:43.000Z</time>
      </trkpt>
      <trkpt lat="47.33414" lon="-2.46595">
        <ele>12.800000190735</ele>
        <time>2020-09-06T08:13:45.000Z</time>
      </trkpt>
      <trkpt lat="47.33425" lon="-2.46589">
        <ele>12.800000190735</ele>
        <time>2020-09-06T08:13:50.000Z</time>
      </trkpt>
      <trkpt lat="47.33428" lon="-2.46587">
        <ele>13.199999809265</ele>
        <time>2020-09-06T08:13:51.000Z</time>
      </trkpt>
      <trkpt lat="47.3343" lon="-2.46585">
        <ele>14.199999809265</ele>
        <time>2020-09-06T08:13:52.000Z</time>
      </trkpt>
      <trkpt lat="47.33433" lon="-2.46584">
        <ele>14.60000038147</ele>
        <time>2020-09-06T08:13:53.000Z</time>
      </trkpt>
      <trkpt lat="47.33435" lon="-2.46582">
        <ele>15</ele>
        <time>2020-09-06T08:13:54.000Z</time>
      </trkpt>
      <trkpt lat="47.33441" lon="-2.46579">
        <ele>15</ele>
        <time>2020-09-06T08:13:56.000Z</time>
      </trkpt>
      <trkpt lat="47.33449" lon="-2.46568">
        <ele>15.39999961853</ele>
        <time>2020-09-06T08:14:00.000Z</time>
      </trkpt>
      <trkpt lat="47.33451" lon="-2.46566">
        <ele>15.800000190735</ele>
        <time>2020-09-06T08:14:01.000Z</time>
      </trkpt>
      <trkpt lat="47.33453" lon="-2.46563">
        <ele>16.200000762939</ele>
        <time>2020-09-06T08:14:02.000Z</time>
      </trkpt>
      <trkpt lat="47.33455" lon="-2.46561">
        <ele>16.60000038147</ele>
        <time>2020-09-06T08:14:03.000Z</time>
      </trkpt>
      <trkpt lat="47.33457" lon="-2.46558">
        <ele>17</ele>
        <time>2020-09-06T08:14:04.000Z</time>
      </trkpt>
      <trkpt lat="47.33464" lon="-2.4655">
        <ele>17</ele>
        <time>2020-09-06T08:14:07.000Z</time>
      </trkpt>
      <trkpt lat="47.33471" lon="-2.46543">
        <ele>17.39999961853</ele>
        <time>2020-09-06T08:14:10.000Z</time>
      </trkpt>
      <trkpt lat="47.33473" lon="-2.4654">
        <ele>17.799999237061</ele>
        <time>2020-09-06T08:14:11.000Z</time>
      </trkpt>
      <trkpt lat="47.33476" lon="-2.46537">
        <ele>18.39999961853</ele>
        <time>2020-09-06T08:14:12.000Z</time>
      </trkpt>
      <trkpt lat="47.33478" lon="-2.46534">
        <ele>18.799999237061</ele>
        <time>2020-09-06T08:14:13.000Z</time>
      </trkpt>
      <trkpt lat="47.33481" lon="-2.46531">
        <ele>19.200000762939</ele>
        <time>2020-09-06T08:14:14.000Z</time>
      </trkpt>
      <trkpt lat="47.335" lon="-2.46511">
        <ele>19.200000762939</ele>
        <time>2020-09-06T08:14:20.000Z</time>
      </trkpt>
      <trkpt lat="47.33512" lon="-2.46495">
        <ele>19.60000038147</ele>
        <time>2020-09-06T08:14:25.000Z</time>
      </trkpt>
      <trkpt lat="47.33516" lon="-2.46493">
        <ele>20</ele>
        <time>2020-09-06T08:14:26.000Z</time>
      </trkpt>
      <trkpt lat="47.33519" lon="-2.4649">
        <ele>20.39999961853</ele>
        <time>2020-09-06T08:14:27.000Z</time>
      </trkpt>
      <trkpt lat="47.33522" lon="-2.46489">
        <ele>21</ele>
        <time>2020-09-06T08:14:28.000Z</time>
      </trkpt>
      <trkpt lat="47.33525" lon="-2.46489">
        <ele>21.39999961853</ele>
        <time>2020-09-06T08:14:29.000Z</time>
      </trkpt>
      <trkpt lat="47.33531" lon="-2.4649">
        <ele>21.799999237061</ele>
        <time>2020-09-06T08:14:31.000Z</time>
      </trkpt>
      <trkpt lat="47.33534" lon="-2.46491">
        <ele>22.200000762939</ele>
        <time>2020-09-06T08:14:32.000Z</time>
      </trkpt>
      <trkpt lat="47.33536" lon="-2.46492">
        <ele>22.60000038147</ele>
        <time>2020-09-06T08:14:33.000Z</time>
      </trkpt>
      <trkpt lat="47.33538" lon="-2.46494">
        <ele>23.200000762939</ele>
        <time>2020-09-06T08:14:34.000Z</time>
      </trkpt>
      <trkpt lat="47.3354" lon="-2.46498">
        <ele>23.60000038147</ele>
        <time>2020-09-06T08:14:35.000Z</time>
      </trkpt>
      <trkpt lat="47.33542" lon="-2.46505">
        <ele>23.60000038147</ele>
        <time>2020-09-06T08:14:36.000Z</time>
      </trkpt>
      <trkpt lat="47.33545" lon="-2.46522">
        <ele>23.60000038147</ele>
        <time>2020-09-06T08:14:38.000Z</time>
      </trkpt>
      <trkpt lat="47.33548" lon="-2.46546">
        <ele>23.60000038147</ele>
        <time>2020-09-06T08:14:41.000Z</time>
      </trkpt>
      <trkpt lat="47.3355" lon="-2.46554">
        <ele>23.200000762939</ele>
        <time>2020-09-06T08:14:42.000Z</time>
      </trkpt>
      <trkpt lat="47.33551" lon="-2.46561">
        <ele>22.799999237061</ele>
        <time>2020-09-06T08:14:43.000Z</time>
      </trkpt>
      <trkpt lat="47.33553" lon="-2.46569">
        <ele>22.200000762939</ele>
        <time>2020-09-06T08:14:44.000Z</time>
      </trkpt>
      <trkpt lat="47.33555" lon="-2.46576">
        <ele>21.799999237061</ele>
        <time>2020-09-06T08:14:45.000Z</time>
      </trkpt>
      <trkpt lat="47.33558" lon="-2.46582">
        <ele>21.39999961853</ele>
        <time>2020-09-06T08:14:46.000Z</time>
      </trkpt>
      <trkpt lat="47.33568" lon="-2.46593">
        <ele>21.39999961853</ele>
        <time>2020-09-06T08:14:49.000Z</time>
      </trkpt>
      <trkpt lat="47.33578" lon="-2.46613">
        <ele>21.39999961853</ele>
        <time>2020-09-06T08:14:53.000Z</time>
      </trkpt>
      <trkpt lat="47.33592" lon="-2.46658">
        <ele>21.39999961853</ele>
        <time>2020-09-06T08:14:59.000Z</time>
      </trkpt>
      <trkpt lat="47.33611" lon="-2.46709">
        <ele>21.39999961853</ele>
        <time>2020-09-06T08:15:06.000Z</time>
      </trkpt>
      <trkpt lat="47.33617" lon="-2.46729">
        <ele>21.39999961853</ele>
        <time>2020-09-06T08:15:09.000Z</time>
      </trkpt>
      <trkpt lat="47.33619" lon="-2.46743">
        <ele>21.39999961853</ele>
        <time>2020-09-06T08:15:11.000Z</time>
      </trkpt>
      <trkpt lat="47.33611" lon="-2.46761">
        <ele>21.39999961853</ele>
        <time>2020-09-06T08:15:14.000Z</time>
      </trkpt>
      <trkpt lat="47.33601" lon="-2.46769">
        <ele>21.39999961853</ele>
        <time>2020-09-06T08:15:16.000Z</time>
      </trkpt>
      <trkpt lat="47.33591" lon="-2.46779">
        <ele>21.39999961853</ele>
        <time>2020-09-06T08:15:18.000Z</time>
      </trkpt>
      <trkpt lat="47.33586" lon="-2.46785">
        <ele>21</ele>
        <time>2020-09-06T08:15:19.000Z</time>
      </trkpt>
      <trkpt lat="47.33581" lon="-2.46791">
        <ele>20.60000038147</ele>
        <time>2020-09-06T08:15:20.000Z</time>
      </trkpt>
      <trkpt lat="47.33575" lon="-2.46797">
        <ele>20</ele>
        <time>2020-09-06T08:15:21.000Z</time>
      </trkpt>
      <trkpt lat="47.3357" lon="-2.46803">
        <ele>19.60000038147</ele>
        <time>2020-09-06T08:15:22.000Z</time>
      </trkpt>
      <trkpt lat="47.33564" lon="-2.46809">
        <ele>19</ele>
        <time>2020-09-06T08:15:23.000Z</time>
      </trkpt>
      <trkpt lat="47.33558" lon="-2.46814">
        <ele>18.60000038147</ele>
        <time>2020-09-06T08:15:24.000Z</time>
      </trkpt>
      <trkpt lat="47.33552" lon="-2.4682">
        <ele>18</ele>
        <time>2020-09-06T08:15:25.000Z</time>
      </trkpt>
      <trkpt lat="47.33547" lon="-2.46825">
        <ele>17.39999961853</ele>
        <time>2020-09-06T08:15:26.000Z</time>
      </trkpt>
      <trkpt lat="47.33542" lon="-2.46829">
        <ele>16.799999237061</ele>
        <time>2020-09-06T08:15:27.000Z</time>
      </trkpt>
      <trkpt lat="47.33538" lon="-2.46834">
        <ele>16.200000762939</ele>
        <time>2020-09-06T08:15:28.000Z</time>
      </trkpt>
      <trkpt lat="47.33535" lon="-2.46839">
        <ele>15.60000038147</ele>
        <time>2020-09-06T08:15:29.000Z</time>
      </trkpt>
      <trkpt lat="47.33532" lon="-2.46845">
        <ele>14.39999961853</ele>
        <time>2020-09-06T08:15:30.000Z</time>
      </trkpt>
      <trkpt lat="47.3353" lon="-2.46851">
        <ele>13.800000190735</ele>
        <time>2020-09-06T08:15:31.000Z</time>
      </trkpt>
      <trkpt lat="47.3353" lon="-2.46859">
        <ele>13.199999809265</ele>
        <time>2020-09-06T08:15:32.000Z</time>
      </trkpt>
      <trkpt lat="47.3353" lon="-2.46867">
        <ele>12.60000038147</ele>
        <time>2020-09-06T08:15:33.000Z</time>
      </trkpt>
      <trkpt lat="47.3353" lon="-2.46874">
        <ele>12.199999809265</ele>
        <time>2020-09-06T08:15:34.000Z</time>
      </trkpt>
      <trkpt lat="47.33528" lon="-2.46879">
        <ele>11.800000190735</ele>
        <time>2020-09-06T08:15:35.000Z</time>
      </trkpt>
      <trkpt lat="47.33525" lon="-2.46884">
        <ele>11.39999961853</ele>
        <time>2020-09-06T08:15:36.000Z</time>
      </trkpt>
      <trkpt lat="47.33521" lon="-2.46888">
        <ele>11</ele>
        <time>2020-09-06T08:15:37.000Z</time>
      </trkpt>
      <trkpt lat="47.33517" lon="-2.46892">
        <ele>10.60000038147</ele>
        <time>2020-09-06T08:15:38.000Z</time>
      </trkpt>
      <trkpt lat="47.33513" lon="-2.46896">
        <ele>10.60000038147</ele>
        <time>2020-09-06T08:15:39.000Z</time>
      </trkpt>
      <trkpt lat="47.33509" lon="-2.46901">
        <ele>10.60000038147</ele>
        <time>2020-09-06T08:15:40.000Z</time>
      </trkpt>
      <trkpt lat="47.33505" lon="-2.46906">
        <ele>10.199999809265</ele>
        <time>2020-09-06T08:15:41.000Z</time>
      </trkpt>
      <trkpt lat="47.335" lon="-2.4691">
        <ele>9.8000001907349</ele>
        <time>2020-09-06T08:15:42.000Z</time>
      </trkpt>
      <trkpt lat="47.33495" lon="-2.46914">
        <ele>9.1999998092651</ele>
        <time>2020-09-06T08:15:43.000Z</time>
      </trkpt>
      <trkpt lat="47.33489" lon="-2.46918">
        <ele>8.8000001907349</ele>
        <time>2020-09-06T08:15:44.000Z</time>
      </trkpt>
      <trkpt lat="47.33483" lon="-2.46923">
        <ele>8.3999996185303</ele>
        <time>2020-09-06T08:15:45.000Z</time>
      </trkpt>
      <trkpt lat="47.3347" lon="-2.46942">
        <ele>8.3999996185303</ele>
        <time>2020-09-06T08:15:48.000Z</time>
      </trkpt>
      <trkpt lat="47.33461" lon="-2.46955">
        <ele>8</ele>
        <time>2020-09-06T08:15:50.000Z</time>
      </trkpt>
      <trkpt lat="47.33457" lon="-2.46962">
        <ele>7.5999999046326</ele>
        <time>2020-09-06T08:15:51.000Z</time>
      </trkpt>
      <trkpt lat="47.33453" lon="-2.46968">
        <ele>7.1999998092651</ele>
        <time>2020-09-06T08:15:52.000Z</time>
      </trkpt>
      <trkpt lat="47.33449" lon="-2.46974">
        <ele>6.8000001907349</ele>
        <time>2020-09-06T08:15:53.000Z</time>
      </trkpt>
      <trkpt lat="47.33445" lon="-2.46979">
        <ele>6.4000000953674</ele>
        <time>2020-09-06T08:15:54.000Z</time>
      </trkpt>
      <trkpt lat="47.33441" lon="-2.46985">
        <ele>6.4000000953674</ele>
        <time>2020-09-06T08:15:55.000Z</time>
      </trkpt>
      <trkpt lat="47.33413" lon="-2.47031">
        <ele>6.4000000953674</ele>
        <time>2020-09-06T08:16:02.000Z</time>
      </trkpt>
      <trkpt lat="47.33403" lon="-2.47053">
        <ele>6</ele>
        <time>2020-09-06T08:16:05.000Z</time>
      </trkpt>
      <trkpt lat="47.33401" lon="-2.47061">
        <ele>5.4000000953674</ele>
        <time>2020-09-06T08:16:06.000Z</time>
      </trkpt>
      <trkpt lat="47.33398" lon="-2.47069">
        <ele>5</ele>
        <time>2020-09-06T08:16:07.000Z</time>
      </trkpt>
      <trkpt lat="47.33395" lon="-2.47077">
        <ele>4.5999999046326</ele>
        <time>2020-09-06T08:16:08.000Z</time>
      </trkpt>
      <trkpt lat="47.33393" lon="-2.47086">
        <ele>4.1999998092651</ele>
        <time>2020-09-06T08:16:09.000Z</time>
      </trkpt>
      <trkpt lat="47.33391" lon="-2.47095">
        <ele>4.1999998092651</ele>
        <time>2020-09-06T08:16:10.000Z</time>
      </trkpt>
      <trkpt lat="47.33384" lon="-2.47128">
        <ele>4.1999998092651</ele>
        <time>2020-09-06T08:16:14.000Z</time>
      </trkpt>
      <trkpt lat="47.33381" lon="-2.47135">
        <ele>4.1999998092651</ele>
        <time>2020-09-06T08:16:15.000Z</time>
      </trkpt>
      <trkpt lat="47.33371" lon="-2.47154">
        <ele>4.1999998092651</ele>
        <time>2020-09-06T08:16:18.000Z</time>
      </trkpt>
      <trkpt lat="47.33368" lon="-2.47161">
        <ele>4.1999998092651</ele>
        <time>2020-09-06T08:16:19.000Z</time>
      </trkpt>
      <trkpt lat="47.33367" lon="-2.47168">
        <ele>3.4000000953674</ele>
        <time>2020-09-06T08:16:20.000Z</time>
      </trkpt>
      <trkpt lat="47.33366" lon="-2.47176">
        <ele>2.7999999523163</ele>
        <time>2020-09-06T08:16:21.000Z</time>
      </trkpt>
      <trkpt lat="47.33366" lon="-2.47183">
        <ele>2.4000000953674</ele>
        <time>2020-09-06T08:16:22.000Z</time>
      </trkpt>
      <trkpt lat="47.33367" lon="-2.47191">
        <ele>2</ele>
        <time>2020-09-06T08:16:23.000Z</time>
      </trkpt>
      <trkpt lat="47.3337" lon="-2.47206">
        <ele>2</ele>
        <time>2020-09-06T08:16:25.000Z</time>
      </trkpt>
      <trkpt lat="47.33376" lon="-2.47249">
        <ele>2</ele>
        <time>2020-09-06T08:16:30.000Z</time>
      </trkpt>
      <trkpt lat="47.33386" lon="-2.47321">
        <ele>2</ele>
        <time>2020-09-06T08:16:38.000Z</time>
      </trkpt>
      <trkpt lat="47.33392" lon="-2.47353">
        <ele>2</ele>
        <time>2020-09-06T08:16:42.000Z</time>
      </trkpt>
      <trkpt lat="47.33394" lon="-2.47361">
        <ele>2</ele>
        <time>2020-09-06T08:16:43.000Z</time>
      </trkpt>
      <trkpt lat="47.33397" lon="-2.4737">
        <ele>2.4000000953674</ele>
        <time>2020-09-06T08:16:44.000Z</time>
      </trkpt>
      <trkpt lat="47.334" lon="-2.47378">
        <ele>3.2000000476837</ele>
        <time>2020-09-06T08:16:45.000Z</time>
      </trkpt>
      <trkpt lat="47.33403" lon="-2.47387">
        <ele>3.7999999523163</ele>
        <time>2020-09-06T08:16:46.000Z</time>
      </trkpt>
      <trkpt lat="47.33405" lon="-2.47395">
        <ele>4.1999998092651</ele>
        <time>2020-09-06T08:16:47.000Z</time>
      </trkpt>
      <trkpt lat="47.3341" lon="-2.47413">
        <ele>4.1999998092651</ele>
        <time>2020-09-06T08:16:49.000Z</time>
      </trkpt>
      <trkpt lat="47.33412" lon="-2.47422">
        <ele>4.1999998092651</ele>
        <time>2020-09-06T08:16:50.000Z</time>
      </trkpt>
      <trkpt lat="47.33426" lon="-2.47479">
        <ele>4.1999998092651</ele>
        <time>2020-09-06T08:16:57.000Z</time>
      </trkpt>
      <trkpt lat="47.33441" lon="-2.4752">
        <ele>4.1999998092651</ele>
        <time>2020-09-06T08:17:03.000Z</time>
      </trkpt>
      <trkpt lat="47.33462" lon="-2.47565">
        <ele>4.1999998092651</ele>
        <time>2020-09-06T08:17:09.000Z</time>
      </trkpt>
      <trkpt lat="47.3348" lon="-2.47597">
        <ele>4.1999998092651</ele>
        <time>2020-09-06T08:17:13.000Z</time>
      </trkpt>
      <trkpt lat="47.33486" lon="-2.47604">
        <ele>4.1999998092651</ele>
        <time>2020-09-06T08:17:14.000Z</time>
      </trkpt>
      <trkpt lat="47.33508" lon="-2.47627">
        <ele>4.1999998092651</ele>
        <time>2020-09-06T08:17:18.000Z</time>
      </trkpt>
      <trkpt lat="47.33518" lon="-2.47652">
        <ele>4.1999998092651</ele>
        <time>2020-09-06T08:17:21.000Z</time>
      </trkpt>
      <trkpt lat="47.33525" lon="-2.47666">
        <ele>4.1999998092651</ele>
        <time>2020-09-06T08:17:23.000Z</time>
      </trkpt>
      <trkpt lat="47.33545" lon="-2.47684">
        <ele>4.1999998092651</ele>
        <time>2020-09-06T08:17:27.000Z</time>
      </trkpt>
      <trkpt lat="47.33559" lon="-2.47692">
        <ele>4.1999998092651</ele>
        <time>2020-09-06T08:17:30.000Z</time>
      </trkpt>
      <trkpt lat="47.33569" lon="-2.47698">
        <ele>4.1999998092651</ele>
        <time>2020-09-06T08:17:32.000Z</time>
      </trkpt>
      <trkpt lat="47.33578" lon="-2.47702">
        <ele>4.1999998092651</ele>
        <time>2020-09-06T08:17:34.000Z</time>
      </trkpt>
      <trkpt lat="47.33587" lon="-2.477">
        <ele>4.1999998092651</ele>
        <time>2020-09-06T08:17:36.000Z</time>
      </trkpt>
      <trkpt lat="47.33603" lon="-2.47689">
        <ele>4.1999998092651</ele>
        <time>2020-09-06T08:17:39.000Z</time>
      </trkpt>
      <trkpt lat="47.33612" lon="-2.4768">
        <ele>4.1999998092651</ele>
        <time>2020-09-06T08:17:41.000Z</time>
      </trkpt>
      <trkpt lat="47.33625" lon="-2.47668">
        <ele>4.1999998092651</ele>
        <time>2020-09-06T08:17:44.000Z</time>
      </trkpt>
      <trkpt lat="47.33639" lon="-2.47656">
        <ele>4.1999998092651</ele>
        <time>2020-09-06T08:17:47.000Z</time>
      </trkpt>
      <trkpt lat="47.33672" lon="-2.47632">
        <ele>4.1999998092651</ele>
        <time>2020-09-06T08:17:54.000Z</time>
      </trkpt>
      <trkpt lat="47.33682" lon="-2.47625">
        <ele>4.1999998092651</ele>
        <time>2020-09-06T08:17:56.000Z</time>
      </trkpt>
      <trkpt lat="47.33699" lon="-2.47621">
        <ele>4.1999998092651</ele>
        <time>2020-09-06T08:17:59.000Z</time>
      </trkpt>
      <trkpt lat="47.33732" lon="-2.47621">
        <ele>4.1999998092651</ele>
        <time>2020-09-06T08:18:05.000Z</time>
      </trkpt>
      <trkpt lat="47.33752" lon="-2.47634">
        <ele>4.1999998092651</ele>
        <time>2020-09-06T08:18:09.000Z</time>
      </trkpt>
      <trkpt lat="47.33765" lon="-2.47661">
        <ele>4.1999998092651</ele>
        <time>2020-09-06T08:18:13.000Z</time>
      </trkpt>
      <trkpt lat="47.33768" lon="-2.47668">
        <ele>4.1999998092651</ele>
        <time>2020-09-06T08:18:14.000Z</time>
      </trkpt>
      <trkpt lat="47.33782" lon="-2.47688">
        <ele>4.1999998092651</ele>
        <time>2020-09-06T08:18:17.000Z</time>
      </trkpt>
      <trkpt lat="47.33813" lon="-2.47727">
        <ele>4.1999998092651</ele>
        <time>2020-09-06T08:18:23.000Z</time>
      </trkpt>
      <trkpt lat="47.33818" lon="-2.47733">
        <ele>3.5999999046326</ele>
        <time>2020-09-06T08:18:24.000Z</time>
      </trkpt>
      <trkpt lat="47.33823" lon="-2.47739">
        <ele>3.2000000476837</ele>
        <time>2020-09-06T08:18:25.000Z</time>
      </trkpt>
      <trkpt lat="47.33828" lon="-2.47744">
        <ele>2.5999999046326</ele>
        <time>2020-09-06T08:18:26.000Z</time>
      </trkpt>
      <trkpt lat="47.33833" lon="-2.47751">
        <ele>2.2000000476837</ele>
        <time>2020-09-06T08:18:27.000Z</time>
      </trkpt>
      <trkpt lat="47.33837" lon="-2.47757">
        <ele>1.7999999523163</ele>
        <time>2020-09-06T08:18:28.000Z</time>
      </trkpt>
      <trkpt lat="47.33849" lon="-2.47773">
        <ele>1.3999999761581</ele>
        <time>2020-09-06T08:18:32.000Z</time>
      </trkpt>
      <trkpt lat="47.33852" lon="-2.47773">
        <ele>1</ele>
        <time>2020-09-06T08:18:33.000Z</time>
      </trkpt>
      <trkpt lat="47.33854" lon="-2.47772">
        <ele>0.40000000596046</ele>
        <time>2020-09-06T08:18:34.000Z</time>
      </trkpt>
      <trkpt lat="47.33856" lon="-2.4777">
        <ele>18.9</ele>
        <time>2020-09-06T08:18:35.000Z</time>
      </trkpt>
      <trkpt lat="47.33859" lon="-2.47767">
        <ele>-0.40000000596046</ele>
        <time>2020-09-06T08:18:36.000Z</time>
      </trkpt>
      <trkpt lat="47.33864" lon="-2.4776">
        <ele>-0.40000000596046</ele>
        <time>2020-09-06T08:18:38.000Z</time>
      </trkpt>
      <trkpt lat="47.3387" lon="-2.47753">
        <ele>-0.40000000596046</ele>
        <time>2020-09-06T08:18:40.000Z</time>
      </trkpt>
      <trkpt lat="47.33875" lon="-2.47743">
        <ele>-0.40000000596046</ele>
        <time>2020-09-06T08:18:42.000Z</time>
      </trkpt>
      <trkpt lat="47.33884" lon="-2.47727">
        <ele>-0.40000000596046</ele>
        <time>2020-09-06T08:18:45.000Z</time>
      </trkpt>
      <trkpt lat="47.33896" lon="-2.47708">
        <ele>-0.40000000596046</ele>
        <time>2020-09-06T08:18:49.000Z</time>
      </trkpt>
      <trkpt lat="47.33898" lon="-2.47703">
        <ele>-0.40000000596046</ele>
        <time>2020-09-06T08:18:50.000Z</time>
      </trkpt>
      <trkpt lat="47.33911" lon="-2.47676">
        <ele>0.20000000298023</ele>
        <time>2020-09-06T08:18:56.000Z</time>
      </trkpt>
      <trkpt lat="47.33914" lon="-2.47672">
        <ele>0.60000002384186</ele>
        <time>2020-09-06T08:18:57.000Z</time>
      </trkpt>
      <trkpt lat="47.33917" lon="-2.47667">
        <ele>1</ele>
        <time>2020-09-06T08:18:58.000Z</time>
      </trkpt>
      <trkpt lat="47.33919" lon="-2.47663">
        <ele>1.3999999761581</ele>
        <time>2020-09-06T08:18:59.000Z</time>
      </trkpt>
      <trkpt lat="47.33921" lon="-2.47658">
        <ele>2</ele>
        <time>2020-09-06T08:19:00.000Z</time>
      </trkpt>
      <trkpt lat="47.33927" lon="-2.47644">
        <ele>2</ele>
        <time>2020-09-06T08:19:03.000Z</time>
      </trkpt>
      <trkpt lat="47.33933" lon="-2.47622">
        <ele>2.4000000953674</ele>
        <time>2020-09-06T08:19:07.000Z</time>
      </trkpt>
      <trkpt lat="47.33935" lon="-2.47616">
        <ele>2.7999999523163</ele>
        <time>2020-09-06T08:19:08.000Z</time>
      </trkpt>
      <trkpt lat="47.33937" lon="-2.4761">
        <ele>3.2000000476837</ele>
        <time>2020-09-06T08:19:09.000Z</time>
      </trkpt>
      <trkpt lat="47.33938" lon="-2.47605">
        <ele>3.5999999046326</ele>
        <time>2020-09-06T08:19:10.000Z</time>
      </trkpt>
      <trkpt lat="47.3394" lon="-2.47599">
        <ele>4</ele>
        <time>2020-09-06T08:19:11.000Z</time>
      </trkpt>
      <trkpt lat="47.33946" lon="-2.47577">
        <ele>4</ele>
        <time>2020-09-06T08:19:15.000Z</time>
      </trkpt>
      <trkpt lat="47.33954" lon="-2.47561">
        <ele>4.4000000953674</ele>
        <time>2020-09-06T08:19:19.000Z</time>
      </trkpt>
      <trkpt lat="47.33956" lon="-2.47557">
        <ele>4.8000001907349</ele>
        <time>2020-09-06T08:19:20.000Z</time>
      </trkpt>
      <trkpt lat="47.33959" lon="-2.47553">
        <ele>5.1999998092651</ele>
        <time>2020-09-06T08:19:21.000Z</time>
      </trkpt>
      <trkpt lat="47.33961" lon="-2.4755">
        <ele>5.5999999046326</ele>
        <time>2020-09-06T08:19:22.000Z</time>
      </trkpt>
      <trkpt lat="47.33963" lon="-2.47545">
        <ele>6</ele>
        <time>2020-09-06T08:19:23.000Z</time>
      </trkpt>
      <trkpt lat="47.33972" lon="-2.47532">
        <ele>6</ele>
        <time>2020-09-06T08:19:26.000Z</time>
      </trkpt>
      <trkpt lat="47.33976" lon="-2.47528">
        <ele>6</ele>
        <time>2020-09-06T08:19:27.000Z</time>
      </trkpt>
      <trkpt lat="47.33979" lon="-2.47524">
        <ele>6.5999999046326</ele>
        <time>2020-09-06T08:19:28.000Z</time>
      </trkpt>
      <trkpt lat="47.33983" lon="-2.47521">
        <ele>7</ele>
        <time>2020-09-06T08:19:29.000Z</time>
      </trkpt>
      <trkpt lat="47.33986" lon="-2.47518">
        <ele>7.4000000953674</ele>
        <time>2020-09-06T08:19:30.000Z</time>
      </trkpt>
      <trkpt lat="47.3399" lon="-2.47514">
        <ele>7.8000001907349</ele>
        <time>2020-09-06T08:19:31.000Z</time>
      </trkpt>
      <trkpt lat="47.33993" lon="-2.47511">
        <ele>8.3999996185303</ele>
        <time>2020-09-06T08:19:32.000Z</time>
      </trkpt>
      <trkpt lat="47.34" lon="-2.47504">
        <ele>8.3999996185303</ele>
        <time>2020-09-06T08:19:34.000Z</time>
      </trkpt>
      <trkpt lat="47.34011" lon="-2.47495">
        <ele>8.8000001907349</ele>
        <time>2020-09-06T08:19:37.000Z</time>
      </trkpt>
      <trkpt lat="47.34014" lon="-2.47491">
        <ele>9.6000003814697</ele>
        <time>2020-09-06T08:19:38.000Z</time>
      </trkpt>
      <trkpt lat="47.34017" lon="-2.47488">
        <ele>10</ele>
        <time>2020-09-06T08:19:39.000Z</time>
      </trkpt>
      <trkpt lat="47.3402" lon="-2.47484">
        <ele>10.39999961853</ele>
        <time>2020-09-06T08:19:40.000Z</time>
      </trkpt>
      <trkpt lat="47.34023" lon="-2.47481">
        <ele>10.39999961853</ele>
        <time>2020-09-06T08:19:41.000Z</time>
      </trkpt>
      <trkpt lat="47.3404" lon="-2.47467">
        <ele>10.39999961853</ele>
        <time>2020-09-06T08:19:46.000Z</time>
      </trkpt>
      <trkpt lat="47.34055" lon="-2.47449">
        <ele>10.800000190735</ele>
        <time>2020-09-06T08:19:51.000Z</time>
      </trkpt>
      <trkpt lat="47.34058" lon="-2.47445">
        <ele>11.199999809265</ele>
        <time>2020-09-06T08:19:52.000Z</time>
      </trkpt>
      <trkpt lat="47.34062" lon="-2.47441">
        <ele>11.60000038147</ele>
        <time>2020-09-06T08:19:53.000Z</time>
      </trkpt>
      <trkpt lat="47.34065" lon="-2.47437">
        <ele>12</ele>
        <time>2020-09-06T08:19:54.000Z</time>
      </trkpt>
      <trkpt lat="47.34068" lon="-2.47433">
        <ele>12.39999961853</ele>
        <time>2020-09-06T08:19:55.000Z</time>
      </trkpt>
      <trkpt lat="47.34075" lon="-2.47423">
        <ele>12.39999961853</ele>
        <time>2020-09-06T08:19:58.000Z</time>
      </trkpt>
      <trkpt lat="47.34087" lon="-2.47406">
        <ele>12.39999961853</ele>
        <time>2020-09-06T08:20:04.000Z</time>
      </trkpt>
      <trkpt lat="47.3409" lon="-2.47402">
        <ele>12.800000190735</ele>
        <time>2020-09-06T08:20:05.000Z</time>
      </trkpt>
      <trkpt lat="47.34092" lon="-2.47399">
        <ele>13.199999809265</ele>
        <time>2020-09-06T08:20:06.000Z</time>
      </trkpt>
      <trkpt lat="47.34093" lon="-2.47395">
        <ele>13.60000038147</ele>
        <time>2020-09-06T08:20:07.000Z</time>
      </trkpt>
      <trkpt lat="47.34095" lon="-2.4739">
        <ele>14</ele>
        <time>2020-09-06T08:20:08.000Z</time>
      </trkpt>
      <trkpt lat="47.34097" lon="-2.47385">
        <ele>14.39999961853</ele>
        <time>2020-09-06T08:20:09.000Z</time>
      </trkpt>
      <trkpt lat="47.34099" lon="-2.4738">
        <ele>14.39999961853</ele>
        <time>2020-09-06T08:20:10.000Z</time>
      </trkpt>
      <trkpt lat="47.34112" lon="-2.47349">
        <ele>14.39999961853</ele>
        <time>2020-09-06T08:20:16.000Z</time>
      </trkpt>
      <trkpt lat="47.34118" lon="-2.47333">
        <ele>14.800000190735</ele>
        <time>2020-09-06T08:20:19.000Z</time>
      </trkpt>
      <trkpt lat="47.34119" lon="-2.47328">
        <ele>15.39999961853</ele>
        <time>2020-09-06T08:20:20.000Z</time>
      </trkpt>
      <trkpt lat="47.34121" lon="-2.47323">
        <ele>15.800000190735</ele>
        <time>2020-09-06T08:20:21.000Z</time>
      </trkpt>
      <trkpt lat="47.34123" lon="-2.47318">
        <ele>16.200000762939</ele>
        <time>2020-09-06T08:20:22.000Z</time>
      </trkpt>
      <trkpt lat="47.34125" lon="-2.47313">
        <ele>16.60000038147</ele>
        <time>2020-09-06T08:20:23.000Z</time>
      </trkpt>
      <trkpt lat="47.34139" lon="-2.4729">
        <ele>17.200000762939</ele>
        <time>2020-09-06T08:20:27.000Z</time>
      </trkpt>
      <trkpt lat="47.34142" lon="-2.47285">
        <ele>17.60000038147</ele>
        <time>2020-09-06T08:20:28.000Z</time>
      </trkpt>
      <trkpt lat="47.34146" lon="-2.47279">
        <ele>18</ele>
        <time>2020-09-06T08:20:29.000Z</time>
      </trkpt>
      <trkpt lat="47.3415" lon="-2.47275">
        <ele>18.39999961853</ele>
        <time>2020-09-06T08:20:30.000Z</time>
      </trkpt>
      <trkpt lat="47.34154" lon="-2.47271">
        <ele>19</ele>
        <time>2020-09-06T08:20:31.000Z</time>
      </trkpt>
      <trkpt lat="47.34166" lon="-2.47258">
        <ele>19</ele>
        <time>2020-09-06T08:20:34.000Z</time>
      </trkpt>
      <trkpt lat="47.34189" lon="-2.47234">
        <ele>19.39999961853</ele>
        <time>2020-09-06T08:20:40.000Z</time>
      </trkpt>
      <trkpt lat="47.34193" lon="-2.47231">
        <ele>19.799999237061</ele>
        <time>2020-09-06T08:20:41.000Z</time>
      </trkpt>
      <trkpt lat="47.34197" lon="-2.47227">
        <ele>20.200000762939</ele>
        <time>2020-09-06T08:20:42.000Z</time>
      </trkpt>
      <trkpt lat="47.342" lon="-2.47223">
        <ele>20.60000038147</ele>
        <time>2020-09-06T08:20:43.000Z</time>
      </trkpt>
      <trkpt lat="47.34204" lon="-2.47219">
        <ele>21.200000762939</ele>
        <time>2020-09-06T08:20:44.000Z</time>
      </trkpt>
      <trkpt lat="47.34222" lon="-2.47197">
        <ele>21.200000762939</ele>
        <time>2020-09-06T08:20:49.000Z</time>
      </trkpt>
      <trkpt lat="47.34254" lon="-2.47155">
        <ele>21.200000762939</ele>
        <time>2020-09-06T08:20:58.000Z</time>
      </trkpt>
      <trkpt lat="47.34258" lon="-2.47151">
        <ele>21.60000038147</ele>
        <time>2020-09-06T08:20:59.000Z</time>
      </trkpt>
      <trkpt lat="47.34261" lon="-2.47147">
        <ele>22</ele>
        <time>2020-09-06T08:21:00.000Z</time>
      </trkpt>
      <trkpt lat="47.34266" lon="-2.47143">
        <ele>22.39999961853</ele>
        <time>2020-09-06T08:21:01.000Z</time>
      </trkpt>
      <trkpt lat="47.3427" lon="-2.47139">
        <ele>22.799999237061</ele>
        <time>2020-09-06T08:21:02.000Z</time>
      </trkpt>
      <trkpt lat="47.34275" lon="-2.47136">
        <ele>23.200000762939</ele>
        <time>2020-09-06T08:21:03.000Z</time>
      </trkpt>
      <trkpt lat="47.34284" lon="-2.47129">
        <ele>23.200000762939</ele>
        <time>2020-09-06T08:21:05.000Z</time>
      </trkpt>
      <trkpt lat="47.34318" lon="-2.47107">
        <ele>23.200000762939</ele>
        <time>2020-09-06T08:21:12.000Z</time>
      </trkpt>
      <trkpt lat="47.34359" lon="-2.47077">
        <ele>23.200000762939</ele>
        <time>2020-09-06T08:21:20.000Z</time>
      </trkpt>
      <trkpt lat="47.34398" lon="-2.47054">
        <ele>23.200000762939</ele>
        <time>2020-09-06T08:21:27.000Z</time>
      </trkpt>
      <trkpt lat="47.34432" lon="-2.47035">
        <ele>23.200000762939</ele>
        <time>2020-09-06T08:21:33.000Z</time>
      </trkpt>
      <trkpt lat="47.34461" lon="-2.47018">
        <ele>23.200000762939</ele>
        <time>2020-09-06T08:21:39.000Z</time>
      </trkpt>
      <trkpt lat="47.3447" lon="-2.47014">
        <ele>23.200000762939</ele>
        <time>2020-09-06T08:21:41.000Z</time>
      </trkpt>
      <trkpt lat="47.34483" lon="-2.47007">
        <ele>23.200000762939</ele>
        <time>2020-09-06T08:21:44.000Z</time>
      </trkpt>
      <trkpt lat="47.34512" lon="-2.4699">
        <ele>23.200000762939</ele>
        <time>2020-09-06T08:21:50.000Z</time>
      </trkpt>
      <trkpt lat="47.34542" lon="-2.46973">
        <ele>23.200000762939</ele>
        <time>2020-09-06T08:21:56.000Z</time>
      </trkpt>
      <trkpt lat="47.34564" lon="-2.46961">
        <ele>23.200000762939</ele>
        <time>2020-09-06T08:22:00.000Z</time>
      </trkpt>
      <trkpt lat="47.34569" lon="-2.46956">
        <ele>23.200000762939</ele>
        <time>2020-09-06T08:22:01.000Z</time>
      </trkpt>
      <trkpt lat="47.34584" lon="-2.46942">
        <ele>23.200000762939</ele>
        <time>2020-09-06T08:22:04.000Z</time>
      </trkpt>
      <trkpt lat="47.34593" lon="-2.46933">
        <ele>23.200000762939</ele>
        <time>2020-09-06T08:22:06.000Z</time>
      </trkpt>
      <trkpt lat="47.3462" lon="-2.4691">
        <ele>23.200000762939</ele>
        <time>2020-09-06T08:22:12.000Z</time>
      </trkpt>
      <trkpt lat="47.34635" lon="-2.46905">
        <ele>23.200000762939</ele>
        <time>2020-09-06T08:22:15.000Z</time>
      </trkpt>
      <trkpt lat="47.3464" lon="-2.46904">
        <ele>23.200000762939</ele>
        <time>2020-09-06T08:22:16.000Z</time>
      </trkpt>
      <trkpt lat="47.34656" lon="-2.46898">
        <ele>23.200000762939</ele>
        <time>2020-09-06T08:22:20.000Z</time>
      </trkpt>
      <trkpt lat="47.3466" lon="-2.46897">
        <ele>23.200000762939</ele>
        <time>2020-09-06T08:22:21.000Z</time>
      </trkpt>
      <trkpt lat="47.34677" lon="-2.46893">
        <ele>23.200000762939</ele>
        <time>2020-09-06T08:22:25.000Z</time>
      </trkpt>
      <trkpt lat="47.34682" lon="-2.46892">
        <ele>23.200000762939</ele>
        <time>2020-09-06T08:22:26.000Z</time>
      </trkpt>
      <trkpt lat="47.34703" lon="-2.4689">
        <ele>23.200000762939</ele>
        <time>2020-09-06T08:22:31.000Z</time>
      </trkpt>
      <trkpt lat="47.34731" lon="-2.46883">
        <ele>23.200000762939</ele>
        <time>2020-09-06T08:22:38.000Z</time>
      </trkpt>
      <trkpt lat="47.34747" lon="-2.46874">
        <ele>23.200000762939</ele>
        <time>2020-09-06T08:22:42.000Z</time>
      </trkpt>
      <trkpt lat="47.34755" lon="-2.46869">
        <ele>23.200000762939</ele>
        <time>2020-09-06T08:22:44.000Z</time>
      </trkpt>
      <trkpt lat="47.34779" lon="-2.46856">
        <ele>23.200000762939</ele>
        <time>2020-09-06T08:22:50.000Z</time>
      </trkpt>
      <trkpt lat="47.34783" lon="-2.46853">
        <ele>23.200000762939</ele>
        <time>2020-09-06T08:22:51.000Z</time>
      </trkpt>
      <trkpt lat="47.348" lon="-2.46847">
        <ele>23.200000762939</ele>
        <time>2020-09-06T08:22:55.000Z</time>
      </trkpt>
      <trkpt lat="47.34812" lon="-2.46842">
        <ele>23.200000762939</ele>
        <time>2020-09-06T08:22:58.000Z</time>
      </trkpt>
      <trkpt lat="47.34821" lon="-2.46839">
        <ele>23.200000762939</ele>
        <time>2020-09-06T08:23:00.000Z</time>
      </trkpt>
      <trkpt lat="47.34825" lon="-2.46837">
        <ele>23.200000762939</ele>
        <time>2020-09-06T08:23:01.000Z</time>
      </trkpt>
      <trkpt lat="47.34848" lon="-2.46828">
        <ele>23.200000762939</ele>
        <time>2020-09-06T08:23:07.000Z</time>
      </trkpt>
      <trkpt lat="47.34868" lon="-2.46827">
        <ele>23.200000762939</ele>
        <time>2020-09-06T08:23:13.000Z</time>
      </trkpt>
      <trkpt lat="47.34873" lon="-2.46849">
        <ele>23.200000762939</ele>
        <time>2020-09-06T08:23:17.000Z</time>
      </trkpt>
      <trkpt lat="47.34882" lon="-2.46894">
        <ele>23.200000762939</ele>
        <time>2020-09-06T08:23:23.000Z</time>
      </trkpt>
      <trkpt lat="47.3489" lon="-2.46944">
        <ele>23.60000038147</ele>
        <time>2020-09-06T08:23:29.000Z</time>
      </trkpt>
      <trkpt lat="47.34891" lon="-2.46953">
        <ele>24</ele>
        <time>2020-09-06T08:23:30.000Z</time>
      </trkpt>
      <trkpt lat="47.34892" lon="-2.46962">
        <ele>24.39999961853</ele>
        <time>2020-09-06T08:23:31.000Z</time>
      </trkpt>
      <trkpt lat="47.34893" lon="-2.46971">
        <ele>24.799999237061</ele>
        <time>2020-09-06T08:23:32.000Z</time>
      </trkpt>
      <trkpt lat="47.34894" lon="-2.46979">
        <ele>25.200000762939</ele>
        <time>2020-09-06T08:23:33.000Z</time>
      </trkpt>
      <trkpt lat="47.34896" lon="-2.46996">
        <ele>25.200000762939</ele>
        <time>2020-09-06T08:23:35.000Z</time>
      </trkpt>
      <trkpt lat="47.34909" lon="-2.47049">
        <ele>25.200000762939</ele>
        <time>2020-09-06T08:23:42.000Z</time>
      </trkpt>
      <trkpt lat="47.34912" lon="-2.47056">
        <ele>25.200000762939</ele>
        <time>2020-09-06T08:23:43.000Z</time>
      </trkpt>
      <trkpt lat="47.34925" lon="-2.47089">
        <ele>25.200000762939</ele>
        <time>2020-09-06T08:23:47.000Z</time>
      </trkpt>
      <trkpt lat="47.34948" lon="-2.47157">
        <ele>25.200000762939</ele>
        <time>2020-09-06T08:23:54.000Z</time>
      </trkpt>
      <trkpt lat="47.34959" lon="-2.47186">
        <ele>24.799999237061</ele>
        <time>2020-09-06T08:23:57.000Z</time>
      </trkpt>
      <trkpt lat="47.34962" lon="-2.47195">
        <ele>24.39999961853</ele>
        <time>2020-09-06T08:23:58.000Z</time>
      </trkpt>
      <trkpt lat="47.34966" lon="-2.47204">
        <ele>24</ele>
        <time>2020-09-06T08:23:59.000Z</time>
      </trkpt>
      <trkpt lat="47.3497" lon="-2.47214">
        <ele>23.60000038147</ele>
        <time>2020-09-06T08:24:00.000Z</time>
      </trkpt>
      <trkpt lat="47.34973" lon="-2.47224">
        <ele>23.200000762939</ele>
        <time>2020-09-06T08:24:01.000Z</time>
      </trkpt>
      <trkpt lat="47.34977" lon="-2.47233">
        <ele>23.200000762939</ele>
        <time>2020-09-06T08:24:02.000Z</time>
      </trkpt>
      <trkpt lat="47.34988" lon="-2.4727">
        <ele>22.799999237061</ele>
        <time>2020-09-06T08:24:06.000Z</time>
      </trkpt>
      <trkpt lat="47.34991" lon="-2.47279">
        <ele>22.39999961853</ele>
        <time>2020-09-06T08:24:07.000Z</time>
      </trkpt>
      <trkpt lat="47.34994" lon="-2.47288">
        <ele>22</ele>
        <time>2020-09-06T08:24:08.000Z</time>
      </trkpt>
      <trkpt lat="47.34997" lon="-2.47297">
        <ele>21</ele>
        <time>2020-09-06T08:24:09.000Z</time>
      </trkpt>
      <trkpt lat="47.35006" lon="-2.47331">
        <ele>21</ele>
        <time>2020-09-06T08:24:13.000Z</time>
      </trkpt>
      <trkpt lat="47.35014" lon="-2.47365">
        <ele>21</ele>
        <time>2020-09-06T08:24:17.000Z</time>
      </trkpt>
      <trkpt lat="47.35015" lon="-2.47383">
        <ele>21</ele>
        <time>2020-09-06T08:24:19.000Z</time>
      </trkpt>
      <trkpt lat="47.35015" lon="-2.47393">
        <ele>20.60000038147</ele>
        <time>2020-09-06T08:24:20.000Z</time>
      </trkpt>
      <trkpt lat="47.35016" lon="-2.47403">
        <ele>20.200000762939</ele>
        <time>2020-09-06T08:24:21.000Z</time>
      </trkpt>
      <trkpt lat="47.35017" lon="-2.47413">
        <ele>19.799999237061</ele>
        <time>2020-09-06T08:24:22.000Z</time>
      </trkpt>
      <trkpt lat="47.35018" lon="-2.47422">
        <ele>19.39999961853</ele>
        <time>2020-09-06T08:24:23.000Z</time>
      </trkpt>
      <trkpt lat="47.35018" lon="-2.47432">
        <ele>19</ele>
        <time>2020-09-06T08:24:24.000Z</time>
      </trkpt>
      <trkpt lat="47.3502" lon="-2.47451">
        <ele>19</ele>
        <time>2020-09-06T08:24:26.000Z</time>
      </trkpt>
      <trkpt lat="47.35027" lon="-2.47523">
        <ele>19</ele>
        <time>2020-09-06T08:24:34.000Z</time>
      </trkpt>
      <trkpt lat="47.35033" lon="-2.47581">
        <ele>19</ele>
        <time>2020-09-06T08:24:40.000Z</time>
      </trkpt>
      <trkpt lat="47.35039" lon="-2.47647">
        <ele>19</ele>
        <time>2020-09-06T08:24:47.000Z</time>
      </trkpt>
      <trkpt lat="47.35043" lon="-2.47706">
        <ele>19</ele>
        <time>2020-09-06T08:24:54.000Z</time>
      </trkpt>
      <trkpt lat="47.35043" lon="-2.47763">
        <ele>19</ele>
        <time>2020-09-06T08:25:00.000Z</time>
      </trkpt>
      <trkpt lat="47.35038" lon="-2.4784">
        <ele>19</ele>
        <time>2020-09-06T08:25:08.000Z</time>
      </trkpt>
      <trkpt lat="47.35036" lon="-2.47896">
        <ele>19</ele>
        <time>2020-09-06T08:25:14.000Z</time>
      </trkpt>
      <trkpt lat="47.35034" lon="-2.47968">
        <ele>19</ele>
        <time>2020-09-06T08:25:22.000Z</time>
      </trkpt>
      <trkpt lat="47.35034" lon="-2.48027">
        <ele>18.60000038147</ele>
        <time>2020-09-06T08:25:29.000Z</time>
      </trkpt>
      <trkpt lat="47.35034" lon="-2.48036">
        <ele>18.200000762939</ele>
        <time>2020-09-06T08:25:30.000Z</time>
      </trkpt>
      <trkpt lat="47.35034" lon="-2.48043">
        <ele>17.799999237061</ele>
        <time>2020-09-06T08:25:31.000Z</time>
      </trkpt>
      <trkpt lat="47.35033" lon="-2.48051">
        <ele>17.39999961853</ele>
        <time>2020-09-06T08:25:32.000Z</time>
      </trkpt>
      <trkpt lat="47.35032" lon="-2.48057">
        <ele>17</ele>
        <time>2020-09-06T08:25:33.000Z</time>
      </trkpt>
      <trkpt lat="47.35031" lon="-2.48064">
        <ele>17</ele>
        <time>2020-09-06T08:25:34.000Z</time>
      </trkpt>
      <trkpt lat="47.35031" lon="-2.48072">
        <ele>17</ele>
        <time>2020-09-06T08:25:35.000Z</time>
      </trkpt>
      <trkpt lat="47.35035" lon="-2.48099">
        <ele>17</ele>
        <time>2020-09-06T08:25:39.000Z</time>
      </trkpt>
      <trkpt lat="47.35043" lon="-2.48119">
        <ele>17</ele>
        <time>2020-09-06T08:25:42.000Z</time>
      </trkpt>
      <trkpt lat="47.35047" lon="-2.48131">
        <ele>17</ele>
        <time>2020-09-06T08:25:44.000Z</time>
      </trkpt>
      <trkpt lat="47.35052" lon="-2.4815">
        <ele>17</ele>
        <time>2020-09-06T08:25:47.000Z</time>
      </trkpt>
      <trkpt lat="47.35054" lon="-2.48156">
        <ele>17.799999237061</ele>
        <time>2020-09-06T08:25:48.000Z</time>
      </trkpt>
      <trkpt lat="47.35056" lon="-2.48162">
        <ele>18.200000762939</ele>
        <time>2020-09-06T08:25:49.000Z</time>
      </trkpt>
      <trkpt lat="47.35059" lon="-2.48167">
        <ele>18.60000038147</ele>
        <time>2020-09-06T08:25:50.000Z</time>
      </trkpt>
      <trkpt lat="47.35061" lon="-2.48172">
        <ele>19</ele>
        <time>2020-09-06T08:25:51.000Z</time>
      </trkpt>
      <trkpt lat="47.35073" lon="-2.48189">
        <ele>19</ele>
        <time>2020-09-06T08:25:56.000Z</time>
      </trkpt>
      <trkpt lat="47.35088" lon="-2.48217">
        <ele>19</ele>
        <time>2020-09-06T08:26:04.000Z</time>
      </trkpt>
      <trkpt lat="47.35095" lon="-2.48229">
        <ele>19</ele>
        <time>2020-09-06T08:26:08.000Z</time>
      </trkpt>
      <trkpt lat="47.35099" lon="-2.4823">
        <ele>19</ele>
        <time>2020-09-06T08:26:09.000Z</time>
      </trkpt>
      <trkpt lat="47.35111" lon="-2.48223">
        <ele>19</ele>
        <time>2020-09-06T08:26:12.000Z</time>
      </trkpt>
      <trkpt lat="47.35116" lon="-2.4822">
        <ele>19</ele>
        <time>2020-09-06T08:26:13.000Z</time>
      </trkpt>
      <trkpt lat="47.3515" lon="-2.48185">
        <ele>19</ele>
        <time>2020-09-06T08:26:20.000Z</time>
      </trkpt>
      <trkpt lat="47.35163" lon="-2.48164">
        <ele>18.60000038147</ele>
        <time>2020-09-06T08:26:23.000Z</time>
      </trkpt>
      <trkpt lat="47.35167" lon="-2.48157">
        <ele>18</ele>
        <time>2020-09-06T08:26:24.000Z</time>
      </trkpt>
      <trkpt lat="47.35172" lon="-2.4815">
        <ele>17.60000038147</ele>
        <time>2020-09-06T08:26:25.000Z</time>
      </trkpt>
      <trkpt lat="47.35177" lon="-2.48144">
        <ele>17.200000762939</ele>
        <time>2020-09-06T08:26:26.000Z</time>
      </trkpt>
      <trkpt lat="47.35182" lon="-2.48138">
        <ele>16.799999237061</ele>
        <time>2020-09-06T08:26:27.000Z</time>
      </trkpt>
      <trkpt lat="47.35208" lon="-2.48106">
        <ele>16.799999237061</ele>
        <time>2020-09-06T08:26:32.000Z</time>
      </trkpt>
      <trkpt lat="47.35218" lon="-2.48094">
        <ele>16.799999237061</ele>
        <time>2020-09-06T08:26:34.000Z</time>
      </trkpt>
      <trkpt lat="47.35246" lon="-2.48063">
        <ele>16.799999237061</ele>
        <time>2020-09-06T08:26:41.000Z</time>
      </trkpt>
      <trkpt lat="47.35274" lon="-2.48052">
        <ele>16.799999237061</ele>
        <time>2020-09-06T08:26:46.000Z</time>
      </trkpt>
      <trkpt lat="47.3529" lon="-2.4805">
        <ele>16.799999237061</ele>
        <time>2020-09-06T08:26:49.000Z</time>
      </trkpt>
      <trkpt lat="47.35295" lon="-2.48052">
        <ele>16.200000762939</ele>
        <time>2020-09-06T08:26:50.000Z</time>
      </trkpt>
      <trkpt lat="47.35299" lon="-2.48057">
        <ele>15.800000190735</ele>
        <time>2020-09-06T08:26:51.000Z</time>
      </trkpt>
      <trkpt lat="47.35302" lon="-2.48064">
        <ele>15.39999961853</ele>
        <time>2020-09-06T08:26:52.000Z</time>
      </trkpt>
      <trkpt lat="47.35304" lon="-2.48072">
        <ele>15</ele>
        <time>2020-09-06T08:26:53.000Z</time>
      </trkpt>
      <trkpt lat="47.35307" lon="-2.4808">
        <ele>14.60000038147</ele>
        <time>2020-09-06T08:26:54.000Z</time>
      </trkpt>
      <trkpt lat="47.35318" lon="-2.48101">
        <ele>14.60000038147</ele>
        <time>2020-09-06T08:26:57.000Z</time>
      </trkpt>
      <trkpt lat="47.35323" lon="-2.48107">
        <ele>14.60000038147</ele>
        <time>2020-09-06T08:26:58.000Z</time>
      </trkpt>
      <trkpt lat="47.35332" lon="-2.48119">
        <ele>14.60000038147</ele>
        <time>2020-09-06T08:27:00.000Z</time>
      </trkpt>
      <trkpt lat="47.35338" lon="-2.48134">
        <ele>14.60000038147</ele>
        <time>2020-09-06T08:27:02.000Z</time>
      </trkpt>
      <trkpt lat="47.35333" lon="-2.48157">
        <ele>14.60000038147</ele>
        <time>2020-09-06T08:27:05.000Z</time>
      </trkpt>
      <trkpt lat="47.3532" lon="-2.48173">
        <ele>14.60000038147</ele>
        <time>2020-09-06T08:27:08.000Z</time>
      </trkpt>
      <trkpt lat="47.35315" lon="-2.48179">
        <ele>14.60000038147</ele>
        <time>2020-09-06T08:27:09.000Z</time>
      </trkpt>
      <trkpt lat="47.35296" lon="-2.48203">
        <ele>14.60000038147</ele>
        <time>2020-09-06T08:27:13.000Z</time>
      </trkpt>
      <trkpt lat="47.3527" lon="-2.48245">
        <ele>14.60000038147</ele>
        <time>2020-09-06T08:27:19.000Z</time>
      </trkpt>
      <trkpt lat="47.35242" lon="-2.48284">
        <ele>14.60000038147</ele>
        <time>2020-09-06T08:27:25.000Z</time>
      </trkpt>
      <trkpt lat="47.35212" lon="-2.48319">
        <ele>14.60000038147</ele>
        <time>2020-09-06T08:27:31.000Z</time>
      </trkpt>
      <trkpt lat="47.35167" lon="-2.48374">
        <ele>14.60000038147</ele>
        <time>2020-09-06T08:27:40.000Z</time>
      </trkpt>
      <trkpt lat="47.3514" lon="-2.48411">
        <ele>14.60000038147</ele>
        <time>2020-09-06T08:27:46.000Z</time>
      </trkpt>
      <trkpt lat="47.35114" lon="-2.48448">
        <ele>14.60000038147</ele>
        <time>2020-09-06T08:27:52.000Z</time>
      </trkpt>
      <trkpt lat="47.35107" lon="-2.4846">
        <ele>14.60000038147</ele>
        <time>2020-09-06T08:27:54.000Z</time>
      </trkpt>
      <trkpt lat="47.35093" lon="-2.48473">
        <ele>14.60000038147</ele>
        <time>2020-09-06T08:27:57.000Z</time>
      </trkpt>
      <trkpt lat="47.35072" lon="-2.4849">
        <ele>14.60000038147</ele>
        <time>2020-09-06T08:28:01.000Z</time>
      </trkpt>
      <trkpt lat="47.35061" lon="-2.48497">
        <ele>14.60000038147</ele>
        <time>2020-09-06T08:28:03.000Z</time>
      </trkpt>
      <trkpt lat="47.35029" lon="-2.48517">
        <ele>14.60000038147</ele>
        <time>2020-09-06T08:28:09.000Z</time>
      </trkpt>
      <trkpt lat="47.34992" lon="-2.4854">
        <ele>14.60000038147</ele>
        <time>2020-09-06T08:28:16.000Z</time>
      </trkpt>
      <trkpt lat="47.34959" lon="-2.4857">
        <ele>14.60000038147</ele>
        <time>2020-09-06T08:28:23.000Z</time>
      </trkpt>
      <trkpt lat="47.34927" lon="-2.48604">
        <ele>14.60000038147</ele>
        <time>2020-09-06T08:28:31.000Z</time>
      </trkpt>
      <trkpt lat="47.34917" lon="-2.48634">
        <ele>14.60000038147</ele>
        <time>2020-09-06T08:28:36.000Z</time>
      </trkpt>
      <trkpt lat="47.34916" lon="-2.48641">
        <ele>14.60000038147</ele>
        <time>2020-09-06T08:28:37.000Z</time>
      </trkpt>
      <trkpt lat="47.34913" lon="-2.48666">
        <ele>14.60000038147</ele>
        <time>2020-09-06T08:28:41.000Z</time>
      </trkpt>
      <trkpt lat="47.34911" lon="-2.4867">
        <ele>14.60000038147</ele>
        <time>2020-09-06T08:28:42.000Z</time>
      </trkpt>
      <trkpt lat="47.34909" lon="-2.48681">
        <ele>14.60000038147</ele>
        <time>2020-09-06T08:28:46.000Z</time>
      </trkpt>
      <trkpt lat="47.3491" lon="-2.4869">
        <ele>14.60000038147</ele>
        <time>2020-09-06T08:28:48.000Z</time>
      </trkpt>
      <trkpt lat="47.3491" lon="-2.48709">
        <ele>14.60000038147</ele>
        <time>2020-09-06T08:28:51.000Z</time>
      </trkpt>
      <trkpt lat="47.3491" lon="-2.48746">
        <ele>14.60000038147</ele>
        <time>2020-09-06T08:28:56.000Z</time>
      </trkpt>
      <trkpt lat="47.34906" lon="-2.4876">
        <ele>14.60000038147</ele>
        <time>2020-09-06T08:28:58.000Z</time>
      </trkpt>
      <trkpt lat="47.34892" lon="-2.48784">
        <ele>14.60000038147</ele>
        <time>2020-09-06T08:29:02.000Z</time>
      </trkpt>
      <trkpt lat="47.34862" lon="-2.48817">
        <ele>14.60000038147</ele>
        <time>2020-09-06T08:29:09.000Z</time>
      </trkpt>
      <trkpt lat="47.3485" lon="-2.4883">
        <ele>14.199999809265</ele>
        <time>2020-09-06T08:29:12.000Z</time>
      </trkpt>
      <trkpt lat="47.34846" lon="-2.48835">
        <ele>13.800000190735</ele>
        <time>2020-09-06T08:29:13.000Z</time>
      </trkpt>
      <trkpt lat="47.34842" lon="-2.4884">
        <ele>13.39999961853</ele>
        <time>2020-09-06T08:29:14.000Z</time>
      </trkpt>
      <trkpt lat="47.34839" lon="-2.48845">
        <ele>13</ele>
        <time>2020-09-06T08:29:15.000Z</time>
      </trkpt>
      <trkpt lat="47.34836" lon="-2.48851">
        <ele>12.60000038147</ele>
        <time>2020-09-06T08:29:16.000Z</time>
      </trkpt>
      <trkpt lat="47.34829" lon="-2.48879">
        <ele>12.60000038147</ele>
        <time>2020-09-06T08:29:20.000Z</time>
      </trkpt>
      <trkpt lat="47.34832" lon="-2.4891">
        <ele>12.60000038147</ele>
        <time>2020-09-06T08:29:24.000Z</time>
      </trkpt>
      <trkpt lat="47.34836" lon="-2.48924">
        <ele>12.60000038147</ele>
        <time>2020-09-06T08:29:26.000Z</time>
      </trkpt>
      <trkpt lat="47.34843" lon="-2.48943">
        <ele>12.60000038147</ele>
        <time>2020-09-06T08:29:29.000Z</time>
      </trkpt>
      <trkpt lat="47.34846" lon="-2.48949">
        <ele>12.60000038147</ele>
        <time>2020-09-06T08:29:30.000Z</time>
      </trkpt>
      <trkpt lat="47.34859" lon="-2.48958">
        <ele>12.60000038147</ele>
        <time>2020-09-06T08:29:34.000Z</time>
      </trkpt>
      <trkpt lat="47.34863" lon="-2.4896">
        <ele>12.60000038147</ele>
        <time>2020-09-06T08:29:35.000Z</time>
      </trkpt>
      <trkpt lat="47.3487" lon="-2.48972">
        <ele>12.60000038147</ele>
        <time>2020-09-06T08:29:38.000Z</time>
      </trkpt>
      <trkpt lat="47.34872" lon="-2.48977">
        <ele>12.60000038147</ele>
        <time>2020-09-06T08:29:39.000Z</time>
      </trkpt>
      <trkpt lat="47.34884" lon="-2.49006">
        <ele>12.60000038147</ele>
        <time>2020-09-06T08:29:44.000Z</time>
      </trkpt>
      <trkpt lat="47.34902" lon="-2.49049">
        <ele>12.60000038147</ele>
        <time>2020-09-06T08:29:50.000Z</time>
      </trkpt>
      <trkpt lat="47.34907" lon="-2.49063">
        <ele>12.199999809265</ele>
        <time>2020-09-06T08:29:52.000Z</time>
      </trkpt>
      <trkpt lat="47.34908" lon="-2.49068">
        <ele>11.800000190735</ele>
        <time>2020-09-06T08:29:53.000Z</time>
      </trkpt>
      <trkpt lat="47.34909" lon="-2.49072">
        <ele>11.39999961853</ele>
        <time>2020-09-06T08:29:54.000Z</time>
      </trkpt>
      <trkpt lat="47.34911" lon="-2.49076">
        <ele>10.39999961853</ele>
        <time>2020-09-06T08:29:55.000Z</time>
      </trkpt>
      <trkpt lat="47.34912" lon="-2.4908">
        <ele>9.8000001907349</ele>
        <time>2020-09-06T08:29:56.000Z</time>
      </trkpt>
      <trkpt lat="47.34914" lon="-2.49084">
        <ele>9.1999998092651</ele>
        <time>2020-09-06T08:29:57.000Z</time>
      </trkpt>
      <trkpt lat="47.34915" lon="-2.49088">
        <ele>8.6000003814697</ele>
        <time>2020-09-06T08:29:58.000Z</time>
      </trkpt>
      <trkpt lat="47.34916" lon="-2.49091">
        <ele>8</ele>
        <time>2020-09-06T08:29:59.000Z</time>
      </trkpt>
      <trkpt lat="47.34916" lon="-2.49094">
        <ele>7.4000000953674</ele>
        <time>2020-09-06T08:30:00.000Z</time>
      </trkpt>
      <trkpt lat="47.34917" lon="-2.49096">
        <ele>7</ele>
        <time>2020-09-06T08:30:01.000Z</time>
      </trkpt>
      <trkpt lat="47.34917" lon="-2.49096">
        <ele>6.4000000953674</ele>
        <time>2020-09-06T08:30:02.000Z</time>
      </trkpt>
      <trkpt lat="47.34917" lon="-2.49096">
        <ele>6</ele>
        <time>2020-09-06T08:30:03.000Z</time>
      </trkpt>
      <trkpt lat="47.34919" lon="-2.49108">
        <ele>3.4000000953674</ele>
        <time>2020-09-06T08:30:41.000Z</time>
      </trkpt>
      <trkpt lat="47.34919" lon="-2.49113">
        <ele>3</ele>
        <time>2020-09-06T08:30:42.000Z</time>
      </trkpt>
      <trkpt lat="47.34919" lon="-2.49118">
        <ele>2.5999999046326</ele>
        <time>2020-09-06T08:30:43.000Z</time>
      </trkpt>
      <trkpt lat="47.3492" lon="-2.49123">
        <ele>1.7999999523163</ele>
        <time>2020-09-06T08:30:44.000Z</time>
      </trkpt>
      <trkpt lat="47.34923" lon="-2.49128">
        <ele>1.3999999761581</ele>
        <time>2020-09-06T08:30:45.000Z</time>
      </trkpt>
      <trkpt lat="47.34925" lon="-2.49132">
        <ele>1</ele>
        <time>2020-09-06T08:30:46.000Z</time>
      </trkpt>
      <trkpt lat="47.34927" lon="-2.49137">
        <ele>0.60000002384186</ele>
        <time>2020-09-06T08:30:47.000Z</time>
      </trkpt>
      <trkpt lat="47.3493" lon="-2.49143">
        <ele>0.20000000298023</ele>
        <time>2020-09-06T08:30:48.000Z</time>
      </trkpt>
      <trkpt lat="47.34933" lon="-2.49149">
        <ele>-0.40000000596046</ele>
        <time>2020-09-06T08:30:49.000Z</time>
      </trkpt>
      <trkpt lat="47.34936" lon="-2.49155">
        <ele>-0.80000001192093</ele>
        <time>2020-09-06T08:30:50.000Z</time>
      </trkpt>
      <trkpt lat="47.3494" lon="-2.49162">
        <ele>-1.3999999761581</ele>
        <time>2020-09-06T08:30:51.000Z</time>
      </trkpt>
      <trkpt lat="47.34943" lon="-2.49167">
        <ele>-1.7999999523163</ele>
        <time>2020-09-06T08:30:52.000Z</time>
      </trkpt>
      <trkpt lat="47.34946" lon="-2.49173">
        <ele>-2.4000000953674</ele>
        <time>2020-09-06T08:30:53.000Z</time>
      </trkpt>
      <trkpt lat="47.34949" lon="-2.49178">
        <ele>-2.4000000953674</ele>
        <time>2020-09-06T08:30:54.000Z</time>
      </trkpt>
      <trkpt lat="47.34953" lon="-2.49186">
        <ele>-2.4000000953674</ele>
        <time>2020-09-06T08:30:56.000Z</time>
      </trkpt>
      <trkpt lat="47.34955" lon="-2.49198">
        <ele>-2.4000000953674</ele>
        <time>2020-09-06T08:31:00.000Z</time>
      </trkpt>
      <trkpt lat="47.34955" lon="-2.49201">
        <ele>-2</ele>
        <time>2020-09-06T08:31:01.000Z</time>
      </trkpt>
      <trkpt lat="47.34955" lon="-2.49204">
        <ele>-1.6000000238419</ele>
        <time>2020-09-06T08:31:02.000Z</time>
      </trkpt>
      <trkpt lat="47.34956" lon="-2.49207">
        <ele>-1.2000000476837</ele>
        <time>2020-09-06T08:31:03.000Z</time>
      </trkpt>
      <trkpt lat="47.34956" lon="-2.49209">
        <ele>-0.80000001192093</ele>
        <time>2020-09-06T08:31:04.000Z</time>
      </trkpt>
      <trkpt lat="47.34957" lon="-2.4921">
        <ele>-0.20000000298023</ele>
        <time>2020-09-06T08:31:05.000Z</time>
      </trkpt>
      <trkpt lat="47.34958" lon="-2.49211">
        <ele>0.20000000298023</ele>
        <time>2020-09-06T08:31:06.000Z</time>
      </trkpt>
      <trkpt lat="47.3496" lon="-2.49212">
        <ele>0.80000001192093</ele>
        <time>2020-09-06T08:31:07.000Z</time>
      </trkpt>
      <trkpt lat="47.34961" lon="-2.49212">
        <ele>1.2000000476837</ele>
        <time>2020-09-06T08:31:08.000Z</time>
      </trkpt>
      <trkpt lat="47.34962" lon="-2.49213">
        <ele>2.2000000476837</ele>
        <time>2020-09-06T08:31:09.000Z</time>
      </trkpt>
      <trkpt lat="47.34963" lon="-2.49213">
        <ele>2.5999999046326</ele>
        <time>2020-09-06T08:31:10.000Z</time>
      </trkpt>
      <trkpt lat="47.34965" lon="-2.49213">
        <ele>3</ele>
        <time>2020-09-06T08:31:11.000Z</time>
      </trkpt>
      <trkpt lat="47.34966" lon="-2.49212">
        <ele>3.4000000953674</ele>
        <time>2020-09-06T08:31:12.000Z</time>
      </trkpt>
      <trkpt lat="47.34967" lon="-2.4921">
        <ele>3.7999999523163</ele>
        <time>2020-09-06T08:31:13.000Z</time>
      </trkpt>
      <trkpt lat="47.34976" lon="-2.49205">
        <ele>3.7999999523163</ele>
        <time>2020-09-06T08:31:18.000Z</time>
      </trkpt>
      <trkpt lat="47.34981" lon="-2.492">
        <ele>3.7999999523163</ele>
        <time>2020-09-06T08:31:23.000Z</time>
      </trkpt>
      <trkpt lat="47.3499" lon="-2.49196">
        <ele>3.7999999523163</ele>
        <time>2020-09-06T08:31:27.000Z</time>
      </trkpt>
      <trkpt lat="47.34992" lon="-2.49195">
        <ele>3.7999999523163</ele>
        <time>2020-09-06T08:31:28.000Z</time>
      </trkpt>
      <trkpt lat="47.35008" lon="-2.4919">
        <ele>3.7999999523163</ele>
        <time>2020-09-06T08:31:34.000Z</time>
      </trkpt>
      <trkpt lat="47.35021" lon="-2.49183">
        <ele>3.7999999523163</ele>
        <time>2020-09-06T08:31:41.000Z</time>
      </trkpt>
      <trkpt lat="47.35031" lon="-2.49179">
        <ele>3.7999999523163</ele>
        <time>2020-09-06T08:31:45.000Z</time>
      </trkpt>
      <trkpt lat="47.35036" lon="-2.49182">
        <ele>3.7999999523163</ele>
        <time>2020-09-06T08:31:47.000Z</time>
      </trkpt>
      <trkpt lat="47.35039" lon="-2.49186">
        <ele>4.1999998092651</ele>
        <time>2020-09-06T08:31:48.000Z</time>
      </trkpt>
      <trkpt lat="47.35041" lon="-2.49191">
        <ele>4.5999999046326</ele>
        <time>2020-09-06T08:31:49.000Z</time>
      </trkpt>
      <trkpt lat="47.35043" lon="-2.49195">
        <ele>5.1999998092651</ele>
        <time>2020-09-06T08:31:50.000Z</time>
      </trkpt>
      <trkpt lat="47.35044" lon="-2.49201">
        <ele>5.5999999046326</ele>
        <time>2020-09-06T08:31:51.000Z</time>
      </trkpt>
      <trkpt lat="47.35045" lon="-2.49205">
        <ele>6</ele>
        <time>2020-09-06T08:31:52.000Z</time>
      </trkpt>
      <trkpt lat="47.35051" lon="-2.49236">
        <ele>6</ele>
        <time>2020-09-06T08:31:58.000Z</time>
      </trkpt>
      <trkpt lat="47.35052" lon="-2.4924">
        <ele>6.4000000953674</ele>
        <time>2020-09-06T08:31:59.000Z</time>
      </trkpt>
      <trkpt lat="47.35053" lon="-2.49244">
        <ele>6.8000001907349</ele>
        <time>2020-09-06T08:32:00.000Z</time>
      </trkpt>
      <trkpt lat="47.35055" lon="-2.49248">
        <ele>7.4000000953674</ele>
        <time>2020-09-06T08:32:01.000Z</time>
      </trkpt>
      <trkpt lat="47.35057" lon="-2.49252">
        <ele>7.8000001907349</ele>
        <time>2020-09-06T08:32:02.000Z</time>
      </trkpt>
      <trkpt lat="47.35059" lon="-2.49255">
        <ele>8.1999998092651</ele>
        <time>2020-09-06T08:32:03.000Z</time>
      </trkpt>
      <trkpt lat="47.35061" lon="-2.49259">
        <ele>8.1999998092651</ele>
        <time>2020-09-06T08:32:04.000Z</time>
      </trkpt>
      <trkpt lat="47.35067" lon="-2.49281">
        <ele>8.1999998092651</ele>
        <time>2020-09-06T08:32:10.000Z</time>
      </trkpt>
      <trkpt lat="47.35067" lon="-2.49284">
        <ele>8.1999998092651</ele>
        <time>2020-09-06T08:32:11.000Z</time>
      </trkpt>
      <trkpt lat="47.35065" lon="-2.49287">
        <ele>8.1999998092651</ele>
        <time>2020-09-06T08:32:13.000Z</time>
      </trkpt>
      <trkpt lat="47.35057" lon="-2.49294">
        <ele>8.1999998092651</ele>
        <time>2020-09-06T08:32:18.000Z</time>
      </trkpt>
      <trkpt lat="47.35056" lon="-2.49298">
        <ele>8.1999998092651</ele>
        <time>2020-09-06T08:32:22.000Z</time>
      </trkpt>
      <trkpt lat="47.35059" lon="-2.49296">
        <ele>8.1999998092651</ele>
        <time>2020-09-06T08:32:34.000Z</time>
      </trkpt>
      <trkpt lat="47.35062" lon="-2.49291">
        <ele>8.1999998092651</ele>
        <time>2020-09-06T08:32:36.000Z</time>
      </trkpt>
      <trkpt lat="47.35072" lon="-2.49281">
        <ele>8.1999998092651</ele>
        <time>2020-09-06T08:32:39.000Z</time>
      </trkpt>
      <trkpt lat="47.35079" lon="-2.49273">
        <ele>8.1999998092651</ele>
        <time>2020-09-06T08:32:41.000Z</time>
      </trkpt>
      <trkpt lat="47.35107" lon="-2.49253">
        <ele>8.1999998092651</ele>
        <time>2020-09-06T08:32:47.000Z</time>
      </trkpt>
      <trkpt lat="47.35134" lon="-2.49244">
        <ele>8.1999998092651</ele>
        <time>2020-09-06T08:32:53.000Z</time>
      </trkpt>
      <trkpt lat="47.35137" lon="-2.49245">
        <ele>8.1999998092651</ele>
        <time>2020-09-06T08:32:54.000Z</time>
      </trkpt>
      <trkpt lat="47.35141" lon="-2.49254">
        <ele>8.1999998092651</ele>
        <time>2020-09-06T08:32:56.000Z</time>
      </trkpt>
      <trkpt lat="47.35144" lon="-2.49266">
        <ele>8.1999998092651</ele>
        <time>2020-09-06T08:32:58.000Z</time>
      </trkpt>
      <trkpt lat="47.3515" lon="-2.49287">
        <ele>8.1999998092651</ele>
        <time>2020-09-06T08:33:01.000Z</time>
      </trkpt>
      <trkpt lat="47.35168" lon="-2.49344">
        <ele>8.1999998092651</ele>
        <time>2020-09-06T08:33:08.000Z</time>
      </trkpt>
      <trkpt lat="47.3519" lon="-2.49389">
        <ele>8.1999998092651</ele>
        <time>2020-09-06T08:33:14.000Z</time>
      </trkpt>
      <trkpt lat="47.35204" lon="-2.49416">
        <ele>8.1999998092651</ele>
        <time>2020-09-06T08:33:19.000Z</time>
      </trkpt>
      <trkpt lat="47.35205" lon="-2.49424">
        <ele>8.1999998092651</ele>
        <time>2020-09-06T08:33:21.000Z</time>
      </trkpt>
      <trkpt lat="47.35203" lon="-2.49429">
        <ele>8.1999998092651</ele>
        <time>2020-09-06T08:33:22.000Z</time>
      </trkpt>
      <trkpt lat="47.35191" lon="-2.49443">
        <ele>8.1999998092651</ele>
        <time>2020-09-06T08:33:25.000Z</time>
      </trkpt>
      <trkpt lat="47.35184" lon="-2.49455">
        <ele>8.1999998092651</ele>
        <time>2020-09-06T08:33:27.000Z</time>
      </trkpt>
      <trkpt lat="47.35172" lon="-2.49479">
        <ele>8.1999998092651</ele>
        <time>2020-09-06T08:33:30.000Z</time>
      </trkpt>
      <trkpt lat="47.35151" lon="-2.49519">
        <ele>8.1999998092651</ele>
        <time>2020-09-06T08:33:35.000Z</time>
      </trkpt>
      <trkpt lat="47.35149" lon="-2.49529">
        <ele>8.1999998092651</ele>
        <time>2020-09-06T08:33:36.000Z</time>
      </trkpt>
      <trkpt lat="47.35153" lon="-2.49553">
        <ele>7.8000001907349</ele>
        <time>2020-09-06T08:33:39.000Z</time>
      </trkpt>
      <trkpt lat="47.35156" lon="-2.4956">
        <ele>7.4000000953674</ele>
        <time>2020-09-06T08:33:40.000Z</time>
      </trkpt>
      <trkpt lat="47.35158" lon="-2.49567">
        <ele>6.8000001907349</ele>
        <time>2020-09-06T08:33:41.000Z</time>
      </trkpt>
      <trkpt lat="47.35161" lon="-2.49574">
        <ele>6.4000000953674</ele>
        <time>2020-09-06T08:33:42.000Z</time>
      </trkpt>
      <trkpt lat="47.35164" lon="-2.49581">
        <ele>6</ele>
        <time>2020-09-06T08:33:43.000Z</time>
      </trkpt>
      <trkpt lat="47.35173" lon="-2.49602">
        <ele>6</ele>
        <time>2020-09-06T08:33:46.000Z</time>
      </trkpt>
      <trkpt lat="47.35197" lon="-2.49659">
        <ele>6</ele>
        <time>2020-09-06T08:33:54.000Z</time>
      </trkpt>
      <trkpt lat="47.35198" lon="-2.49662">
        <ele>5.5999999046326</ele>
        <time>2020-09-06T08:33:55.000Z</time>
      </trkpt>
      <trkpt lat="47.35199" lon="-2.49664">
        <ele>5.1999998092651</ele>
        <time>2020-09-06T08:33:56.000Z</time>
      </trkpt>
      <trkpt lat="47.35199" lon="-2.49664">
        <ele>4.5999999046326</ele>
        <time>2020-09-06T08:33:57.000Z</time>
      </trkpt>
      <trkpt lat="47.35199" lon="-2.49664">
        <ele>4.1999998092651</ele>
        <time>2020-09-06T08:33:58.000Z</time>
      </trkpt>
      <trkpt lat="47.35201" lon="-2.49666">
        <ele>1.7999999523163</ele>
        <time>2020-09-06T08:34:10.000Z</time>
      </trkpt>
      <trkpt lat="47.35204" lon="-2.49667">
        <ele>1.7999999523163</ele>
        <time>2020-09-06T08:34:11.000Z</time>
      </trkpt>
      <trkpt lat="47.35214" lon="-2.49657">
        <ele>1.7999999523163</ele>
        <time>2020-09-06T08:34:14.000Z</time>
      </trkpt>
      <trkpt lat="47.35242" lon="-2.49628">
        <ele>1.7999999523163</ele>
        <time>2020-09-06T08:34:21.000Z</time>
      </trkpt>
      <trkpt lat="47.35264" lon="-2.49603">
        <ele>1.7999999523163</ele>
        <time>2020-09-06T08:34:27.000Z</time>
      </trkpt>
      <trkpt lat="47.35273" lon="-2.49597">
        <ele>1.7999999523163</ele>
        <time>2020-09-06T08:34:29.000Z</time>
      </trkpt>
      <trkpt lat="47.35278" lon="-2.49595">
        <ele>1.7999999523163</ele>
        <time>2020-09-06T08:34:30.000Z</time>
      </trkpt>
      <trkpt lat="47.35286" lon="-2.49591">
        <ele>1.7999999523163</ele>
        <time>2020-09-06T08:34:32.000Z</time>
      </trkpt>
      <trkpt lat="47.35295" lon="-2.49592">
        <ele>1.7999999523163</ele>
        <time>2020-09-06T08:34:34.000Z</time>
      </trkpt>
      <trkpt lat="47.35304" lon="-2.49596">
        <ele>1.7999999523163</ele>
        <time>2020-09-06T08:34:36.000Z</time>
      </trkpt>
      <trkpt lat="47.35309" lon="-2.49599">
        <ele>1.7999999523163</ele>
        <time>2020-09-06T08:34:37.000Z</time>
      </trkpt>
      <trkpt lat="47.35318" lon="-2.49606">
        <ele>1.7999999523163</ele>
        <time>2020-09-06T08:34:39.000Z</time>
      </trkpt>
      <trkpt lat="47.3534" lon="-2.49617">
        <ele>1.7999999523163</ele>
        <time>2020-09-06T08:34:43.000Z</time>
      </trkpt>
      <trkpt lat="47.35346" lon="-2.49615">
        <ele>1.7999999523163</ele>
        <time>2020-09-06T08:34:44.000Z</time>
      </trkpt>
      <trkpt lat="47.35358" lon="-2.496">
        <ele>1.7999999523163</ele>
        <time>2020-09-06T08:34:47.000Z</time>
      </trkpt>
      <trkpt lat="47.35362" lon="-2.49595">
        <ele>1.7999999523163</ele>
        <time>2020-09-06T08:34:48.000Z</time>
      </trkpt>
      <trkpt lat="47.35366" lon="-2.4959">
        <ele>1.7999999523163</ele>
        <time>2020-09-06T08:34:49.000Z</time>
      </trkpt>
      <trkpt lat="47.35374" lon="-2.49581">
        <ele>1.7999999523163</ele>
        <time>2020-09-06T08:34:51.000Z</time>
      </trkpt>
      <trkpt lat="47.35379" lon="-2.49577">
        <ele>1.7999999523163</ele>
        <time>2020-09-06T08:34:52.000Z</time>
      </trkpt>
      <trkpt lat="47.35402" lon="-2.49563">
        <ele>1.7999999523163</ele>
        <time>2020-09-06T08:34:57.000Z</time>
      </trkpt>
      <trkpt lat="47.35407" lon="-2.49563">
        <ele>1.7999999523163</ele>
        <time>2020-09-06T08:34:58.000Z</time>
      </trkpt>
      <trkpt lat="47.35422" lon="-2.49565">
        <ele>1.7999999523163</ele>
        <time>2020-09-06T08:35:01.000Z</time>
      </trkpt>
      <trkpt lat="47.35432" lon="-2.49569">
        <ele>1.7999999523163</ele>
        <time>2020-09-06T08:35:03.000Z</time>
      </trkpt>
      <trkpt lat="47.35445" lon="-2.49558">
        <ele>1.7999999523163</ele>
        <time>2020-09-06T08:35:06.000Z</time>
      </trkpt>
      <trkpt lat="47.35451" lon="-2.49547">
        <ele>1.7999999523163</ele>
        <time>2020-09-06T08:35:08.000Z</time>
      </trkpt>
      <trkpt lat="47.35458" lon="-2.49535">
        <ele>1.7999999523163</ele>
        <time>2020-09-06T08:35:10.000Z</time>
      </trkpt>
      <trkpt lat="47.35466" lon="-2.49524">
        <ele>1.7999999523163</ele>
        <time>2020-09-06T08:35:12.000Z</time>
      </trkpt>
      <trkpt lat="47.35484" lon="-2.49505">
        <ele>1.7999999523163</ele>
        <time>2020-09-06T08:35:16.000Z</time>
      </trkpt>
      <trkpt lat="47.35503" lon="-2.49489">
        <ele>2.2000000476837</ele>
        <time>2020-09-06T08:35:20.000Z</time>
      </trkpt>
      <trkpt lat="47.35508" lon="-2.49484">
        <ele>2.5999999046326</ele>
        <time>2020-09-06T08:35:21.000Z</time>
      </trkpt>
      <trkpt lat="47.35513" lon="-2.49479">
        <ele>3</ele>
        <time>2020-09-06T08:35:22.000Z</time>
      </trkpt>
      <trkpt lat="47.35518" lon="-2.49475">
        <ele>3.5999999046326</ele>
        <time>2020-09-06T08:35:23.000Z</time>
      </trkpt>
      <trkpt lat="47.35522" lon="-2.49471">
        <ele>4</ele>
        <time>2020-09-06T08:35:24.000Z</time>
      </trkpt>
      <trkpt lat="47.35543" lon="-2.49448">
        <ele>4</ele>
        <time>2020-09-06T08:35:29.000Z</time>
      </trkpt>
      <trkpt lat="47.35547" lon="-2.49443">
        <ele>4</ele>
        <time>2020-09-06T08:35:30.000Z</time>
      </trkpt>
      <trkpt lat="47.35549" lon="-2.49438">
        <ele>4</ele>
        <time>2020-09-06T08:35:31.000Z</time>
      </trkpt>
      <trkpt lat="47.35557" lon="-2.49422">
        <ele>4.4000000953674</ele>
        <time>2020-09-06T08:35:34.000Z</time>
      </trkpt>
      <trkpt lat="47.35559" lon="-2.49417">
        <ele>4.8000001907349</ele>
        <time>2020-09-06T08:35:35.000Z</time>
      </trkpt>
      <trkpt lat="47.35561" lon="-2.49411">
        <ele>5.1999998092651</ele>
        <time>2020-09-06T08:35:36.000Z</time>
      </trkpt>
      <trkpt lat="47.35563" lon="-2.49406">
        <ele>5.5999999046326</ele>
        <time>2020-09-06T08:35:37.000Z</time>
      </trkpt>
      <trkpt lat="47.35566" lon="-2.49402">
        <ele>6</ele>
        <time>2020-09-06T08:35:38.000Z</time>
      </trkpt>
      <trkpt lat="47.3557" lon="-2.49394">
        <ele>6</ele>
        <time>2020-09-06T08:35:40.000Z</time>
      </trkpt>
      <trkpt lat="47.35578" lon="-2.49376">
        <ele>6</ele>
        <time>2020-09-06T08:35:45.000Z</time>
      </trkpt>
      <trkpt lat="47.35578" lon="-2.49375">
        <ele>6</ele>
        <time>2020-09-06T08:35:47.000Z</time>
      </trkpt>
      <trkpt lat="47.35579" lon="-2.49373">
        <ele>6</ele>
        <time>2020-09-06T08:35:50.000Z</time>
      </trkpt>
      <trkpt lat="47.3558" lon="-2.4937">
        <ele>6</ele>
        <time>2020-09-06T08:35:51.000Z</time>
      </trkpt>
      <trkpt lat="47.35586" lon="-2.49352">
        <ele>6</ele>
        <time>2020-09-06T08:35:55.000Z</time>
      </trkpt>
      <trkpt lat="47.35594" lon="-2.49331">
        <ele>6.4000000953674</ele>
        <time>2020-09-06T08:35:59.000Z</time>
      </trkpt>
      <trkpt lat="47.35597" lon="-2.49325">
        <ele>6.8000001907349</ele>
        <time>2020-09-06T08:36:00.000Z</time>
      </trkpt>
      <trkpt lat="47.35599" lon="-2.4932">
        <ele>7.1999998092651</ele>
        <time>2020-09-06T08:36:01.000Z</time>
      </trkpt>
      <trkpt lat="47.35601" lon="-2.49313">
        <ele>7.5999999046326</ele>
        <time>2020-09-06T08:36:02.000Z</time>
      </trkpt>
      <trkpt lat="47.35604" lon="-2.49308">
        <ele>8.1999998092651</ele>
        <time>2020-09-06T08:36:03.000Z</time>
      </trkpt>
      <trkpt lat="47.35613" lon="-2.49293">
        <ele>8.1999998092651</ele>
        <time>2020-09-06T08:36:06.000Z</time>
      </trkpt>
      <trkpt lat="47.35617" lon="-2.49289">
        <ele>8.1999998092651</ele>
        <time>2020-09-06T08:36:07.000Z</time>
      </trkpt>
      <trkpt lat="47.35643" lon="-2.49271">
        <ele>8.1999998092651</ele>
        <time>2020-09-06T08:36:13.000Z</time>
      </trkpt>
      <trkpt lat="47.35651" lon="-2.49263">
        <ele>8.1999998092651</ele>
        <time>2020-09-06T08:36:15.000Z</time>
      </trkpt>
      <trkpt lat="47.35669" lon="-2.49247">
        <ele>8.1999998092651</ele>
        <time>2020-09-06T08:36:19.000Z</time>
      </trkpt>
      <trkpt lat="47.35683" lon="-2.49235">
        <ele>8.1999998092651</ele>
        <time>2020-09-06T08:36:22.000Z</time>
      </trkpt>
      <trkpt lat="47.35689" lon="-2.49231">
        <ele>8.6000003814697</ele>
        <time>2020-09-06T08:36:23.000Z</time>
      </trkpt>
      <trkpt lat="47.35694" lon="-2.49227">
        <ele>9</ele>
        <time>2020-09-06T08:36:24.000Z</time>
      </trkpt>
      <trkpt lat="47.35699" lon="-2.49223">
        <ele>9.3999996185303</ele>
        <time>2020-09-06T08:36:25.000Z</time>
      </trkpt>
      <trkpt lat="47.35703" lon="-2.49219">
        <ele>9.8000001907349</ele>
        <time>2020-09-06T08:36:26.000Z</time>
      </trkpt>
      <trkpt lat="47.35708" lon="-2.49214">
        <ele>10.199999809265</ele>
        <time>2020-09-06T08:36:27.000Z</time>
      </trkpt>
      <trkpt lat="47.35725" lon="-2.49195">
        <ele>10.199999809265</ele>
        <time>2020-09-06T08:36:31.000Z</time>
      </trkpt>
      <trkpt lat="47.35747" lon="-2.49167">
        <ele>10.199999809265</ele>
        <time>2020-09-06T08:36:37.000Z</time>
      </trkpt>
      <trkpt lat="47.3577" lon="-2.49143">
        <ele>10.199999809265</ele>
        <time>2020-09-06T08:36:43.000Z</time>
      </trkpt>
      <trkpt lat="47.35779" lon="-2.49135">
        <ele>10.60000038147</ele>
        <time>2020-09-06T08:36:45.000Z</time>
      </trkpt>
      <trkpt lat="47.35783" lon="-2.49132">
        <ele>11</ele>
        <time>2020-09-06T08:36:46.000Z</time>
      </trkpt>
      <trkpt lat="47.35788" lon="-2.49127">
        <ele>11.60000038147</ele>
        <time>2020-09-06T08:36:47.000Z</time>
      </trkpt>
      <trkpt lat="47.35791" lon="-2.49123">
        <ele>12</ele>
        <time>2020-09-06T08:36:48.000Z</time>
      </trkpt>
      <trkpt lat="47.35796" lon="-2.49119">
        <ele>12.39999961853</ele>
        <time>2020-09-06T08:36:49.000Z</time>
      </trkpt>
      <trkpt lat="47.358" lon="-2.49116">
        <ele>12.39999961853</ele>
        <time>2020-09-06T08:36:50.000Z</time>
      </trkpt>
      <trkpt lat="47.35815" lon="-2.49111">
        <ele>12.39999961853</ele>
        <time>2020-09-06T08:36:53.000Z</time>
      </trkpt>
      <trkpt lat="47.3582" lon="-2.49109">
        <ele>12.39999961853</ele>
        <time>2020-09-06T08:36:54.000Z</time>
      </trkpt>
      <trkpt lat="47.35835" lon="-2.4911">
        <ele>12.39999961853</ele>
        <time>2020-09-06T08:36:57.000Z</time>
      </trkpt>
      <trkpt lat="47.3585" lon="-2.4911">
        <ele>12.39999961853</ele>
        <time>2020-09-06T08:37:00.000Z</time>
      </trkpt>
      <trkpt lat="47.35866" lon="-2.49112">
        <ele>12.39999961853</ele>
        <time>2020-09-06T08:37:03.000Z</time>
      </trkpt>
      <trkpt lat="47.35871" lon="-2.49113">
        <ele>12.800000190735</ele>
        <time>2020-09-06T08:37:04.000Z</time>
      </trkpt>
      <trkpt lat="47.35876" lon="-2.49114">
        <ele>13.199999809265</ele>
        <time>2020-09-06T08:37:05.000Z</time>
      </trkpt>
      <trkpt lat="47.35881" lon="-2.49115">
        <ele>13.800000190735</ele>
        <time>2020-09-06T08:37:06.000Z</time>
      </trkpt>
      <trkpt lat="47.35886" lon="-2.49116">
        <ele>14.199999809265</ele>
        <time>2020-09-06T08:37:07.000Z</time>
      </trkpt>
      <trkpt lat="47.35891" lon="-2.49116">
        <ele>14.60000038147</ele>
        <time>2020-09-06T08:37:08.000Z</time>
      </trkpt>
      <trkpt lat="47.35896" lon="-2.49115">
        <ele>14.60000038147</ele>
        <time>2020-09-06T08:37:09.000Z</time>
      </trkpt>
      <trkpt lat="47.35912" lon="-2.49114">
        <ele>14.60000038147</ele>
        <time>2020-09-06T08:37:12.000Z</time>
      </trkpt>
      <trkpt lat="47.35928" lon="-2.49114">
        <ele>14.60000038147</ele>
        <time>2020-09-06T08:37:15.000Z</time>
      </trkpt>
      <trkpt lat="47.35933" lon="-2.49116">
        <ele>14.60000038147</ele>
        <time>2020-09-06T08:37:16.000Z</time>
      </trkpt>
      <trkpt lat="47.35944" lon="-2.49119">
        <ele>14.60000038147</ele>
        <time>2020-09-06T08:37:18.000Z</time>
      </trkpt>
      <trkpt lat="47.35954" lon="-2.49123">
        <ele>14.60000038147</ele>
        <time>2020-09-06T08:37:20.000Z</time>
      </trkpt>
      <trkpt lat="47.35959" lon="-2.49127">
        <ele>14.60000038147</ele>
        <time>2020-09-06T08:37:21.000Z</time>
      </trkpt>
      <trkpt lat="47.35973" lon="-2.49139">
        <ele>14.60000038147</ele>
        <time>2020-09-06T08:37:24.000Z</time>
      </trkpt>
      <trkpt lat="47.35993" lon="-2.49155">
        <ele>14.60000038147</ele>
        <time>2020-09-06T08:37:28.000Z</time>
      </trkpt>
      <trkpt lat="47.35999" lon="-2.49157">
        <ele>14.60000038147</ele>
        <time>2020-09-06T08:37:29.000Z</time>
      </trkpt>
      <trkpt lat="47.36017" lon="-2.49158">
        <ele>14.60000038147</ele>
        <time>2020-09-06T08:37:32.000Z</time>
      </trkpt>
      <trkpt lat="47.36022" lon="-2.49157">
        <ele>14.60000038147</ele>
        <time>2020-09-06T08:37:33.000Z</time>
      </trkpt>
      <trkpt lat="47.36029" lon="-2.49158">
        <ele>14.60000038147</ele>
        <time>2020-09-06T08:37:34.000Z</time>
      </trkpt>
      <trkpt lat="47.3607" lon="-2.49164">
        <ele>14.60000038147</ele>
        <time>2020-09-06T08:37:40.000Z</time>
      </trkpt>
      <trkpt lat="47.36099" lon="-2.49168">
        <ele>14.199999809265</ele>
        <time>2020-09-06T08:37:44.000Z</time>
      </trkpt>
      <trkpt lat="47.36106" lon="-2.49167">
        <ele>13.800000190735</ele>
        <time>2020-09-06T08:37:45.000Z</time>
      </trkpt>
      <trkpt lat="47.36114" lon="-2.49167">
        <ele>13.39999961853</ele>
        <time>2020-09-06T08:37:46.000Z</time>
      </trkpt>
      <trkpt lat="47.36121" lon="-2.49167">
        <ele>13</ele>
        <time>2020-09-06T08:37:47.000Z</time>
      </trkpt>
      <trkpt lat="47.36129" lon="-2.49167">
        <ele>12.60000038147</ele>
        <time>2020-09-06T08:37:48.000Z</time>
      </trkpt>
      <trkpt lat="47.36163" lon="-2.49159">
        <ele>12.60000038147</ele>
        <time>2020-09-06T08:37:53.000Z</time>
      </trkpt>
      <trkpt lat="47.36192" lon="-2.49147">
        <ele>12.199999809265</ele>
        <time>2020-09-06T08:37:57.000Z</time>
      </trkpt>
      <trkpt lat="47.36199" lon="-2.49143">
        <ele>11.800000190735</ele>
        <time>2020-09-06T08:37:58.000Z</time>
      </trkpt>
      <trkpt lat="47.36206" lon="-2.4914">
        <ele>11.39999961853</ele>
        <time>2020-09-06T08:37:59.000Z</time>
      </trkpt>
      <trkpt lat="47.36213" lon="-2.49137">
        <ele>11</ele>
        <time>2020-09-06T08:38:00.000Z</time>
      </trkpt>
      <trkpt lat="47.3622" lon="-2.49134">
        <ele>10.60000038147</ele>
        <time>2020-09-06T08:38:01.000Z</time>
      </trkpt>
      <trkpt lat="47.36247" lon="-2.49121">
        <ele>10</ele>
        <time>2020-09-06T08:38:05.000Z</time>
      </trkpt>
      <trkpt lat="47.36253" lon="-2.49118">
        <ele>9.6000003814697</ele>
        <time>2020-09-06T08:38:06.000Z</time>
      </trkpt>
      <trkpt lat="47.36259" lon="-2.49115">
        <ele>9.1999998092651</ele>
        <time>2020-09-06T08:38:07.000Z</time>
      </trkpt>
      <trkpt lat="47.36266" lon="-2.49112">
        <ele>8.3999996185303</ele>
        <time>2020-09-06T08:38:08.000Z</time>
      </trkpt>
      <trkpt lat="47.3629" lon="-2.49102">
        <ele>8.3999996185303</ele>
        <time>2020-09-06T08:38:12.000Z</time>
      </trkpt>
      <trkpt lat="47.36324" lon="-2.4909">
        <ele>8.3999996185303</ele>
        <time>2020-09-06T08:38:18.000Z</time>
      </trkpt>
      <trkpt lat="47.36331" lon="-2.49093">
        <ele>7.8000001907349</ele>
        <time>2020-09-06T08:38:21.000Z</time>
      </trkpt>
      <trkpt lat="47.36332" lon="-2.49095">
        <ele>7.4000000953674</ele>
        <time>2020-09-06T08:38:22.000Z</time>
      </trkpt>
      <trkpt lat="47.36332" lon="-2.49098">
        <ele>7</ele>
        <time>2020-09-06T08:38:23.000Z</time>
      </trkpt>
      <trkpt lat="47.36332" lon="-2.49102">
        <ele>6.5999999046326</ele>
        <time>2020-09-06T08:38:24.000Z</time>
      </trkpt>
      <trkpt lat="47.36332" lon="-2.49107">
        <ele>6.1999998092651</ele>
        <time>2020-09-06T08:38:25.000Z</time>
      </trkpt>
      <trkpt lat="47.36334" lon="-2.49132">
        <ele>6.1999998092651</ele>
        <time>2020-09-06T08:38:29.000Z</time>
      </trkpt>
      <trkpt lat="47.3634" lon="-2.49194">
        <ele>6.1999998092651</ele>
        <time>2020-09-06T08:38:38.000Z</time>
      </trkpt>
      <trkpt lat="47.36345" lon="-2.49246">
        <ele>6.1999998092651</ele>
        <time>2020-09-06T08:38:45.000Z</time>
      </trkpt>
      <trkpt lat="47.36351" lon="-2.49311">
        <ele>6.5999999046326</ele>
        <time>2020-09-06T08:38:53.000Z</time>
      </trkpt>
      <trkpt lat="47.36352" lon="-2.4932">
        <ele>7</ele>
        <time>2020-09-06T08:38:54.000Z</time>
      </trkpt>
      <trkpt lat="47.36353" lon="-2.49329">
        <ele>7.4000000953674</ele>
        <time>2020-09-06T08:38:55.000Z</time>
      </trkpt>
      <trkpt lat="47.36353" lon="-2.49338">
        <ele>7.8000001907349</ele>
        <time>2020-09-06T08:38:56.000Z</time>
      </trkpt>
      <trkpt lat="47.36354" lon="-2.49347">
        <ele>8.1999998092651</ele>
        <time>2020-09-06T08:38:57.000Z</time>
      </trkpt>
      <trkpt lat="47.36357" lon="-2.49389">
        <ele>8.1999998092651</ele>
        <time>2020-09-06T08:39:02.000Z</time>
      </trkpt>
      <trkpt lat="47.36359" lon="-2.49413">
        <ele>8.1999998092651</ele>
        <time>2020-09-06T08:39:05.000Z</time>
      </trkpt>
      <trkpt lat="47.36361" lon="-2.49438">
        <ele>8.1999998092651</ele>
        <time>2020-09-06T08:39:08.000Z</time>
      </trkpt>
      <trkpt lat="47.36368" lon="-2.49503">
        <ele>8.1999998092651</ele>
        <time>2020-09-06T08:39:15.000Z</time>
      </trkpt>
      <trkpt lat="47.36372" lon="-2.49554">
        <ele>7.8000001907349</ele>
        <time>2020-09-06T08:39:20.000Z</time>
      </trkpt>
      <trkpt lat="47.36373" lon="-2.49564">
        <ele>7.4000000953674</ele>
        <time>2020-09-06T08:39:21.000Z</time>
      </trkpt>
      <trkpt lat="47.36374" lon="-2.49575">
        <ele>6.5999999046326</ele>
        <time>2020-09-06T08:39:22.000Z</time>
      </trkpt>
      <trkpt lat="47.36375" lon="-2.49585">
        <ele>6.1999998092651</ele>
        <time>2020-09-06T08:39:23.000Z</time>
      </trkpt>
      <trkpt lat="47.36383" lon="-2.49625">
        <ele>6.1999998092651</ele>
        <time>2020-09-06T08:39:28.000Z</time>
      </trkpt>
      <trkpt lat="47.36386" lon="-2.49628">
        <ele>5.8000001907349</ele>
        <time>2020-09-06T08:39:29.000Z</time>
      </trkpt>
      <trkpt lat="47.3639" lon="-2.49629">
        <ele>5.4000000953674</ele>
        <time>2020-09-06T08:39:30.000Z</time>
      </trkpt>
      <trkpt lat="47.36393" lon="-2.49627">
        <ele>5</ele>
        <time>2020-09-06T08:39:31.000Z</time>
      </trkpt>
      <trkpt lat="47.36398" lon="-2.49624">
        <ele>4.5999999046326</ele>
        <time>2020-09-06T08:39:32.000Z</time>
      </trkpt>
      <trkpt lat="47.36401" lon="-2.4962">
        <ele>4.1999998092651</ele>
        <time>2020-09-06T08:39:33.000Z</time>
      </trkpt>
      <trkpt lat="47.36408" lon="-2.4961">
        <ele>4.1999998092651</ele>
        <time>2020-09-06T08:39:35.000Z</time>
      </trkpt>
      <trkpt lat="47.36412" lon="-2.49602">
        <ele>4.1999998092651</ele>
        <time>2020-09-06T08:39:36.000Z</time>
      </trkpt>
      <trkpt lat="47.36424" lon="-2.49579">
        <ele>4.1999998092651</ele>
        <time>2020-09-06T08:39:39.000Z</time>
      </trkpt>
      <trkpt lat="47.36429" lon="-2.49572">
        <ele>4.1999998092651</ele>
        <time>2020-09-06T08:39:40.000Z</time>
      </trkpt>
      <trkpt lat="47.3646" lon="-2.49529">
        <ele>5</ele>
        <time>2020-09-06T08:39:47.000Z</time>
      </trkpt>
      <trkpt lat="47.36465" lon="-2.49523">
        <ele>5.4000000953674</ele>
        <time>2020-09-06T08:39:48.000Z</time>
      </trkpt>
      <trkpt lat="47.36469" lon="-2.49517">
        <ele>5.8000001907349</ele>
        <time>2020-09-06T08:39:49.000Z</time>
      </trkpt>
      <trkpt lat="47.36473" lon="-2.49511">
        <ele>6.1999998092651</ele>
        <time>2020-09-06T08:39:50.000Z</time>
      </trkpt>
      <trkpt lat="47.36478" lon="-2.49506">
        <ele>6.1999998092651</ele>
        <time>2020-09-06T08:39:51.000Z</time>
      </trkpt>
      <trkpt lat="47.36486" lon="-2.49493">
        <ele>6.1999998092651</ele>
        <time>2020-09-06T08:39:53.000Z</time>
      </trkpt>
      <trkpt lat="47.36514" lon="-2.49454">
        <ele>6.1999998092651</ele>
        <time>2020-09-06T08:40:00.000Z</time>
      </trkpt>
      <trkpt lat="47.36523" lon="-2.49443">
        <ele>6.5999999046326</ele>
        <time>2020-09-06T08:40:02.000Z</time>
      </trkpt>
      <trkpt lat="47.36527" lon="-2.49437">
        <ele>7</ele>
        <time>2020-09-06T08:40:03.000Z</time>
      </trkpt>
      <trkpt lat="47.36531" lon="-2.49432">
        <ele>7.4000000953674</ele>
        <time>2020-09-06T08:40:04.000Z</time>
      </trkpt>
      <trkpt lat="47.36534" lon="-2.49426">
        <ele>7.8000001907349</ele>
        <time>2020-09-06T08:40:05.000Z</time>
      </trkpt>
      <trkpt lat="47.36538" lon="-2.49421">
        <ele>8.1999998092651</ele>
        <time>2020-09-06T08:40:06.000Z</time>
      </trkpt>
      <trkpt lat="47.36561" lon="-2.4939">
        <ele>8.1999998092651</ele>
        <time>2020-09-06T08:40:12.000Z</time>
      </trkpt>
      <trkpt lat="47.36585" lon="-2.49355">
        <ele>8.1999998092651</ele>
        <time>2020-09-06T08:40:19.000Z</time>
      </trkpt>
      <trkpt lat="47.3661" lon="-2.49321">
        <ele>8.6000003814697</ele>
        <time>2020-09-06T08:40:26.000Z</time>
      </trkpt>
      <trkpt lat="47.36613" lon="-2.49316">
        <ele>9</ele>
        <time>2020-09-06T08:40:27.000Z</time>
      </trkpt>
      <trkpt lat="47.36616" lon="-2.49311">
        <ele>9.3999996185303</ele>
        <time>2020-09-06T08:40:28.000Z</time>
      </trkpt>
      <trkpt lat="47.36619" lon="-2.49306">
        <ele>10</ele>
        <time>2020-09-06T08:40:29.000Z</time>
      </trkpt>
      <trkpt lat="47.36622" lon="-2.49301">
        <ele>10.39999961853</ele>
        <time>2020-09-06T08:40:30.000Z</time>
      </trkpt>
      <trkpt lat="47.36629" lon="-2.49282">
        <ele>10.39999961853</ele>
        <time>2020-09-06T08:40:33.000Z</time>
      </trkpt>
      <trkpt lat="47.36642" lon="-2.49239">
        <ele>10.39999961853</ele>
        <time>2020-09-06T08:40:40.000Z</time>
      </trkpt>
      <trkpt lat="47.36648" lon="-2.49224">
        <ele>10.39999961853</ele>
        <time>2020-09-06T08:40:43.000Z</time>
      </trkpt>
      <trkpt lat="47.36653" lon="-2.4921">
        <ele>10.39999961853</ele>
        <time>2020-09-06T08:40:46.000Z</time>
      </trkpt>
      <trkpt lat="47.36664" lon="-2.49199">
        <ele>10.39999961853</ele>
        <time>2020-09-06T08:40:50.000Z</time>
      </trkpt>
      <trkpt lat="47.36667" lon="-2.492">
        <ele>10.39999961853</ele>
        <time>2020-09-06T08:40:51.000Z</time>
      </trkpt>
      <trkpt lat="47.36678" lon="-2.49215">
        <ele>10.39999961853</ele>
        <time>2020-09-06T08:40:55.000Z</time>
      </trkpt>
      <trkpt lat="47.3668" lon="-2.4922">
        <ele>10.39999961853</ele>
        <time>2020-09-06T08:40:56.000Z</time>
      </trkpt>
      <trkpt lat="47.36699" lon="-2.49256">
        <ele>10.39999961853</ele>
        <time>2020-09-06T08:41:03.000Z</time>
      </trkpt>
      <trkpt lat="47.36718" lon="-2.49301">
        <ele>10.39999961853</ele>
        <time>2020-09-06T08:41:10.000Z</time>
      </trkpt>
      <trkpt lat="47.36726" lon="-2.49328">
        <ele>10.39999961853</ele>
        <time>2020-09-06T08:41:14.000Z</time>
      </trkpt>
      <trkpt lat="47.36732" lon="-2.49341">
        <ele>10.39999961853</ele>
        <time>2020-09-06T08:41:16.000Z</time>
      </trkpt>
      <trkpt lat="47.36744" lon="-2.49385">
        <ele>10.39999961853</ele>
        <time>2020-09-06T08:41:22.000Z</time>
      </trkpt>
      <trkpt lat="47.36763" lon="-2.49448">
        <ele>10.39999961853</ele>
        <time>2020-09-06T08:41:30.000Z</time>
      </trkpt>
      <trkpt lat="47.36782" lon="-2.49514">
        <ele>10.39999961853</ele>
        <time>2020-09-06T08:41:37.000Z</time>
      </trkpt>
      <trkpt lat="47.36788" lon="-2.49573">
        <ele>10.39999961853</ele>
        <time>2020-09-06T08:41:42.000Z</time>
      </trkpt>
      <trkpt lat="47.36787" lon="-2.49585">
        <ele>10</ele>
        <time>2020-09-06T08:41:43.000Z</time>
      </trkpt>
      <trkpt lat="47.36786" lon="-2.49597">
        <ele>9.6000003814697</ele>
        <time>2020-09-06T08:41:44.000Z</time>
      </trkpt>
      <trkpt lat="47.36785" lon="-2.4961">
        <ele>9</ele>
        <time>2020-09-06T08:41:45.000Z</time>
      </trkpt>
      <trkpt lat="47.36783" lon="-2.49622">
        <ele>8.6000003814697</ele>
        <time>2020-09-06T08:41:46.000Z</time>
      </trkpt>
      <trkpt lat="47.36781" lon="-2.49633">
        <ele>8.1999998092651</ele>
        <time>2020-09-06T08:41:47.000Z</time>
      </trkpt>
      <trkpt lat="47.36769" lon="-2.49708">
        <ele>8.1999998092651</ele>
        <time>2020-09-06T08:41:54.000Z</time>
      </trkpt>
      <trkpt lat="47.36767" lon="-2.49717">
        <ele>7.8000001907349</ele>
        <time>2020-09-06T08:41:55.000Z</time>
      </trkpt>
      <trkpt lat="47.36766" lon="-2.49727">
        <ele>7.4000000953674</ele>
        <time>2020-09-06T08:41:56.000Z</time>
      </trkpt>
      <trkpt lat="47.36764" lon="-2.49736">
        <ele>7</ele>
        <time>2020-09-06T08:41:57.000Z</time>
      </trkpt>
      <trkpt lat="47.36763" lon="-2.49746">
        <ele>6.5999999046326</ele>
        <time>2020-09-06T08:41:58.000Z</time>
      </trkpt>
      <trkpt lat="47.36762" lon="-2.49755">
        <ele>6.1999998092651</ele>
        <time>2020-09-06T08:41:59.000Z</time>
      </trkpt>
      <trkpt lat="47.36756" lon="-2.49793">
        <ele>6.1999998092651</ele>
        <time>2020-09-06T08:42:03.000Z</time>
      </trkpt>
      <trkpt lat="47.36745" lon="-2.49868">
        <ele>6.1999998092651</ele>
        <time>2020-09-06T08:42:11.000Z</time>
      </trkpt>
      <trkpt lat="47.36734" lon="-2.49941">
        <ele>6.1999998092651</ele>
        <time>2020-09-06T08:42:19.000Z</time>
      </trkpt>
      <trkpt lat="47.36729" lon="-2.49985">
        <ele>6.1999998092651</ele>
        <time>2020-09-06T08:42:24.000Z</time>
      </trkpt>
      <trkpt lat="47.36728" lon="-2.50029">
        <ele>6.1999998092651</ele>
        <time>2020-09-06T08:42:28.000Z</time>
      </trkpt>
      <trkpt lat="47.36729" lon="-2.50064">
        <ele>5.8000001907349</ele>
        <time>2020-09-06T08:42:31.000Z</time>
      </trkpt>
      <trkpt lat="47.36731" lon="-2.50075">
        <ele>5.1999998092651</ele>
        <time>2020-09-06T08:42:32.000Z</time>
      </trkpt>
      <trkpt lat="47.36734" lon="-2.50087">
        <ele>4.8000001907349</ele>
        <time>2020-09-06T08:42:33.000Z</time>
      </trkpt>
      <trkpt lat="47.36736" lon="-2.50097">
        <ele>4.4000000953674</ele>
        <time>2020-09-06T08:42:34.000Z</time>
      </trkpt>
      <trkpt lat="47.36739" lon="-2.50107">
        <ele>4</ele>
        <time>2020-09-06T08:42:35.000Z</time>
      </trkpt>
      <trkpt lat="47.36752" lon="-2.50148">
        <ele>4</ele>
        <time>2020-09-06T08:42:39.000Z</time>
      </trkpt>
      <trkpt lat="47.36765" lon="-2.50191">
        <ele>3.5999999046326</ele>
        <time>2020-09-06T08:42:44.000Z</time>
      </trkpt>
      <trkpt lat="47.36767" lon="-2.50199">
        <ele>3.2000000476837</ele>
        <time>2020-09-06T08:42:45.000Z</time>
      </trkpt>
      <trkpt lat="47.3677" lon="-2.50207">
        <ele>2.7999999523163</ele>
        <time>2020-09-06T08:42:46.000Z</time>
      </trkpt>
      <trkpt lat="47.36774" lon="-2.50216">
        <ele>2.2000000476837</ele>
        <time>2020-09-06T08:42:47.000Z</time>
      </trkpt>
      <trkpt lat="47.36777" lon="-2.50225">
        <ele>1.7999999523163</ele>
        <time>2020-09-06T08:42:48.000Z</time>
      </trkpt>
      <trkpt lat="47.36785" lon="-2.50241">
        <ele>1.7999999523163</ele>
        <time>2020-09-06T08:42:50.000Z</time>
      </trkpt>
      <trkpt lat="47.36794" lon="-2.50261">
        <ele>1.7999999523163</ele>
        <time>2020-09-06T08:42:53.000Z</time>
      </trkpt>
      <trkpt lat="47.36799" lon="-2.50277">
        <ele>1.7999999523163</ele>
        <time>2020-09-06T08:42:55.000Z</time>
      </trkpt>
      <trkpt lat="47.36815" lon="-2.50324">
        <ele>1.7999999523163</ele>
        <time>2020-09-06T08:43:01.000Z</time>
      </trkpt>
      <trkpt lat="47.36823" lon="-2.5035">
        <ele>1</ele>
        <time>2020-09-06T08:43:04.000Z</time>
      </trkpt>
      <trkpt lat="47.36826" lon="-2.50358">
        <ele>0.60000002384186</ele>
        <time>2020-09-06T08:43:05.000Z</time>
      </trkpt>
      <trkpt lat="47.36829" lon="-2.50367">
        <ele>0.20000000298023</ele>
        <time>2020-09-06T08:43:06.000Z</time>
      </trkpt>
      <trkpt lat="47.36832" lon="-2.50376">
        <ele>-0.40000000596046</ele>
        <time>2020-09-06T08:43:07.000Z</time>
      </trkpt>
      <trkpt lat="47.36838" lon="-2.50397">
        <ele>-0.40000000596046</ele>
        <time>2020-09-06T08:43:09.000Z</time>
      </trkpt>
      <trkpt lat="47.36845" lon="-2.50455">
        <ele>-0.40000000596046</ele>
        <time>2020-09-06T08:43:14.000Z</time>
      </trkpt>
      <trkpt lat="47.36846" lon="-2.5053">
        <ele>-0.40000000596046</ele>
        <time>2020-09-06T08:43:21.000Z</time>
      </trkpt>
      <trkpt lat="47.36849" lon="-2.50537">
        <ele>-0.40000000596046</ele>
        <time>2020-09-06T08:43:22.000Z</time>
      </trkpt>
      <trkpt lat="47.36857" lon="-2.50537">
        <ele>-0.40000000596046</ele>
        <time>2020-09-06T08:43:24.000Z</time>
      </trkpt>
      <trkpt lat="47.36862" lon="-2.50533">
        <ele>-0.80000001192093</ele>
        <time>2020-09-06T08:43:25.000Z</time>
      </trkpt>
      <trkpt lat="47.36866" lon="-2.50529">
        <ele>-1.2000000476837</ele>
        <time>2020-09-06T08:43:26.000Z</time>
      </trkpt>
      <trkpt lat="47.36871" lon="-2.50525">
        <ele>-1.6000000238419</ele>
        <time>2020-09-06T08:43:27.000Z</time>
      </trkpt>
      <trkpt lat="47.36875" lon="-2.50521">
        <ele>-2.4000000953674</ele>
        <time>2020-09-06T08:43:28.000Z</time>
      </trkpt>
      <trkpt lat="47.36904" lon="-2.50495">
        <ele>-2.4000000953674</ele>
        <time>2020-09-06T08:43:34.000Z</time>
      </trkpt>
      <trkpt lat="47.36909" lon="-2.50491">
        <ele>-1.7999999523163</ele>
        <time>2020-09-06T08:43:35.000Z</time>
      </trkpt>
      <trkpt lat="47.36914" lon="-2.50487">
        <ele>-1.3999999761581</ele>
        <time>2020-09-06T08:43:36.000Z</time>
      </trkpt>
      <trkpt lat="47.36919" lon="-2.50483">
        <ele>-1</ele>
        <time>2020-09-06T08:43:37.000Z</time>
      </trkpt>
      <trkpt lat="47.36924" lon="-2.50478">
        <ele>-0.60000002384186</ele>
        <time>2020-09-06T08:43:38.000Z</time>
      </trkpt>
      <trkpt lat="47.36928" lon="-2.50473">
        <ele>-0.20000000298023</ele>
        <time>2020-09-06T08:43:39.000Z</time>
      </trkpt>
      <trkpt lat="47.36938" lon="-2.50464">
        <ele>-0.20000000298023</ele>
        <time>2020-09-06T08:43:41.000Z</time>
      </trkpt>
      <trkpt lat="47.36956" lon="-2.50447">
        <ele>0.20000000298023</ele>
        <time>2020-09-06T08:43:45.000Z</time>
      </trkpt>
      <trkpt lat="47.3696" lon="-2.50442">
        <ele>0.80000001192093</ele>
        <time>2020-09-06T08:43:46.000Z</time>
      </trkpt>
      <trkpt lat="47.36964" lon="-2.50438">
        <ele>1.2000000476837</ele>
        <time>2020-09-06T08:43:47.000Z</time>
      </trkpt>
      <trkpt lat="47.36968" lon="-2.50433">
        <ele>1.6000000238419</ele>
        <time>2020-09-06T08:43:48.000Z</time>
      </trkpt>
      <trkpt lat="47.36973" lon="-2.50429">
        <ele>2.2000000476837</ele>
        <time>2020-09-06T08:43:49.000Z</time>
      </trkpt>
      <trkpt lat="47.37014" lon="-2.5039">
        <ele>2.2000000476837</ele>
        <time>2020-09-06T08:43:58.000Z</time>
      </trkpt>
      <trkpt lat="47.37045" lon="-2.50361">
        <ele>2.2000000476837</ele>
        <time>2020-09-06T08:44:05.000Z</time>
      </trkpt>
      <trkpt lat="47.3705" lon="-2.50356">
        <ele>2.5999999046326</ele>
        <time>2020-09-06T08:44:06.000Z</time>
      </trkpt>
      <trkpt lat="47.37054" lon="-2.50353">
        <ele>3</ele>
        <time>2020-09-06T08:44:07.000Z</time>
      </trkpt>
      <trkpt lat="47.37058" lon="-2.50349">
        <ele>3.4000000953674</ele>
        <time>2020-09-06T08:44:08.000Z</time>
      </trkpt>
      <trkpt lat="47.37062" lon="-2.50345">
        <ele>3.7999999523163</ele>
        <time>2020-09-06T08:44:09.000Z</time>
      </trkpt>
      <trkpt lat="47.37066" lon="-2.50341">
        <ele>4.1999998092651</ele>
        <time>2020-09-06T08:44:10.000Z</time>
      </trkpt>
      <trkpt lat="47.37084" lon="-2.50324">
        <ele>4.1999998092651</ele>
        <time>2020-09-06T08:44:14.000Z</time>
      </trkpt>
      <trkpt lat="47.37113" lon="-2.50297">
        <ele>4.1999998092651</ele>
        <time>2020-09-06T08:44:21.000Z</time>
      </trkpt>
      <trkpt lat="47.37147" lon="-2.50265">
        <ele>4.1999998092651</ele>
        <time>2020-09-06T08:44:28.000Z</time>
      </trkpt>
      <trkpt lat="47.37194" lon="-2.50221">
        <ele>4.1999998092651</ele>
        <time>2020-09-06T08:44:37.000Z</time>
      </trkpt>
      <trkpt lat="47.37241" lon="-2.50174">
        <ele>4.1999998092651</ele>
        <time>2020-09-06T08:44:46.000Z</time>
      </trkpt>
      <trkpt lat="47.37247" lon="-2.50169">
        <ele>4.1999998092651</ele>
        <time>2020-09-06T08:44:47.000Z</time>
      </trkpt>
      <trkpt lat="47.37295" lon="-2.50123">
        <ele>4.1999998092651</ele>
        <time>2020-09-06T08:44:56.000Z</time>
      </trkpt>
      <trkpt lat="47.37301" lon="-2.50118">
        <ele>4.1999998092651</ele>
        <time>2020-09-06T08:44:57.000Z</time>
      </trkpt>
      <trkpt lat="47.37349" lon="-2.50073">
        <ele>4.1999998092651</ele>
        <time>2020-09-06T08:45:06.000Z</time>
      </trkpt>
      <trkpt lat="47.37355" lon="-2.50068">
        <ele>4.1999998092651</ele>
        <time>2020-09-06T08:45:07.000Z</time>
      </trkpt>
      <trkpt lat="47.37397" lon="-2.50029">
        <ele>4.5999999046326</ele>
        <time>2020-09-06T08:45:15.000Z</time>
      </trkpt>
      <trkpt lat="47.37402" lon="-2.50023">
        <ele>5</ele>
        <time>2020-09-06T08:45:16.000Z</time>
      </trkpt>
      <trkpt lat="47.37407" lon="-2.50018">
        <ele>5.4000000953674</ele>
        <time>2020-09-06T08:45:17.000Z</time>
      </trkpt>
      <trkpt lat="47.37412" lon="-2.50014">
        <ele>5.8000001907349</ele>
        <time>2020-09-06T08:45:18.000Z</time>
      </trkpt>
      <trkpt lat="47.37418" lon="-2.50008">
        <ele>6.1999998092651</ele>
        <time>2020-09-06T08:45:19.000Z</time>
      </trkpt>
      <trkpt lat="47.37451" lon="-2.49978">
        <ele>6.1999998092651</ele>
        <time>2020-09-06T08:45:25.000Z</time>
      </trkpt>
      <trkpt lat="47.37456" lon="-2.49973">
        <ele>6.1999998092651</ele>
        <time>2020-09-06T08:45:26.000Z</time>
      </trkpt>
      <trkpt lat="47.37476" lon="-2.49952">
        <ele>6.1999998092651</ele>
        <time>2020-09-06T08:45:30.000Z</time>
      </trkpt>
      <trkpt lat="47.37504" lon="-2.49925">
        <ele>6.1999998092651</ele>
        <time>2020-09-06T08:45:36.000Z</time>
      </trkpt>
      <trkpt lat="47.37509" lon="-2.49921">
        <ele>6.1999998092651</ele>
        <time>2020-09-06T08:45:37.000Z</time>
      </trkpt>
      <trkpt lat="47.37525" lon="-2.49924">
        <ele>6.1999998092651</ele>
        <time>2020-09-06T08:45:40.000Z</time>
      </trkpt>
      <trkpt lat="47.37531" lon="-2.4994">
        <ele>6.1999998092651</ele>
        <time>2020-09-06T08:45:42.000Z</time>
      </trkpt>
      <trkpt lat="47.37535" lon="-2.49969">
        <ele>6.1999998092651</ele>
        <time>2020-09-06T08:45:45.000Z</time>
      </trkpt>
      <trkpt lat="47.37537" lon="-2.49988">
        <ele>6.1999998092651</ele>
        <time>2020-09-06T08:45:47.000Z</time>
      </trkpt>
      <trkpt lat="47.37546" lon="-2.50062">
        <ele>6.1999998092651</ele>
        <time>2020-09-06T08:45:55.000Z</time>
      </trkpt>
      <trkpt lat="47.37551" lon="-2.50096">
        <ele>6.1999998092651</ele>
        <time>2020-09-06T08:45:59.000Z</time>
      </trkpt>
      <trkpt lat="47.37554" lon="-2.50102">
        <ele>6.1999998092651</ele>
        <time>2020-09-06T08:46:00.000Z</time>
      </trkpt>
      <trkpt lat="47.3757" lon="-2.5011">
        <ele>6.1999998092651</ele>
        <time>2020-09-06T08:46:03.000Z</time>
      </trkpt>
      <trkpt lat="47.37576" lon="-2.50107">
        <ele>6.1999998092651</ele>
        <time>2020-09-06T08:46:04.000Z</time>
      </trkpt>
      <trkpt lat="47.37594" lon="-2.50101">
        <ele>6.1999998092651</ele>
        <time>2020-09-06T08:46:07.000Z</time>
      </trkpt>
      <trkpt lat="47.37617" lon="-2.50094">
        <ele>6.8000001907349</ele>
        <time>2020-09-06T08:46:11.000Z</time>
      </trkpt>
      <trkpt lat="47.37623" lon="-2.50093">
        <ele>7.1999998092651</ele>
        <time>2020-09-06T08:46:12.000Z</time>
      </trkpt>
      <trkpt lat="47.37628" lon="-2.50091">
        <ele>7.5999999046326</ele>
        <time>2020-09-06T08:46:13.000Z</time>
      </trkpt>
      <trkpt lat="47.37634" lon="-2.50089">
        <ele>8</ele>
        <time>2020-09-06T08:46:14.000Z</time>
      </trkpt>
      <trkpt lat="47.3764" lon="-2.50088">
        <ele>8.3999996185303</ele>
        <time>2020-09-06T08:46:15.000Z</time>
      </trkpt>
      <trkpt lat="47.37674" lon="-2.50077">
        <ele>8.3999996185303</ele>
        <time>2020-09-06T08:46:21.000Z</time>
      </trkpt>
      <trkpt lat="47.37697" lon="-2.50071">
        <ele>8.8000001907349</ele>
        <time>2020-09-06T08:46:25.000Z</time>
      </trkpt>
      <trkpt lat="47.37702" lon="-2.50069">
        <ele>9.1999998092651</ele>
        <time>2020-09-06T08:46:26.000Z</time>
      </trkpt>
      <trkpt lat="47.37708" lon="-2.50068">
        <ele>9.6000003814697</ele>
        <time>2020-09-06T08:46:27.000Z</time>
      </trkpt>
      <trkpt lat="47.37714" lon="-2.50066">
        <ele>10</ele>
        <time>2020-09-06T08:46:28.000Z</time>
      </trkpt>
      <trkpt lat="47.37719" lon="-2.50065">
        <ele>10.39999961853</ele>
        <time>2020-09-06T08:46:29.000Z</time>
      </trkpt>
      <trkpt lat="47.37752" lon="-2.50056">
        <ele>10.39999961853</ele>
        <time>2020-09-06T08:46:35.000Z</time>
      </trkpt>
      <trkpt lat="47.37763" lon="-2.50053">
        <ele>10.800000190735</ele>
        <time>2020-09-06T08:46:37.000Z</time>
      </trkpt>
      <trkpt lat="47.37769" lon="-2.50051">
        <ele>11.199999809265</ele>
        <time>2020-09-06T08:46:38.000Z</time>
      </trkpt>
      <trkpt lat="47.37775" lon="-2.5005">
        <ele>11.60000038147</ele>
        <time>2020-09-06T08:46:39.000Z</time>
      </trkpt>
      <trkpt lat="47.3778" lon="-2.50048">
        <ele>12</ele>
        <time>2020-09-06T08:46:40.000Z</time>
      </trkpt>
      <trkpt lat="47.37786" lon="-2.50047">
        <ele>12.39999961853</ele>
        <time>2020-09-06T08:46:41.000Z</time>
      </trkpt>
      <trkpt lat="47.37797" lon="-2.50045">
        <ele>12.39999961853</ele>
        <time>2020-09-06T08:46:43.000Z</time>
      </trkpt>
      <trkpt lat="47.37821" lon="-2.50037">
        <ele>12.39999961853</ele>
        <time>2020-09-06T08:46:48.000Z</time>
      </trkpt>
      <trkpt lat="47.37825" lon="-2.50033">
        <ele>12.39999961853</ele>
        <time>2020-09-06T08:46:49.000Z</time>
      </trkpt>
      <trkpt lat="47.37826" lon="-2.50012">
        <ele>12.39999961853</ele>
        <time>2020-09-06T08:46:52.000Z</time>
      </trkpt>
      <trkpt lat="47.3782" lon="-2.49991">
        <ele>12.39999961853</ele>
        <time>2020-09-06T08:46:55.000Z</time>
      </trkpt>
      <trkpt lat="47.37815" lon="-2.49976">
        <ele>12.39999961853</ele>
        <time>2020-09-06T08:46:57.000Z</time>
      </trkpt>
      <trkpt lat="47.37794" lon="-2.49905">
        <ele>12.39999961853</ele>
        <time>2020-09-06T08:47:06.000Z</time>
      </trkpt>
      <trkpt lat="47.37783" lon="-2.49843">
        <ele>12.39999961853</ele>
        <time>2020-09-06T08:47:13.000Z</time>
      </trkpt>
      <trkpt lat="47.37771" lon="-2.49772">
        <ele>12.39999961853</ele>
        <time>2020-09-06T08:47:21.000Z</time>
      </trkpt>
      <trkpt lat="47.37763" lon="-2.49727">
        <ele>12.39999961853</ele>
        <time>2020-09-06T08:47:27.000Z</time>
      </trkpt>
      <trkpt lat="47.37754" lon="-2.49681">
        <ele>12.39999961853</ele>
        <time>2020-09-06T08:47:32.000Z</time>
      </trkpt>
      <trkpt lat="47.37744" lon="-2.49617">
        <ele>12.39999961853</ele>
        <time>2020-09-06T08:47:39.000Z</time>
      </trkpt>
      <trkpt lat="47.37737" lon="-2.49553">
        <ele>12.39999961853</ele>
        <time>2020-09-06T08:47:46.000Z</time>
      </trkpt>
      <trkpt lat="47.37726" lon="-2.49472">
        <ele>12.39999961853</ele>
        <time>2020-09-06T08:47:55.000Z</time>
      </trkpt>
      <trkpt lat="47.37716" lon="-2.49394">
        <ele>12.39999961853</ele>
        <time>2020-09-06T08:48:04.000Z</time>
      </trkpt>
      <trkpt lat="47.37706" lon="-2.49331">
        <ele>12.39999961853</ele>
        <time>2020-09-06T08:48:12.000Z</time>
      </trkpt>
      <trkpt lat="47.37699" lon="-2.49281">
        <ele>12.39999961853</ele>
        <time>2020-09-06T08:48:19.000Z</time>
      </trkpt>
      <trkpt lat="47.37693" lon="-2.49237">
        <ele>12.39999961853</ele>
        <time>2020-09-06T08:48:25.000Z</time>
      </trkpt>
      <trkpt lat="47.37689" lon="-2.49203">
        <ele>12.39999961853</ele>
        <time>2020-09-06T08:48:29.000Z</time>
      </trkpt>
      <trkpt lat="47.37687" lon="-2.49186">
        <ele>12</ele>
        <time>2020-09-06T08:48:31.000Z</time>
      </trkpt>
      <trkpt lat="47.37685" lon="-2.49177">
        <ele>11.60000038147</ele>
        <time>2020-09-06T08:48:32.000Z</time>
      </trkpt>
      <trkpt lat="47.37684" lon="-2.49167">
        <ele>11.199999809265</ele>
        <time>2020-09-06T08:48:33.000Z</time>
      </trkpt>
      <trkpt lat="47.37683" lon="-2.49158">
        <ele>10.800000190735</ele>
        <time>2020-09-06T08:48:34.000Z</time>
      </trkpt>
      <trkpt lat="47.37681" lon="-2.49149">
        <ele>10.39999961853</ele>
        <time>2020-09-06T08:48:35.000Z</time>
      </trkpt>
      <trkpt lat="47.37681" lon="-2.49139">
        <ele>10.39999961853</ele>
        <time>2020-09-06T08:48:36.000Z</time>
      </trkpt>
      <trkpt lat="47.3768" lon="-2.4913">
        <ele>10.39999961853</ele>
        <time>2020-09-06T08:48:37.000Z</time>
      </trkpt>
      <trkpt lat="47.3768" lon="-2.49113">
        <ele>10.39999961853</ele>
        <time>2020-09-06T08:48:39.000Z</time>
      </trkpt>
      <trkpt lat="47.37677" lon="-2.49089">
        <ele>10.39999961853</ele>
        <time>2020-09-06T08:48:42.000Z</time>
      </trkpt>
      <trkpt lat="47.37674" lon="-2.4905">
        <ele>10.39999961853</ele>
        <time>2020-09-06T08:48:47.000Z</time>
      </trkpt>
      <trkpt lat="47.37674" lon="-2.49041">
        <ele>10.39999961853</ele>
        <time>2020-09-06T08:48:48.000Z</time>
      </trkpt>
      <trkpt lat="47.37673" lon="-2.48983">
        <ele>10.39999961853</ele>
        <time>2020-09-06T08:48:54.000Z</time>
      </trkpt>
      <trkpt lat="47.37673" lon="-2.48933">
        <ele>10.39999961853</ele>
        <time>2020-09-06T08:48:59.000Z</time>
      </trkpt>
      <trkpt lat="47.37674" lon="-2.489">
        <ele>10</ele>
        <time>2020-09-06T08:49:02.000Z</time>
      </trkpt>
      <trkpt lat="47.37674" lon="-2.48889">
        <ele>9.6000003814697</ele>
        <time>2020-09-06T08:49:03.000Z</time>
      </trkpt>
      <trkpt lat="47.37674" lon="-2.48878">
        <ele>9.1999998092651</ele>
        <time>2020-09-06T08:49:04.000Z</time>
      </trkpt>
      <trkpt lat="47.37674" lon="-2.48867">
        <ele>8.6000003814697</ele>
        <time>2020-09-06T08:49:05.000Z</time>
      </trkpt>
      <trkpt lat="47.37674" lon="-2.48856">
        <ele>8.1999998092651</ele>
        <time>2020-09-06T08:49:06.000Z</time>
      </trkpt>
      <trkpt lat="47.37674" lon="-2.48797">
        <ele>7.8000001907349</ele>
        <time>2020-09-06T08:49:11.000Z</time>
      </trkpt>
      <trkpt lat="47.37675" lon="-2.48786">
        <ele>7.4000000953674</ele>
        <time>2020-09-06T08:49:12.000Z</time>
      </trkpt>
      <trkpt lat="47.37676" lon="-2.48775">
        <ele>6.8000001907349</ele>
        <time>2020-09-06T08:49:13.000Z</time>
      </trkpt>
      <trkpt lat="47.37677" lon="-2.48764">
        <ele>6.4000000953674</ele>
        <time>2020-09-06T08:49:14.000Z</time>
      </trkpt>
      <trkpt lat="47.37678" lon="-2.48753">
        <ele>6</ele>
        <time>2020-09-06T08:49:15.000Z</time>
      </trkpt>
      <trkpt lat="47.37678" lon="-2.48743">
        <ele>6</ele>
        <time>2020-09-06T08:49:16.000Z</time>
      </trkpt>
      <trkpt lat="47.37675" lon="-2.48725">
        <ele>6</ele>
        <time>2020-09-06T08:49:18.000Z</time>
      </trkpt>
      <trkpt lat="47.3767" lon="-2.48682">
        <ele>6</ele>
        <time>2020-09-06T08:49:22.000Z</time>
      </trkpt>
      <trkpt lat="47.37669" lon="-2.48669">
        <ele>6</ele>
        <time>2020-09-06T08:49:23.000Z</time>
      </trkpt>
      <trkpt lat="47.37666" lon="-2.48587">
        <ele>6</ele>
        <time>2020-09-06T08:49:29.000Z</time>
      </trkpt>
      <trkpt lat="47.37662" lon="-2.48561">
        <ele>6</ele>
        <time>2020-09-06T08:49:31.000Z</time>
      </trkpt>
      <trkpt lat="47.37658" lon="-2.4855">
        <ele>5.5999999046326</ele>
        <time>2020-09-06T08:49:32.000Z</time>
      </trkpt>
      <trkpt lat="47.37655" lon="-2.48539">
        <ele>5</ele>
        <time>2020-09-06T08:49:33.000Z</time>
      </trkpt>
      <trkpt lat="47.37651" lon="-2.48528">
        <ele>4.5999999046326</ele>
        <time>2020-09-06T08:49:34.000Z</time>
      </trkpt>
      <trkpt lat="47.37647" lon="-2.48517">
        <ele>4.1999998092651</ele>
        <time>2020-09-06T08:49:35.000Z</time>
      </trkpt>
      <trkpt lat="47.37644" lon="-2.48507">
        <ele>3.7999999523163</ele>
        <time>2020-09-06T08:49:36.000Z</time>
      </trkpt>
      <trkpt lat="47.3764" lon="-2.48488">
        <ele>3.7999999523163</ele>
        <time>2020-09-06T08:49:38.000Z</time>
      </trkpt>
      <trkpt lat="47.37636" lon="-2.48472">
        <ele>3.7999999523163</ele>
        <time>2020-09-06T08:49:41.000Z</time>
      </trkpt>
      <trkpt lat="47.37631" lon="-2.48452">
        <ele>3.7999999523163</ele>
        <time>2020-09-06T08:49:46.000Z</time>
      </trkpt>
      <trkpt lat="47.37626" lon="-2.48423">
        <ele>3.7999999523163</ele>
        <time>2020-09-06T08:49:51.000Z</time>
      </trkpt>
      <trkpt lat="47.37625" lon="-2.48417">
        <ele>3.7999999523163</ele>
        <time>2020-09-06T08:49:52.000Z</time>
      </trkpt>
      <trkpt lat="47.37625" lon="-2.48397">
        <ele>3.7999999523163</ele>
        <time>2020-09-06T08:49:55.000Z</time>
      </trkpt>
      <trkpt lat="47.37626" lon="-2.48384">
        <ele>3.7999999523163</ele>
        <time>2020-09-06T08:49:57.000Z</time>
      </trkpt>
      <trkpt lat="47.37627" lon="-2.48363">
        <ele>3.7999999523163</ele>
        <time>2020-09-06T08:50:00.000Z</time>
      </trkpt>
      <trkpt lat="47.37627" lon="-2.48349">
        <ele>3.7999999523163</ele>
        <time>2020-09-06T08:50:02.000Z</time>
      </trkpt>
      <trkpt lat="47.37626" lon="-2.48341">
        <ele>3.7999999523163</ele>
        <time>2020-09-06T08:50:03.000Z</time>
      </trkpt>
      <trkpt lat="47.37625" lon="-2.48304">
        <ele>3.7999999523163</ele>
        <time>2020-09-06T08:50:07.000Z</time>
      </trkpt>
      <trkpt lat="47.3763" lon="-2.48254">
        <ele>3.7999999523163</ele>
        <time>2020-09-06T08:50:13.000Z</time>
      </trkpt>
      <trkpt lat="47.3763" lon="-2.48246">
        <ele>3.7999999523163</ele>
        <time>2020-09-06T08:50:14.000Z</time>
      </trkpt>
      <trkpt lat="47.37633" lon="-2.48231">
        <ele>3.7999999523163</ele>
        <time>2020-09-06T08:50:17.000Z</time>
      </trkpt>
      <trkpt lat="47.37643" lon="-2.48204">
        <ele>3.7999999523163</ele>
        <time>2020-09-06T08:50:22.000Z</time>
      </trkpt>
      <trkpt lat="47.37647" lon="-2.48171">
        <ele>3.7999999523163</ele>
        <time>2020-09-06T08:50:27.000Z</time>
      </trkpt>
      <trkpt lat="47.37651" lon="-2.48129">
        <ele>3.7999999523163</ele>
        <time>2020-09-06T08:50:33.000Z</time>
      </trkpt>
      <trkpt lat="47.37653" lon="-2.48116">
        <ele>4.1999998092651</ele>
        <time>2020-09-06T08:50:35.000Z</time>
      </trkpt>
      <trkpt lat="47.37654" lon="-2.4811">
        <ele>4.8000001907349</ele>
        <time>2020-09-06T08:50:36.000Z</time>
      </trkpt>
      <trkpt lat="47.37655" lon="-2.48104">
        <ele>5.1999998092651</ele>
        <time>2020-09-06T08:50:37.000Z</time>
      </trkpt>
      <trkpt lat="47.37656" lon="-2.48099">
        <ele>5.5999999046326</ele>
        <time>2020-09-06T08:50:38.000Z</time>
      </trkpt>
      <trkpt lat="47.37656" lon="-2.48093">
        <ele>6</ele>
        <time>2020-09-06T08:50:39.000Z</time>
      </trkpt>
      <trkpt lat="47.37659" lon="-2.48059">
        <ele>6</ele>
        <time>2020-09-06T08:50:44.000Z</time>
      </trkpt>
      <trkpt lat="47.37661" lon="-2.4802">
        <ele>6</ele>
        <time>2020-09-06T08:50:50.000Z</time>
      </trkpt>
      <trkpt lat="47.37664" lon="-2.48001">
        <ele>6.4000000953674</ele>
        <time>2020-09-06T08:50:53.000Z</time>
      </trkpt>
      <trkpt lat="47.37665" lon="-2.47995">
        <ele>6.8000001907349</ele>
        <time>2020-09-06T08:50:54.000Z</time>
      </trkpt>
      <trkpt lat="47.37665" lon="-2.47989">
        <ele>7.1999998092651</ele>
        <time>2020-09-06T08:50:55.000Z</time>
      </trkpt>
      <trkpt lat="47.37665" lon="-2.47983">
        <ele>7.5999999046326</ele>
        <time>2020-09-06T08:50:56.000Z</time>
      </trkpt>
      <trkpt lat="47.37665" lon="-2.47976">
        <ele>8</ele>
        <time>2020-09-06T08:50:57.000Z</time>
      </trkpt>
      <trkpt lat="47.37669" lon="-2.47946">
        <ele>8</ele>
        <time>2020-09-06T08:51:01.000Z</time>
      </trkpt>
      <trkpt lat="47.37673" lon="-2.47922">
        <ele>8</ele>
        <time>2020-09-06T08:51:04.000Z</time>
      </trkpt>
      <trkpt lat="47.37676" lon="-2.47899">
        <ele>8</ele>
        <time>2020-09-06T08:51:07.000Z</time>
      </trkpt>
      <trkpt lat="47.37683" lon="-2.47861">
        <ele>8</ele>
        <time>2020-09-06T08:51:12.000Z</time>
      </trkpt>
      <trkpt lat="47.37686" lon="-2.47845">
        <ele>8</ele>
        <time>2020-09-06T08:51:14.000Z</time>
      </trkpt>
      <trkpt lat="47.37691" lon="-2.47814">
        <ele>8</ele>
        <time>2020-09-06T08:51:18.000Z</time>
      </trkpt>
      <trkpt lat="47.37701" lon="-2.47762">
        <ele>8</ele>
        <time>2020-09-06T08:51:24.000Z</time>
      </trkpt>
      <trkpt lat="47.37705" lon="-2.47737">
        <ele>8</ele>
        <time>2020-09-06T08:51:27.000Z</time>
      </trkpt>
      <trkpt lat="47.37706" lon="-2.47721">
        <ele>8</ele>
        <time>2020-09-06T08:51:29.000Z</time>
      </trkpt>
      <trkpt lat="47.37707" lon="-2.47714">
        <ele>8</ele>
        <time>2020-09-06T08:51:30.000Z</time>
      </trkpt>
      <trkpt lat="47.37712" lon="-2.47686">
        <ele>8</ele>
        <time>2020-09-06T08:51:34.000Z</time>
      </trkpt>
      <trkpt lat="47.37716" lon="-2.47639">
        <ele>8</ele>
        <time>2020-09-06T08:51:40.000Z</time>
      </trkpt>
      <trkpt lat="47.37719" lon="-2.47604">
        <ele>8</ele>
        <time>2020-09-06T08:51:45.000Z</time>
      </trkpt>
      <trkpt lat="47.37728" lon="-2.47578">
        <ele>8</ele>
        <time>2020-09-06T08:51:50.000Z</time>
      </trkpt>
      <trkpt lat="47.37729" lon="-2.47577">
        <ele>8</ele>
        <time>2020-09-06T08:51:52.000Z</time>
      </trkpt>
      <trkpt lat="47.37734" lon="-2.47574">
        <ele>8.8000001907349</ele>
        <time>2020-09-06T09:02:38.000Z</time>
      </trkpt>
      <trkpt lat="47.37748" lon="-2.47568">
        <ele>8.8000001907349</ele>
        <time>2020-09-06T09:02:44.000Z</time>
      </trkpt>
      <trkpt lat="47.37768" lon="-2.47559">
        <ele>8.8000001907349</ele>
        <time>2020-09-06T09:02:50.000Z</time>
      </trkpt>
      <trkpt lat="47.37795" lon="-2.47537">
        <ele>8.8000001907349</ele>
        <time>2020-09-06T09:02:57.000Z</time>
      </trkpt>
      <trkpt lat="47.3782" lon="-2.47517">
        <ele>8.8000001907349</ele>
        <time>2020-09-06T09:03:04.000Z</time>
      </trkpt>
      <trkpt lat="47.37829" lon="-2.47511">
        <ele>8.3999996185303</ele>
        <time>2020-09-06T09:03:07.000Z</time>
      </trkpt>
      <trkpt lat="47.37832" lon="-2.47509">
        <ele>8</ele>
        <time>2020-09-06T09:03:08.000Z</time>
      </trkpt>
      <trkpt lat="47.37836" lon="-2.47507">
        <ele>7.5999999046326</ele>
        <time>2020-09-06T09:03:09.000Z</time>
      </trkpt>
      <trkpt lat="47.37839" lon="-2.47506">
        <ele>7.1999998092651</ele>
        <time>2020-09-06T09:03:10.000Z</time>
      </trkpt>
      <trkpt lat="47.37842" lon="-2.47504">
        <ele>6.8000001907349</ele>
        <time>2020-09-06T09:03:11.000Z</time>
      </trkpt>
      <trkpt lat="47.37858" lon="-2.47495">
        <ele>6.8000001907349</ele>
        <time>2020-09-06T09:03:16.000Z</time>
      </trkpt>
      <trkpt lat="47.37878" lon="-2.47487">
        <ele>6.8000001907349</ele>
        <time>2020-09-06T09:03:21.000Z</time>
      </trkpt>
      <trkpt lat="47.37892" lon="-2.47482">
        <ele>6.4000000953674</ele>
        <time>2020-09-06T09:03:24.000Z</time>
      </trkpt>
      <trkpt lat="47.37897" lon="-2.4748">
        <ele>5.8000001907349</ele>
        <time>2020-09-06T09:03:25.000Z</time>
      </trkpt>
      <trkpt lat="47.37902" lon="-2.47478">
        <ele>5.4000000953674</ele>
        <time>2020-09-06T09:03:26.000Z</time>
      </trkpt>
      <trkpt lat="47.37906" lon="-2.47476">
        <ele>5</ele>
        <time>2020-09-06T09:03:27.000Z</time>
      </trkpt>
      <trkpt lat="47.37911" lon="-2.47474">
        <ele>4.5999999046326</ele>
        <time>2020-09-06T09:03:28.000Z</time>
      </trkpt>
      <trkpt lat="47.37916" lon="-2.47472">
        <ele>4.5999999046326</ele>
        <time>2020-09-06T09:03:29.000Z</time>
      </trkpt>
      <trkpt lat="47.37959" lon="-2.47456">
        <ele>4.5999999046326</ele>
        <time>2020-09-06T09:03:38.000Z</time>
      </trkpt>
      <trkpt lat="47.37963" lon="-2.47454">
        <ele>4.1999998092651</ele>
        <time>2020-09-06T09:03:39.000Z</time>
      </trkpt>
      <trkpt lat="47.37967" lon="-2.47453">
        <ele>3.5999999046326</ele>
        <time>2020-09-06T09:03:40.000Z</time>
      </trkpt>
      <trkpt lat="47.37972" lon="-2.4745">
        <ele>3.2000000476837</ele>
        <time>2020-09-06T09:03:41.000Z</time>
      </trkpt>
      <trkpt lat="47.37976" lon="-2.47447">
        <ele>2.7999999523163</ele>
        <time>2020-09-06T09:03:42.000Z</time>
      </trkpt>
      <trkpt lat="47.37979" lon="-2.47442">
        <ele>2.4000000953674</ele>
        <time>2020-09-06T09:03:43.000Z</time>
      </trkpt>
      <trkpt lat="47.37984" lon="-2.47424">
        <ele>2.4000000953674</ele>
        <time>2020-09-06T09:03:46.000Z</time>
      </trkpt>
      <trkpt lat="47.37984" lon="-2.47417">
        <ele>2.4000000953674</ele>
        <time>2020-09-06T09:03:47.000Z</time>
      </trkpt>
      <trkpt lat="47.37978" lon="-2.47397">
        <ele>2.4000000953674</ele>
        <time>2020-09-06T09:03:50.000Z</time>
      </trkpt>
      <trkpt lat="47.37964" lon="-2.47349">
        <ele>2.4000000953674</ele>
        <time>2020-09-06T09:03:57.000Z</time>
      </trkpt>
      <trkpt lat="47.37946" lon="-2.47292">
        <ele>2.4000000953674</ele>
        <time>2020-09-06T09:04:05.000Z</time>
      </trkpt>
      <trkpt lat="47.37932" lon="-2.47243">
        <ele>2.4000000953674</ele>
        <time>2020-09-06T09:04:12.000Z</time>
      </trkpt>
      <trkpt lat="47.37918" lon="-2.472">
        <ele>2.7999999523163</ele>
        <time>2020-09-06T09:04:19.000Z</time>
      </trkpt>
      <trkpt lat="47.37917" lon="-2.47195">
        <ele>3.4000000953674</ele>
        <time>2020-09-06T09:04:20.000Z</time>
      </trkpt>
      <trkpt lat="47.37915" lon="-2.47188">
        <ele>3.7999999523163</ele>
        <time>2020-09-06T09:04:21.000Z</time>
      </trkpt>
      <trkpt lat="47.37913" lon="-2.47182">
        <ele>4.1999998092651</ele>
        <time>2020-09-06T09:04:22.000Z</time>
      </trkpt>
      <trkpt lat="47.37912" lon="-2.47175">
        <ele>4.5999999046326</ele>
        <time>2020-09-06T09:04:23.000Z</time>
      </trkpt>
      <trkpt lat="47.37906" lon="-2.47147">
        <ele>4.5999999046326</ele>
        <time>2020-09-06T09:04:27.000Z</time>
      </trkpt>
      <trkpt lat="47.37905" lon="-2.47141">
        <ele>5</ele>
        <time>2020-09-06T09:04:28.000Z</time>
      </trkpt>
      <trkpt lat="47.37903" lon="-2.47134">
        <ele>5.4000000953674</ele>
        <time>2020-09-06T09:04:29.000Z</time>
      </trkpt>
      <trkpt lat="47.37902" lon="-2.47128">
        <ele>5.8000001907349</ele>
        <time>2020-09-06T09:04:30.000Z</time>
      </trkpt>
      <trkpt lat="47.37901" lon="-2.47122">
        <ele>6.1999998092651</ele>
        <time>2020-09-06T09:04:31.000Z</time>
      </trkpt>
      <trkpt lat="47.37901" lon="-2.47116">
        <ele>6.5999999046326</ele>
        <time>2020-09-06T09:04:32.000Z</time>
      </trkpt>
      <trkpt lat="47.37899" lon="-2.4711">
        <ele>6.5999999046326</ele>
        <time>2020-09-06T09:04:33.000Z</time>
      </trkpt>
      <trkpt lat="47.3789" lon="-2.47071">
        <ele>6.5999999046326</ele>
        <time>2020-09-06T09:04:39.000Z</time>
      </trkpt>
      <trkpt lat="47.37881" lon="-2.47019">
        <ele>6.5999999046326</ele>
        <time>2020-09-06T09:04:46.000Z</time>
      </trkpt>
      <trkpt lat="47.37871" lon="-2.46967">
        <ele>7</ele>
        <time>2020-09-06T09:04:53.000Z</time>
      </trkpt>
      <trkpt lat="47.37869" lon="-2.46959">
        <ele>7.4000000953674</ele>
        <time>2020-09-06T09:04:54.000Z</time>
      </trkpt>
      <trkpt lat="47.37868" lon="-2.46951">
        <ele>7.8000001907349</ele>
        <time>2020-09-06T09:04:55.000Z</time>
      </trkpt>
      <trkpt lat="47.37867" lon="-2.46943">
        <ele>8.1999998092651</ele>
        <time>2020-09-06T09:04:56.000Z</time>
      </trkpt>
      <trkpt lat="47.37865" lon="-2.46935">
        <ele>8.6000003814697</ele>
        <time>2020-09-06T09:04:57.000Z</time>
      </trkpt>
      <trkpt lat="47.37859" lon="-2.46903">
        <ele>8.6000003814697</ele>
        <time>2020-09-06T09:05:01.000Z</time>
      </trkpt>
      <trkpt lat="47.37857" lon="-2.46895">
        <ele>8.6000003814697</ele>
        <time>2020-09-06T09:05:02.000Z</time>
      </trkpt>
      <trkpt lat="47.37849" lon="-2.46848">
        <ele>8.6000003814697</ele>
        <time>2020-09-06T09:05:07.000Z</time>
      </trkpt>
      <trkpt lat="47.37837" lon="-2.46779">
        <ele>8.6000003814697</ele>
        <time>2020-09-06T09:05:14.000Z</time>
      </trkpt>
      <trkpt lat="47.37835" lon="-2.46754">
        <ele>8.1999998092651</ele>
        <time>2020-09-06T09:05:16.000Z</time>
      </trkpt>
      <trkpt lat="47.37834" lon="-2.46742">
        <ele>7.8000001907349</ele>
        <time>2020-09-06T09:05:17.000Z</time>
      </trkpt>
      <trkpt lat="47.37833" lon="-2.4673">
        <ele>7.4000000953674</ele>
        <time>2020-09-06T09:05:18.000Z</time>
      </trkpt>
      <trkpt lat="47.37832" lon="-2.46719">
        <ele>7</ele>
        <time>2020-09-06T09:05:19.000Z</time>
      </trkpt>
      <trkpt lat="47.3783" lon="-2.46707">
        <ele>6.5999999046326</ele>
        <time>2020-09-06T09:05:20.000Z</time>
      </trkpt>
      <trkpt lat="47.37823" lon="-2.46663">
        <ele>6.1999998092651</ele>
        <time>2020-09-06T09:05:24.000Z</time>
      </trkpt>
      <trkpt lat="47.37822" lon="-2.46653">
        <ele>5.8000001907349</ele>
        <time>2020-09-06T09:05:25.000Z</time>
      </trkpt>
      <trkpt lat="47.37821" lon="-2.46644">
        <ele>5.4000000953674</ele>
        <time>2020-09-06T09:05:26.000Z</time>
      </trkpt>
      <trkpt lat="47.3782" lon="-2.46634">
        <ele>5</ele>
        <time>2020-09-06T09:05:27.000Z</time>
      </trkpt>
      <trkpt lat="47.37819" lon="-2.46625">
        <ele>4.5999999046326</ele>
        <time>2020-09-06T09:05:28.000Z</time>
      </trkpt>
      <trkpt lat="47.37815" lon="-2.46589">
        <ele>4.5999999046326</ele>
        <time>2020-09-06T09:05:32.000Z</time>
      </trkpt>
      <trkpt lat="47.37815" lon="-2.46581">
        <ele>4.5999999046326</ele>
        <time>2020-09-06T09:05:33.000Z</time>
      </trkpt>
      <trkpt lat="47.37823" lon="-2.46546">
        <ele>4.5999999046326</ele>
        <time>2020-09-06T09:05:37.000Z</time>
      </trkpt>
      <trkpt lat="47.37828" lon="-2.46528">
        <ele>4.5999999046326</ele>
        <time>2020-09-06T09:05:39.000Z</time>
      </trkpt>
      <trkpt lat="47.37835" lon="-2.46502">
        <ele>4.5999999046326</ele>
        <time>2020-09-06T09:05:42.000Z</time>
      </trkpt>
      <trkpt lat="47.37847" lon="-2.46457">
        <ele>4.5999999046326</ele>
        <time>2020-09-06T09:05:48.000Z</time>
      </trkpt>
      <trkpt lat="47.37862" lon="-2.46413">
        <ele>4.5999999046326</ele>
        <time>2020-09-06T09:05:55.000Z</time>
      </trkpt>
      <trkpt lat="47.37866" lon="-2.46401">
        <ele>5.4000000953674</ele>
        <time>2020-09-06T09:05:57.000Z</time>
      </trkpt>
      <trkpt lat="47.37868" lon="-2.46395">
        <ele>5.8000001907349</ele>
        <time>2020-09-06T09:05:58.000Z</time>
      </trkpt>
      <trkpt lat="47.3787" lon="-2.46388">
        <ele>6.1999998092651</ele>
        <time>2020-09-06T09:05:59.000Z</time>
      </trkpt>
      <trkpt lat="47.37873" lon="-2.46381">
        <ele>6.5999999046326</ele>
        <time>2020-09-06T09:06:00.000Z</time>
      </trkpt>
      <trkpt lat="47.37878" lon="-2.46367">
        <ele>6.5999999046326</ele>
        <time>2020-09-06T09:06:02.000Z</time>
      </trkpt>
      <trkpt lat="47.37894" lon="-2.46317">
        <ele>6.5999999046326</ele>
        <time>2020-09-06T09:06:09.000Z</time>
      </trkpt>
      <trkpt lat="47.37899" lon="-2.46301">
        <ele>7</ele>
        <time>2020-09-06T09:06:11.000Z</time>
      </trkpt>
      <trkpt lat="47.37901" lon="-2.46293">
        <ele>7.4000000953674</ele>
        <time>2020-09-06T09:06:12.000Z</time>
      </trkpt>
      <trkpt lat="47.37904" lon="-2.46285">
        <ele>7.8000001907349</ele>
        <time>2020-09-06T09:06:13.000Z</time>
      </trkpt>
      <trkpt lat="47.37906" lon="-2.46278">
        <ele>8.1999998092651</ele>
        <time>2020-09-06T09:06:14.000Z</time>
      </trkpt>
      <trkpt lat="47.37909" lon="-2.4627">
        <ele>8.6000003814697</ele>
        <time>2020-09-06T09:06:15.000Z</time>
      </trkpt>
      <trkpt lat="47.37928" lon="-2.46201">
        <ele>8.6000003814697</ele>
        <time>2020-09-06T09:06:23.000Z</time>
      </trkpt>
      <trkpt lat="47.37942" lon="-2.46147">
        <ele>8.6000003814697</ele>
        <time>2020-09-06T09:06:29.000Z</time>
      </trkpt>
      <trkpt lat="47.37957" lon="-2.46091">
        <ele>8.6000003814697</ele>
        <time>2020-09-06T09:06:35.000Z</time>
      </trkpt>
      <trkpt lat="47.37968" lon="-2.46055">
        <ele>8.1999998092651</ele>
        <time>2020-09-06T09:06:39.000Z</time>
      </trkpt>
      <trkpt lat="47.3797" lon="-2.46046">
        <ele>7.8000001907349</ele>
        <time>2020-09-06T09:06:40.000Z</time>
      </trkpt>
      <trkpt lat="47.37973" lon="-2.46038">
        <ele>7.4000000953674</ele>
        <time>2020-09-06T09:06:41.000Z</time>
      </trkpt>
      <trkpt lat="47.37976" lon="-2.4603">
        <ele>7</ele>
        <time>2020-09-06T09:06:42.000Z</time>
      </trkpt>
      <trkpt lat="47.37978" lon="-2.46022">
        <ele>6.5999999046326</ele>
        <time>2020-09-06T09:06:43.000Z</time>
      </trkpt>
      <trkpt lat="47.37982" lon="-2.46006">
        <ele>6.5999999046326</ele>
        <time>2020-09-06T09:06:46.000Z</time>
      </trkpt>
      <trkpt lat="47.37982" lon="-2.46003">
        <ele>6.5999999046326</ele>
        <time>2020-09-06T09:06:47.000Z</time>
      </trkpt>
      <trkpt lat="47.37978" lon="-2.45999">
        <ele>6.5999999046326</ele>
        <time>2020-09-06T09:06:49.000Z</time>
      </trkpt>
      <trkpt lat="47.37973" lon="-2.45997">
        <ele>6.1999998092651</ele>
        <time>2020-09-06T09:06:51.000Z</time>
      </trkpt>
      <trkpt lat="47.37971" lon="-2.45997">
        <ele>5.8000001907349</ele>
        <time>2020-09-06T09:06:52.000Z</time>
      </trkpt>
      <trkpt lat="47.37969" lon="-2.45997">
        <ele>5.4000000953674</ele>
        <time>2020-09-06T09:06:53.000Z</time>
      </trkpt>
      <trkpt lat="47.37967" lon="-2.45997">
        <ele>5</ele>
        <time>2020-09-06T09:06:54.000Z</time>
      </trkpt>
      <trkpt lat="47.37964" lon="-2.45997">
        <ele>4.5999999046326</ele>
        <time>2020-09-06T09:06:55.000Z</time>
      </trkpt>
      <trkpt lat="47.37947" lon="-2.45999">
        <ele>4.5999999046326</ele>
        <time>2020-09-06T09:07:00.000Z</time>
      </trkpt>
      <trkpt lat="47.37922" lon="-2.45995">
        <ele>4.5999999046326</ele>
        <time>2020-09-06T09:07:06.000Z</time>
      </trkpt>
      <trkpt lat="47.37897" lon="-2.45991">
        <ele>4.5999999046326</ele>
        <time>2020-09-06T09:07:12.000Z</time>
      </trkpt>
      <trkpt lat="47.37889" lon="-2.4599">
        <ele>5</ele>
        <time>2020-09-06T09:07:14.000Z</time>
      </trkpt>
      <trkpt lat="47.37884" lon="-2.4599">
        <ele>5.4000000953674</ele>
        <time>2020-09-06T09:07:15.000Z</time>
      </trkpt>
      <trkpt lat="47.37879" lon="-2.45989">
        <ele>5.8000001907349</ele>
        <time>2020-09-06T09:07:16.000Z</time>
      </trkpt>
      <trkpt lat="47.37875" lon="-2.45988">
        <ele>6.1999998092651</ele>
        <time>2020-09-06T09:07:17.000Z</time>
      </trkpt>
      <trkpt lat="47.37871" lon="-2.45988">
        <ele>6.5999999046326</ele>
        <time>2020-09-06T09:07:18.000Z</time>
      </trkpt>
      <trkpt lat="47.37868" lon="-2.45988">
        <ele>6.5999999046326</ele>
        <time>2020-09-06T09:07:19.000Z</time>
      </trkpt>
      <trkpt lat="47.37842" lon="-2.45985">
        <ele>6.5999999046326</ele>
        <time>2020-09-06T09:07:25.000Z</time>
      </trkpt>
      <trkpt lat="47.37815" lon="-2.45984">
        <ele>6.5999999046326</ele>
        <time>2020-09-06T09:07:31.000Z</time>
      </trkpt>
      <trkpt lat="47.37789" lon="-2.45983">
        <ele>7</ele>
        <time>2020-09-06T09:07:36.000Z</time>
      </trkpt>
      <trkpt lat="47.37783" lon="-2.45983">
        <ele>7.4000000953674</ele>
        <time>2020-09-06T09:07:37.000Z</time>
      </trkpt>
      <trkpt lat="47.37777" lon="-2.45982">
        <ele>8</ele>
        <time>2020-09-06T09:07:38.000Z</time>
      </trkpt>
      <trkpt lat="47.37772" lon="-2.45982">
        <ele>8.3999996185303</ele>
        <time>2020-09-06T09:07:39.000Z</time>
      </trkpt>
      <trkpt lat="47.37766" lon="-2.45982">
        <ele>8.8000001907349</ele>
        <time>2020-09-06T09:07:40.000Z</time>
      </trkpt>
      <trkpt lat="47.37739" lon="-2.4598">
        <ele>8.8000001907349</ele>
        <time>2020-09-06T09:07:45.000Z</time>
      </trkpt>
      <trkpt lat="47.37715" lon="-2.45981">
        <ele>8.8000001907349</ele>
        <time>2020-09-06T09:07:50.000Z</time>
      </trkpt>
      <trkpt lat="47.37711" lon="-2.45981">
        <ele>8.8000001907349</ele>
        <time>2020-09-06T09:07:51.000Z</time>
      </trkpt>
      <trkpt lat="47.37707" lon="-2.45981">
        <ele>8.8000001907349</ele>
        <time>2020-09-06T09:07:54.000Z</time>
      </trkpt>
      <trkpt lat="47.37706" lon="-2.45981">
        <ele>8.8000001907349</ele>
        <time>2020-09-06T09:08:25.000Z</time>
      </trkpt>
      <trkpt lat="47.37701" lon="-2.4598">
        <ele>8.8000001907349</ele>
        <time>2020-09-06T09:08:27.000Z</time>
      </trkpt>
      <trkpt lat="47.37684" lon="-2.45979">
        <ele>8.8000001907349</ele>
        <time>2020-09-06T09:08:32.000Z</time>
      </trkpt>
      <trkpt lat="47.37664" lon="-2.4598">
        <ele>8.8000001907349</ele>
        <time>2020-09-06T09:08:37.000Z</time>
      </trkpt>
      <trkpt lat="47.37657" lon="-2.45981">
        <ele>8.8000001907349</ele>
        <time>2020-09-06T09:08:39.000Z</time>
      </trkpt>
      <trkpt lat="47.37646" lon="-2.4598">
        <ele>8.8000001907349</ele>
        <time>2020-09-06T09:08:41.000Z</time>
      </trkpt>
      <trkpt lat="47.3764" lon="-2.45979">
        <ele>8.8000001907349</ele>
        <time>2020-09-06T09:08:42.000Z</time>
      </trkpt>
      <trkpt lat="47.37634" lon="-2.45976">
        <ele>9.1999998092651</ele>
        <time>2020-09-06T09:08:43.000Z</time>
      </trkpt>
      <trkpt lat="47.37629" lon="-2.45973">
        <ele>9.6000003814697</ele>
        <time>2020-09-06T09:08:44.000Z</time>
      </trkpt>
      <trkpt lat="47.37623" lon="-2.4597">
        <ele>10</ele>
        <time>2020-09-06T09:08:45.000Z</time>
      </trkpt>
      <trkpt lat="47.37618" lon="-2.45967">
        <ele>10.60000038147</ele>
        <time>2020-09-06T09:08:46.000Z</time>
      </trkpt>
      <trkpt lat="47.37612" lon="-2.45964">
        <ele>11</ele>
        <time>2020-09-06T09:08:47.000Z</time>
      </trkpt>
      <trkpt lat="47.37581" lon="-2.45946">
        <ele>11</ele>
        <time>2020-09-06T09:08:53.000Z</time>
      </trkpt>
      <trkpt lat="47.37536" lon="-2.45919">
        <ele>11</ele>
        <time>2020-09-06T09:09:01.000Z</time>
      </trkpt>
      <trkpt lat="47.37485" lon="-2.45892">
        <ele>11</ele>
        <time>2020-09-06T09:09:10.000Z</time>
      </trkpt>
      <trkpt lat="47.37479" lon="-2.45888">
        <ele>11</ele>
        <time>2020-09-06T09:09:11.000Z</time>
      </trkpt>
      <trkpt lat="47.37445" lon="-2.45869">
        <ele>11</ele>
        <time>2020-09-06T09:09:17.000Z</time>
      </trkpt>
      <trkpt lat="47.37395" lon="-2.4584">
        <ele>11</ele>
        <time>2020-09-06T09:09:25.000Z</time>
      </trkpt>
      <trkpt lat="47.37342" lon="-2.45811">
        <ele>11</ele>
        <time>2020-09-06T09:09:33.000Z</time>
      </trkpt>
      <trkpt lat="47.3729" lon="-2.45779">
        <ele>10.60000038147</ele>
        <time>2020-09-06T09:09:40.000Z</time>
      </trkpt>
      <trkpt lat="47.37282" lon="-2.45774">
        <ele>10</ele>
        <time>2020-09-06T09:09:41.000Z</time>
      </trkpt>
      <trkpt lat="47.37274" lon="-2.45767">
        <ele>9.6000003814697</ele>
        <time>2020-09-06T09:09:42.000Z</time>
      </trkpt>
      <trkpt lat="47.37266" lon="-2.45759">
        <ele>9.1999998092651</ele>
        <time>2020-09-06T09:09:43.000Z</time>
      </trkpt>
      <trkpt lat="47.37257" lon="-2.45751">
        <ele>8.8000001907349</ele>
        <time>2020-09-06T09:09:44.000Z</time>
      </trkpt>
      <trkpt lat="47.37212" lon="-2.45709">
        <ele>8.3999996185303</ele>
        <time>2020-09-06T09:09:49.000Z</time>
      </trkpt>
      <trkpt lat="47.37203" lon="-2.45701">
        <ele>7.8000001907349</ele>
        <time>2020-09-06T09:09:50.000Z</time>
      </trkpt>
      <trkpt lat="47.37194" lon="-2.45692">
        <ele>7.4000000953674</ele>
        <time>2020-09-06T09:09:51.000Z</time>
      </trkpt>
      <trkpt lat="47.37185" lon="-2.45684">
        <ele>7</ele>
        <time>2020-09-06T09:09:52.000Z</time>
      </trkpt>
      <trkpt lat="47.37175" lon="-2.45676">
        <ele>6.5999999046326</ele>
        <time>2020-09-06T09:09:53.000Z</time>
      </trkpt>
      <trkpt lat="47.37166" lon="-2.45668">
        <ele>6.1999998092651</ele>
        <time>2020-09-06T09:09:54.000Z</time>
      </trkpt>
      <trkpt lat="47.37157" lon="-2.45661">
        <ele>5.8000001907349</ele>
        <time>2020-09-06T09:09:55.000Z</time>
      </trkpt>
      <trkpt lat="47.37147" lon="-2.45655">
        <ele>5.1999998092651</ele>
        <time>2020-09-06T09:09:56.000Z</time>
      </trkpt>
      <trkpt lat="47.37137" lon="-2.45648">
        <ele>4.8000001907349</ele>
        <time>2020-09-06T09:09:57.000Z</time>
      </trkpt>
      <trkpt lat="47.37127" lon="-2.45642">
        <ele>4.1999998092651</ele>
        <time>2020-09-06T09:09:58.000Z</time>
      </trkpt>
      <trkpt lat="47.37117" lon="-2.45636">
        <ele>3.5999999046326</ele>
        <time>2020-09-06T09:09:59.000Z</time>
      </trkpt>
      <trkpt lat="47.37108" lon="-2.4563">
        <ele>3.2000000476837</ele>
        <time>2020-09-06T09:10:00.000Z</time>
      </trkpt>
      <trkpt lat="47.37098" lon="-2.45624">
        <ele>2.5999999046326</ele>
        <time>2020-09-06T09:10:01.000Z</time>
      </trkpt>
      <trkpt lat="47.3709" lon="-2.45619">
        <ele>2</ele>
        <time>2020-09-06T09:10:02.000Z</time>
      </trkpt>
      <trkpt lat="47.37051" lon="-2.45598">
        <ele>2</ele>
        <time>2020-09-06T09:10:07.000Z</time>
      </trkpt>
      <trkpt lat="47.3701" lon="-2.4558">
        <ele>2</ele>
        <time>2020-09-06T09:10:13.000Z</time>
      </trkpt>
      <trkpt lat="47.36984" lon="-2.45576">
        <ele>2</ele>
        <time>2020-09-06T09:10:17.000Z</time>
      </trkpt>
      <trkpt lat="47.36949" lon="-2.45573">
        <ele>2</ele>
        <time>2020-09-06T09:10:23.000Z</time>
      </trkpt>
      <trkpt lat="47.36943" lon="-2.45573">
        <ele>2.4000000953674</ele>
        <time>2020-09-06T09:10:24.000Z</time>
      </trkpt>
      <trkpt lat="47.36938" lon="-2.45573">
        <ele>2.7999999523163</ele>
        <time>2020-09-06T09:10:25.000Z</time>
      </trkpt>
      <trkpt lat="47.36933" lon="-2.45573">
        <ele>3.4000000953674</ele>
        <time>2020-09-06T09:10:26.000Z</time>
      </trkpt>
      <trkpt lat="47.36929" lon="-2.45573">
        <ele>3.7999999523163</ele>
        <time>2020-09-06T09:10:27.000Z</time>
      </trkpt>
      <trkpt lat="47.36924" lon="-2.45573">
        <ele>4.1999998092651</ele>
        <time>2020-09-06T09:10:28.000Z</time>
      </trkpt>
      <trkpt lat="47.36919" lon="-2.45572">
        <ele>4.1999998092651</ele>
        <time>2020-09-06T09:10:29.000Z</time>
      </trkpt>
      <trkpt lat="47.36906" lon="-2.45572">
        <ele>4.5999999046326</ele>
        <time>2020-09-06T09:10:32.000Z</time>
      </trkpt>
      <trkpt lat="47.36903" lon="-2.45571">
        <ele>5.1999998092651</ele>
        <time>2020-09-06T09:10:33.000Z</time>
      </trkpt>
      <trkpt lat="47.36899" lon="-2.45571">
        <ele>5.5999999046326</ele>
        <time>2020-09-06T09:10:34.000Z</time>
      </trkpt>
      <trkpt lat="47.36895" lon="-2.45571">
        <ele>6</ele>
        <time>2020-09-06T09:10:35.000Z</time>
      </trkpt>
      <trkpt lat="47.36891" lon="-2.4557">
        <ele>6.4000000953674</ele>
        <time>2020-09-06T09:10:36.000Z</time>
      </trkpt>
      <trkpt lat="47.36873" lon="-2.45568">
        <ele>6.4000000953674</ele>
        <time>2020-09-06T09:10:40.000Z</time>
      </trkpt>
      <trkpt lat="47.36864" lon="-2.4557">
        <ele>6.4000000953674</ele>
        <time>2020-09-06T09:10:42.000Z</time>
      </trkpt>
      <trkpt lat="47.36855" lon="-2.45575">
        <ele>6.4000000953674</ele>
        <time>2020-09-06T09:10:44.000Z</time>
      </trkpt>
      <trkpt lat="47.36846" lon="-2.45582">
        <ele>6.4000000953674</ele>
        <time>2020-09-06T09:10:46.000Z</time>
      </trkpt>
      <trkpt lat="47.36841" lon="-2.45586">
        <ele>6.4000000953674</ele>
        <time>2020-09-06T09:10:47.000Z</time>
      </trkpt>
      <trkpt lat="47.36829" lon="-2.45598">
        <ele>7</ele>
        <time>2020-09-06T09:10:50.000Z</time>
      </trkpt>
      <trkpt lat="47.36824" lon="-2.45603">
        <ele>7.4000000953674</ele>
        <time>2020-09-06T09:10:51.000Z</time>
      </trkpt>
      <trkpt lat="47.3682" lon="-2.45607">
        <ele>7.8000001907349</ele>
        <time>2020-09-06T09:10:52.000Z</time>
      </trkpt>
      <trkpt lat="47.36815" lon="-2.45611">
        <ele>8.1999998092651</ele>
        <time>2020-09-06T09:10:53.000Z</time>
      </trkpt>
      <trkpt lat="47.36811" lon="-2.45614">
        <ele>8.8000001907349</ele>
        <time>2020-09-06T09:10:54.000Z</time>
      </trkpt>
      <trkpt lat="47.36801" lon="-2.45621">
        <ele>8.8000001907349</ele>
        <time>2020-09-06T09:10:56.000Z</time>
      </trkpt>
      <trkpt lat="47.36772" lon="-2.45639">
        <ele>8.8000001907349</ele>
        <time>2020-09-06T09:11:02.000Z</time>
      </trkpt>
      <trkpt lat="47.3674" lon="-2.45649">
        <ele>8.8000001907349</ele>
        <time>2020-09-06T09:11:08.000Z</time>
      </trkpt>
      <trkpt lat="47.36688" lon="-2.45657">
        <ele>8.8000001907349</ele>
        <time>2020-09-06T09:11:17.000Z</time>
      </trkpt>
      <trkpt lat="47.36634" lon="-2.45665">
        <ele>8.8000001907349</ele>
        <time>2020-09-06T09:11:26.000Z</time>
      </trkpt>
      <trkpt lat="47.36584" lon="-2.45676">
        <ele>8.8000001907349</ele>
        <time>2020-09-06T09:11:34.000Z</time>
      </trkpt>
      <trkpt lat="47.36541" lon="-2.45683">
        <ele>8.8000001907349</ele>
        <time>2020-09-06T09:11:41.000Z</time>
      </trkpt>
      <trkpt lat="47.36535" lon="-2.45682">
        <ele>8.8000001907349</ele>
        <time>2020-09-06T09:11:42.000Z</time>
      </trkpt>
      <trkpt lat="47.36518" lon="-2.45679">
        <ele>8.8000001907349</ele>
        <time>2020-09-06T09:11:45.000Z</time>
      </trkpt>
      <trkpt lat="47.36488" lon="-2.45675">
        <ele>8.8000001907349</ele>
        <time>2020-09-06T09:11:50.000Z</time>
      </trkpt>
      <trkpt lat="47.36457" lon="-2.45672">
        <ele>8.8000001907349</ele>
        <time>2020-09-06T09:11:55.000Z</time>
      </trkpt>
      <trkpt lat="47.3641" lon="-2.4567">
        <ele>8.8000001907349</ele>
        <time>2020-09-06T09:12:02.000Z</time>
      </trkpt>
      <trkpt lat="47.36403" lon="-2.45671">
        <ele>8.8000001907349</ele>
        <time>2020-09-06T09:12:03.000Z</time>
      </trkpt>
      <trkpt lat="47.36391" lon="-2.45674">
        <ele>8.8000001907349</ele>
        <time>2020-09-06T09:12:05.000Z</time>
      </trkpt>
      <trkpt lat="47.36364" lon="-2.45683">
        <ele>8.8000001907349</ele>
        <time>2020-09-06T09:12:09.000Z</time>
      </trkpt>
      <trkpt lat="47.3635" lon="-2.45688">
        <ele>8.3999996185303</ele>
        <time>2020-09-06T09:12:11.000Z</time>
      </trkpt>
      <trkpt lat="47.36343" lon="-2.4569">
        <ele>8</ele>
        <time>2020-09-06T09:12:12.000Z</time>
      </trkpt>
      <trkpt lat="47.36336" lon="-2.45693">
        <ele>7.4000000953674</ele>
        <time>2020-09-06T09:12:13.000Z</time>
      </trkpt>
      <trkpt lat="47.36328" lon="-2.45697">
        <ele>7</ele>
        <time>2020-09-06T09:12:14.000Z</time>
      </trkpt>
      <trkpt lat="47.36321" lon="-2.45701">
        <ele>6.5999999046326</ele>
        <time>2020-09-06T09:12:15.000Z</time>
      </trkpt>
      <trkpt lat="47.36295" lon="-2.45719">
        <ele>6.5999999046326</ele>
        <time>2020-09-06T09:12:19.000Z</time>
      </trkpt>
      <trkpt lat="47.3629" lon="-2.45726">
        <ele>6.5999999046326</ele>
        <time>2020-09-06T09:12:20.000Z</time>
      </trkpt>
      <trkpt lat="47.36274" lon="-2.45753">
        <ele>6.5999999046326</ele>
        <time>2020-09-06T09:12:24.000Z</time>
      </trkpt>
      <trkpt lat="47.3626" lon="-2.4576">
        <ele>6.5999999046326</ele>
        <time>2020-09-06T09:12:27.000Z</time>
      </trkpt>
      <trkpt lat="47.36248" lon="-2.45744">
        <ele>6.5999999046326</ele>
        <time>2020-09-06T09:12:30.000Z</time>
      </trkpt>
      <trkpt lat="47.36231" lon="-2.45715">
        <ele>6.5999999046326</ele>
        <time>2020-09-06T09:12:34.000Z</time>
      </trkpt>
      <trkpt lat="47.36225" lon="-2.45711">
        <ele>6.5999999046326</ele>
        <time>2020-09-06T09:12:35.000Z</time>
      </trkpt>
      <trkpt lat="47.36215" lon="-2.45709">
        <ele>6.5999999046326</ele>
        <time>2020-09-06T09:12:37.000Z</time>
      </trkpt>
      <trkpt lat="47.36198" lon="-2.45715">
        <ele>6.5999999046326</ele>
        <time>2020-09-06T09:12:40.000Z</time>
      </trkpt>
      <trkpt lat="47.36186" lon="-2.45719">
        <ele>6.5999999046326</ele>
        <time>2020-09-06T09:12:42.000Z</time>
      </trkpt>
      <trkpt lat="47.3614" lon="-2.45733">
        <ele>6.5999999046326</ele>
        <time>2020-09-06T09:12:50.000Z</time>
      </trkpt>
      <trkpt lat="47.36117" lon="-2.45741">
        <ele>7</ele>
        <time>2020-09-06T09:12:54.000Z</time>
      </trkpt>
      <trkpt lat="47.36111" lon="-2.45744">
        <ele>7.4000000953674</ele>
        <time>2020-09-06T09:12:55.000Z</time>
      </trkpt>
      <trkpt lat="47.36106" lon="-2.45747">
        <ele>7.8000001907349</ele>
        <time>2020-09-06T09:12:56.000Z</time>
      </trkpt>
      <trkpt lat="47.36101" lon="-2.45751">
        <ele>8.8000001907349</ele>
        <time>2020-09-06T09:12:57.000Z</time>
      </trkpt>
      <trkpt lat="47.36095" lon="-2.45754">
        <ele>8.8000001907349</ele>
        <time>2020-09-06T09:12:58.000Z</time>
      </trkpt>
      <trkpt lat="47.36083" lon="-2.45754">
        <ele>8.8000001907349</ele>
        <time>2020-09-06T09:13:00.000Z</time>
      </trkpt>
      <trkpt lat="47.36072" lon="-2.45755">
        <ele>8.8000001907349</ele>
        <time>2020-09-06T09:13:02.000Z</time>
      </trkpt>
      <trkpt lat="47.36061" lon="-2.45759">
        <ele>8.8000001907349</ele>
        <time>2020-09-06T09:13:04.000Z</time>
      </trkpt>
      <trkpt lat="47.36033" lon="-2.45778">
        <ele>8.8000001907349</ele>
        <time>2020-09-06T09:13:09.000Z</time>
      </trkpt>
      <trkpt lat="47.36004" lon="-2.45796">
        <ele>8.8000001907349</ele>
        <time>2020-09-06T09:13:14.000Z</time>
      </trkpt>
      <trkpt lat="47.35998" lon="-2.45798">
        <ele>8.8000001907349</ele>
        <time>2020-09-06T09:13:15.000Z</time>
      </trkpt>
      <trkpt lat="47.35963" lon="-2.45812">
        <ele>8.8000001907349</ele>
        <time>2020-09-06T09:13:21.000Z</time>
      </trkpt>
      <trkpt lat="47.3595" lon="-2.45815">
        <ele>8.8000001907349</ele>
        <time>2020-09-06T09:13:23.000Z</time>
      </trkpt>
      <trkpt lat="47.35907" lon="-2.45823">
        <ele>8.8000001907349</ele>
        <time>2020-09-06T09:13:30.000Z</time>
      </trkpt>
      <trkpt lat="47.35871" lon="-2.45831">
        <ele>8.8000001907349</ele>
        <time>2020-09-06T09:13:36.000Z</time>
      </trkpt>
      <trkpt lat="47.35865" lon="-2.45833">
        <ele>9.1999998092651</ele>
        <time>2020-09-06T09:13:37.000Z</time>
      </trkpt>
      <trkpt lat="47.35859" lon="-2.45834">
        <ele>9.6000003814697</ele>
        <time>2020-09-06T09:13:38.000Z</time>
      </trkpt>
      <trkpt lat="47.35854" lon="-2.45836">
        <ele>10</ele>
        <time>2020-09-06T09:13:39.000Z</time>
      </trkpt>
      <trkpt lat="47.35848" lon="-2.45837">
        <ele>10.39999961853</ele>
        <time>2020-09-06T09:13:40.000Z</time>
      </trkpt>
      <trkpt lat="47.35843" lon="-2.45838">
        <ele>10.800000190735</ele>
        <time>2020-09-06T09:13:41.000Z</time>
      </trkpt>
      <trkpt lat="47.35832" lon="-2.45841">
        <ele>10.800000190735</ele>
        <time>2020-09-06T09:13:43.000Z</time>
      </trkpt>
      <trkpt lat="47.35805" lon="-2.45844">
        <ele>11.199999809265</ele>
        <time>2020-09-06T09:13:48.000Z</time>
      </trkpt>
      <trkpt lat="47.35801" lon="-2.45845">
        <ele>11.60000038147</ele>
        <time>2020-09-06T09:13:49.000Z</time>
      </trkpt>
      <trkpt lat="47.35796" lon="-2.45847">
        <ele>12</ele>
        <time>2020-09-06T09:13:50.000Z</time>
      </trkpt>
      <trkpt lat="47.35791" lon="-2.45849">
        <ele>12.39999961853</ele>
        <time>2020-09-06T09:13:51.000Z</time>
      </trkpt>
      <trkpt lat="47.35786" lon="-2.45851">
        <ele>12.800000190735</ele>
        <time>2020-09-06T09:13:52.000Z</time>
      </trkpt>
      <trkpt lat="47.3577" lon="-2.45854">
        <ele>12.800000190735</ele>
        <time>2020-09-06T09:13:55.000Z</time>
      </trkpt>
      <trkpt lat="47.35754" lon="-2.45857">
        <ele>12.800000190735</ele>
        <time>2020-09-06T09:13:58.000Z</time>
      </trkpt>
      <trkpt lat="47.35737" lon="-2.45857">
        <ele>13.39999961853</ele>
        <time>2020-09-06T09:14:01.000Z</time>
      </trkpt>
      <trkpt lat="47.35732" lon="-2.45857">
        <ele>13.800000190735</ele>
        <time>2020-09-06T09:14:02.000Z</time>
      </trkpt>
      <trkpt lat="47.35726" lon="-2.45857">
        <ele>14.199999809265</ele>
        <time>2020-09-06T09:14:03.000Z</time>
      </trkpt>
      <trkpt lat="47.3572" lon="-2.45857">
        <ele>14.60000038147</ele>
        <time>2020-09-06T09:14:04.000Z</time>
      </trkpt>
      <trkpt lat="47.35714" lon="-2.45856">
        <ele>15</ele>
        <time>2020-09-06T09:14:05.000Z</time>
      </trkpt>
      <trkpt lat="47.35696" lon="-2.45856">
        <ele>15</ele>
        <time>2020-09-06T09:14:08.000Z</time>
      </trkpt>
      <trkpt lat="47.35659" lon="-2.45856">
        <ele>15</ele>
        <time>2020-09-06T09:14:14.000Z</time>
      </trkpt>
      <trkpt lat="47.35641" lon="-2.45857">
        <ele>15.39999961853</ele>
        <time>2020-09-06T09:14:17.000Z</time>
      </trkpt>
      <trkpt lat="47.35635" lon="-2.45857">
        <ele>15.800000190735</ele>
        <time>2020-09-06T09:14:18.000Z</time>
      </trkpt>
      <trkpt lat="47.35628" lon="-2.45857">
        <ele>16.200000762939</ele>
        <time>2020-09-06T09:14:19.000Z</time>
      </trkpt>
      <trkpt lat="47.35622" lon="-2.45858">
        <ele>16.60000038147</ele>
        <time>2020-09-06T09:14:20.000Z</time>
      </trkpt>
      <trkpt lat="47.35616" lon="-2.45858">
        <ele>17</ele>
        <time>2020-09-06T09:14:21.000Z</time>
      </trkpt>
      <trkpt lat="47.35594" lon="-2.45872">
        <ele>17</ele>
        <time>2020-09-06T09:14:25.000Z</time>
      </trkpt>
      <trkpt lat="47.35589" lon="-2.45877">
        <ele>17</ele>
        <time>2020-09-06T09:14:26.000Z</time>
      </trkpt>
      <trkpt lat="47.35558" lon="-2.45901">
        <ele>17</ele>
        <time>2020-09-06T09:14:32.000Z</time>
      </trkpt>
      <trkpt lat="47.35543" lon="-2.45914">
        <ele>17</ele>
        <time>2020-09-06T09:14:35.000Z</time>
      </trkpt>
      <trkpt lat="47.35528" lon="-2.45925">
        <ele>17.39999961853</ele>
        <time>2020-09-06T09:14:38.000Z</time>
      </trkpt>
      <trkpt lat="47.35525" lon="-2.45932">
        <ele>17.799999237061</ele>
        <time>2020-09-06T09:14:39.000Z</time>
      </trkpt>
      <trkpt lat="47.35522" lon="-2.4594">
        <ele>18.200000762939</ele>
        <time>2020-09-06T09:14:40.000Z</time>
      </trkpt>
      <trkpt lat="47.3552" lon="-2.45949">
        <ele>18.60000038147</ele>
        <time>2020-09-06T09:14:41.000Z</time>
      </trkpt>
      <trkpt lat="47.35519" lon="-2.45958">
        <ele>19</ele>
        <time>2020-09-06T09:14:42.000Z</time>
      </trkpt>
      <trkpt lat="47.35514" lon="-2.45982">
        <ele>19</ele>
        <time>2020-09-06T09:14:45.000Z</time>
      </trkpt>
      <trkpt lat="47.35508" lon="-2.45996">
        <ele>19</ele>
        <time>2020-09-06T09:14:47.000Z</time>
      </trkpt>
      <trkpt lat="47.3549" lon="-2.46017">
        <ele>19</ele>
        <time>2020-09-06T09:14:51.000Z</time>
      </trkpt>
      <trkpt lat="47.35485" lon="-2.46022">
        <ele>19</ele>
        <time>2020-09-06T09:14:52.000Z</time>
      </trkpt>
      <trkpt lat="47.35451" lon="-2.46046">
        <ele>19</ele>
        <time>2020-09-06T09:14:58.000Z</time>
      </trkpt>
      <trkpt lat="47.35413" lon="-2.46079">
        <ele>19</ele>
        <time>2020-09-06T09:15:05.000Z</time>
      </trkpt>
      <trkpt lat="47.35382" lon="-2.46111">
        <ele>19</ele>
        <time>2020-09-06T09:15:11.000Z</time>
      </trkpt>
      <trkpt lat="47.35346" lon="-2.46134">
        <ele>19</ele>
        <time>2020-09-06T09:15:17.000Z</time>
      </trkpt>
      <trkpt lat="47.35309" lon="-2.46158">
        <ele>19</ele>
        <time>2020-09-06T09:15:23.000Z</time>
      </trkpt>
      <trkpt lat="47.35281" lon="-2.46185">
        <ele>19</ele>
        <time>2020-09-06T09:15:28.000Z</time>
      </trkpt>
      <trkpt lat="47.35252" lon="-2.4621">
        <ele>19</ele>
        <time>2020-09-06T09:15:33.000Z</time>
      </trkpt>
      <trkpt lat="47.35224" lon="-2.46236">
        <ele>19</ele>
        <time>2020-09-06T09:15:38.000Z</time>
      </trkpt>
      <trkpt lat="47.35194" lon="-2.46269">
        <ele>19</ele>
        <time>2020-09-06T09:15:44.000Z</time>
      </trkpt>
      <trkpt lat="47.35155" lon="-2.46303">
        <ele>19</ele>
        <time>2020-09-06T09:15:51.000Z</time>
      </trkpt>
      <trkpt lat="47.35125" lon="-2.46336">
        <ele>19</ele>
        <time>2020-09-06T09:15:57.000Z</time>
      </trkpt>
      <trkpt lat="47.35108" lon="-2.46365">
        <ele>19</ele>
        <time>2020-09-06T09:16:01.000Z</time>
      </trkpt>
      <trkpt lat="47.3509" lon="-2.46377">
        <ele>19</ele>
        <time>2020-09-06T09:16:04.000Z</time>
      </trkpt>
      <trkpt lat="47.35084" lon="-2.46381">
        <ele>19</ele>
        <time>2020-09-06T09:16:05.000Z</time>
      </trkpt>
      <trkpt lat="47.35039" lon="-2.46406">
        <ele>19</ele>
        <time>2020-09-06T09:16:12.000Z</time>
      </trkpt>
      <trkpt lat="47.34995" lon="-2.46426">
        <ele>19</ele>
        <time>2020-09-06T09:16:19.000Z</time>
      </trkpt>
      <trkpt lat="47.34953" lon="-2.46445">
        <ele>19</ele>
        <time>2020-09-06T09:16:26.000Z</time>
      </trkpt>
      <trkpt lat="47.34916" lon="-2.46461">
        <ele>19</ele>
        <time>2020-09-06T09:16:32.000Z</time>
      </trkpt>
      <trkpt lat="47.34887" lon="-2.4647">
        <ele>19</ele>
        <time>2020-09-06T09:16:37.000Z</time>
      </trkpt>
      <trkpt lat="47.34872" lon="-2.4648">
        <ele>19</ele>
        <time>2020-09-06T09:16:40.000Z</time>
      </trkpt>
      <trkpt lat="47.34862" lon="-2.46485">
        <ele>19</ele>
        <time>2020-09-06T09:16:42.000Z</time>
      </trkpt>
      <trkpt lat="47.34853" lon="-2.46478">
        <ele>19</ele>
        <time>2020-09-06T09:16:44.000Z</time>
      </trkpt>
      <trkpt lat="47.34846" lon="-2.46452">
        <ele>19</ele>
        <time>2020-09-06T09:16:47.000Z</time>
      </trkpt>
      <trkpt lat="47.34839" lon="-2.46393">
        <ele>19</ele>
        <time>2020-09-06T09:16:53.000Z</time>
      </trkpt>
      <trkpt lat="47.34829" lon="-2.46325">
        <ele>19</ele>
        <time>2020-09-06T09:17:00.000Z</time>
      </trkpt>
      <trkpt lat="47.34824" lon="-2.46274">
        <ele>19</ele>
        <time>2020-09-06T09:17:06.000Z</time>
      </trkpt>
      <trkpt lat="47.34822" lon="-2.46268">
        <ele>19</ele>
        <time>2020-09-06T09:17:07.000Z</time>
      </trkpt>
      <trkpt lat="47.34815" lon="-2.46258">
        <ele>19</ele>
        <time>2020-09-06T09:17:09.000Z</time>
      </trkpt>
      <trkpt lat="47.348" lon="-2.46257">
        <ele>19</ele>
        <time>2020-09-06T09:17:12.000Z</time>
      </trkpt>
      <trkpt lat="47.34776" lon="-2.46264">
        <ele>19</ele>
        <time>2020-09-06T09:17:16.000Z</time>
      </trkpt>
      <trkpt lat="47.3477" lon="-2.46264">
        <ele>19</ele>
        <time>2020-09-06T09:17:17.000Z</time>
      </trkpt>
      <trkpt lat="47.34726" lon="-2.46275">
        <ele>19</ele>
        <time>2020-09-06T09:17:24.000Z</time>
      </trkpt>
      <trkpt lat="47.34688" lon="-2.4629">
        <ele>19</ele>
        <time>2020-09-06T09:17:30.000Z</time>
      </trkpt>
      <trkpt lat="47.34649" lon="-2.46306">
        <ele>19</ele>
        <time>2020-09-06T09:17:36.000Z</time>
      </trkpt>
      <trkpt lat="47.34592" lon="-2.4633">
        <ele>19</ele>
        <time>2020-09-06T09:17:45.000Z</time>
      </trkpt>
      <trkpt lat="47.34568" lon="-2.46344">
        <ele>19</ele>
        <time>2020-09-06T09:17:49.000Z</time>
      </trkpt>
      <trkpt lat="47.34558" lon="-2.46354">
        <ele>19</ele>
        <time>2020-09-06T09:17:51.000Z</time>
      </trkpt>
      <trkpt lat="47.34548" lon="-2.46365">
        <ele>20</ele>
        <time>2020-09-06T09:17:53.000Z</time>
      </trkpt>
      <trkpt lat="47.34544" lon="-2.4637">
        <ele>20.39999961853</ele>
        <time>2020-09-06T09:17:54.000Z</time>
      </trkpt>
      <trkpt lat="47.34539" lon="-2.46375">
        <ele>20.799999237061</ele>
        <time>2020-09-06T09:17:55.000Z</time>
      </trkpt>
      <trkpt lat="47.34534" lon="-2.4638">
        <ele>21.200000762939</ele>
        <time>2020-09-06T09:17:56.000Z</time>
      </trkpt>
      <trkpt lat="47.34529" lon="-2.46384">
        <ele>21.200000762939</ele>
        <time>2020-09-06T09:17:57.000Z</time>
      </trkpt>
      <trkpt lat="47.34513" lon="-2.46396">
        <ele>21.200000762939</ele>
        <time>2020-09-06T09:18:00.000Z</time>
      </trkpt>
      <trkpt lat="47.34498" lon="-2.46403">
        <ele>21.200000762939</ele>
        <time>2020-09-06T09:18:03.000Z</time>
      </trkpt>
      <trkpt lat="47.34469" lon="-2.46415">
        <ele>21.200000762939</ele>
        <time>2020-09-06T09:18:09.000Z</time>
      </trkpt>
      <trkpt lat="47.34464" lon="-2.46417">
        <ele>21.200000762939</ele>
        <time>2020-09-06T09:18:10.000Z</time>
      </trkpt>
      <trkpt lat="47.34443" lon="-2.46426">
        <ele>21.200000762939</ele>
        <time>2020-09-06T09:18:14.000Z</time>
      </trkpt>
      <trkpt lat="47.34406" lon="-2.46443">
        <ele>21.200000762939</ele>
        <time>2020-09-06T09:18:20.000Z</time>
      </trkpt>
      <trkpt lat="47.34371" lon="-2.46462">
        <ele>21.200000762939</ele>
        <time>2020-09-06T09:18:26.000Z</time>
      </trkpt>
      <trkpt lat="47.34365" lon="-2.46464">
        <ele>21.200000762939</ele>
        <time>2020-09-06T09:18:27.000Z</time>
      </trkpt>
      <trkpt lat="47.34341" lon="-2.46472">
        <ele>21.200000762939</ele>
        <time>2020-09-06T09:18:31.000Z</time>
      </trkpt>
      <trkpt lat="47.34312" lon="-2.46479">
        <ele>21.200000762939</ele>
        <time>2020-09-06T09:18:36.000Z</time>
      </trkpt>
      <trkpt lat="47.34306" lon="-2.46479">
        <ele>21.200000762939</ele>
        <time>2020-09-06T09:18:37.000Z</time>
      </trkpt>
      <trkpt lat="47.3427" lon="-2.46481">
        <ele>21.200000762939</ele>
        <time>2020-09-06T09:18:43.000Z</time>
      </trkpt>
      <trkpt lat="47.34227" lon="-2.46484">
        <ele>21.200000762939</ele>
        <time>2020-09-06T09:18:50.000Z</time>
      </trkpt>
      <trkpt lat="47.3422" lon="-2.46485">
        <ele>21.60000038147</ele>
        <time>2020-09-06T09:18:51.000Z</time>
      </trkpt>
      <trkpt lat="47.34214" lon="-2.46486">
        <ele>22</ele>
        <time>2020-09-06T09:18:52.000Z</time>
      </trkpt>
      <trkpt lat="47.34208" lon="-2.46486">
        <ele>22.39999961853</ele>
        <time>2020-09-06T09:18:53.000Z</time>
      </trkpt>
      <trkpt lat="47.34202" lon="-2.46487">
        <ele>23</ele>
        <time>2020-09-06T09:18:54.000Z</time>
      </trkpt>
      <trkpt lat="47.34195" lon="-2.46487">
        <ele>23.39999961853</ele>
        <time>2020-09-06T09:18:55.000Z</time>
      </trkpt>
      <trkpt lat="47.34182" lon="-2.46489">
        <ele>23.39999961853</ele>
        <time>2020-09-06T09:18:57.000Z</time>
      </trkpt>
      <trkpt lat="47.3417" lon="-2.4649">
        <ele>23.39999961853</ele>
        <time>2020-09-06T09:18:59.000Z</time>
      </trkpt>
      <trkpt lat="47.34145" lon="-2.4649">
        <ele>23.39999961853</ele>
        <time>2020-09-06T09:19:03.000Z</time>
      </trkpt>
      <trkpt lat="47.34104" lon="-2.46489">
        <ele>23.39999961853</ele>
        <time>2020-09-06T09:19:10.000Z</time>
      </trkpt>
      <trkpt lat="47.34085" lon="-2.4649">
        <ele>23.39999961853</ele>
        <time>2020-09-06T09:19:13.000Z</time>
      </trkpt>
      <trkpt lat="47.34068" lon="-2.46497">
        <ele>23.39999961853</ele>
        <time>2020-09-06T09:19:16.000Z</time>
      </trkpt>
      <trkpt lat="47.34026" lon="-2.46522">
        <ele>23.39999961853</ele>
        <time>2020-09-06T09:19:23.000Z</time>
      </trkpt>
      <trkpt lat="47.33986" lon="-2.46552">
        <ele>23.39999961853</ele>
        <time>2020-09-06T09:19:30.000Z</time>
      </trkpt>
      <trkpt lat="47.33974" lon="-2.46561">
        <ele>24.200000762939</ele>
        <time>2020-09-06T09:19:32.000Z</time>
      </trkpt>
      <trkpt lat="47.33968" lon="-2.46565">
        <ele>24.60000038147</ele>
        <time>2020-09-06T09:19:33.000Z</time>
      </trkpt>
      <trkpt lat="47.33963" lon="-2.4657">
        <ele>25</ele>
        <time>2020-09-06T09:19:34.000Z</time>
      </trkpt>
      <trkpt lat="47.33957" lon="-2.46574">
        <ele>25.39999961853</ele>
        <time>2020-09-06T09:19:35.000Z</time>
      </trkpt>
      <trkpt lat="47.33945" lon="-2.46583">
        <ele>25.39999961853</ele>
        <time>2020-09-06T09:19:37.000Z</time>
      </trkpt>
      <trkpt lat="47.33907" lon="-2.46618">
        <ele>25.39999961853</ele>
        <time>2020-09-06T09:19:44.000Z</time>
      </trkpt>
      <trkpt lat="47.3387" lon="-2.46655">
        <ele>25.39999961853</ele>
        <time>2020-09-06T09:19:51.000Z</time>
      </trkpt>
      <trkpt lat="47.33827" lon="-2.46685">
        <ele>25.39999961853</ele>
        <time>2020-09-06T09:19:58.000Z</time>
      </trkpt>
      <trkpt lat="47.33798" lon="-2.467">
        <ele>25.39999961853</ele>
        <time>2020-09-06T09:20:03.000Z</time>
      </trkpt>
      <trkpt lat="47.33792" lon="-2.46701">
        <ele>25.39999961853</ele>
        <time>2020-09-06T09:20:04.000Z</time>
      </trkpt>
      <trkpt lat="47.33774" lon="-2.46699">
        <ele>25.39999961853</ele>
        <time>2020-09-06T09:20:07.000Z</time>
      </trkpt>
      <trkpt lat="47.33763" lon="-2.46696">
        <ele>25.39999961853</ele>
        <time>2020-09-06T09:20:09.000Z</time>
      </trkpt>
      <trkpt lat="47.33737" lon="-2.46688">
        <ele>25.39999961853</ele>
        <time>2020-09-06T09:20:14.000Z</time>
      </trkpt>
      <trkpt lat="47.33733" lon="-2.46688">
        <ele>25.39999961853</ele>
        <time>2020-09-06T09:20:15.000Z</time>
      </trkpt>
      <trkpt lat="47.33723" lon="-2.46691">
        <ele>25.39999961853</ele>
        <time>2020-09-06T09:20:18.000Z</time>
      </trkpt>
      <trkpt lat="47.33721" lon="-2.46693">
        <ele>25.39999961853</ele>
        <time>2020-09-06T09:20:19.000Z</time>
      </trkpt>
      <trkpt lat="47.3372" lon="-2.46694">
        <ele>25.39999961853</ele>
        <time>2020-09-06T09:20:21.000Z</time>
      </trkpt>
      <trkpt lat="47.33719" lon="-2.46695">
        <ele>25.39999961853</ele>
        <time>2020-09-06T09:20:26.000Z</time>
      </trkpt>
      <trkpt lat="47.33717" lon="-2.46696">
        <ele>25.39999961853</ele>
        <time>2020-09-06T09:20:27.000Z</time>
      </trkpt>
      <trkpt lat="47.33705" lon="-2.46702">
        <ele>25.39999961853</ele>
        <time>2020-09-06T09:20:31.000Z</time>
      </trkpt>
      <trkpt lat="47.33675" lon="-2.46717">
        <ele>25.39999961853</ele>
        <time>2020-09-06T09:20:38.000Z</time>
      </trkpt>
      <trkpt lat="47.33664" lon="-2.46722">
        <ele>25.39999961853</ele>
        <time>2020-09-06T09:20:40.000Z</time>
      </trkpt>
      <trkpt lat="47.33652" lon="-2.46731">
        <ele>25.39999961853</ele>
        <time>2020-09-06T09:20:42.000Z</time>
      </trkpt>
      <trkpt lat="47.3364" lon="-2.46737">
        <ele>25</ele>
        <time>2020-09-06T09:20:44.000Z</time>
      </trkpt>
      <trkpt lat="47.33635" lon="-2.4674">
        <ele>24</ele>
        <time>2020-09-06T09:20:45.000Z</time>
      </trkpt>
      <trkpt lat="47.33631" lon="-2.46743">
        <ele>23.39999961853</ele>
        <time>2020-09-06T09:20:46.000Z</time>
      </trkpt>
      <trkpt lat="47.33627" lon="-2.46745">
        <ele>23</ele>
        <time>2020-09-06T09:20:47.000Z</time>
      </trkpt>
      <trkpt lat="47.33622" lon="-2.46745">
        <ele>22.39999961853</ele>
        <time>2020-09-06T09:20:48.000Z</time>
      </trkpt>
      <trkpt lat="47.33619" lon="-2.46742">
        <ele>22</ele>
        <time>2020-09-06T09:20:49.000Z</time>
      </trkpt>
      <trkpt lat="47.33618" lon="-2.46737">
        <ele>21.39999961853</ele>
        <time>2020-09-06T09:20:50.000Z</time>
      </trkpt>
      <trkpt lat="47.33617" lon="-2.46732">
        <ele>21</ele>
        <time>2020-09-06T09:20:51.000Z</time>
      </trkpt>
      <trkpt lat="47.33616" lon="-2.46726">
        <ele>21</ele>
        <time>2020-09-06T09:20:52.000Z</time>
      </trkpt>
      <trkpt lat="47.33613" lon="-2.46714">
        <ele>21</ele>
        <time>2020-09-06T09:20:54.000Z</time>
      </trkpt>
      <trkpt lat="47.33607" lon="-2.467">
        <ele>21</ele>
        <time>2020-09-06T09:20:56.000Z</time>
      </trkpt>
      <trkpt lat="47.33591" lon="-2.46656">
        <ele>21</ele>
        <time>2020-09-06T09:21:02.000Z</time>
      </trkpt>
      <trkpt lat="47.33578" lon="-2.4662">
        <ele>21</ele>
        <time>2020-09-06T09:21:07.000Z</time>
      </trkpt>
      <trkpt lat="47.33575" lon="-2.46614">
        <ele>21</ele>
        <time>2020-09-06T09:21:08.000Z</time>
      </trkpt>
      <trkpt lat="47.33565" lon="-2.46591">
        <ele>21</ele>
        <time>2020-09-06T09:21:12.000Z</time>
      </trkpt>
      <trkpt lat="47.33561" lon="-2.4659">
        <ele>21</ele>
        <time>2020-09-06T09:21:13.000Z</time>
      </trkpt>
      <trkpt lat="47.33552" lon="-2.46598">
        <ele>21</ele>
        <time>2020-09-06T09:21:15.000Z</time>
      </trkpt>
      <trkpt lat="47.33548" lon="-2.46602">
        <ele>21</ele>
        <time>2020-09-06T09:21:16.000Z</time>
      </trkpt>
      <trkpt lat="47.33543" lon="-2.46606">
        <ele>20.39999961853</ele>
        <time>2020-09-06T09:21:17.000Z</time>
      </trkpt>
      <trkpt lat="47.33538" lon="-2.46611">
        <ele>20</ele>
        <time>2020-09-06T09:21:18.000Z</time>
      </trkpt>
      <trkpt lat="47.33533" lon="-2.46616">
        <ele>19.60000038147</ele>
        <time>2020-09-06T09:21:19.000Z</time>
      </trkpt>
      <trkpt lat="47.33527" lon="-2.4662">
        <ele>19.200000762939</ele>
        <time>2020-09-06T09:21:20.000Z</time>
      </trkpt>
      <trkpt lat="47.3352" lon="-2.46624">
        <ele>18.799999237061</ele>
        <time>2020-09-06T09:21:21.000Z</time>
      </trkpt>
      <trkpt lat="47.33499" lon="-2.46634">
        <ele>18.799999237061</ele>
        <time>2020-09-06T09:21:24.000Z</time>
      </trkpt>
      <trkpt lat="47.33484" lon="-2.46641">
        <ele>18.39999961853</ele>
        <time>2020-09-06T09:21:26.000Z</time>
      </trkpt>
      <trkpt lat="47.33477" lon="-2.46644">
        <ele>18</ele>
        <time>2020-09-06T09:21:27.000Z</time>
      </trkpt>
      <trkpt lat="47.33468" lon="-2.46647">
        <ele>17.60000038147</ele>
        <time>2020-09-06T09:21:28.000Z</time>
      </trkpt>
      <trkpt lat="47.3346" lon="-2.46651">
        <ele>17.200000762939</ele>
        <time>2020-09-06T09:21:29.000Z</time>
      </trkpt>
      <trkpt lat="47.33452" lon="-2.46655">
        <ele>16.799999237061</ele>
        <time>2020-09-06T09:21:30.000Z</time>
      </trkpt>
      <trkpt lat="47.33437" lon="-2.46666">
        <ele>16.200000762939</ele>
        <time>2020-09-06T09:21:32.000Z</time>
      </trkpt>
      <trkpt lat="47.33429" lon="-2.46672">
        <ele>15.800000190735</ele>
        <time>2020-09-06T09:21:33.000Z</time>
      </trkpt>
      <trkpt lat="47.33421" lon="-2.46681">
        <ele>15.39999961853</ele>
        <time>2020-09-06T09:21:34.000Z</time>
      </trkpt>
      <trkpt lat="47.33413" lon="-2.4669">
        <ele>14.39999961853</ele>
        <time>2020-09-06T09:21:35.000Z</time>
      </trkpt>
      <trkpt lat="47.33406" lon="-2.46701">
        <ele>14</ele>
        <time>2020-09-06T09:21:36.000Z</time>
      </trkpt>
      <trkpt lat="47.334" lon="-2.46711">
        <ele>13.39999961853</ele>
        <time>2020-09-06T09:21:37.000Z</time>
      </trkpt>
      <trkpt lat="47.33393" lon="-2.46721">
        <ele>13</ele>
        <time>2020-09-06T09:21:38.000Z</time>
      </trkpt>
      <trkpt lat="47.33387" lon="-2.46732">
        <ele>12.60000038147</ele>
        <time>2020-09-06T09:21:39.000Z</time>
      </trkpt>
      <trkpt lat="47.33381" lon="-2.46742">
        <ele>12</ele>
        <time>2020-09-06T09:21:40.000Z</time>
      </trkpt>
      <trkpt lat="47.33358" lon="-2.46782">
        <ele>11.60000038147</ele>
        <time>2020-09-06T09:21:44.000Z</time>
      </trkpt>
      <trkpt lat="47.33353" lon="-2.46791">
        <ele>11</ele>
        <time>2020-09-06T09:21:45.000Z</time>
      </trkpt>
      <trkpt lat="47.33348" lon="-2.46801">
        <ele>10.60000038147</ele>
        <time>2020-09-06T09:21:46.000Z</time>
      </trkpt>
      <trkpt lat="47.33344" lon="-2.4681">
        <ele>10</ele>
        <time>2020-09-06T09:21:47.000Z</time>
      </trkpt>
      <trkpt lat="47.3334" lon="-2.46818">
        <ele>9.1999998092651</ele>
        <time>2020-09-06T09:21:48.000Z</time>
      </trkpt>
      <trkpt lat="47.33335" lon="-2.46826">
        <ele>8.6000003814697</ele>
        <time>2020-09-06T09:21:49.000Z</time>
      </trkpt>
      <trkpt lat="47.33331" lon="-2.46833">
        <ele>8</ele>
        <time>2020-09-06T09:21:50.000Z</time>
      </trkpt>
      <trkpt lat="47.33326" lon="-2.46841">
        <ele>7.4000000953674</ele>
        <time>2020-09-06T09:21:51.000Z</time>
      </trkpt>
      <trkpt lat="47.33318" lon="-2.46854">
        <ele>7</ele>
        <time>2020-09-06T09:21:53.000Z</time>
      </trkpt>
      <trkpt lat="47.33315" lon="-2.46859">
        <ele>6.5999999046326</ele>
        <time>2020-09-06T09:21:54.000Z</time>
      </trkpt>
      <trkpt lat="47.33313" lon="-2.46864">
        <ele>6.1999998092651</ele>
        <time>2020-09-06T09:21:55.000Z</time>
      </trkpt>
      <trkpt lat="47.3331" lon="-2.46867">
        <ele>5.8000001907349</ele>
        <time>2020-09-06T09:21:56.000Z</time>
      </trkpt>
      <trkpt lat="47.33307" lon="-2.46868">
        <ele>5.4000000953674</ele>
        <time>2020-09-06T09:21:57.000Z</time>
      </trkpt>
      <trkpt lat="47.33304" lon="-2.46866">
        <ele>4.8000001907349</ele>
        <time>2020-09-06T09:21:58.000Z</time>
      </trkpt>
      <trkpt lat="47.33301" lon="-2.46862">
        <ele>4</ele>
        <time>2020-09-06T09:21:59.000Z</time>
      </trkpt>
      <trkpt lat="47.33299" lon="-2.46857">
        <ele>3.5999999046326</ele>
        <time>2020-09-06T09:22:00.000Z</time>
      </trkpt>
      <trkpt lat="47.33297" lon="-2.46853">
        <ele>3.2000000476837</ele>
        <time>2020-09-06T09:22:01.000Z</time>
      </trkpt>
      <trkpt lat="47.33286" lon="-2.4682">
        <ele>3.2000000476837</ele>
        <time>2020-09-06T09:22:07.000Z</time>
      </trkpt>
      <trkpt lat="47.3327" lon="-2.46785">
        <ele>3.2000000476837</ele>
        <time>2020-09-06T09:22:14.000Z</time>
      </trkpt>
      <trkpt lat="47.33258" lon="-2.46781">
        <ele>3.2000000476837</ele>
        <time>2020-09-06T09:22:17.000Z</time>
      </trkpt>
      <trkpt lat="47.33254" lon="-2.46782">
        <ele>3.2000000476837</ele>
        <time>2020-09-06T09:22:18.000Z</time>
      </trkpt>
      <trkpt lat="47.33228" lon="-2.46791">
        <ele>3.2000000476837</ele>
        <time>2020-09-06T09:22:23.000Z</time>
      </trkpt>
      <trkpt lat="47.33222" lon="-2.46792">
        <ele>3.2000000476837</ele>
        <time>2020-09-06T09:22:24.000Z</time>
      </trkpt>
      <trkpt lat="47.33206" lon="-2.46781">
        <ele>3.2000000476837</ele>
        <time>2020-09-06T09:22:27.000Z</time>
      </trkpt>
      <trkpt lat="47.33191" lon="-2.46763">
        <ele>3.2000000476837</ele>
        <time>2020-09-06T09:22:30.000Z</time>
      </trkpt>
      <trkpt lat="47.33182" lon="-2.4675">
        <ele>3.2000000476837</ele>
        <time>2020-09-06T09:22:32.000Z</time>
      </trkpt>
      <trkpt lat="47.33163" lon="-2.46725">
        <ele>2.7999999523163</ele>
        <time>2020-09-06T09:22:36.000Z</time>
      </trkpt>
      <trkpt lat="47.33158" lon="-2.46718">
        <ele>2.4000000953674</ele>
        <time>2020-09-06T09:22:37.000Z</time>
      </trkpt>
      <trkpt lat="47.33153" lon="-2.46711">
        <ele>1.7999999523163</ele>
        <time>2020-09-06T09:22:38.000Z</time>
      </trkpt>
      <trkpt lat="47.33149" lon="-2.46704">
        <ele>1.3999999761581</ele>
        <time>2020-09-06T09:22:39.000Z</time>
      </trkpt>
      <trkpt lat="47.33144" lon="-2.46698">
        <ele>1</ele>
        <time>2020-09-06T09:22:40.000Z</time>
      </trkpt>
      <trkpt lat="47.3314" lon="-2.4669">
        <ele>1</ele>
        <time>2020-09-06T09:22:41.000Z</time>
      </trkpt>
      <trkpt lat="47.33124" lon="-2.4666">
        <ele>1</ele>
        <time>2020-09-06T09:22:45.000Z</time>
      </trkpt>
      <trkpt lat="47.33101" lon="-2.46615">
        <ele>1</ele>
        <time>2020-09-06T09:22:51.000Z</time>
      </trkpt>
      <trkpt lat="47.33084" lon="-2.46561">
        <ele>0.60000002384186</ele>
        <time>2020-09-06T09:22:57.000Z</time>
      </trkpt>
      <trkpt lat="47.33082" lon="-2.46552">
        <ele>0.20000000298023</ele>
        <time>2020-09-06T09:22:58.000Z</time>
      </trkpt>
      <trkpt lat="47.33081" lon="-2.46545">
        <ele>-0.20000000298023</ele>
        <time>2020-09-06T09:22:59.000Z</time>
      </trkpt>
      <trkpt lat="47.33079" lon="-2.46538">
        <ele>-0.60000002384186</ele>
        <time>2020-09-06T09:23:00.000Z</time>
      </trkpt>
      <trkpt lat="47.33078" lon="-2.46532">
        <ele>-1.2000000476837</ele>
        <time>2020-09-06T09:23:01.000Z</time>
      </trkpt>
      <trkpt lat="47.33076" lon="-2.46527">
        <ele>-1.2000000476837</ele>
        <time>2020-09-06T09:23:02.000Z</time>
      </trkpt>
      <trkpt lat="47.33071" lon="-2.46523">
        <ele>-1.2000000476837</ele>
        <time>2020-09-06T09:23:04.000Z</time>
      </trkpt>
      <trkpt lat="47.33067" lon="-2.46524">
        <ele>-1.2000000476837</ele>
        <time>2020-09-06T09:23:05.000Z</time>
      </trkpt>
      <trkpt lat="47.33054" lon="-2.4653">
        <ele>-1.6000000238419</ele>
        <time>2020-09-06T09:23:08.000Z</time>
      </trkpt>
      <trkpt lat="47.33049" lon="-2.46532">
        <ele>-2</ele>
        <time>2020-09-06T09:23:09.000Z</time>
      </trkpt>
      <trkpt lat="47.33044" lon="-2.46533">
        <ele>-2.4000000953674</ele>
        <time>2020-09-06T09:23:10.000Z</time>
      </trkpt>
      <trkpt lat="47.33039" lon="-2.46534">
        <ele>-2.7999999523163</ele>
        <time>2020-09-06T09:23:11.000Z</time>
      </trkpt>
      <trkpt lat="47.33035" lon="-2.46536">
        <ele>-3.2000000476837</ele>
        <time>2020-09-06T09:23:12.000Z</time>
      </trkpt>
      <trkpt lat="47.3303" lon="-2.46536">
        <ele>-3.2000000476837</ele>
        <time>2020-09-06T09:23:13.000Z</time>
      </trkpt>
      <trkpt lat="47.33018" lon="-2.46537">
        <ele>-3.2000000476837</ele>
        <time>2020-09-06T09:23:15.000Z</time>
      </trkpt>
      <trkpt lat="47.33003" lon="-2.46544">
        <ele>-3.2000000476837</ele>
        <time>2020-09-06T09:23:18.000Z</time>
      </trkpt>
      <trkpt lat="47.32998" lon="-2.46546">
        <ele>-3.7999999523163</ele>
        <time>2020-09-06T09:23:19.000Z</time>
      </trkpt>
      <trkpt lat="47.32994" lon="-2.46549">
        <ele>-4.1999998092651</ele>
        <time>2020-09-06T09:23:20.000Z</time>
      </trkpt>
      <trkpt lat="47.3299" lon="-2.46551">
        <ele>-4.5999999046326</ele>
        <time>2020-09-06T09:23:21.000Z</time>
      </trkpt>
      <trkpt lat="47.32985" lon="-2.46553">
        <ele>-5</ele>
        <time>2020-09-06T09:23:22.000Z</time>
      </trkpt>
      <trkpt lat="47.3298" lon="-2.46555">
        <ele>-5.4000000953674</ele>
        <time>2020-09-06T09:23:23.000Z</time>
      </trkpt>
      <trkpt lat="47.32976" lon="-2.46556">
        <ele>-5.4000000953674</ele>
        <time>2020-09-06T09:23:24.000Z</time>
      </trkpt>
      <trkpt lat="47.32972" lon="-2.46558">
        <ele>-5.8000001907349</ele>
        <time>2020-09-06T09:23:25.000Z</time>
      </trkpt>
      <trkpt lat="47.32969" lon="-2.46559">
        <ele>-6.1999998092651</ele>
        <time>2020-09-06T09:23:26.000Z</time>
      </trkpt>
      <trkpt lat="47.32966" lon="-2.4656">
        <ele>-6.8000001907349</ele>
        <time>2020-09-06T09:23:27.000Z</time>
      </trkpt>
      <trkpt lat="47.32963" lon="-2.46561">
        <ele>-7.1999998092651</ele>
        <time>2020-09-06T09:23:28.000Z</time>
      </trkpt>
      <trkpt lat="47.32961" lon="-2.46561">
        <ele>-7.8000001907349</ele>
        <time>2020-09-06T09:23:29.000Z</time>
      </trkpt>
      <trkpt lat="47.3296" lon="-2.46561">
        <ele>-8.3999996185303</ele>
        <time>2020-09-06T09:23:30.000Z</time>
      </trkpt>
      <trkpt lat="47.32959" lon="-2.46561">
        <ele>-8.8000001907349</ele>
        <time>2020-09-06T09:23:31.000Z</time>
      </trkpt>
      <trkpt lat="47.32959" lon="-2.46561">
        <ele>-9.3999996185303</ele>
        <time>2020-09-06T09:23:32.000Z</time>
      </trkpt>
      <trkpt lat="47.32957" lon="-2.46558">
        <ele>-9.8000001907349</ele>
        <time>2020-09-06T09:23:40.000Z</time>
      </trkpt>
      <trkpt lat="47.32956" lon="-2.46538">
        <ele>-9.8000001907349</ele>
        <time>2020-09-06T09:23:44.000Z</time>
      </trkpt>
      <trkpt lat="47.32958" lon="-2.46494">
        <ele>-9.8000001907349</ele>
        <time>2020-09-06T09:23:50.000Z</time>
      </trkpt>
      <trkpt lat="47.32959" lon="-2.4648">
        <ele>-9.8000001907349</ele>
        <time>2020-09-06T09:23:52.000Z</time>
      </trkpt>
      <trkpt lat="47.3296" lon="-2.46453">
        <ele>-9.8000001907349</ele>
        <time>2020-09-06T09:23:56.000Z</time>
      </trkpt>
      <trkpt lat="47.32961" lon="-2.4644">
        <ele>-9.3999996185303</ele>
        <time>2020-09-06T09:23:58.000Z</time>
      </trkpt>
      <trkpt lat="47.32961" lon="-2.46434">
        <ele>-9</ele>
        <time>2020-09-06T09:23:59.000Z</time>
      </trkpt>
      <trkpt lat="47.32961" lon="-2.46428">
        <ele>-8.3999996185303</ele>
        <time>2020-09-06T09:24:00.000Z</time>
      </trkpt>
      <trkpt lat="47.32962" lon="-2.46421">
        <ele>-8</ele>
        <time>2020-09-06T09:24:01.000Z</time>
      </trkpt>
      <trkpt lat="47.32962" lon="-2.46415">
        <ele>-7.5999999046326</ele>
        <time>2020-09-06T09:24:02.000Z</time>
      </trkpt>
      <trkpt lat="47.32962" lon="-2.46409">
        <ele>-7.5999999046326</ele>
        <time>2020-09-06T09:24:03.000Z</time>
      </trkpt>
      <trkpt lat="47.32962" lon="-2.46403">
        <ele>-6.5999999046326</ele>
        <time>2020-09-06T09:24:04.000Z</time>
      </trkpt>
      <trkpt lat="47.32962" lon="-2.46398">
        <ele>-6</ele>
        <time>2020-09-06T09:24:05.000Z</time>
      </trkpt>
      <trkpt lat="47.32962" lon="-2.46392">
        <ele>-5.5999999046326</ele>
        <time>2020-09-06T09:24:06.000Z</time>
      </trkpt>
      <trkpt lat="47.32962" lon="-2.46386">
        <ele>-5</ele>
        <time>2020-09-06T09:24:07.000Z</time>
      </trkpt>
      <trkpt lat="47.32961" lon="-2.46376">
        <ele>-4.5999999046326</ele>
        <time>2020-09-06T09:24:09.000Z</time>
      </trkpt>
      <trkpt lat="47.32961" lon="-2.46371">
        <ele>-4.1999998092651</ele>
        <time>2020-09-06T09:24:10.000Z</time>
      </trkpt>
      <trkpt lat="47.3296" lon="-2.46366">
        <ele>-3.5999999046326</ele>
        <time>2020-09-06T09:24:11.000Z</time>
      </trkpt>
      <trkpt lat="47.32959" lon="-2.46361">
        <ele>-3.2000000476837</ele>
        <time>2020-09-06T09:24:12.000Z</time>
      </trkpt>
      <trkpt lat="47.32958" lon="-2.46355">
        <ele>-2.7999999523163</ele>
        <time>2020-09-06T09:24:13.000Z</time>
      </trkpt>
      <trkpt lat="47.32957" lon="-2.4635">
        <ele>-2.2000000476837</ele>
        <time>2020-09-06T09:24:14.000Z</time>
      </trkpt>
      <trkpt lat="47.32956" lon="-2.46345">
        <ele>-1.7999999523163</ele>
        <time>2020-09-06T09:24:15.000Z</time>
      </trkpt>
      <trkpt lat="47.32955" lon="-2.46339">
        <ele>-1.2000000476837</ele>
        <time>2020-09-06T09:24:16.000Z</time>
      </trkpt>
      <trkpt lat="47.32954" lon="-2.46334">
        <ele>-0.80000001192093</ele>
        <time>2020-09-06T09:24:17.000Z</time>
      </trkpt>
      <trkpt lat="47.32952" lon="-2.46324">
        <ele>-0.40000000596046</ele>
        <time>2020-09-06T09:24:19.000Z</time>
      </trkpt>
      <trkpt lat="47.3295" lon="-2.46319">
        <ele>0.20000000298023</ele>
        <time>2020-09-06T09:24:20.000Z</time>
      </trkpt>
      <trkpt lat="47.32949" lon="-2.46314">
        <ele>0.60000002384186</ele>
        <time>2020-09-06T09:24:21.000Z</time>
      </trkpt>
      <trkpt lat="47.32947" lon="-2.4631">
        <ele>1</ele>
        <time>2020-09-06T09:24:22.000Z</time>
      </trkpt>
      <trkpt lat="47.32945" lon="-2.46305">
        <ele>1.3999999761581</ele>
        <time>2020-09-06T09:24:23.000Z</time>
      </trkpt>
      <trkpt lat="47.32939" lon="-2.46283">
        <ele>1.7999999523163</ele>
        <time>2020-09-06T09:24:27.000Z</time>
      </trkpt>
      <trkpt lat="47.32938" lon="-2.46277">
        <ele>2.2000000476837</ele>
        <time>2020-09-06T09:24:28.000Z</time>
      </trkpt>
      <trkpt lat="47.32936" lon="-2.46271">
        <ele>2.5999999046326</ele>
        <time>2020-09-06T09:24:29.000Z</time>
      </trkpt>
      <trkpt lat="47.32934" lon="-2.46265">
        <ele>3.4000000953674</ele>
        <time>2020-09-06T09:24:30.000Z</time>
      </trkpt>
      <trkpt lat="47.32923" lon="-2.46226">
        <ele>3.4000000953674</ele>
        <time>2020-09-06T09:24:36.000Z</time>
      </trkpt>
      <trkpt lat="47.32912" lon="-2.46181">
        <ele>3.4000000953674</ele>
        <time>2020-09-06T09:24:43.000Z</time>
      </trkpt>
      <trkpt lat="47.32903" lon="-2.46152">
        <ele>3.4000000953674</ele>
        <time>2020-09-06T09:24:48.000Z</time>
      </trkpt>
      <trkpt lat="47.329" lon="-2.46149">
        <ele>3.4000000953674</ele>
        <time>2020-09-06T09:24:49.000Z</time>
      </trkpt>
      <trkpt lat="47.32885" lon="-2.46152">
        <ele>3.4000000953674</ele>
        <time>2020-09-06T09:24:52.000Z</time>
      </trkpt>
      <trkpt lat="47.32874" lon="-2.4616">
        <ele>3.4000000953674</ele>
        <time>2020-09-06T09:24:54.000Z</time>
      </trkpt>
      <trkpt lat="47.32855" lon="-2.46172">
        <ele>3.4000000953674</ele>
        <time>2020-09-06T09:24:57.000Z</time>
      </trkpt>
      <trkpt lat="47.32825" lon="-2.46189">
        <ele>3.4000000953674</ele>
        <time>2020-09-06T09:25:02.000Z</time>
      </trkpt>
      <trkpt lat="47.32821" lon="-2.46191">
        <ele>2.7999999523163</ele>
        <time>2020-09-06T09:25:03.000Z</time>
      </trkpt>
      <trkpt lat="47.32818" lon="-2.4619">
        <ele>2.4000000953674</ele>
        <time>2020-09-06T09:25:04.000Z</time>
      </trkpt>
      <trkpt lat="47.32814" lon="-2.46188">
        <ele>1.7999999523163</ele>
        <time>2020-09-06T09:25:05.000Z</time>
      </trkpt>
      <trkpt lat="47.3281" lon="-2.46185">
        <ele>1.2000000476837</ele>
        <time>2020-09-06T09:25:06.000Z</time>
      </trkpt>
      <trkpt lat="47.32807" lon="-2.46182">
        <ele>0.40000000596046</ele>
        <time>2020-09-06T09:25:07.000Z</time>
      </trkpt>
      <trkpt lat="47.32802" lon="-2.46181">
        <ele>-0.20000000298023</ele>
        <time>2020-09-06T09:25:08.000Z</time>
      </trkpt>
      <trkpt lat="47.32798" lon="-2.46178">
        <ele>-0.80000001192093</ele>
        <time>2020-09-06T09:25:09.000Z</time>
      </trkpt>
      <trkpt lat="47.32794" lon="-2.46175">
        <ele>-1.3999999761581</ele>
        <time>2020-09-06T09:25:10.000Z</time>
      </trkpt>
      <trkpt lat="47.3279" lon="-2.46171">
        <ele>-1.3999999761581</ele>
        <time>2020-09-06T09:25:11.000Z</time>
      </trkpt>
      <trkpt lat="47.32773" lon="-2.4615">
        <ele>-1.3999999761581</ele>
        <time>2020-09-06T09:25:15.000Z</time>
      </trkpt>
      <trkpt lat="47.3277" lon="-2.46144">
        <ele>-1.3999999761581</ele>
        <time>2020-09-06T09:25:16.000Z</time>
      </trkpt>
      <trkpt lat="47.32767" lon="-2.46134">
        <ele>-2</ele>
        <time>2020-09-06T09:25:18.000Z</time>
      </trkpt>
      <trkpt lat="47.32766" lon="-2.46129">
        <ele>-3</ele>
        <time>2020-09-06T09:25:19.000Z</time>
      </trkpt>
      <trkpt lat="47.32765" lon="-2.46123">
        <ele>-3.4000000953674</ele>
        <time>2020-09-06T09:25:20.000Z</time>
      </trkpt>
      <trkpt lat="47.32764" lon="-2.46117">
        <ele>-4</ele>
        <time>2020-09-06T09:25:21.000Z</time>
      </trkpt>
      <trkpt lat="47.32755" lon="-2.46099">
        <ele>-4</ele>
        <time>2020-09-06T09:25:25.000Z</time>
      </trkpt>
      <trkpt lat="47.32753" lon="-2.46094">
        <ele>-4.4000000953674</ele>
        <time>2020-09-06T09:25:26.000Z</time>
      </trkpt>
      <trkpt lat="47.3275" lon="-2.46091">
        <ele>-4.8000001907349</ele>
        <time>2020-09-06T09:25:27.000Z</time>
      </trkpt>
      <trkpt lat="47.32747" lon="-2.46087">
        <ele>-5.1999998092651</ele>
        <time>2020-09-06T09:25:28.000Z</time>
      </trkpt>
      <trkpt lat="47.32743" lon="-2.46084">
        <ele>-5.5999999046326</ele>
        <time>2020-09-06T09:25:29.000Z</time>
      </trkpt>
      <trkpt lat="47.3274" lon="-2.46078">
        <ele>-6</ele>
        <time>2020-09-06T09:25:30.000Z</time>
      </trkpt>
      <trkpt lat="47.32725" lon="-2.46057">
        <ele>-6</ele>
        <time>2020-09-06T09:25:35.000Z</time>
      </trkpt>
      <trkpt lat="47.32712" lon="-2.46041">
        <ele>-6</ele>
        <time>2020-09-06T09:25:39.000Z</time>
      </trkpt>
      <trkpt lat="47.32702" lon="-2.46028">
        <ele>-6.4000000953674</ele>
        <time>2020-09-06T09:25:42.000Z</time>
      </trkpt>
      <trkpt lat="47.32698" lon="-2.46022">
        <ele>-6.8000001907349</ele>
        <time>2020-09-06T09:25:43.000Z</time>
      </trkpt>
      <trkpt lat="47.32694" lon="-2.46016">
        <ele>-7.5999999046326</ele>
        <time>2020-09-06T09:25:44.000Z</time>
      </trkpt>
      <trkpt lat="47.32691" lon="-2.4601">
        <ele>-8</ele>
        <time>2020-09-06T09:25:45.000Z</time>
      </trkpt>
      <trkpt lat="47.32688" lon="-2.46004">
        <ele>-8</ele>
        <time>2020-09-06T09:25:46.000Z</time>
      </trkpt>
      <trkpt lat="47.32677" lon="-2.4599">
        <ele>-8</ele>
        <time>2020-09-06T09:25:49.000Z</time>
      </trkpt>
      <trkpt lat="47.32668" lon="-2.45983">
        <ele>-8</ele>
        <time>2020-09-06T09:25:51.000Z</time>
      </trkpt>
      <trkpt lat="47.32658" lon="-2.45974">
        <ele>-8</ele>
        <time>2020-09-06T09:25:53.000Z</time>
      </trkpt>
      <trkpt lat="47.32646" lon="-2.45966">
        <ele>-8</ele>
        <time>2020-09-06T09:25:55.000Z</time>
      </trkpt>
      <trkpt lat="47.32637" lon="-2.45957">
        <ele>-8</ele>
        <time>2020-09-06T09:25:57.000Z</time>
      </trkpt>
      <trkpt lat="47.32633" lon="-2.45952">
        <ele>-8</ele>
        <time>2020-09-06T09:25:58.000Z</time>
      </trkpt>
      <trkpt lat="47.32618" lon="-2.45927">
        <ele>-8</ele>
        <time>2020-09-06T09:26:02.000Z</time>
      </trkpt>
      <trkpt lat="47.3261" lon="-2.45913">
        <ele>-8</ele>
        <time>2020-09-06T09:26:04.000Z</time>
      </trkpt>
      <trkpt lat="47.32601" lon="-2.45901">
        <ele>-8</ele>
        <time>2020-09-06T09:26:06.000Z</time>
      </trkpt>
      <trkpt lat="47.32586" lon="-2.45883">
        <ele>-8</ele>
        <time>2020-09-06T09:26:09.000Z</time>
      </trkpt>
      <trkpt lat="47.32573" lon="-2.45864">
        <ele>-8</ele>
        <time>2020-09-06T09:26:12.000Z</time>
      </trkpt>
      <trkpt lat="47.32565" lon="-2.45849">
        <ele>-8</ele>
        <time>2020-09-06T09:26:14.000Z</time>
      </trkpt>
      <trkpt lat="47.32539" lon="-2.45808">
        <ele>-8</ele>
        <time>2020-09-06T09:26:20.000Z</time>
      </trkpt>
      <trkpt lat="47.32536" lon="-2.45802">
        <ele>-8</ele>
        <time>2020-09-06T09:26:21.000Z</time>
      </trkpt>
      <trkpt lat="47.3253" lon="-2.45793">
        <ele>-8.3999996185303</ele>
        <time>2020-09-06T09:26:24.000Z</time>
      </trkpt>
      <trkpt lat="47.3253" lon="-2.45793">
        <ele>-8.8000001907349</ele>
        <time>2020-09-06T09:26:25.000Z</time>
      </trkpt>
      <trkpt lat="47.32528" lon="-2.45791">
        <ele>-10</ele>
        <time>2020-09-06T09:27:44.000Z</time>
      </trkpt>
      <trkpt lat="47.32527" lon="-2.45789">
        <ele>-10</ele>
        <time>2020-09-06T09:27:45.000Z</time>
      </trkpt>
      <trkpt lat="47.3252" lon="-2.45776">
        <ele>-10</ele>
        <time>2020-09-06T09:27:49.000Z</time>
      </trkpt>
      <trkpt lat="47.32502" lon="-2.45741">
        <ele>-10</ele>
        <time>2020-09-06T09:27:56.000Z</time>
      </trkpt>
      <trkpt lat="47.32498" lon="-2.45736">
        <ele>-10</ele>
        <time>2020-09-06T09:27:57.000Z</time>
      </trkpt>
      <trkpt lat="47.32483" lon="-2.45708">
        <ele>-10</ele>
        <time>2020-09-06T09:28:02.000Z</time>
      </trkpt>
      <trkpt lat="47.32458" lon="-2.45668">
        <ele>-10</ele>
        <time>2020-09-06T09:28:09.000Z</time>
      </trkpt>
      <trkpt lat="47.32451" lon="-2.45656">
        <ele>-10</ele>
        <time>2020-09-06T09:28:11.000Z</time>
      </trkpt>
      <trkpt lat="47.3244" lon="-2.4564">
        <ele>-10</ele>
        <time>2020-09-06T09:28:14.000Z</time>
      </trkpt>
      <trkpt lat="47.32421" lon="-2.45608">
        <ele>-10</ele>
        <time>2020-09-06T09:28:20.000Z</time>
      </trkpt>
      <trkpt lat="47.32411" lon="-2.4559">
        <ele>-10</ele>
        <time>2020-09-06T09:28:25.000Z</time>
      </trkpt>
      <trkpt lat="47.32402" lon="-2.45572">
        <ele>-10</ele>
        <time>2020-09-06T09:28:29.000Z</time>
      </trkpt>
      <trkpt lat="47.32389" lon="-2.45542">
        <ele>-10</ele>
        <time>2020-09-06T09:28:34.000Z</time>
      </trkpt>
      <trkpt lat="47.32372" lon="-2.45507">
        <ele>-10</ele>
        <time>2020-09-06T09:28:40.000Z</time>
      </trkpt>
      <trkpt lat="47.32347" lon="-2.45471">
        <ele>-10</ele>
        <time>2020-09-06T09:28:46.000Z</time>
      </trkpt>
      <trkpt lat="47.3232" lon="-2.45425">
        <ele>-10</ele>
        <time>2020-09-06T09:28:53.000Z</time>
      </trkpt>
      <trkpt lat="47.32315" lon="-2.4542">
        <ele>-10</ele>
        <time>2020-09-06T09:28:54.000Z</time>
      </trkpt>
      <trkpt lat="47.3231" lon="-2.45409">
        <ele>-10</ele>
        <time>2020-09-06T09:28:56.000Z</time>
      </trkpt>
      <trkpt lat="47.32311" lon="-2.45403">
        <ele>-10</ele>
        <time>2020-09-06T09:28:57.000Z</time>
      </trkpt>
      <trkpt lat="47.32318" lon="-2.45387">
        <ele>-10</ele>
        <time>2020-09-06T09:29:00.000Z</time>
      </trkpt>
      <trkpt lat="47.32318" lon="-2.45362">
        <ele>-10</ele>
        <time>2020-09-06T09:29:04.000Z</time>
      </trkpt>
      <trkpt lat="47.32317" lon="-2.45355">
        <ele>-10</ele>
        <time>2020-09-06T09:29:05.000Z</time>
      </trkpt>
      <trkpt lat="47.32316" lon="-2.45335">
        <ele>-9.6000003814697</ele>
        <time>2020-09-06T09:29:08.000Z</time>
      </trkpt>
      <trkpt lat="47.32316" lon="-2.45329">
        <ele>-9.1999998092651</ele>
        <time>2020-09-06T09:29:09.000Z</time>
      </trkpt>
      <trkpt lat="47.32315" lon="-2.45322">
        <ele>-8.8000001907349</ele>
        <time>2020-09-06T09:29:10.000Z</time>
      </trkpt>
      <trkpt lat="47.32315" lon="-2.45316">
        <ele>-8.3999996185303</ele>
        <time>2020-09-06T09:29:11.000Z</time>
      </trkpt>
      <trkpt lat="47.32315" lon="-2.4531">
        <ele>-7.8000001907349</ele>
        <time>2020-09-06T09:29:12.000Z</time>
      </trkpt>
      <trkpt lat="47.32309" lon="-2.45278">
        <ele>-7.8000001907349</ele>
        <time>2020-09-06T09:29:17.000Z</time>
      </trkpt>
      <trkpt lat="47.32299" lon="-2.45246">
        <ele>-7.8000001907349</ele>
        <time>2020-09-06T09:29:22.000Z</time>
      </trkpt>
      <trkpt lat="47.32294" lon="-2.45231">
        <ele>-7.8000001907349</ele>
        <time>2020-09-06T09:29:24.000Z</time>
      </trkpt>
      <trkpt lat="47.32276" lon="-2.45194">
        <ele>-7.8000001907349</ele>
        <time>2020-09-06T09:29:29.000Z</time>
      </trkpt>
      <trkpt lat="47.32271" lon="-2.45182">
        <ele>-7.8000001907349</ele>
        <time>2020-09-06T09:29:31.000Z</time>
      </trkpt>
      <trkpt lat="47.32266" lon="-2.45162">
        <ele>-7.8000001907349</ele>
        <time>2020-09-06T09:29:34.000Z</time>
      </trkpt>
      <trkpt lat="47.32264" lon="-2.45155">
        <ele>-7.8000001907349</ele>
        <time>2020-09-06T09:29:35.000Z</time>
      </trkpt>
      <trkpt lat="47.32258" lon="-2.45126">
        <ele>-7.8000001907349</ele>
        <time>2020-09-06T09:29:39.000Z</time>
      </trkpt>
      <trkpt lat="47.32252" lon="-2.45112">
        <ele>-7.4000000953674</ele>
        <time>2020-09-06T09:29:41.000Z</time>
      </trkpt>
      <trkpt lat="47.3225" lon="-2.45105">
        <ele>-7</ele>
        <time>2020-09-06T09:29:42.000Z</time>
      </trkpt>
      <trkpt lat="47.32247" lon="-2.45099">
        <ele>-6.5999999046326</ele>
        <time>2020-09-06T09:29:43.000Z</time>
      </trkpt>
      <trkpt lat="47.32244" lon="-2.45092">
        <ele>-6.1999998092651</ele>
        <time>2020-09-06T09:29:44.000Z</time>
      </trkpt>
      <trkpt lat="47.32241" lon="-2.45086">
        <ele>-5.8000001907349</ele>
        <time>2020-09-06T09:29:45.000Z</time>
      </trkpt>
      <trkpt lat="47.32217" lon="-2.45032">
        <ele>-5.8000001907349</ele>
        <time>2020-09-06T09:29:54.000Z</time>
      </trkpt>
      <trkpt lat="47.3222" lon="-2.45019">
        <ele>-5.8000001907349</ele>
        <time>2020-09-06T09:29:57.000Z</time>
      </trkpt>
      <trkpt lat="47.32226" lon="-2.45014">
        <ele>-5.8000001907349</ele>
        <time>2020-09-06T09:29:59.000Z</time>
      </trkpt>
      <trkpt lat="47.32232" lon="-2.45008">
        <ele>-5.8000001907349</ele>
        <time>2020-09-06T09:30:01.000Z</time>
      </trkpt>
      <trkpt lat="47.32239" lon="-2.45001">
        <ele>-5.4000000953674</ele>
        <time>2020-09-06T09:30:04.000Z</time>
      </trkpt>
      <trkpt lat="47.32241" lon="-2.44999">
        <ele>-4.8000001907349</ele>
        <time>2020-09-06T09:30:05.000Z</time>
      </trkpt>
      <trkpt lat="47.32243" lon="-2.44997">
        <ele>-4.4000000953674</ele>
        <time>2020-09-06T09:30:06.000Z</time>
      </trkpt>
      <trkpt lat="47.32245" lon="-2.44996">
        <ele>-4</ele>
        <time>2020-09-06T09:30:07.000Z</time>
      </trkpt>
      <trkpt lat="47.32248" lon="-2.44993">
        <ele>-3.4000000953674</ele>
        <time>2020-09-06T09:30:08.000Z</time>
      </trkpt>
      <trkpt lat="47.3225" lon="-2.44991">
        <ele>-3</ele>
        <time>2020-09-06T09:30:09.000Z</time>
      </trkpt>
      <trkpt lat="47.32252" lon="-2.44988">
        <ele>-2.5999999046326</ele>
        <time>2020-09-06T09:30:10.000Z</time>
      </trkpt>
      <trkpt lat="47.32255" lon="-2.44986">
        <ele>-2.2000000476837</ele>
        <time>2020-09-06T09:30:11.000Z</time>
      </trkpt>
      <trkpt lat="47.32256" lon="-2.44984">
        <ele>-1.7999999523163</ele>
        <time>2020-09-06T09:30:12.000Z</time>
      </trkpt>
      <trkpt lat="47.32258" lon="-2.44982">
        <ele>-1.3999999761581</ele>
        <time>2020-09-06T09:30:13.000Z</time>
      </trkpt>
      <trkpt lat="47.3226" lon="-2.44979">
        <ele>-1.3999999761581</ele>
        <time>2020-09-06T09:30:14.000Z</time>
      </trkpt>
      <trkpt lat="47.32263" lon="-2.44977">
        <ele>-0.80000001192093</ele>
        <time>2020-09-06T09:30:15.000Z</time>
      </trkpt>
      <trkpt lat="47.32265" lon="-2.44974">
        <ele>-0.40000000596046</ele>
        <time>2020-09-06T09:30:16.000Z</time>
      </trkpt>
      <trkpt lat="47.32268" lon="-2.44972">
        <ele>21.6</ele>
        <time>2020-09-06T09:30:17.000Z</time>
      </trkpt>
      <trkpt lat="47.3227" lon="-2.44969">
        <ele>0.40000000596046</ele>
        <time>2020-09-06T09:30:18.000Z</time>
      </trkpt>
      <trkpt lat="47.32273" lon="-2.44966">
        <ele>0.80000001192093</ele>
        <time>2020-09-06T09:30:19.000Z</time>
      </trkpt>
      <trkpt lat="47.32279" lon="-2.44959">
        <ele>0.80000001192093</ele>
        <time>2020-09-06T09:30:21.000Z</time>
      </trkpt>
      <trkpt lat="47.32282" lon="-2.44955">
        <ele>1.2000000476837</ele>
        <time>2020-09-06T09:30:22.000Z</time>
      </trkpt>
      <trkpt lat="47.32285" lon="-2.44952">
        <ele>1.6000000238419</ele>
        <time>2020-09-06T09:30:23.000Z</time>
      </trkpt>
      <trkpt lat="47.32288" lon="-2.44948">
        <ele>2</ele>
        <time>2020-09-06T09:30:24.000Z</time>
      </trkpt>
      <trkpt lat="47.32292" lon="-2.44945">
        <ele>2.4000000953674</ele>
        <time>2020-09-06T09:30:25.000Z</time>
      </trkpt>
      <trkpt lat="47.32295" lon="-2.44941">
        <ele>2.7999999523163</ele>
        <time>2020-09-06T09:30:26.000Z</time>
      </trkpt>
      <trkpt lat="47.32301" lon="-2.44933">
        <ele>2.7999999523163</ele>
        <time>2020-09-06T09:30:28.000Z</time>
      </trkpt>
      <trkpt lat="47.32323" lon="-2.44902">
        <ele>2.7999999523163</ele>
        <time>2020-09-06T09:30:35.000Z</time>
      </trkpt>
      <trkpt lat="47.32347" lon="-2.4487">
        <ele>2.7999999523163</ele>
        <time>2020-09-06T09:30:42.000Z</time>
      </trkpt>
      <trkpt lat="47.32363" lon="-2.44855">
        <ele>2.7999999523163</ele>
        <time>2020-09-06T09:30:46.000Z</time>
      </trkpt>
      <trkpt lat="47.32373" lon="-2.44847">
        <ele>3.2000000476837</ele>
        <time>2020-09-06T09:30:48.000Z</time>
      </trkpt>
      <trkpt lat="47.32377" lon="-2.44844">
        <ele>3.5999999046326</ele>
        <time>2020-09-06T09:30:49.000Z</time>
      </trkpt>
      <trkpt lat="47.32382" lon="-2.44841">
        <ele>4</ele>
        <time>2020-09-06T09:30:50.000Z</time>
      </trkpt>
      <trkpt lat="47.32387" lon="-2.44837">
        <ele>4.5999999046326</ele>
        <time>2020-09-06T09:30:51.000Z</time>
      </trkpt>
      <trkpt lat="47.32392" lon="-2.44834">
        <ele>5</ele>
        <time>2020-09-06T09:30:52.000Z</time>
      </trkpt>
      <trkpt lat="47.32405" lon="-2.44824">
        <ele>5</ele>
        <time>2020-09-06T09:30:55.000Z</time>
      </trkpt>
      <trkpt lat="47.32431" lon="-2.44809">
        <ele>5</ele>
        <time>2020-09-06T09:31:01.000Z</time>
      </trkpt>
      <trkpt lat="47.32447" lon="-2.44796">
        <ele>5.4000000953674</ele>
        <time>2020-09-06T09:31:05.000Z</time>
      </trkpt>
      <trkpt lat="47.32451" lon="-2.44793">
        <ele>5.8000001907349</ele>
        <time>2020-09-06T09:31:06.000Z</time>
      </trkpt>
      <trkpt lat="47.32455" lon="-2.4479">
        <ele>6.1999998092651</ele>
        <time>2020-09-06T09:31:07.000Z</time>
      </trkpt>
      <trkpt lat="47.32459" lon="-2.44788">
        <ele>6.5999999046326</ele>
        <time>2020-09-06T09:31:08.000Z</time>
      </trkpt>
      <trkpt lat="47.32463" lon="-2.44785">
        <ele>7</ele>
        <time>2020-09-06T09:31:09.000Z</time>
      </trkpt>
      <trkpt lat="47.32481" lon="-2.44773">
        <ele>7.4000000953674</ele>
        <time>2020-09-06T09:31:14.000Z</time>
      </trkpt>
      <trkpt lat="47.32484" lon="-2.44771">
        <ele>7.8000001907349</ele>
        <time>2020-09-06T09:31:15.000Z</time>
      </trkpt>
      <trkpt lat="47.32487" lon="-2.44768">
        <ele>8.1999998092651</ele>
        <time>2020-09-06T09:31:16.000Z</time>
      </trkpt>
      <trkpt lat="47.32491" lon="-2.44765">
        <ele>8.6000003814697</ele>
        <time>2020-09-06T09:31:17.000Z</time>
      </trkpt>
      <trkpt lat="47.32494" lon="-2.44762">
        <ele>9</ele>
        <time>2020-09-06T09:31:18.000Z</time>
      </trkpt>
      <trkpt lat="47.32505" lon="-2.44754">
        <ele>9</ele>
        <time>2020-09-06T09:31:21.000Z</time>
      </trkpt>
      <trkpt lat="47.32509" lon="-2.44752">
        <ele>9.3999996185303</ele>
        <time>2020-09-06T09:31:22.000Z</time>
      </trkpt>
      <trkpt lat="47.32512" lon="-2.44749">
        <ele>9.8000001907349</ele>
        <time>2020-09-06T09:31:23.000Z</time>
      </trkpt>
      <trkpt lat="47.32516" lon="-2.44747">
        <ele>10.199999809265</ele>
        <time>2020-09-06T09:31:24.000Z</time>
      </trkpt>
      <trkpt lat="47.32521" lon="-2.44744">
        <ele>10.800000190735</ele>
        <time>2020-09-06T09:31:25.000Z</time>
      </trkpt>
      <trkpt lat="47.32524" lon="-2.44741">
        <ele>11.199999809265</ele>
        <time>2020-09-06T09:31:26.000Z</time>
      </trkpt>
      <trkpt lat="47.32528" lon="-2.44732">
        <ele>11.199999809265</ele>
        <time>2020-09-06T09:31:28.000Z</time>
      </trkpt>
      <trkpt lat="47.32531" lon="-2.44722">
        <ele>11.60000038147</ele>
        <time>2020-09-06T09:31:30.000Z</time>
      </trkpt>
      <trkpt lat="47.32533" lon="-2.44718">
        <ele>12</ele>
        <time>2020-09-06T09:31:31.000Z</time>
      </trkpt>
      <trkpt lat="47.32534" lon="-2.44715">
        <ele>12.39999961853</ele>
        <time>2020-09-06T09:31:32.000Z</time>
      </trkpt>
      <trkpt lat="47.32536" lon="-2.44712">
        <ele>13</ele>
        <time>2020-09-06T09:31:33.000Z</time>
      </trkpt>
      <trkpt lat="47.32538" lon="-2.44708">
        <ele>13.39999961853</ele>
        <time>2020-09-06T09:31:34.000Z</time>
      </trkpt>
      <trkpt lat="47.32546" lon="-2.44695">
        <ele>13.39999961853</ele>
        <time>2020-09-06T09:31:38.000Z</time>
      </trkpt>
      <trkpt lat="47.32554" lon="-2.44685">
        <ele>13.800000190735</ele>
        <time>2020-09-06T09:31:41.000Z</time>
      </trkpt>
      <trkpt lat="47.32557" lon="-2.44682">
        <ele>14.199999809265</ele>
        <time>2020-09-06T09:31:42.000Z</time>
      </trkpt>
      <trkpt lat="47.3256" lon="-2.44678">
        <ele>14.60000038147</ele>
        <time>2020-09-06T09:31:43.000Z</time>
      </trkpt>
      <trkpt lat="47.32562" lon="-2.44673">
        <ele>15</ele>
        <time>2020-09-06T09:31:44.000Z</time>
      </trkpt>
      <trkpt lat="47.32565" lon="-2.44669">
        <ele>15.60000038147</ele>
        <time>2020-09-06T09:31:45.000Z</time>
      </trkpt>
      <trkpt lat="47.32566" lon="-2.44665">
        <ele>15.60000038147</ele>
        <time>2020-09-06T09:31:46.000Z</time>
      </trkpt>
      <trkpt lat="47.32574" lon="-2.44654">
        <ele>16</ele>
        <time>2020-09-06T09:31:50.000Z</time>
      </trkpt>
      <trkpt lat="47.32577" lon="-2.44651">
        <ele>16.39999961853</ele>
        <time>2020-09-06T09:31:51.000Z</time>
      </trkpt>
      <trkpt lat="47.3258" lon="-2.44648">
        <ele>16.799999237061</ele>
        <time>2020-09-06T09:31:52.000Z</time>
      </trkpt>
      <trkpt lat="47.32583" lon="-2.44644">
        <ele>17.200000762939</ele>
        <time>2020-09-06T09:31:53.000Z</time>
      </trkpt>
      <trkpt lat="47.32587" lon="-2.4464">
        <ele>17.799999237061</ele>
        <time>2020-09-06T09:31:54.000Z</time>
      </trkpt>
      <trkpt lat="47.32594" lon="-2.44632">
        <ele>17.799999237061</ele>
        <time>2020-09-06T09:31:56.000Z</time>
      </trkpt>
      <trkpt lat="47.32607" lon="-2.44613">
        <ele>17.799999237061</ele>
        <time>2020-09-06T09:32:01.000Z</time>
      </trkpt>
      <trkpt lat="47.3261" lon="-2.44608">
        <ele>18.200000762939</ele>
        <time>2020-09-06T09:32:02.000Z</time>
      </trkpt>
      <trkpt lat="47.32614" lon="-2.44604">
        <ele>18.60000038147</ele>
        <time>2020-09-06T09:32:03.000Z</time>
      </trkpt>
      <trkpt lat="47.32616" lon="-2.44599">
        <ele>19</ele>
        <time>2020-09-06T09:32:04.000Z</time>
      </trkpt>
      <trkpt lat="47.32619" lon="-2.44595">
        <ele>19.39999961853</ele>
        <time>2020-09-06T09:32:05.000Z</time>
      </trkpt>
      <trkpt lat="47.32622" lon="-2.4459">
        <ele>19.799999237061</ele>
        <time>2020-09-06T09:32:06.000Z</time>
      </trkpt>
      <trkpt lat="47.32624" lon="-2.44586">
        <ele>19.799999237061</ele>
        <time>2020-09-06T09:32:07.000Z</time>
      </trkpt>
      <trkpt lat="47.32642" lon="-2.44555">
        <ele>19.799999237061</ele>
        <time>2020-09-06T09:32:14.000Z</time>
      </trkpt>
      <trkpt lat="47.32647" lon="-2.44546">
        <ele>20.200000762939</ele>
        <time>2020-09-06T09:32:16.000Z</time>
      </trkpt>
      <trkpt lat="47.3265" lon="-2.44541">
        <ele>20.60000038147</ele>
        <time>2020-09-06T09:32:17.000Z</time>
      </trkpt>
      <trkpt lat="47.32652" lon="-2.44536">
        <ele>21.39999961853</ele>
        <time>2020-09-06T09:32:18.000Z</time>
      </trkpt>
      <trkpt lat="47.32655" lon="-2.44532">
        <ele>21.799999237061</ele>
        <time>2020-09-06T09:32:19.000Z</time>
      </trkpt>
      <trkpt lat="47.3266" lon="-2.44519">
        <ele>21.799999237061</ele>
        <time>2020-09-06T09:32:22.000Z</time>
      </trkpt>
      <trkpt lat="47.32669" lon="-2.44504">
        <ele>21.799999237061</ele>
        <time>2020-09-06T09:32:26.000Z</time>
      </trkpt>
      <trkpt lat="47.32667" lon="-2.44496">
        <ele>21.799999237061</ele>
        <time>2020-09-06T09:32:28.000Z</time>
      </trkpt>
      <trkpt lat="47.32664" lon="-2.44494">
        <ele>21.799999237061</ele>
        <time>2020-09-06T09:32:29.000Z</time>
      </trkpt>
      <trkpt lat="47.32654" lon="-2.44484">
        <ele>21.799999237061</ele>
        <time>2020-09-06T09:32:32.000Z</time>
      </trkpt>
      <trkpt lat="47.32647" lon="-2.44464">
        <ele>21.799999237061</ele>
        <time>2020-09-06T09:32:35.000Z</time>
      </trkpt>
      <trkpt lat="47.32645" lon="-2.44457">
        <ele>21.799999237061</ele>
        <time>2020-09-06T09:32:36.000Z</time>
      </trkpt>
      <trkpt lat="47.32625" lon="-2.44408">
        <ele>21.799999237061</ele>
        <time>2020-09-06T09:32:43.000Z</time>
      </trkpt>
      <trkpt lat="47.32619" lon="-2.44395">
        <ele>21.799999237061</ele>
        <time>2020-09-06T09:32:45.000Z</time>
      </trkpt>
      <trkpt lat="47.32611" lon="-2.44386">
        <ele>21.799999237061</ele>
        <time>2020-09-06T09:32:47.000Z</time>
      </trkpt>
      <trkpt lat="47.32596" lon="-2.44375">
        <ele>21.799999237061</ele>
        <time>2020-09-06T09:32:50.000Z</time>
      </trkpt>
      <trkpt lat="47.32588" lon="-2.44362">
        <ele>21.799999237061</ele>
        <time>2020-09-06T09:32:52.000Z</time>
      </trkpt>
      <trkpt lat="47.32583" lon="-2.44348">
        <ele>21.799999237061</ele>
        <time>2020-09-06T09:32:54.000Z</time>
      </trkpt>
      <trkpt lat="47.32579" lon="-2.44335">
        <ele>21.799999237061</ele>
        <time>2020-09-06T09:32:56.000Z</time>
      </trkpt>
      <trkpt lat="47.32572" lon="-2.44318">
        <ele>21.799999237061</ele>
        <time>2020-09-06T09:32:59.000Z</time>
      </trkpt>
      <trkpt lat="47.32565" lon="-2.44299">
        <ele>21.799999237061</ele>
        <time>2020-09-06T09:33:02.000Z</time>
      </trkpt>
      <trkpt lat="47.32557" lon="-2.44261">
        <ele>21.799999237061</ele>
        <time>2020-09-06T09:33:07.000Z</time>
      </trkpt>
      <trkpt lat="47.32543" lon="-2.44233">
        <ele>21.799999237061</ele>
        <time>2020-09-06T09:33:12.000Z</time>
      </trkpt>
      <trkpt lat="47.3253" lon="-2.44199">
        <ele>21.799999237061</ele>
        <time>2020-09-06T09:33:17.000Z</time>
      </trkpt>
      <trkpt lat="47.32529" lon="-2.44191">
        <ele>21.799999237061</ele>
        <time>2020-09-06T09:33:18.000Z</time>
      </trkpt>
      <trkpt lat="47.32535" lon="-2.44162">
        <ele>21.799999237061</ele>
        <time>2020-09-06T09:33:22.000Z</time>
      </trkpt>
      <trkpt lat="47.3255" lon="-2.44112">
        <ele>21.799999237061</ele>
        <time>2020-09-06T09:33:29.000Z</time>
      </trkpt>
      <trkpt lat="47.32564" lon="-2.44062">
        <ele>21.799999237061</ele>
        <time>2020-09-06T09:33:36.000Z</time>
      </trkpt>
      <trkpt lat="47.32573" lon="-2.44041">
        <ele>21.799999237061</ele>
        <time>2020-09-06T09:33:40.000Z</time>
      </trkpt>
      <trkpt lat="47.32571" lon="-2.44038">
        <ele>21.799999237061</ele>
        <time>2020-09-06T09:33:41.000Z</time>
      </trkpt>
      <trkpt lat="47.32564" lon="-2.44033">
        <ele>21.799999237061</ele>
        <time>2020-09-06T09:33:43.000Z</time>
      </trkpt>
      <trkpt lat="47.32556" lon="-2.44029">
        <ele>21.799999237061</ele>
        <time>2020-09-06T09:33:45.000Z</time>
      </trkpt>
      <trkpt lat="47.32545" lon="-2.44027">
        <ele>21.799999237061</ele>
        <time>2020-09-06T09:33:47.000Z</time>
      </trkpt>
      <trkpt lat="47.32535" lon="-2.44022">
        <ele>21.799999237061</ele>
        <time>2020-09-06T09:33:49.000Z</time>
      </trkpt>
      <trkpt lat="47.32517" lon="-2.44007">
        <ele>21.799999237061</ele>
        <time>2020-09-06T09:33:53.000Z</time>
      </trkpt>
      <trkpt lat="47.32507" lon="-2.43993">
        <ele>21.799999237061</ele>
        <time>2020-09-06T09:33:57.000Z</time>
      </trkpt>
      <trkpt lat="47.32506" lon="-2.43988">
        <ele>21.799999237061</ele>
        <time>2020-09-06T09:33:59.000Z</time>
      </trkpt>
      <trkpt lat="47.32508" lon="-2.43983">
        <ele>21.799999237061</ele>
        <time>2020-09-06T09:34:01.000Z</time>
      </trkpt>
      <trkpt lat="47.32516" lon="-2.4398">
        <ele>21.799999237061</ele>
        <time>2020-09-06T09:34:06.000Z</time>
      </trkpt>
      <trkpt lat="47.32523" lon="-2.43979">
        <ele>21.799999237061</ele>
        <time>2020-09-06T09:34:11.000Z</time>
      </trkpt>
      <trkpt lat="47.32524" lon="-2.43978">
        <ele>21.799999237061</ele>
        <time>2020-09-06T09:34:12.000Z</time>
      </trkpt>
      <trkpt lat="47.32537" lon="-2.43972">
        <ele>21.799999237061</ele>
        <time>2020-09-06T09:34:18.000Z</time>
      </trkpt>
      <trkpt lat="47.32561" lon="-2.43966">
        <ele>21.799999237061</ele>
        <time>2020-09-06T09:34:26.000Z</time>
      </trkpt>
      <trkpt lat="47.32578" lon="-2.43957">
        <ele>21.799999237061</ele>
        <time>2020-09-06T09:34:32.000Z</time>
      </trkpt>
      <trkpt lat="47.32595" lon="-2.43957">
        <ele>21.799999237061</ele>
        <time>2020-09-06T09:34:37.000Z</time>
      </trkpt>
      <trkpt lat="47.32598" lon="-2.43949">
        <ele>21.799999237061</ele>
        <time>2020-09-06T09:34:39.000Z</time>
      </trkpt>
      <trkpt lat="47.32596" lon="-2.43945">
        <ele>21.799999237061</ele>
        <time>2020-09-06T09:34:40.000Z</time>
      </trkpt>
      <trkpt lat="47.32591" lon="-2.43931">
        <ele>21.799999237061</ele>
        <time>2020-09-06T09:34:43.000Z</time>
      </trkpt>
      <trkpt lat="47.32589" lon="-2.43921">
        <ele>21.799999237061</ele>
        <time>2020-09-06T09:34:45.000Z</time>
      </trkpt>
      <trkpt lat="47.32587" lon="-2.4391">
        <ele>22.200000762939</ele>
        <time>2020-09-06T09:34:47.000Z</time>
      </trkpt>
      <trkpt lat="47.32586" lon="-2.43904">
        <ele>22.60000038147</ele>
        <time>2020-09-06T09:34:48.000Z</time>
      </trkpt>
      <trkpt lat="47.32585" lon="-2.43898">
        <ele>23</ele>
        <time>2020-09-06T09:34:49.000Z</time>
      </trkpt>
      <trkpt lat="47.32585" lon="-2.43892">
        <ele>23.39999961853</ele>
        <time>2020-09-06T09:34:50.000Z</time>
      </trkpt>
      <trkpt lat="47.32584" lon="-2.43887">
        <ele>24</ele>
        <time>2020-09-06T09:34:51.000Z</time>
      </trkpt>
      <trkpt lat="47.32583" lon="-2.43883">
        <ele>24</ele>
        <time>2020-09-06T09:34:52.000Z</time>
      </trkpt>
      <trkpt lat="47.32577" lon="-2.43853">
        <ele>24</ele>
        <time>2020-09-06T09:34:57.000Z</time>
      </trkpt>
      <trkpt lat="47.32562" lon="-2.43795">
        <ele>24</ele>
        <time>2020-09-06T09:35:06.000Z</time>
      </trkpt>
      <trkpt lat="47.32551" lon="-2.43754">
        <ele>24</ele>
        <time>2020-09-06T09:35:12.000Z</time>
      </trkpt>
      <trkpt lat="47.32547" lon="-2.43739">
        <ele>24</ele>
        <time>2020-09-06T09:35:14.000Z</time>
      </trkpt>
      <trkpt lat="47.32544" lon="-2.43717">
        <ele>24</ele>
        <time>2020-09-06T09:35:17.000Z</time>
      </trkpt>
      <trkpt lat="47.32543" lon="-2.4371">
        <ele>24</ele>
        <time>2020-09-06T09:35:18.000Z</time>
      </trkpt>
      <trkpt lat="47.32549" lon="-2.43692">
        <ele>24</ele>
        <time>2020-09-06T09:35:21.000Z</time>
      </trkpt>
      <trkpt lat="47.32551" lon="-2.43686">
        <ele>24</ele>
        <time>2020-09-06T09:35:22.000Z</time>
      </trkpt>
      <trkpt lat="47.32566" lon="-2.43658">
        <ele>24</ele>
        <time>2020-09-06T09:35:27.000Z</time>
      </trkpt>
      <trkpt lat="47.32568" lon="-2.43652">
        <ele>24</ele>
        <time>2020-09-06T09:35:28.000Z</time>
      </trkpt>
      <trkpt lat="47.32574" lon="-2.43642">
        <ele>24</ele>
        <time>2020-09-06T09:35:30.000Z</time>
      </trkpt>
      <trkpt lat="47.32581" lon="-2.43626">
        <ele>24</ele>
        <time>2020-09-06T09:35:33.000Z</time>
      </trkpt>
      <trkpt lat="47.326" lon="-2.43589">
        <ele>24</ele>
        <time>2020-09-06T09:35:40.000Z</time>
      </trkpt>
      <trkpt lat="47.32605" lon="-2.43578">
        <ele>24</ele>
        <time>2020-09-06T09:35:42.000Z</time>
      </trkpt>
      <trkpt lat="47.32603" lon="-2.43559">
        <ele>24</ele>
        <time>2020-09-06T09:35:45.000Z</time>
      </trkpt>
      <trkpt lat="47.32591" lon="-2.43541">
        <ele>24</ele>
        <time>2020-09-06T09:35:49.000Z</time>
      </trkpt>
      <trkpt lat="47.32588" lon="-2.43537">
        <ele>24</ele>
        <time>2020-09-06T09:35:50.000Z</time>
      </trkpt>
      <trkpt lat="47.3256" lon="-2.43497">
        <ele>24</ele>
        <time>2020-09-06T09:35:58.000Z</time>
      </trkpt>
      <trkpt lat="47.32553" lon="-2.43486">
        <ele>23</ele>
        <time>2020-09-06T09:36:00.000Z</time>
      </trkpt>
      <trkpt lat="47.3255" lon="-2.4348">
        <ele>22.60000038147</ele>
        <time>2020-09-06T09:36:01.000Z</time>
      </trkpt>
      <trkpt lat="47.32546" lon="-2.43474">
        <ele>22.200000762939</ele>
        <time>2020-09-06T09:36:02.000Z</time>
      </trkpt>
      <trkpt lat="47.32542" lon="-2.43468">
        <ele>21.799999237061</ele>
        <time>2020-09-06T09:36:03.000Z</time>
      </trkpt>
      <trkpt lat="47.32531" lon="-2.43449">
        <ele>21.799999237061</ele>
        <time>2020-09-06T09:36:06.000Z</time>
      </trkpt>
      <trkpt lat="47.32516" lon="-2.43434">
        <ele>21.799999237061</ele>
        <time>2020-09-06T09:36:09.000Z</time>
      </trkpt>
      <trkpt lat="47.32505" lon="-2.43429">
        <ele>21.799999237061</ele>
        <time>2020-09-06T09:36:11.000Z</time>
      </trkpt>
      <trkpt lat="47.32493" lon="-2.43411">
        <ele>21.799999237061</ele>
        <time>2020-09-06T09:36:14.000Z</time>
      </trkpt>
      <trkpt lat="47.32483" lon="-2.43398">
        <ele>21.39999961853</ele>
        <time>2020-09-06T09:36:16.000Z</time>
      </trkpt>
      <trkpt lat="47.32478" lon="-2.43392">
        <ele>21</ele>
        <time>2020-09-06T09:36:17.000Z</time>
      </trkpt>
      <trkpt lat="47.32473" lon="-2.43384">
        <ele>20.39999961853</ele>
        <time>2020-09-06T09:36:18.000Z</time>
      </trkpt>
      <trkpt lat="47.32468" lon="-2.43377">
        <ele>20</ele>
        <time>2020-09-06T09:36:19.000Z</time>
      </trkpt>
      <trkpt lat="47.32463" lon="-2.43369">
        <ele>19.60000038147</ele>
        <time>2020-09-06T09:36:20.000Z</time>
      </trkpt>
      <trkpt lat="47.32438" lon="-2.43336">
        <ele>19.60000038147</ele>
        <time>2020-09-06T09:36:25.000Z</time>
      </trkpt>
      <trkpt lat="47.32422" lon="-2.43313">
        <ele>19.60000038147</ele>
        <time>2020-09-06T09:36:30.000Z</time>
      </trkpt>
      <trkpt lat="47.32404" lon="-2.43281">
        <ele>19.60000038147</ele>
        <time>2020-09-06T09:36:37.000Z</time>
      </trkpt>
      <trkpt lat="47.32382" lon="-2.43237">
        <ele>19.60000038147</ele>
        <time>2020-09-06T09:36:45.000Z</time>
      </trkpt>
      <trkpt lat="47.3237" lon="-2.43204">
        <ele>19.200000762939</ele>
        <time>2020-09-06T09:36:50.000Z</time>
      </trkpt>
      <trkpt lat="47.32368" lon="-2.43196">
        <ele>18.799999237061</ele>
        <time>2020-09-06T09:36:51.000Z</time>
      </trkpt>
      <trkpt lat="47.32367" lon="-2.43187">
        <ele>18.39999961853</ele>
        <time>2020-09-06T09:36:52.000Z</time>
      </trkpt>
      <trkpt lat="47.32367" lon="-2.43179">
        <ele>18</ele>
        <time>2020-09-06T09:36:53.000Z</time>
      </trkpt>
      <trkpt lat="47.32366" lon="-2.4317">
        <ele>17.60000038147</ele>
        <time>2020-09-06T09:36:54.000Z</time>
      </trkpt>
      <trkpt lat="47.32366" lon="-2.43162">
        <ele>17.60000038147</ele>
        <time>2020-09-06T09:36:55.000Z</time>
      </trkpt>
      <trkpt lat="47.32366" lon="-2.4312">
        <ele>17.60000038147</ele>
        <time>2020-09-06T09:37:01.000Z</time>
      </trkpt>
      <trkpt lat="47.32366" lon="-2.43075">
        <ele>17.60000038147</ele>
        <time>2020-09-06T09:37:09.000Z</time>
      </trkpt>
      <trkpt lat="47.32368" lon="-2.43055">
        <ele>17.60000038147</ele>
        <time>2020-09-06T09:37:13.000Z</time>
      </trkpt>
      <trkpt lat="47.32368" lon="-2.43017">
        <ele>17.60000038147</ele>
        <time>2020-09-06T09:37:19.000Z</time>
      </trkpt>
      <trkpt lat="47.32368" lon="-2.4301">
        <ele>17.60000038147</ele>
        <time>2020-09-06T09:37:20.000Z</time>
      </trkpt>
      <trkpt lat="47.32375" lon="-2.42993">
        <ele>17.60000038147</ele>
        <time>2020-09-06T09:37:23.000Z</time>
      </trkpt>
      <trkpt lat="47.32386" lon="-2.42991">
        <ele>17.60000038147</ele>
        <time>2020-09-06T09:37:26.000Z</time>
      </trkpt>
      <trkpt lat="47.3239" lon="-2.42991">
        <ele>17.60000038147</ele>
        <time>2020-09-06T09:37:27.000Z</time>
      </trkpt>
      <trkpt lat="47.32405" lon="-2.42991">
        <ele>17.60000038147</ele>
        <time>2020-09-06T09:37:32.000Z</time>
      </trkpt>
      <trkpt lat="47.3242" lon="-2.42987">
        <ele>17.60000038147</ele>
        <time>2020-09-06T09:37:37.000Z</time>
      </trkpt>
      <trkpt lat="47.32422" lon="-2.42986">
        <ele>17.60000038147</ele>
        <time>2020-09-06T09:37:38.000Z</time>
      </trkpt>
      <trkpt lat="47.32426" lon="-2.42984">
        <ele>18</ele>
        <time>2020-09-06T09:37:40.000Z</time>
      </trkpt>
      <trkpt lat="47.32427" lon="-2.42984">
        <ele>18.39999961853</ele>
        <time>2020-09-06T09:37:41.000Z</time>
      </trkpt>
      <trkpt lat="47.32429" lon="-2.42984">
        <ele>18.799999237061</ele>
        <time>2020-09-06T09:37:42.000Z</time>
      </trkpt>
      <trkpt lat="47.3243" lon="-2.42983">
        <ele>19.200000762939</ele>
        <time>2020-09-06T09:37:43.000Z</time>
      </trkpt>
      <trkpt lat="47.32432" lon="-2.42983">
        <ele>19.60000038147</ele>
        <time>2020-09-06T09:37:44.000Z</time>
      </trkpt>
      <trkpt lat="47.32436" lon="-2.42987">
        <ele>19.60000038147</ele>
        <time>2020-09-06T09:37:47.000Z</time>
      </trkpt>
      <trkpt lat="47.32432" lon="-2.42993">
        <ele>19.60000038147</ele>
        <time>2020-09-06T09:37:50.000Z</time>
      </trkpt>
      <trkpt lat="47.3242" lon="-2.42995">
        <ele>19.60000038147</ele>
        <time>2020-09-06T09:37:53.000Z</time>
      </trkpt>
      <trkpt lat="47.32416" lon="-2.42995">
        <ele>19.60000038147</ele>
        <time>2020-09-06T09:37:54.000Z</time>
      </trkpt>
      <trkpt lat="47.32411" lon="-2.42995">
        <ele>19.60000038147</ele>
        <time>2020-09-06T09:37:55.000Z</time>
      </trkpt>
      <trkpt lat="47.32388" lon="-2.42995">
        <ele>19.60000038147</ele>
        <time>2020-09-06T09:37:59.000Z</time>
      </trkpt>
      <trkpt lat="47.32376" lon="-2.42999">
        <ele>19.60000038147</ele>
        <time>2020-09-06T09:38:01.000Z</time>
      </trkpt>
      <trkpt lat="47.32372" lon="-2.43006">
        <ele>19.60000038147</ele>
        <time>2020-09-06T09:38:02.000Z</time>
      </trkpt>
      <trkpt lat="47.32369" lon="-2.43015">
        <ele>19.200000762939</ele>
        <time>2020-09-06T09:38:03.000Z</time>
      </trkpt>
      <trkpt lat="47.32369" lon="-2.43024">
        <ele>18.39999961853</ele>
        <time>2020-09-06T09:38:04.000Z</time>
      </trkpt>
      <trkpt lat="47.32369" lon="-2.43032">
        <ele>18</ele>
        <time>2020-09-06T09:38:05.000Z</time>
      </trkpt>
      <trkpt lat="47.32369" lon="-2.4304">
        <ele>17.60000038147</ele>
        <time>2020-09-06T09:38:06.000Z</time>
      </trkpt>
      <trkpt lat="47.3237" lon="-2.43055">
        <ele>17.60000038147</ele>
        <time>2020-09-06T09:38:08.000Z</time>
      </trkpt>
      <trkpt lat="47.32372" lon="-2.4307">
        <ele>17.60000038147</ele>
        <time>2020-09-06T09:38:12.000Z</time>
      </trkpt>
      <trkpt lat="47.32374" lon="-2.43072">
        <ele>17.60000038147</ele>
        <time>2020-09-06T09:38:13.000Z</time>
      </trkpt>
      <trkpt lat="47.32382" lon="-2.4307">
        <ele>17.60000038147</ele>
        <time>2020-09-06T09:38:15.000Z</time>
      </trkpt>
      <trkpt lat="47.32413" lon="-2.43066">
        <ele>17.60000038147</ele>
        <time>2020-09-06T09:38:23.000Z</time>
      </trkpt>
      <trkpt lat="47.32428" lon="-2.43068">
        <ele>18</ele>
        <time>2020-09-06T09:38:27.000Z</time>
      </trkpt>
      <trkpt lat="47.32432" lon="-2.4307">
        <ele>18.39999961853</ele>
        <time>2020-09-06T09:38:28.000Z</time>
      </trkpt>
      <trkpt lat="47.32437" lon="-2.43071">
        <ele>19.200000762939</ele>
        <time>2020-09-06T09:38:29.000Z</time>
      </trkpt>
      <trkpt lat="47.32441" lon="-2.43072">
        <ele>19.60000038147</ele>
        <time>2020-09-06T09:38:30.000Z</time>
      </trkpt>
      <trkpt lat="47.32446" lon="-2.43073">
        <ele>20.200000762939</ele>
        <time>2020-09-06T09:38:31.000Z</time>
      </trkpt>
      <trkpt lat="47.32451" lon="-2.43074">
        <ele>20.60000038147</ele>
        <time>2020-09-06T09:38:32.000Z</time>
      </trkpt>
      <trkpt lat="47.32455" lon="-2.43075">
        <ele>21.200000762939</ele>
        <time>2020-09-06T09:38:33.000Z</time>
      </trkpt>
      <trkpt lat="47.32459" lon="-2.43076">
        <ele>21.60000038147</ele>
        <time>2020-09-06T09:38:34.000Z</time>
      </trkpt>
      <trkpt lat="47.32463" lon="-2.43077">
        <ele>22.200000762939</ele>
        <time>2020-09-06T09:38:35.000Z</time>
      </trkpt>
      <trkpt lat="47.32472" lon="-2.43078">
        <ele>22.200000762939</ele>
        <time>2020-09-06T09:38:37.000Z</time>
      </trkpt>
      <trkpt lat="47.32488" lon="-2.43078">
        <ele>22.60000038147</ele>
        <time>2020-09-06T09:38:41.000Z</time>
      </trkpt>
      <trkpt lat="47.32491" lon="-2.43077">
        <ele>23</ele>
        <time>2020-09-06T09:38:42.000Z</time>
      </trkpt>
      <trkpt lat="47.32495" lon="-2.43078">
        <ele>23.39999961853</ele>
        <time>2020-09-06T09:38:43.000Z</time>
      </trkpt>
      <trkpt lat="47.32498" lon="-2.43077">
        <ele>23.799999237061</ele>
        <time>2020-09-06T09:38:44.000Z</time>
      </trkpt>
      <trkpt lat="47.32502" lon="-2.43078">
        <ele>24.39999961853</ele>
        <time>2020-09-06T09:38:45.000Z</time>
      </trkpt>
      <trkpt lat="47.32516" lon="-2.4308">
        <ele>24.39999961853</ele>
        <time>2020-09-06T09:38:49.000Z</time>
      </trkpt>
      <trkpt lat="47.32532" lon="-2.43081">
        <ele>24.799999237061</ele>
        <time>2020-09-06T09:38:53.000Z</time>
      </trkpt>
      <trkpt lat="47.32536" lon="-2.43081">
        <ele>25.200000762939</ele>
        <time>2020-09-06T09:38:54.000Z</time>
      </trkpt>
      <trkpt lat="47.3254" lon="-2.43081">
        <ele>25.60000038147</ele>
        <time>2020-09-06T09:38:55.000Z</time>
      </trkpt>
      <trkpt lat="47.32544" lon="-2.43081">
        <ele>26</ele>
        <time>2020-09-06T09:38:56.000Z</time>
      </trkpt>
      <trkpt lat="47.32548" lon="-2.43082">
        <ele>26.39999961853</ele>
        <time>2020-09-06T09:38:57.000Z</time>
      </trkpt>
      <trkpt lat="47.3257" lon="-2.43081">
        <ele>26.39999961853</ele>
        <time>2020-09-06T09:39:03.000Z</time>
      </trkpt>
      <trkpt lat="47.32595" lon="-2.43077">
        <ele>26.799999237061</ele>
        <time>2020-09-06T09:39:10.000Z</time>
      </trkpt>
      <trkpt lat="47.32598" lon="-2.43077">
        <ele>27.200000762939</ele>
        <time>2020-09-06T09:39:11.000Z</time>
      </trkpt>
      <trkpt lat="47.32601" lon="-2.43076">
        <ele>27.60000038147</ele>
        <time>2020-09-06T09:39:12.000Z</time>
      </trkpt>
      <trkpt lat="47.32604" lon="-2.43075">
        <ele>28</ele>
        <time>2020-09-06T09:39:13.000Z</time>
      </trkpt>
      <trkpt lat="47.32606" lon="-2.43074">
        <ele>28.39999961853</ele>
        <time>2020-09-06T09:39:14.000Z</time>
      </trkpt>
      <trkpt lat="47.3261" lon="-2.43072">
        <ele>28.39999961853</ele>
        <time>2020-09-06T09:39:16.000Z</time>
      </trkpt>
      <trkpt lat="47.32611" lon="-2.43062">
        <ele>28.39999961853</ele>
        <time>2020-09-06T09:39:19.000Z</time>
      </trkpt>
      <trkpt lat="47.32609" lon="-2.43029">
        <ele>28.39999961853</ele>
        <time>2020-09-06T09:39:25.000Z</time>
      </trkpt>
      <trkpt lat="47.32607" lon="-2.4299">
        <ele>28.39999961853</ele>
        <time>2020-09-06T09:39:31.000Z</time>
      </trkpt>
      <trkpt lat="47.32608" lon="-2.42977">
        <ele>28.39999961853</ele>
        <time>2020-09-06T09:39:33.000Z</time>
      </trkpt>
      <trkpt lat="47.3261" lon="-2.42965">
        <ele>28.39999961853</ele>
        <time>2020-09-06T09:39:35.000Z</time>
      </trkpt>
      <trkpt lat="47.32613" lon="-2.42953">
        <ele>28.39999961853</ele>
        <time>2020-09-06T09:39:37.000Z</time>
      </trkpt>
      <trkpt lat="47.32617" lon="-2.42941">
        <ele>28.39999961853</ele>
        <time>2020-09-06T09:39:39.000Z</time>
      </trkpt>
      <trkpt lat="47.32626" lon="-2.42912">
        <ele>28.39999961853</ele>
        <time>2020-09-06T09:39:44.000Z</time>
      </trkpt>
      <trkpt lat="47.32628" lon="-2.429">
        <ele>28.39999961853</ele>
        <time>2020-09-06T09:39:46.000Z</time>
      </trkpt>
      <trkpt lat="47.32634" lon="-2.42865">
        <ele>28.799999237061</ele>
        <time>2020-09-06T09:39:51.000Z</time>
      </trkpt>
      <trkpt lat="47.32636" lon="-2.42857">
        <ele>29.200000762939</ele>
        <time>2020-09-06T09:39:52.000Z</time>
      </trkpt>
      <trkpt lat="47.32637" lon="-2.4285">
        <ele>29.60000038147</ele>
        <time>2020-09-06T09:39:53.000Z</time>
      </trkpt>
      <trkpt lat="47.32639" lon="-2.42841">
        <ele>30</ele>
        <time>2020-09-06T09:39:54.000Z</time>
      </trkpt>
      <trkpt lat="47.32641" lon="-2.42833">
        <ele>30.60000038147</ele>
        <time>2020-09-06T09:39:55.000Z</time>
      </trkpt>
      <trkpt lat="47.32655" lon="-2.4279">
        <ele>30.60000038147</ele>
        <time>2020-09-06T09:40:01.000Z</time>
      </trkpt>
      <trkpt lat="47.32676" lon="-2.42744">
        <ele>30.60000038147</ele>
        <time>2020-09-06T09:40:08.000Z</time>
      </trkpt>
      <trkpt lat="47.32691" lon="-2.42721">
        <ele>30.60000038147</ele>
        <time>2020-09-06T09:40:12.000Z</time>
      </trkpt>
      <trkpt lat="47.32696" lon="-2.4271">
        <ele>30.60000038147</ele>
        <time>2020-09-06T09:40:14.000Z</time>
      </trkpt>
      <trkpt lat="47.32708" lon="-2.42688">
        <ele>30.60000038147</ele>
        <time>2020-09-06T09:40:19.000Z</time>
      </trkpt>
      <trkpt lat="47.32708" lon="-2.42668">
        <ele>30.60000038147</ele>
        <time>2020-09-06T09:40:24.000Z</time>
      </trkpt>
      <trkpt lat="47.32705" lon="-2.42644">
        <ele>30.60000038147</ele>
        <time>2020-09-06T09:40:30.000Z</time>
      </trkpt>
      <trkpt lat="47.32697" lon="-2.42618">
        <ele>30.60000038147</ele>
        <time>2020-09-06T09:40:35.000Z</time>
      </trkpt>
      <trkpt lat="47.32684" lon="-2.42578">
        <ele>30.60000038147</ele>
        <time>2020-09-06T09:40:41.000Z</time>
      </trkpt>
      <trkpt lat="47.32667" lon="-2.42525">
        <ele>30.60000038147</ele>
        <time>2020-09-06T09:40:48.000Z</time>
      </trkpt>
      <trkpt lat="47.32649" lon="-2.42477">
        <ele>30.60000038147</ele>
        <time>2020-09-06T09:40:55.000Z</time>
      </trkpt>
      <trkpt lat="47.32636" lon="-2.42447">
        <ele>30.60000038147</ele>
        <time>2020-09-06T09:41:01.000Z</time>
      </trkpt>
      <trkpt lat="47.32621" lon="-2.4241">
        <ele>30.60000038147</ele>
        <time>2020-09-06T09:41:07.000Z</time>
      </trkpt>
      <trkpt lat="47.32601" lon="-2.42368">
        <ele>30.60000038147</ele>
        <time>2020-09-06T09:41:14.000Z</time>
      </trkpt>
      <trkpt lat="47.32583" lon="-2.42334">
        <ele>30.60000038147</ele>
        <time>2020-09-06T09:41:21.000Z</time>
      </trkpt>
      <trkpt lat="47.32563" lon="-2.42296">
        <ele>30.60000038147</ele>
        <time>2020-09-06T09:41:29.000Z</time>
      </trkpt>
      <trkpt lat="47.32543" lon="-2.4226">
        <ele>30.60000038147</ele>
        <time>2020-09-06T09:41:36.000Z</time>
      </trkpt>
      <trkpt lat="47.32525" lon="-2.42227">
        <ele>30.60000038147</ele>
        <time>2020-09-06T09:41:42.000Z</time>
      </trkpt>
      <trkpt lat="47.3252" lon="-2.42217">
        <ele>30.60000038147</ele>
        <time>2020-09-06T09:41:44.000Z</time>
      </trkpt>
      <trkpt lat="47.32517" lon="-2.42213">
        <ele>30.60000038147</ele>
        <time>2020-09-06T09:41:45.000Z</time>
      </trkpt>
      <trkpt lat="47.3251" lon="-2.42204">
        <ele>31</ele>
        <time>2020-09-06T09:41:47.000Z</time>
      </trkpt>
      <trkpt lat="47.32507" lon="-2.42199">
        <ele>31.39999961853</ele>
        <time>2020-09-06T09:41:48.000Z</time>
      </trkpt>
      <trkpt lat="47.32505" lon="-2.42194">
        <ele>31.799999237061</ele>
        <time>2020-09-06T09:41:49.000Z</time>
      </trkpt>
      <trkpt lat="47.32503" lon="-2.42188">
        <ele>32.200000762939</ele>
        <time>2020-09-06T09:41:50.000Z</time>
      </trkpt>
      <trkpt lat="47.32501" lon="-2.42183">
        <ele>32.599998474121</ele>
        <time>2020-09-06T09:41:51.000Z</time>
      </trkpt>
      <trkpt lat="47.32492" lon="-2.42163">
        <ele>32.599998474121</ele>
        <time>2020-09-06T09:41:55.000Z</time>
      </trkpt>
      <trkpt lat="47.32487" lon="-2.42153">
        <ele>32.599998474121</ele>
        <time>2020-09-06T09:41:57.000Z</time>
      </trkpt>
      <trkpt lat="47.32483" lon="-2.42148">
        <ele>33.200000762939</ele>
        <time>2020-09-06T09:41:58.000Z</time>
      </trkpt>
      <trkpt lat="47.3248" lon="-2.42144">
        <ele>33.599998474121</ele>
        <time>2020-09-06T09:41:59.000Z</time>
      </trkpt>
      <trkpt lat="47.32477" lon="-2.4214">
        <ele>34</ele>
        <time>2020-09-06T09:42:00.000Z</time>
      </trkpt>
      <trkpt lat="47.32473" lon="-2.42137">
        <ele>34.400001525879</ele>
        <time>2020-09-06T09:42:01.000Z</time>
      </trkpt>
      <trkpt lat="47.32469" lon="-2.42134">
        <ele>35</ele>
        <time>2020-09-06T09:42:02.000Z</time>
      </trkpt>
      <trkpt lat="47.32446" lon="-2.42115">
        <ele>35</ele>
        <time>2020-09-06T09:42:07.000Z</time>
      </trkpt>
      <trkpt lat="47.32431" lon="-2.42101">
        <ele>35</ele>
        <time>2020-09-06T09:42:10.000Z</time>
      </trkpt>
      <trkpt lat="47.32422" lon="-2.4209">
        <ele>35</ele>
        <time>2020-09-06T09:42:12.000Z</time>
      </trkpt>
      <trkpt lat="47.32388" lon="-2.42051">
        <ele>35</ele>
        <time>2020-09-06T09:42:18.000Z</time>
      </trkpt>
      <trkpt lat="47.32348" lon="-2.42007">
        <ele>35</ele>
        <time>2020-09-06T09:42:24.000Z</time>
      </trkpt>
      <trkpt lat="47.32322" lon="-2.41979">
        <ele>34.599998474121</ele>
        <time>2020-09-06T09:42:28.000Z</time>
      </trkpt>
      <trkpt lat="47.32316" lon="-2.41973">
        <ele>34.200000762939</ele>
        <time>2020-09-06T09:42:29.000Z</time>
      </trkpt>
      <trkpt lat="47.32311" lon="-2.41968">
        <ele>33.799999237061</ele>
        <time>2020-09-06T09:42:30.000Z</time>
      </trkpt>
      <trkpt lat="47.32305" lon="-2.41962">
        <ele>33.400001525879</ele>
        <time>2020-09-06T09:42:31.000Z</time>
      </trkpt>
      <trkpt lat="47.323" lon="-2.41956">
        <ele>33</ele>
        <time>2020-09-06T09:42:32.000Z</time>
      </trkpt>
      <trkpt lat="47.32296" lon="-2.4195">
        <ele>33</ele>
        <time>2020-09-06T09:42:33.000Z</time>
      </trkpt>
      <trkpt lat="47.32289" lon="-2.41935">
        <ele>33</ele>
        <time>2020-09-06T09:42:35.000Z</time>
      </trkpt>
      <trkpt lat="47.32282" lon="-2.41923">
        <ele>32.599998474121</ele>
        <time>2020-09-06T09:42:37.000Z</time>
      </trkpt>
      <trkpt lat="47.32279" lon="-2.41917">
        <ele>32</ele>
        <time>2020-09-06T09:42:38.000Z</time>
      </trkpt>
      <trkpt lat="47.32276" lon="-2.41912">
        <ele>31.60000038147</ele>
        <time>2020-09-06T09:42:39.000Z</time>
      </trkpt>
      <trkpt lat="47.32273" lon="-2.41906">
        <ele>31.200000762939</ele>
        <time>2020-09-06T09:42:40.000Z</time>
      </trkpt>
      <trkpt lat="47.32269" lon="-2.419">
        <ele>30.799999237061</ele>
        <time>2020-09-06T09:42:41.000Z</time>
      </trkpt>
      <trkpt lat="47.32254" lon="-2.41876">
        <ele>30.799999237061</ele>
        <time>2020-09-06T09:42:46.000Z</time>
      </trkpt>
      <trkpt lat="47.32248" lon="-2.41856">
        <ele>30.799999237061</ele>
        <time>2020-09-06T09:42:50.000Z</time>
      </trkpt>
      <trkpt lat="47.32249" lon="-2.4185">
        <ele>30.799999237061</ele>
        <time>2020-09-06T09:42:51.000Z</time>
      </trkpt>
      <trkpt lat="47.32258" lon="-2.4183">
        <ele>30.799999237061</ele>
        <time>2020-09-06T09:42:54.000Z</time>
      </trkpt>
      <trkpt lat="47.32261" lon="-2.41823">
        <ele>30.799999237061</ele>
        <time>2020-09-06T09:42:55.000Z</time>
      </trkpt>
      <trkpt lat="47.32275" lon="-2.41794">
        <ele>30.799999237061</ele>
        <time>2020-09-06T09:42:59.000Z</time>
      </trkpt>
      <trkpt lat="47.32279" lon="-2.41788">
        <ele>30.799999237061</ele>
        <time>2020-09-06T09:43:00.000Z</time>
      </trkpt>
      <trkpt lat="47.32283" lon="-2.41781">
        <ele>30.799999237061</ele>
        <time>2020-09-06T09:43:01.000Z</time>
      </trkpt>
      <trkpt lat="47.32286" lon="-2.41766">
        <ele>30.799999237061</ele>
        <time>2020-09-06T09:43:03.000Z</time>
      </trkpt>
      <trkpt lat="47.32284" lon="-2.41752">
        <ele>30.799999237061</ele>
        <time>2020-09-06T09:43:05.000Z</time>
      </trkpt>
      <trkpt lat="47.32287" lon="-2.41739">
        <ele>30.799999237061</ele>
        <time>2020-09-06T09:43:07.000Z</time>
      </trkpt>
      <trkpt lat="47.32294" lon="-2.41725">
        <ele>30.799999237061</ele>
        <time>2020-09-06T09:43:09.000Z</time>
      </trkpt>
      <trkpt lat="47.32297" lon="-2.41718">
        <ele>30.799999237061</ele>
        <time>2020-09-06T09:43:10.000Z</time>
      </trkpt>
      <trkpt lat="47.32299" lon="-2.41711">
        <ele>30.799999237061</ele>
        <time>2020-09-06T09:43:11.000Z</time>
      </trkpt>
      <trkpt lat="47.323" lon="-2.4168">
        <ele>30.799999237061</ele>
        <time>2020-09-06T09:43:15.000Z</time>
      </trkpt>
      <trkpt lat="47.32301" lon="-2.41674">
        <ele>31.200000762939</ele>
        <time>2020-09-06T09:43:16.000Z</time>
      </trkpt>
      <trkpt lat="47.32301" lon="-2.41666">
        <ele>31.60000038147</ele>
        <time>2020-09-06T09:43:17.000Z</time>
      </trkpt>
      <trkpt lat="47.323" lon="-2.41659">
        <ele>32.200000762939</ele>
        <time>2020-09-06T09:43:18.000Z</time>
      </trkpt>
      <trkpt lat="47.32301" lon="-2.41652">
        <ele>32.599998474121</ele>
        <time>2020-09-06T09:43:19.000Z</time>
      </trkpt>
      <trkpt lat="47.32302" lon="-2.41644">
        <ele>33</ele>
        <time>2020-09-06T09:43:20.000Z</time>
      </trkpt>
      <trkpt lat="47.3231" lon="-2.41621">
        <ele>33</ele>
        <time>2020-09-06T09:43:23.000Z</time>
      </trkpt>
      <trkpt lat="47.32313" lon="-2.41613">
        <ele>33</ele>
        <time>2020-09-06T09:43:24.000Z</time>
      </trkpt>
      <trkpt lat="47.32324" lon="-2.41571">
        <ele>33</ele>
        <time>2020-09-06T09:43:29.000Z</time>
      </trkpt>
      <trkpt lat="47.32336" lon="-2.41553">
        <ele>33</ele>
        <time>2020-09-06T09:43:32.000Z</time>
      </trkpt>
      <trkpt lat="47.32358" lon="-2.41544">
        <ele>33</ele>
        <time>2020-09-06T09:43:36.000Z</time>
      </trkpt>
      <trkpt lat="47.32382" lon="-2.41549">
        <ele>33</ele>
        <time>2020-09-06T09:43:40.000Z</time>
      </trkpt>
      <trkpt lat="47.32392" lon="-2.41556">
        <ele>33</ele>
        <time>2020-09-06T09:43:42.000Z</time>
      </trkpt>
      <trkpt lat="47.32408" lon="-2.41565">
        <ele>33</ele>
        <time>2020-09-06T09:43:45.000Z</time>
      </trkpt>
      <trkpt lat="47.32432" lon="-2.41565">
        <ele>33</ele>
        <time>2020-09-06T09:43:49.000Z</time>
      </trkpt>
      <trkpt lat="47.32443" lon="-2.41566">
        <ele>33.400001525879</ele>
        <time>2020-09-06T09:43:51.000Z</time>
      </trkpt>
      <trkpt lat="47.32449" lon="-2.41567">
        <ele>33.799999237061</ele>
        <time>2020-09-06T09:43:52.000Z</time>
      </trkpt>
      <trkpt lat="47.32455" lon="-2.41568">
        <ele>34.200000762939</ele>
        <time>2020-09-06T09:43:53.000Z</time>
      </trkpt>
      <trkpt lat="47.3246" lon="-2.4157">
        <ele>34.599998474121</ele>
        <time>2020-09-06T09:43:54.000Z</time>
      </trkpt>
      <trkpt lat="47.32466" lon="-2.41573">
        <ele>35</ele>
        <time>2020-09-06T09:43:55.000Z</time>
      </trkpt>
      <trkpt lat="47.32506" lon="-2.41588">
        <ele>35</ele>
        <time>2020-09-06T09:44:02.000Z</time>
      </trkpt>
      <trkpt lat="47.32512" lon="-2.41588">
        <ele>35</ele>
        <time>2020-09-06T09:44:03.000Z</time>
      </trkpt>
      <trkpt lat="47.32533" lon="-2.4158">
        <ele>35</ele>
        <time>2020-09-06T09:44:07.000Z</time>
      </trkpt>
      <trkpt lat="47.32539" lon="-2.41578">
        <ele>35</ele>
        <time>2020-09-06T09:44:08.000Z</time>
      </trkpt>
      <trkpt lat="47.32544" lon="-2.41577">
        <ele>35</ele>
        <time>2020-09-06T09:44:09.000Z</time>
      </trkpt>
      <trkpt lat="47.3256" lon="-2.4158">
        <ele>35</ele>
        <time>2020-09-06T09:44:12.000Z</time>
      </trkpt>
      <trkpt lat="47.3257" lon="-2.41589">
        <ele>35</ele>
        <time>2020-09-06T09:44:14.000Z</time>
      </trkpt>
      <trkpt lat="47.32589" lon="-2.41606">
        <ele>35</ele>
        <time>2020-09-06T09:44:18.000Z</time>
      </trkpt>
      <trkpt lat="47.32605" lon="-2.41606">
        <ele>35</ele>
        <time>2020-09-06T09:44:21.000Z</time>
      </trkpt>
      <trkpt lat="47.32625" lon="-2.41606">
        <ele>35</ele>
        <time>2020-09-06T09:44:25.000Z</time>
      </trkpt>
      <trkpt lat="47.32655" lon="-2.41616">
        <ele>35</ele>
        <time>2020-09-06T09:44:30.000Z</time>
      </trkpt>
      <trkpt lat="47.32662" lon="-2.41618">
        <ele>34.599998474121</ele>
        <time>2020-09-06T09:44:31.000Z</time>
      </trkpt>
      <trkpt lat="47.32668" lon="-2.4162">
        <ele>34.200000762939</ele>
        <time>2020-09-06T09:44:32.000Z</time>
      </trkpt>
      <trkpt lat="47.32674" lon="-2.41623">
        <ele>33.799999237061</ele>
        <time>2020-09-06T09:44:33.000Z</time>
      </trkpt>
      <trkpt lat="47.3268" lon="-2.41625">
        <ele>33.400001525879</ele>
        <time>2020-09-06T09:44:34.000Z</time>
      </trkpt>
      <trkpt lat="47.32685" lon="-2.41626">
        <ele>32.799999237061</ele>
        <time>2020-09-06T09:44:35.000Z</time>
      </trkpt>
      <trkpt lat="47.32699" lon="-2.41627">
        <ele>32.400001525879</ele>
        <time>2020-09-06T09:44:38.000Z</time>
      </trkpt>
      <trkpt lat="47.32703" lon="-2.41627">
        <ele>31.60000038147</ele>
        <time>2020-09-06T09:44:39.000Z</time>
      </trkpt>
      <trkpt lat="47.32706" lon="-2.41627">
        <ele>31.200000762939</ele>
        <time>2020-09-06T09:44:40.000Z</time>
      </trkpt>
      <trkpt lat="47.32709" lon="-2.41627">
        <ele>30.799999237061</ele>
        <time>2020-09-06T09:44:41.000Z</time>
      </trkpt>
      <trkpt lat="47.32717" lon="-2.41628">
        <ele>30.799999237061</ele>
        <time>2020-09-06T09:44:44.000Z</time>
      </trkpt>
      <trkpt lat="47.32718" lon="-2.41625">
        <ele>30.799999237061</ele>
        <time>2020-09-06T09:44:45.000Z</time>
      </trkpt>
      <trkpt lat="47.32715" lon="-2.41613">
        <ele>30.39999961853</ele>
        <time>2020-09-06T09:44:48.000Z</time>
      </trkpt>
      <trkpt lat="47.32713" lon="-2.4161">
        <ele>30</ele>
        <time>2020-09-06T09:44:49.000Z</time>
      </trkpt>
      <trkpt lat="47.32711" lon="-2.41606">
        <ele>29.60000038147</ele>
        <time>2020-09-06T09:44:50.000Z</time>
      </trkpt>
      <trkpt lat="47.32709" lon="-2.41602">
        <ele>29.200000762939</ele>
        <time>2020-09-06T09:44:51.000Z</time>
      </trkpt>
      <trkpt lat="47.32708" lon="-2.41597">
        <ele>28.799999237061</ele>
        <time>2020-09-06T09:44:52.000Z</time>
      </trkpt>
      <trkpt lat="47.32706" lon="-2.41591">
        <ele>28.799999237061</ele>
        <time>2020-09-06T09:44:54.000Z</time>
      </trkpt>
      <trkpt lat="47.32705" lon="-2.41578">
        <ele>28.799999237061</ele>
        <time>2020-09-06T09:44:59.000Z</time>
      </trkpt>
      <trkpt lat="47.32702" lon="-2.41568">
        <ele>28.799999237061</ele>
        <time>2020-09-06T09:45:02.000Z</time>
      </trkpt>
      <trkpt lat="47.32701" lon="-2.41545">
        <ele>28.799999237061</ele>
        <time>2020-09-06T09:45:06.000Z</time>
      </trkpt>
      <trkpt lat="47.32688" lon="-2.41537">
        <ele>28.799999237061</ele>
        <time>2020-09-06T09:45:10.000Z</time>
      </trkpt>
      <trkpt lat="47.32683" lon="-2.41536">
        <ele>28.799999237061</ele>
        <time>2020-09-06T09:45:11.000Z</time>
      </trkpt>
      <trkpt lat="47.32656" lon="-2.41532">
        <ele>29.200000762939</ele>
        <time>2020-09-06T09:45:17.000Z</time>
      </trkpt>
      <trkpt lat="47.32651" lon="-2.41531">
        <ele>29.60000038147</ele>
        <time>2020-09-06T09:45:18.000Z</time>
      </trkpt>
      <trkpt lat="47.32646" lon="-2.4153">
        <ele>30</ele>
        <time>2020-09-06T09:45:19.000Z</time>
      </trkpt>
      <trkpt lat="47.3264" lon="-2.41528">
        <ele>30.60000038147</ele>
        <time>2020-09-06T09:45:20.000Z</time>
      </trkpt>
      <trkpt lat="47.32635" lon="-2.41527">
        <ele>31</ele>
        <time>2020-09-06T09:45:21.000Z</time>
      </trkpt>
      <trkpt lat="47.32624" lon="-2.41524">
        <ele>31</ele>
        <time>2020-09-06T09:45:23.000Z</time>
      </trkpt>
      <trkpt lat="47.32587" lon="-2.41516">
        <ele>31</ele>
        <time>2020-09-06T09:45:30.000Z</time>
      </trkpt>
      <trkpt lat="47.32582" lon="-2.41514">
        <ele>31</ele>
        <time>2020-09-06T09:45:31.000Z</time>
      </trkpt>
      <trkpt lat="47.32576" lon="-2.41505">
        <ele>31</ele>
        <time>2020-09-06T09:45:33.000Z</time>
      </trkpt>
      <trkpt lat="47.32574" lon="-2.41498">
        <ele>31.39999961853</ele>
        <time>2020-09-06T09:45:34.000Z</time>
      </trkpt>
      <trkpt lat="47.32573" lon="-2.41491">
        <ele>31.799999237061</ele>
        <time>2020-09-06T09:45:35.000Z</time>
      </trkpt>
      <trkpt lat="47.3257" lon="-2.41483">
        <ele>32.200000762939</ele>
        <time>2020-09-06T09:45:36.000Z</time>
      </trkpt>
      <trkpt lat="47.32567" lon="-2.41477">
        <ele>32.599998474121</ele>
        <time>2020-09-06T09:45:37.000Z</time>
      </trkpt>
      <trkpt lat="47.32563" lon="-2.41469">
        <ele>33.200000762939</ele>
        <time>2020-09-06T09:45:38.000Z</time>
      </trkpt>
      <trkpt lat="47.32559" lon="-2.41462">
        <ele>33.200000762939</ele>
        <time>2020-09-06T09:45:39.000Z</time>
      </trkpt>
      <trkpt lat="47.3254" lon="-2.41427">
        <ele>33.200000762939</ele>
        <time>2020-09-06T09:45:44.000Z</time>
      </trkpt>
      <trkpt lat="47.32514" lon="-2.41377">
        <ele>33.200000762939</ele>
        <time>2020-09-06T09:45:51.000Z</time>
      </trkpt>
      <trkpt lat="47.32479" lon="-2.41312">
        <ele>33.200000762939</ele>
        <time>2020-09-06T09:46:00.000Z</time>
      </trkpt>
      <trkpt lat="47.32457" lon="-2.41265">
        <ele>33.200000762939</ele>
        <time>2020-09-06T09:46:06.000Z</time>
      </trkpt>
      <trkpt lat="47.32427" lon="-2.41209">
        <ele>33.200000762939</ele>
        <time>2020-09-06T09:46:14.000Z</time>
      </trkpt>
      <trkpt lat="47.32416" lon="-2.41182">
        <ele>33.200000762939</ele>
        <time>2020-09-06T09:46:18.000Z</time>
      </trkpt>
      <trkpt lat="47.32412" lon="-2.41168">
        <ele>33.200000762939</ele>
        <time>2020-09-06T09:46:20.000Z</time>
      </trkpt>
      <trkpt lat="47.32402" lon="-2.4114">
        <ele>33.599998474121</ele>
        <time>2020-09-06T09:46:24.000Z</time>
      </trkpt>
      <trkpt lat="47.32399" lon="-2.41133">
        <ele>34</ele>
        <time>2020-09-06T09:46:25.000Z</time>
      </trkpt>
      <trkpt lat="47.32396" lon="-2.41127">
        <ele>34.400001525879</ele>
        <time>2020-09-06T09:46:26.000Z</time>
      </trkpt>
      <trkpt lat="47.32392" lon="-2.4112">
        <ele>34.799999237061</ele>
        <time>2020-09-06T09:46:27.000Z</time>
      </trkpt>
      <trkpt lat="47.32389" lon="-2.41114">
        <ele>35.200000762939</ele>
        <time>2020-09-06T09:46:28.000Z</time>
      </trkpt>
      <trkpt lat="47.32376" lon="-2.4109">
        <ele>35.200000762939</ele>
        <time>2020-09-06T09:46:32.000Z</time>
      </trkpt>
      <trkpt lat="47.32367" lon="-2.41069">
        <ele>35.200000762939</ele>
        <time>2020-09-06T09:46:36.000Z</time>
      </trkpt>
      <trkpt lat="47.32364" lon="-2.41065">
        <ele>35.200000762939</ele>
        <time>2020-09-06T09:46:37.000Z</time>
      </trkpt>
      <trkpt lat="47.32347" lon="-2.41036">
        <ele>35.200000762939</ele>
        <time>2020-09-06T09:46:42.000Z</time>
      </trkpt>
      <trkpt lat="47.32315" lon="-2.40977">
        <ele>35.200000762939</ele>
        <time>2020-09-06T09:46:50.000Z</time>
      </trkpt>
      <trkpt lat="47.32281" lon="-2.40913">
        <ele>35.200000762939</ele>
        <time>2020-09-06T09:46:58.000Z</time>
      </trkpt>
      <trkpt lat="47.32244" lon="-2.40846">
        <ele>35.200000762939</ele>
        <time>2020-09-06T09:47:07.000Z</time>
      </trkpt>
      <trkpt lat="47.3224" lon="-2.40839">
        <ele>34.799999237061</ele>
        <time>2020-09-06T09:47:08.000Z</time>
      </trkpt>
      <trkpt lat="47.32235" lon="-2.40833">
        <ele>34.400001525879</ele>
        <time>2020-09-06T09:47:09.000Z</time>
      </trkpt>
      <trkpt lat="47.32231" lon="-2.40826">
        <ele>33.799999237061</ele>
        <time>2020-09-06T09:47:10.000Z</time>
      </trkpt>
      <trkpt lat="47.32227" lon="-2.4082">
        <ele>33.400001525879</ele>
        <time>2020-09-06T09:47:11.000Z</time>
      </trkpt>
      <trkpt lat="47.32224" lon="-2.40817">
        <ele>33</ele>
        <time>2020-09-06T09:47:12.000Z</time>
      </trkpt>
      <trkpt lat="47.32221" lon="-2.40814">
        <ele>33</ele>
        <time>2020-09-06T09:47:13.000Z</time>
      </trkpt>
      <trkpt lat="47.32215" lon="-2.40805">
        <ele>33</ele>
        <time>2020-09-06T09:47:15.000Z</time>
      </trkpt>
      <trkpt lat="47.3221" lon="-2.40795">
        <ele>33</ele>
        <time>2020-09-06T09:47:17.000Z</time>
      </trkpt>
      <trkpt lat="47.32203" lon="-2.40787">
        <ele>33</ele>
        <time>2020-09-06T09:47:19.000Z</time>
      </trkpt>
      <trkpt lat="47.32195" lon="-2.40778">
        <ele>33</ele>
        <time>2020-09-06T09:47:21.000Z</time>
      </trkpt>
      <trkpt lat="47.32177" lon="-2.40751">
        <ele>33</ele>
        <time>2020-09-06T09:47:25.000Z</time>
      </trkpt>
      <trkpt lat="47.32133" lon="-2.40698">
        <ele>33</ele>
        <time>2020-09-06T09:47:33.000Z</time>
      </trkpt>
      <trkpt lat="47.32084" lon="-2.40646">
        <ele>33</ele>
        <time>2020-09-06T09:47:41.000Z</time>
      </trkpt>
      <trkpt lat="47.32046" lon="-2.40609">
        <ele>33</ele>
        <time>2020-09-06T09:47:47.000Z</time>
      </trkpt>
      <trkpt lat="47.32" lon="-2.40572">
        <ele>33</ele>
        <time>2020-09-06T09:47:54.000Z</time>
      </trkpt>
      <trkpt lat="47.31981" lon="-2.40558">
        <ele>32.200000762939</ele>
        <time>2020-09-06T09:47:57.000Z</time>
      </trkpt>
      <trkpt lat="47.31975" lon="-2.40553">
        <ele>31.799999237061</ele>
        <time>2020-09-06T09:47:58.000Z</time>
      </trkpt>
      <trkpt lat="47.31968" lon="-2.40548">
        <ele>31.39999961853</ele>
        <time>2020-09-06T09:47:59.000Z</time>
      </trkpt>
      <trkpt lat="47.31962" lon="-2.40542">
        <ele>31</ele>
        <time>2020-09-06T09:48:00.000Z</time>
      </trkpt>
      <trkpt lat="47.31915" lon="-2.40506">
        <ele>31</ele>
        <time>2020-09-06T09:48:07.000Z</time>
      </trkpt>
      <trkpt lat="47.31868" lon="-2.40466">
        <ele>31</ele>
        <time>2020-09-06T09:48:14.000Z</time>
      </trkpt>
      <trkpt lat="47.31861" lon="-2.40461">
        <ele>31</ele>
        <time>2020-09-06T09:48:15.000Z</time>
      </trkpt>
      <trkpt lat="47.31836" lon="-2.40444">
        <ele>30.39999961853</ele>
        <time>2020-09-06T09:48:19.000Z</time>
      </trkpt>
      <trkpt lat="47.3183" lon="-2.4044">
        <ele>30</ele>
        <time>2020-09-06T09:48:20.000Z</time>
      </trkpt>
      <trkpt lat="47.31824" lon="-2.40436">
        <ele>29.60000038147</ele>
        <time>2020-09-06T09:48:21.000Z</time>
      </trkpt>
      <trkpt lat="47.31817" lon="-2.40432">
        <ele>28.60000038147</ele>
        <time>2020-09-06T09:48:22.000Z</time>
      </trkpt>
      <trkpt lat="47.3179" lon="-2.4041">
        <ele>28.60000038147</ele>
        <time>2020-09-06T09:48:26.000Z</time>
      </trkpt>
      <trkpt lat="47.31738" lon="-2.4037">
        <ele>28.60000038147</ele>
        <time>2020-09-06T09:48:34.000Z</time>
      </trkpt>
      <trkpt lat="47.31718" lon="-2.40356">
        <ele>28.200000762939</ele>
        <time>2020-09-06T09:48:37.000Z</time>
      </trkpt>
      <trkpt lat="47.31712" lon="-2.40351">
        <ele>27.60000038147</ele>
        <time>2020-09-06T09:48:38.000Z</time>
      </trkpt>
      <trkpt lat="47.31706" lon="-2.40346">
        <ele>27</ele>
        <time>2020-09-06T09:48:39.000Z</time>
      </trkpt>
      <trkpt lat="47.317" lon="-2.40341">
        <ele>26.39999961853</ele>
        <time>2020-09-06T09:48:40.000Z</time>
      </trkpt>
      <trkpt lat="47.31695" lon="-2.40337">
        <ele>25.799999237061</ele>
        <time>2020-09-06T09:48:41.000Z</time>
      </trkpt>
      <trkpt lat="47.31687" lon="-2.40333">
        <ele>25.799999237061</ele>
        <time>2020-09-06T09:48:43.000Z</time>
      </trkpt>
      <trkpt lat="47.31679" lon="-2.40328">
        <ele>25.799999237061</ele>
        <time>2020-09-06T09:48:48.000Z</time>
      </trkpt>
      <trkpt lat="47.31679" lon="-2.40328">
        <ele>25.799999237061</ele>
        <time>2020-09-06T09:48:49.000Z</time>
      </trkpt>
      <trkpt lat="47.31676" lon="-2.40325">
        <ele>25.799999237061</ele>
        <time>2020-09-06T09:49:06.000Z</time>
      </trkpt>
      <trkpt lat="47.31673" lon="-2.40322">
        <ele>25.799999237061</ele>
        <time>2020-09-06T09:49:08.000Z</time>
      </trkpt>
      <trkpt lat="47.31664" lon="-2.40314">
        <ele>25.799999237061</ele>
        <time>2020-09-06T09:49:11.000Z</time>
      </trkpt>
      <trkpt lat="47.31647" lon="-2.403">
        <ele>25.39999961853</ele>
        <time>2020-09-06T09:49:15.000Z</time>
      </trkpt>
      <trkpt lat="47.31642" lon="-2.40297">
        <ele>25</ele>
        <time>2020-09-06T09:49:16.000Z</time>
      </trkpt>
      <trkpt lat="47.31638" lon="-2.40293">
        <ele>24.60000038147</ele>
        <time>2020-09-06T09:49:17.000Z</time>
      </trkpt>
      <trkpt lat="47.31634" lon="-2.4029">
        <ele>24.200000762939</ele>
        <time>2020-09-06T09:49:18.000Z</time>
      </trkpt>
      <trkpt lat="47.31629" lon="-2.40287">
        <ele>23.799999237061</ele>
        <time>2020-09-06T09:49:19.000Z</time>
      </trkpt>
      <trkpt lat="47.31611" lon="-2.40273">
        <ele>23.799999237061</ele>
        <time>2020-09-06T09:49:23.000Z</time>
      </trkpt>
      <trkpt lat="47.31586" lon="-2.40253">
        <ele>23.799999237061</ele>
        <time>2020-09-06T09:49:28.000Z</time>
      </trkpt>
      <trkpt lat="47.31581" lon="-2.4025">
        <ele>23.799999237061</ele>
        <time>2020-09-06T09:49:29.000Z</time>
      </trkpt>
      <trkpt lat="47.31566" lon="-2.40238">
        <ele>23.799999237061</ele>
        <time>2020-09-06T09:49:32.000Z</time>
      </trkpt>
      <trkpt lat="47.31556" lon="-2.40231">
        <ele>23.799999237061</ele>
        <time>2020-09-06T09:49:34.000Z</time>
      </trkpt>
      <trkpt lat="47.31528" lon="-2.40208">
        <ele>23.39999961853</ele>
        <time>2020-09-06T09:49:40.000Z</time>
      </trkpt>
      <trkpt lat="47.31523" lon="-2.40204">
        <ele>23</ele>
        <time>2020-09-06T09:49:41.000Z</time>
      </trkpt>
      <trkpt lat="47.31517" lon="-2.402">
        <ele>22.60000038147</ele>
        <time>2020-09-06T09:49:42.000Z</time>
      </trkpt>
      <trkpt lat="47.31512" lon="-2.40196">
        <ele>22.200000762939</ele>
        <time>2020-09-06T09:49:43.000Z</time>
      </trkpt>
      <trkpt lat="47.31506" lon="-2.40193">
        <ele>21.799999237061</ele>
        <time>2020-09-06T09:49:44.000Z</time>
      </trkpt>
      <trkpt lat="47.31483" lon="-2.40178">
        <ele>21.799999237061</ele>
        <time>2020-09-06T09:49:48.000Z</time>
      </trkpt>
      <trkpt lat="47.31444" lon="-2.40149">
        <ele>21.799999237061</ele>
        <time>2020-09-06T09:49:55.000Z</time>
      </trkpt>
      <trkpt lat="47.31417" lon="-2.40129">
        <ele>21.39999961853</ele>
        <time>2020-09-06T09:50:00.000Z</time>
      </trkpt>
      <trkpt lat="47.31412" lon="-2.40126">
        <ele>20.60000038147</ele>
        <time>2020-09-06T09:50:01.000Z</time>
      </trkpt>
      <trkpt lat="47.31407" lon="-2.40123">
        <ele>20</ele>
        <time>2020-09-06T09:50:02.000Z</time>
      </trkpt>
      <trkpt lat="47.31402" lon="-2.4012">
        <ele>19.60000038147</ele>
        <time>2020-09-06T09:50:03.000Z</time>
      </trkpt>
      <trkpt lat="47.31375" lon="-2.40104">
        <ele>19.60000038147</ele>
        <time>2020-09-06T09:50:08.000Z</time>
      </trkpt>
      <trkpt lat="47.31336" lon="-2.40084">
        <ele>19.60000038147</ele>
        <time>2020-09-06T09:50:15.000Z</time>
      </trkpt>
      <trkpt lat="47.31303" lon="-2.40073">
        <ele>19.60000038147</ele>
        <time>2020-09-06T09:50:21.000Z</time>
      </trkpt>
      <trkpt lat="47.31286" lon="-2.40069">
        <ele>19.200000762939</ele>
        <time>2020-09-06T09:50:24.000Z</time>
      </trkpt>
      <trkpt lat="47.31281" lon="-2.40068">
        <ele>18.39999961853</ele>
        <time>2020-09-06T09:50:25.000Z</time>
      </trkpt>
      <trkpt lat="47.31274" lon="-2.40068">
        <ele>18</ele>
        <time>2020-09-06T09:50:26.000Z</time>
      </trkpt>
      <trkpt lat="47.31268" lon="-2.40065">
        <ele>17.60000038147</ele>
        <time>2020-09-06T09:50:27.000Z</time>
      </trkpt>
      <trkpt lat="47.31263" lon="-2.40061">
        <ele>17.60000038147</ele>
        <time>2020-09-06T09:50:28.000Z</time>
      </trkpt>
      <trkpt lat="47.31253" lon="-2.4005">
        <ele>17.60000038147</ele>
        <time>2020-09-06T09:50:31.000Z</time>
      </trkpt>
      <trkpt lat="47.31244" lon="-2.40046">
        <ele>17.60000038147</ele>
        <time>2020-09-06T09:50:34.000Z</time>
      </trkpt>
      <trkpt lat="47.31242" lon="-2.40044">
        <ele>17.60000038147</ele>
        <time>2020-09-06T09:50:35.000Z</time>
      </trkpt>
      <trkpt lat="47.31236" lon="-2.40025">
        <ele>17.60000038147</ele>
        <time>2020-09-06T09:50:39.000Z</time>
      </trkpt>
      <trkpt lat="47.31234" lon="-2.4002">
        <ele>17.60000038147</ele>
        <time>2020-09-06T09:50:40.000Z</time>
      </trkpt>
      <trkpt lat="47.31229" lon="-2.39998">
        <ele>17.60000038147</ele>
        <time>2020-09-06T09:50:45.000Z</time>
      </trkpt>
      <trkpt lat="47.31219" lon="-2.39975">
        <ele>17.60000038147</ele>
        <time>2020-09-06T09:50:51.000Z</time>
      </trkpt>
      <trkpt lat="47.31215" lon="-2.39962">
        <ele>18</ele>
        <time>2020-09-06T09:50:54.000Z</time>
      </trkpt>
      <trkpt lat="47.31214" lon="-2.39958">
        <ele>18.60000038147</ele>
        <time>2020-09-06T09:50:55.000Z</time>
      </trkpt>
      <trkpt lat="47.31212" lon="-2.39954">
        <ele>19</ele>
        <time>2020-09-06T09:50:56.000Z</time>
      </trkpt>
      <trkpt lat="47.31211" lon="-2.39949">
        <ele>19.39999961853</ele>
        <time>2020-09-06T09:50:57.000Z</time>
      </trkpt>
      <trkpt lat="47.3121" lon="-2.39945">
        <ele>19.799999237061</ele>
        <time>2020-09-06T09:50:58.000Z</time>
      </trkpt>
      <trkpt lat="47.312" lon="-2.39914">
        <ele>19.799999237061</ele>
        <time>2020-09-06T09:51:05.000Z</time>
      </trkpt>
      <trkpt lat="47.31194" lon="-2.39898">
        <ele>20.200000762939</ele>
        <time>2020-09-06T09:51:08.000Z</time>
      </trkpt>
      <trkpt lat="47.31193" lon="-2.39894">
        <ele>20.60000038147</ele>
        <time>2020-09-06T09:51:09.000Z</time>
      </trkpt>
      <trkpt lat="47.31192" lon="-2.3989">
        <ele>21</ele>
        <time>2020-09-06T09:51:10.000Z</time>
      </trkpt>
      <trkpt lat="47.31191" lon="-2.39886">
        <ele>21.39999961853</ele>
        <time>2020-09-06T09:51:11.000Z</time>
      </trkpt>
      <trkpt lat="47.31189" lon="-2.39881">
        <ele>22</ele>
        <time>2020-09-06T09:51:12.000Z</time>
      </trkpt>
      <trkpt lat="47.31187" lon="-2.39875">
        <ele>22</ele>
        <time>2020-09-06T09:51:13.000Z</time>
      </trkpt>
      <trkpt lat="47.31185" lon="-2.39867">
        <ele>22</ele>
        <time>2020-09-06T09:51:14.000Z</time>
      </trkpt>
      <trkpt lat="47.31177" lon="-2.39845">
        <ele>22</ele>
        <time>2020-09-06T09:51:17.000Z</time>
      </trkpt>
      <trkpt lat="47.31171" lon="-2.3983">
        <ele>22</ele>
        <time>2020-09-06T09:51:19.000Z</time>
      </trkpt>
      <trkpt lat="47.3115" lon="-2.39782">
        <ele>22</ele>
        <time>2020-09-06T09:51:26.000Z</time>
      </trkpt>
      <trkpt lat="47.31136" lon="-2.39742">
        <ele>22.39999961853</ele>
        <time>2020-09-06T09:51:32.000Z</time>
      </trkpt>
      <trkpt lat="47.31134" lon="-2.39736">
        <ele>22.799999237061</ele>
        <time>2020-09-06T09:51:33.000Z</time>
      </trkpt>
      <trkpt lat="47.31131" lon="-2.39729">
        <ele>23.200000762939</ele>
        <time>2020-09-06T09:51:34.000Z</time>
      </trkpt>
      <trkpt lat="47.31129" lon="-2.39723">
        <ele>23.60000038147</ele>
        <time>2020-09-06T09:51:35.000Z</time>
      </trkpt>
      <trkpt lat="47.31127" lon="-2.39717">
        <ele>24</ele>
        <time>2020-09-06T09:51:36.000Z</time>
      </trkpt>
      <trkpt lat="47.31113" lon="-2.39678">
        <ele>24</ele>
        <time>2020-09-06T09:51:42.000Z</time>
      </trkpt>
      <trkpt lat="47.31097" lon="-2.39632">
        <ele>24.39999961853</ele>
        <time>2020-09-06T09:51:49.000Z</time>
      </trkpt>
      <trkpt lat="47.31095" lon="-2.39626">
        <ele>24.799999237061</ele>
        <time>2020-09-06T09:51:50.000Z</time>
      </trkpt>
      <trkpt lat="47.31092" lon="-2.39619">
        <ele>25.200000762939</ele>
        <time>2020-09-06T09:51:51.000Z</time>
      </trkpt>
      <trkpt lat="47.3109" lon="-2.39612">
        <ele>25.60000038147</ele>
        <time>2020-09-06T09:51:52.000Z</time>
      </trkpt>
      <trkpt lat="47.31088" lon="-2.39605">
        <ele>26</ele>
        <time>2020-09-06T09:51:53.000Z</time>
      </trkpt>
      <trkpt lat="47.31077" lon="-2.39575">
        <ele>26</ele>
        <time>2020-09-06T09:51:57.000Z</time>
      </trkpt>
      <trkpt lat="47.31059" lon="-2.3952">
        <ele>26</ele>
        <time>2020-09-06T09:52:03.000Z</time>
      </trkpt>
      <trkpt lat="47.31033" lon="-2.39444">
        <ele>26</ele>
        <time>2020-09-06T09:52:10.000Z</time>
      </trkpt>
      <trkpt lat="47.31016" lon="-2.39398">
        <ele>26</ele>
        <time>2020-09-06T09:52:15.000Z</time>
      </trkpt>
      <trkpt lat="47.3099" lon="-2.39319">
        <ele>26</ele>
        <time>2020-09-06T09:52:24.000Z</time>
      </trkpt>
      <trkpt lat="47.30969" lon="-2.39258">
        <ele>26</ele>
        <time>2020-09-06T09:52:31.000Z</time>
      </trkpt>
      <trkpt lat="47.30947" lon="-2.39209">
        <ele>26</ele>
        <time>2020-09-06T09:52:37.000Z</time>
      </trkpt>
      <trkpt lat="47.30925" lon="-2.39158">
        <ele>26</ele>
        <time>2020-09-06T09:52:43.000Z</time>
      </trkpt>
      <trkpt lat="47.30903" lon="-2.39096">
        <ele>26</ele>
        <time>2020-09-06T09:52:50.000Z</time>
      </trkpt>
      <trkpt lat="47.30899" lon="-2.39078">
        <ele>26</ele>
        <time>2020-09-06T09:52:52.000Z</time>
      </trkpt>
      <trkpt lat="47.30898" lon="-2.39059">
        <ele>26</ele>
        <time>2020-09-06T09:52:54.000Z</time>
      </trkpt>
      <trkpt lat="47.30899" lon="-2.39041">
        <ele>26</ele>
        <time>2020-09-06T09:52:56.000Z</time>
      </trkpt>
      <trkpt lat="47.30901" lon="-2.39005">
        <ele>26</ele>
        <time>2020-09-06T09:53:00.000Z</time>
      </trkpt>
      <trkpt lat="47.30905" lon="-2.38979">
        <ele>26</ele>
        <time>2020-09-06T09:53:03.000Z</time>
      </trkpt>
      <trkpt lat="47.3091" lon="-2.38963">
        <ele>26</ele>
        <time>2020-09-06T09:53:05.000Z</time>
      </trkpt>
      <trkpt lat="47.30926" lon="-2.38925">
        <ele>26</ele>
        <time>2020-09-06T09:53:10.000Z</time>
      </trkpt>
      <trkpt lat="47.30923" lon="-2.38899">
        <ele>26</ele>
        <time>2020-09-06T09:53:13.000Z</time>
      </trkpt>
      <trkpt lat="47.3091" lon="-2.38885">
        <ele>26</ele>
        <time>2020-09-06T09:53:16.000Z</time>
      </trkpt>
      <trkpt lat="47.30893" lon="-2.38884">
        <ele>26</ele>
        <time>2020-09-06T09:53:20.000Z</time>
      </trkpt>
      <trkpt lat="47.30889" lon="-2.38886">
        <ele>26</ele>
        <time>2020-09-06T09:53:21.000Z</time>
      </trkpt>
      <trkpt lat="47.30884" lon="-2.38888">
        <ele>26</ele>
        <time>2020-09-06T09:53:22.000Z</time>
      </trkpt>
      <trkpt lat="47.30872" lon="-2.38888">
        <ele>26</ele>
        <time>2020-09-06T09:53:24.000Z</time>
      </trkpt>
      <trkpt lat="47.3086" lon="-2.38889">
        <ele>26</ele>
        <time>2020-09-06T09:53:26.000Z</time>
      </trkpt>
      <trkpt lat="47.30847" lon="-2.38897">
        <ele>25.60000038147</ele>
        <time>2020-09-06T09:53:28.000Z</time>
      </trkpt>
      <trkpt lat="47.3084" lon="-2.38902">
        <ele>25.200000762939</ele>
        <time>2020-09-06T09:53:29.000Z</time>
      </trkpt>
      <trkpt lat="47.30833" lon="-2.38908">
        <ele>24.799999237061</ele>
        <time>2020-09-06T09:53:30.000Z</time>
      </trkpt>
      <trkpt lat="47.30825" lon="-2.38913">
        <ele>24.200000762939</ele>
        <time>2020-09-06T09:53:31.000Z</time>
      </trkpt>
      <trkpt lat="47.30818" lon="-2.38919">
        <ele>23.799999237061</ele>
        <time>2020-09-06T09:53:32.000Z</time>
      </trkpt>
      <trkpt lat="47.30796" lon="-2.38936">
        <ele>23.799999237061</ele>
        <time>2020-09-06T09:53:35.000Z</time>
      </trkpt>
      <trkpt lat="47.30765" lon="-2.38961">
        <ele>23.799999237061</ele>
        <time>2020-09-06T09:53:40.000Z</time>
      </trkpt>
      <trkpt lat="47.30756" lon="-2.38973">
        <ele>23.799999237061</ele>
        <time>2020-09-06T09:53:42.000Z</time>
      </trkpt>
      <trkpt lat="47.30748" lon="-2.38987">
        <ele>23.799999237061</ele>
        <time>2020-09-06T09:53:44.000Z</time>
      </trkpt>
      <trkpt lat="47.3074" lon="-2.38999">
        <ele>23.799999237061</ele>
        <time>2020-09-06T09:53:46.000Z</time>
      </trkpt>
      <trkpt lat="47.30729" lon="-2.39001">
        <ele>23.799999237061</ele>
        <time>2020-09-06T09:53:48.000Z</time>
      </trkpt>
      <trkpt lat="47.30716" lon="-2.38986">
        <ele>23.799999237061</ele>
        <time>2020-09-06T09:53:51.000Z</time>
      </trkpt>
      <trkpt lat="47.30704" lon="-2.38966">
        <ele>23.799999237061</ele>
        <time>2020-09-06T09:53:54.000Z</time>
      </trkpt>
      <trkpt lat="47.307" lon="-2.38959">
        <ele>23.799999237061</ele>
        <time>2020-09-06T09:53:55.000Z</time>
      </trkpt>
      <trkpt lat="47.30697" lon="-2.38951">
        <ele>23.799999237061</ele>
        <time>2020-09-06T09:53:56.000Z</time>
      </trkpt>
      <trkpt lat="47.30695" lon="-2.38927">
        <ele>23.799999237061</ele>
        <time>2020-09-06T09:53:59.000Z</time>
      </trkpt>
      <trkpt lat="47.30685" lon="-2.38913">
        <ele>23.799999237061</ele>
        <time>2020-09-06T09:54:02.000Z</time>
      </trkpt>
      <trkpt lat="47.30671" lon="-2.38924">
        <ele>23.799999237061</ele>
        <time>2020-09-06T09:54:05.000Z</time>
      </trkpt>
      <trkpt lat="47.30661" lon="-2.38935">
        <ele>24.60000038147</ele>
        <time>2020-09-06T09:54:07.000Z</time>
      </trkpt>
      <trkpt lat="47.30656" lon="-2.3894">
        <ele>25</ele>
        <time>2020-09-06T09:54:08.000Z</time>
      </trkpt>
      <trkpt lat="47.30651" lon="-2.38945">
        <ele>25.39999961853</ele>
        <time>2020-09-06T09:54:09.000Z</time>
      </trkpt>
      <trkpt lat="47.30645" lon="-2.38951">
        <ele>25.799999237061</ele>
        <time>2020-09-06T09:54:10.000Z</time>
      </trkpt>
      <trkpt lat="47.30628" lon="-2.38967">
        <ele>25.799999237061</ele>
        <time>2020-09-06T09:54:13.000Z</time>
      </trkpt>
      <trkpt lat="47.30604" lon="-2.3899">
        <ele>25.799999237061</ele>
        <time>2020-09-06T09:54:17.000Z</time>
      </trkpt>
      <trkpt lat="47.30587" lon="-2.39011">
        <ele>25.799999237061</ele>
        <time>2020-09-06T09:54:20.000Z</time>
      </trkpt>
      <trkpt lat="47.30546" lon="-2.39059">
        <ele>25.799999237061</ele>
        <time>2020-09-06T09:54:27.000Z</time>
      </trkpt>
      <trkpt lat="47.3054" lon="-2.39065">
        <ele>25.39999961853</ele>
        <time>2020-09-06T09:54:28.000Z</time>
      </trkpt>
      <trkpt lat="47.30534" lon="-2.39072">
        <ele>25</ele>
        <time>2020-09-06T09:54:29.000Z</time>
      </trkpt>
      <trkpt lat="47.30527" lon="-2.39078">
        <ele>24.60000038147</ele>
        <time>2020-09-06T09:54:30.000Z</time>
      </trkpt>
      <trkpt lat="47.30521" lon="-2.39085">
        <ele>24.200000762939</ele>
        <time>2020-09-06T09:54:31.000Z</time>
      </trkpt>
      <trkpt lat="47.30515" lon="-2.3909">
        <ele>23.799999237061</ele>
        <time>2020-09-06T09:54:32.000Z</time>
      </trkpt>
      <trkpt lat="47.30502" lon="-2.39101">
        <ele>23.39999961853</ele>
        <time>2020-09-06T09:54:34.000Z</time>
      </trkpt>
      <trkpt lat="47.30496" lon="-2.39106">
        <ele>23</ele>
        <time>2020-09-06T09:54:35.000Z</time>
      </trkpt>
      <trkpt lat="47.3049" lon="-2.39112">
        <ele>22.200000762939</ele>
        <time>2020-09-06T09:54:36.000Z</time>
      </trkpt>
      <trkpt lat="47.30484" lon="-2.39118">
        <ele>21.39999961853</ele>
        <time>2020-09-06T09:54:37.000Z</time>
      </trkpt>
      <trkpt lat="47.30479" lon="-2.39124">
        <ele>20.799999237061</ele>
        <time>2020-09-06T09:54:38.000Z</time>
      </trkpt>
      <trkpt lat="47.30473" lon="-2.3913">
        <ele>20</ele>
        <time>2020-09-06T09:54:39.000Z</time>
      </trkpt>
      <trkpt lat="47.30467" lon="-2.39137">
        <ele>19.39999961853</ele>
        <time>2020-09-06T09:54:40.000Z</time>
      </trkpt>
      <trkpt lat="47.30434" lon="-2.39172">
        <ele>19.39999961853</ele>
        <time>2020-09-06T09:54:45.000Z</time>
      </trkpt>
      <trkpt lat="47.30427" lon="-2.39175">
        <ele>19.39999961853</ele>
        <time>2020-09-06T09:54:46.000Z</time>
      </trkpt>
      <trkpt lat="47.30401" lon="-2.39173">
        <ele>19.39999961853</ele>
        <time>2020-09-06T09:54:49.000Z</time>
      </trkpt>
      <trkpt lat="47.30381" lon="-2.39154">
        <ele>19.39999961853</ele>
        <time>2020-09-06T09:54:52.000Z</time>
      </trkpt>
      <trkpt lat="47.30368" lon="-2.39124">
        <ele>19.39999961853</ele>
        <time>2020-09-06T09:54:55.000Z</time>
      </trkpt>
      <trkpt lat="47.30362" lon="-2.39104">
        <ele>19.39999961853</ele>
        <time>2020-09-06T09:54:57.000Z</time>
      </trkpt>
      <trkpt lat="47.30356" lon="-2.39074">
        <ele>19.39999961853</ele>
        <time>2020-09-06T09:55:00.000Z</time>
      </trkpt>
      <trkpt lat="47.30345" lon="-2.39027">
        <ele>19.39999961853</ele>
        <time>2020-09-06T09:55:05.000Z</time>
      </trkpt>
      <trkpt lat="47.30328" lon="-2.38974">
        <ele>19.39999961853</ele>
        <time>2020-09-06T09:55:11.000Z</time>
      </trkpt>
      <trkpt lat="47.30314" lon="-2.38949">
        <ele>19</ele>
        <time>2020-09-06T09:55:15.000Z</time>
      </trkpt>
      <trkpt lat="47.3031" lon="-2.38943">
        <ele>18.60000038147</ele>
        <time>2020-09-06T09:55:16.000Z</time>
      </trkpt>
      <trkpt lat="47.30306" lon="-2.38937">
        <ele>18.200000762939</ele>
        <time>2020-09-06T09:55:17.000Z</time>
      </trkpt>
      <trkpt lat="47.30303" lon="-2.3893">
        <ele>17.799999237061</ele>
        <time>2020-09-06T09:55:18.000Z</time>
      </trkpt>
      <trkpt lat="47.303" lon="-2.38924">
        <ele>17.39999961853</ele>
        <time>2020-09-06T09:55:19.000Z</time>
      </trkpt>
      <trkpt lat="47.30289" lon="-2.38897">
        <ele>17.39999961853</ele>
        <time>2020-09-06T09:55:23.000Z</time>
      </trkpt>
      <trkpt lat="47.30273" lon="-2.38854">
        <ele>17</ele>
        <time>2020-09-06T09:55:29.000Z</time>
      </trkpt>
      <trkpt lat="47.3027" lon="-2.38847">
        <ele>16.39999961853</ele>
        <time>2020-09-06T09:55:30.000Z</time>
      </trkpt>
      <trkpt lat="47.30267" lon="-2.3884">
        <ele>16</ele>
        <time>2020-09-06T09:55:31.000Z</time>
      </trkpt>
      <trkpt lat="47.30263" lon="-2.38833">
        <ele>15.60000038147</ele>
        <time>2020-09-06T09:55:32.000Z</time>
      </trkpt>
      <trkpt lat="47.30259" lon="-2.38825">
        <ele>15.199999809265</ele>
        <time>2020-09-06T09:55:33.000Z</time>
      </trkpt>
      <trkpt lat="47.30242" lon="-2.38797">
        <ele>15.199999809265</ele>
        <time>2020-09-06T09:55:37.000Z</time>
      </trkpt>
      <trkpt lat="47.30232" lon="-2.38785">
        <ele>14.800000190735</ele>
        <time>2020-09-06T09:55:39.000Z</time>
      </trkpt>
      <trkpt lat="47.30227" lon="-2.38779">
        <ele>14.199999809265</ele>
        <time>2020-09-06T09:55:40.000Z</time>
      </trkpt>
      <trkpt lat="47.3022" lon="-2.38773">
        <ele>13.800000190735</ele>
        <time>2020-09-06T09:55:41.000Z</time>
      </trkpt>
      <trkpt lat="47.30213" lon="-2.38769">
        <ele>13.39999961853</ele>
        <time>2020-09-06T09:55:42.000Z</time>
      </trkpt>
      <trkpt lat="47.30205" lon="-2.38767">
        <ele>12.800000190735</ele>
        <time>2020-09-06T09:55:43.000Z</time>
      </trkpt>
      <trkpt lat="47.30197" lon="-2.38768">
        <ele>12.199999809265</ele>
        <time>2020-09-06T09:55:44.000Z</time>
      </trkpt>
      <trkpt lat="47.30189" lon="-2.38772">
        <ele>11.39999961853</ele>
        <time>2020-09-06T09:55:45.000Z</time>
      </trkpt>
      <trkpt lat="47.30181" lon="-2.38776">
        <ele>10</ele>
        <time>2020-09-06T09:55:46.000Z</time>
      </trkpt>
      <trkpt lat="47.30173" lon="-2.38781">
        <ele>9.1999998092651</ele>
        <time>2020-09-06T09:55:47.000Z</time>
      </trkpt>
      <trkpt lat="47.30165" lon="-2.38789">
        <ele>8.3999996185303</ele>
        <time>2020-09-06T09:55:48.000Z</time>
      </trkpt>
      <trkpt lat="47.30154" lon="-2.38809">
        <ele>8.3999996185303</ele>
        <time>2020-09-06T09:55:50.000Z</time>
      </trkpt>
      <trkpt lat="47.30142" lon="-2.38831">
        <ele>7.8000001907349</ele>
        <time>2020-09-06T09:55:52.000Z</time>
      </trkpt>
      <trkpt lat="47.30137" lon="-2.38842">
        <ele>7.1999998092651</ele>
        <time>2020-09-06T09:55:53.000Z</time>
      </trkpt>
      <trkpt lat="47.30132" lon="-2.38854">
        <ele>6.5999999046326</ele>
        <time>2020-09-06T09:55:54.000Z</time>
      </trkpt>
      <trkpt lat="47.30126" lon="-2.38865">
        <ele>6.1999998092651</ele>
        <time>2020-09-06T09:55:55.000Z</time>
      </trkpt>
      <trkpt lat="47.3012" lon="-2.38877">
        <ele>5.5999999046326</ele>
        <time>2020-09-06T09:55:56.000Z</time>
      </trkpt>
      <trkpt lat="47.30114" lon="-2.38888">
        <ele>5</ele>
        <time>2020-09-06T09:55:57.000Z</time>
      </trkpt>
      <trkpt lat="47.30108" lon="-2.38898">
        <ele>4.4000000953674</ele>
        <time>2020-09-06T09:55:58.000Z</time>
      </trkpt>
      <trkpt lat="47.30102" lon="-2.38906">
        <ele>3.7999999523163</ele>
        <time>2020-09-06T09:55:59.000Z</time>
      </trkpt>
      <trkpt lat="47.30095" lon="-2.38914">
        <ele>3.4000000953674</ele>
        <time>2020-09-06T09:56:00.000Z</time>
      </trkpt>
      <trkpt lat="47.30079" lon="-2.38928">
        <ele>2.7999999523163</ele>
        <time>2020-09-06T09:56:02.000Z</time>
      </trkpt>
      <trkpt lat="47.3007" lon="-2.38935">
        <ele>2.4000000953674</ele>
        <time>2020-09-06T09:56:03.000Z</time>
      </trkpt>
      <trkpt lat="47.30062" lon="-2.38941">
        <ele>2</ele>
        <time>2020-09-06T09:56:04.000Z</time>
      </trkpt>
      <trkpt lat="47.30054" lon="-2.38947">
        <ele>1.3999999761581</ele>
        <time>2020-09-06T09:56:05.000Z</time>
      </trkpt>
      <trkpt lat="47.30047" lon="-2.38952">
        <ele>0.80000001192093</ele>
        <time>2020-09-06T09:56:06.000Z</time>
      </trkpt>
      <trkpt lat="47.3004" lon="-2.38957">
        <ele>0.20000000298023</ele>
        <time>2020-09-06T09:56:07.000Z</time>
      </trkpt>
      <trkpt lat="47.30035" lon="-2.38962">
        <ele>-0.40000000596046</ele>
        <time>2020-09-06T09:56:08.000Z</time>
      </trkpt>
      <trkpt lat="47.3003" lon="-2.38966">
        <ele>-1.2000000476837</ele>
        <time>2020-09-06T09:56:09.000Z</time>
      </trkpt>
      <trkpt lat="47.30026" lon="-2.38969">
        <ele>-2.5999999046326</ele>
        <time>2020-09-06T09:56:10.000Z</time>
      </trkpt>
      <trkpt lat="47.30022" lon="-2.38969">
        <ele>-3.4000000953674</ele>
        <time>2020-09-06T09:56:11.000Z</time>
      </trkpt>
      <trkpt lat="47.30019" lon="-2.38968">
        <ele>-4.1999998092651</ele>
        <time>2020-09-06T09:56:12.000Z</time>
      </trkpt>
      <trkpt lat="47.30008" lon="-2.38958">
        <ele>-4.1999998092651</ele>
        <time>2020-09-06T09:56:16.000Z</time>
      </trkpt>
      <trkpt lat="47.30003" lon="-2.38933">
        <ele>-4.1999998092651</ele>
        <time>2020-09-06T09:56:20.000Z</time>
      </trkpt>
      <trkpt lat="47.30004" lon="-2.38919">
        <ele>-4.1999998092651</ele>
        <time>2020-09-06T09:56:22.000Z</time>
      </trkpt>
      <trkpt lat="47.30004" lon="-2.38892">
        <ele>-4.1999998092651</ele>
        <time>2020-09-06T09:56:26.000Z</time>
      </trkpt>
      <trkpt lat="47.30006" lon="-2.38866">
        <ele>-3.7999999523163</ele>
        <time>2020-09-06T09:56:30.000Z</time>
      </trkpt>
      <trkpt lat="47.30006" lon="-2.3886">
        <ele>-3.4000000953674</ele>
        <time>2020-09-06T09:56:31.000Z</time>
      </trkpt>
      <trkpt lat="47.30006" lon="-2.38853">
        <ele>-3</ele>
        <time>2020-09-06T09:56:32.000Z</time>
      </trkpt>
      <trkpt lat="47.30006" lon="-2.38847">
        <ele>-2.5999999046326</ele>
        <time>2020-09-06T09:56:33.000Z</time>
      </trkpt>
      <trkpt lat="47.30006" lon="-2.3884">
        <ele>-2.2000000476837</ele>
        <time>2020-09-06T09:56:34.000Z</time>
      </trkpt>
      <trkpt lat="47.3001" lon="-2.38792">
        <ele>-1.7999999523163</ele>
        <time>2020-09-06T09:56:41.000Z</time>
      </trkpt>
      <trkpt lat="47.30011" lon="-2.38786">
        <ele>-1.3999999761581</ele>
        <time>2020-09-06T09:56:42.000Z</time>
      </trkpt>
      <trkpt lat="47.30012" lon="-2.3878">
        <ele>-1</ele>
        <time>2020-09-06T09:56:43.000Z</time>
      </trkpt>
      <trkpt lat="47.30012" lon="-2.38773">
        <ele>-0.60000002384186</ele>
        <time>2020-09-06T09:56:44.000Z</time>
      </trkpt>
      <trkpt lat="47.30013" lon="-2.38767">
        <ele>-0.20000000298023</ele>
        <time>2020-09-06T09:56:45.000Z</time>
      </trkpt>
      <trkpt lat="47.30016" lon="-2.38749">
        <ele>-0.20000000298023</ele>
        <time>2020-09-06T09:56:48.000Z</time>
      </trkpt>
      <trkpt lat="47.30018" lon="-2.38737">
        <ele>0.40000000596046</ele>
        <time>2020-09-06T09:56:50.000Z</time>
      </trkpt>
      <trkpt lat="47.30019" lon="-2.38731">
        <ele>0.80000001192093</ele>
        <time>2020-09-06T09:56:51.000Z</time>
      </trkpt>
      <trkpt lat="47.3002" lon="-2.38725">
        <ele>1.2000000476837</ele>
        <time>2020-09-06T09:56:52.000Z</time>
      </trkpt>
      <trkpt lat="47.30021" lon="-2.38719">
        <ele>1.6000000238419</ele>
        <time>2020-09-06T09:56:53.000Z</time>
      </trkpt>
      <trkpt lat="47.30022" lon="-2.38714">
        <ele>2.2000000476837</ele>
        <time>2020-09-06T09:56:54.000Z</time>
      </trkpt>
      <trkpt lat="47.30023" lon="-2.38708">
        <ele>2.2000000476837</ele>
        <time>2020-09-06T09:56:55.000Z</time>
      </trkpt>
      <trkpt lat="47.30026" lon="-2.38684">
        <ele>2.5999999046326</ele>
        <time>2020-09-06T09:56:59.000Z</time>
      </trkpt>
      <trkpt lat="47.30026" lon="-2.38678">
        <ele>3.4000000953674</ele>
        <time>2020-09-06T09:57:00.000Z</time>
      </trkpt>
      <trkpt lat="47.30027" lon="-2.38672">
        <ele>3.7999999523163</ele>
        <time>2020-09-06T09:57:01.000Z</time>
      </trkpt>
      <trkpt lat="47.30027" lon="-2.38667">
        <ele>4.1999998092651</ele>
        <time>2020-09-06T09:57:02.000Z</time>
      </trkpt>
      <trkpt lat="47.30025" lon="-2.38644">
        <ele>4.5999999046326</ele>
        <time>2020-09-06T09:57:06.000Z</time>
      </trkpt>
      <trkpt lat="47.30024" lon="-2.38638">
        <ele>5</ele>
        <time>2020-09-06T09:57:07.000Z</time>
      </trkpt>
      <trkpt lat="47.30024" lon="-2.38632">
        <ele>5.4000000953674</ele>
        <time>2020-09-06T09:57:08.000Z</time>
      </trkpt>
      <trkpt lat="47.30024" lon="-2.38626">
        <ele>5.8000001907349</ele>
        <time>2020-09-06T09:57:09.000Z</time>
      </trkpt>
      <trkpt lat="47.30024" lon="-2.38619">
        <ele>6.4000000953674</ele>
        <time>2020-09-06T09:57:10.000Z</time>
      </trkpt>
      <trkpt lat="47.30023" lon="-2.38607">
        <ele>6.4000000953674</ele>
        <time>2020-09-06T09:57:12.000Z</time>
      </trkpt>
      <trkpt lat="47.30023" lon="-2.38589">
        <ele>6.4000000953674</ele>
        <time>2020-09-06T09:57:15.000Z</time>
      </trkpt>
      <trkpt lat="47.30023" lon="-2.38584">
        <ele>6.4000000953674</ele>
        <time>2020-09-06T09:57:16.000Z</time>
      </trkpt>
      <trkpt lat="47.30022" lon="-2.38579">
        <ele>6.8000001907349</ele>
        <time>2020-09-06T09:57:17.000Z</time>
      </trkpt>
      <trkpt lat="47.30022" lon="-2.38573">
        <ele>7.1999998092651</ele>
        <time>2020-09-06T09:57:18.000Z</time>
      </trkpt>
      <trkpt lat="47.30021" lon="-2.38568">
        <ele>7.5999999046326</ele>
        <time>2020-09-06T09:57:19.000Z</time>
      </trkpt>
      <trkpt lat="47.3002" lon="-2.38563">
        <ele>8</ele>
        <time>2020-09-06T09:57:20.000Z</time>
      </trkpt>
      <trkpt lat="47.3002" lon="-2.38557">
        <ele>8.3999996185303</ele>
        <time>2020-09-06T09:57:21.000Z</time>
      </trkpt>
      <trkpt lat="47.30019" lon="-2.38552">
        <ele>8.3999996185303</ele>
        <time>2020-09-06T09:57:22.000Z</time>
      </trkpt>
      <trkpt lat="47.30018" lon="-2.38542">
        <ele>9</ele>
        <time>2020-09-06T09:57:24.000Z</time>
      </trkpt>
      <trkpt lat="47.30017" lon="-2.38536">
        <ele>9.3999996185303</ele>
        <time>2020-09-06T09:57:25.000Z</time>
      </trkpt>
      <trkpt lat="47.30016" lon="-2.38531">
        <ele>9.8000001907349</ele>
        <time>2020-09-06T09:57:26.000Z</time>
      </trkpt>
      <trkpt lat="47.30015" lon="-2.38526">
        <ele>10.199999809265</ele>
        <time>2020-09-06T09:57:27.000Z</time>
      </trkpt>
      <trkpt lat="47.30014" lon="-2.38521">
        <ele>10.60000038147</ele>
        <time>2020-09-06T09:57:28.000Z</time>
      </trkpt>
      <trkpt lat="47.30011" lon="-2.38494">
        <ele>11</ele>
        <time>2020-09-06T09:57:33.000Z</time>
      </trkpt>
      <trkpt lat="47.3001" lon="-2.38489">
        <ele>11.39999961853</ele>
        <time>2020-09-06T09:57:34.000Z</time>
      </trkpt>
      <trkpt lat="47.30009" lon="-2.38483">
        <ele>11.800000190735</ele>
        <time>2020-09-06T09:57:35.000Z</time>
      </trkpt>
      <trkpt lat="47.30008" lon="-2.38478">
        <ele>12.199999809265</ele>
        <time>2020-09-06T09:57:36.000Z</time>
      </trkpt>
      <trkpt lat="47.30007" lon="-2.38472">
        <ele>12.60000038147</ele>
        <time>2020-09-06T09:57:37.000Z</time>
      </trkpt>
      <trkpt lat="47.30006" lon="-2.3846">
        <ele>12.60000038147</ele>
        <time>2020-09-06T09:57:39.000Z</time>
      </trkpt>
      <trkpt lat="47.30005" lon="-2.38447">
        <ele>12.60000038147</ele>
        <time>2020-09-06T09:57:41.000Z</time>
      </trkpt>
      <trkpt lat="47.29999" lon="-2.38401">
        <ele>12.60000038147</ele>
        <time>2020-09-06T09:57:47.000Z</time>
      </trkpt>
      <trkpt lat="47.29995" lon="-2.3833">
        <ele>12.60000038147</ele>
        <time>2020-09-06T09:57:55.000Z</time>
      </trkpt>
      <trkpt lat="47.29994" lon="-2.3826">
        <ele>12.60000038147</ele>
        <time>2020-09-06T09:58:04.000Z</time>
      </trkpt>
      <trkpt lat="47.29992" lon="-2.38203">
        <ele>12.60000038147</ele>
        <time>2020-09-06T09:58:10.000Z</time>
      </trkpt>
      <trkpt lat="47.29989" lon="-2.38142">
        <ele>12.60000038147</ele>
        <time>2020-09-06T09:58:16.000Z</time>
      </trkpt>
      <trkpt lat="47.29989" lon="-2.38084">
        <ele>12.60000038147</ele>
        <time>2020-09-06T09:58:21.000Z</time>
      </trkpt>
      <trkpt lat="47.29989" lon="-2.38058">
        <ele>12.199999809265</ele>
        <time>2020-09-06T09:58:23.000Z</time>
      </trkpt>
      <trkpt lat="47.2999" lon="-2.38045">
        <ele>11.800000190735</ele>
        <time>2020-09-06T09:58:24.000Z</time>
      </trkpt>
      <trkpt lat="47.2999" lon="-2.38032">
        <ele>11.39999961853</ele>
        <time>2020-09-06T09:58:25.000Z</time>
      </trkpt>
      <trkpt lat="47.2999" lon="-2.38019">
        <ele>10.800000190735</ele>
        <time>2020-09-06T09:58:26.000Z</time>
      </trkpt>
      <trkpt lat="47.2999" lon="-2.38006">
        <ele>10.39999961853</ele>
        <time>2020-09-06T09:58:27.000Z</time>
      </trkpt>
      <trkpt lat="47.29989" lon="-2.37961">
        <ele>10.39999961853</ele>
        <time>2020-09-06T09:58:31.000Z</time>
      </trkpt>
      <trkpt lat="47.29987" lon="-2.37951">
        <ele>10.39999961853</ele>
        <time>2020-09-06T09:58:32.000Z</time>
      </trkpt>
      <trkpt lat="47.29974" lon="-2.37925">
        <ele>10.39999961853</ele>
        <time>2020-09-06T09:58:35.000Z</time>
      </trkpt>
      <trkpt lat="47.29968" lon="-2.37918">
        <ele>10</ele>
        <time>2020-09-06T09:58:36.000Z</time>
      </trkpt>
      <trkpt lat="47.29963" lon="-2.37912">
        <ele>9.6000003814697</ele>
        <time>2020-09-06T09:58:37.000Z</time>
      </trkpt>
      <trkpt lat="47.29957" lon="-2.37905">
        <ele>9.1999998092651</ele>
        <time>2020-09-06T09:58:38.000Z</time>
      </trkpt>
      <trkpt lat="47.29951" lon="-2.37899">
        <ele>8.3999996185303</ele>
        <time>2020-09-06T09:58:39.000Z</time>
      </trkpt>
      <trkpt lat="47.29936" lon="-2.37881">
        <ele>8.3999996185303</ele>
        <time>2020-09-06T09:58:42.000Z</time>
      </trkpt>
      <trkpt lat="47.29909" lon="-2.3785">
        <ele>8.3999996185303</ele>
        <time>2020-09-06T09:58:48.000Z</time>
      </trkpt>
      <trkpt lat="47.29901" lon="-2.37841">
        <ele>8.8000001907349</ele>
        <time>2020-09-06T09:58:50.000Z</time>
      </trkpt>
      <trkpt lat="47.29897" lon="-2.37837">
        <ele>9.1999998092651</ele>
        <time>2020-09-06T09:58:51.000Z</time>
      </trkpt>
      <trkpt lat="47.29894" lon="-2.37833">
        <ele>9.6000003814697</ele>
        <time>2020-09-06T09:58:52.000Z</time>
      </trkpt>
      <trkpt lat="47.2989" lon="-2.3783">
        <ele>10</ele>
        <time>2020-09-06T09:58:53.000Z</time>
      </trkpt>
      <trkpt lat="47.29887" lon="-2.37826">
        <ele>10.39999961853</ele>
        <time>2020-09-06T09:58:54.000Z</time>
      </trkpt>
      <trkpt lat="47.29883" lon="-2.37823">
        <ele>10.800000190735</ele>
        <time>2020-09-06T09:58:55.000Z</time>
      </trkpt>
      <trkpt lat="47.2988" lon="-2.3782">
        <ele>11.199999809265</ele>
        <time>2020-09-06T09:58:56.000Z</time>
      </trkpt>
      <trkpt lat="47.29877" lon="-2.37816">
        <ele>11.800000190735</ele>
        <time>2020-09-06T09:58:57.000Z</time>
      </trkpt>
      <trkpt lat="47.29874" lon="-2.37814">
        <ele>12.199999809265</ele>
        <time>2020-09-06T09:58:58.000Z</time>
      </trkpt>
      <trkpt lat="47.2987" lon="-2.37815">
        <ele>12.60000038147</ele>
        <time>2020-09-06T09:58:59.000Z</time>
      </trkpt>
      <trkpt lat="47.29867" lon="-2.37818">
        <ele>12.60000038147</ele>
        <time>2020-09-06T09:59:00.000Z</time>
      </trkpt>
      <trkpt lat="47.29863" lon="-2.37828">
        <ele>13</ele>
        <time>2020-09-06T09:59:02.000Z</time>
      </trkpt>
      <trkpt lat="47.29861" lon="-2.37834">
        <ele>13.39999961853</ele>
        <time>2020-09-06T09:59:03.000Z</time>
      </trkpt>
      <trkpt lat="47.29859" lon="-2.37839">
        <ele>13.800000190735</ele>
        <time>2020-09-06T09:59:04.000Z</time>
      </trkpt>
      <trkpt lat="47.29857" lon="-2.37845">
        <ele>14.60000038147</ele>
        <time>2020-09-06T09:59:05.000Z</time>
      </trkpt>
      <trkpt lat="47.2985" lon="-2.37862">
        <ele>14.60000038147</ele>
        <time>2020-09-06T09:59:08.000Z</time>
      </trkpt>
      <trkpt lat="47.29844" lon="-2.37871">
        <ele>14.60000038147</ele>
        <time>2020-09-06T09:59:10.000Z</time>
      </trkpt>
      <trkpt lat="47.29825" lon="-2.37888">
        <ele>14.60000038147</ele>
        <time>2020-09-06T09:59:15.000Z</time>
      </trkpt>
      <trkpt lat="47.29809" lon="-2.37896">
        <ele>15</ele>
        <time>2020-09-06T09:59:19.000Z</time>
      </trkpt>
      <trkpt lat="47.29806" lon="-2.37897">
        <ele>15.60000038147</ele>
        <time>2020-09-06T09:59:20.000Z</time>
      </trkpt>
      <trkpt lat="47.29803" lon="-2.379">
        <ele>16</ele>
        <time>2020-09-06T09:59:21.000Z</time>
      </trkpt>
      <trkpt lat="47.298" lon="-2.37902">
        <ele>16.39999961853</ele>
        <time>2020-09-06T09:59:22.000Z</time>
      </trkpt>
      <trkpt lat="47.29796" lon="-2.37905">
        <ele>16.799999237061</ele>
        <time>2020-09-06T09:59:23.000Z</time>
      </trkpt>
      <trkpt lat="47.29778" lon="-2.37918">
        <ele>16.799999237061</ele>
        <time>2020-09-06T09:59:27.000Z</time>
      </trkpt>
      <trkpt lat="47.29768" lon="-2.37927">
        <ele>16.799999237061</ele>
        <time>2020-09-06T09:59:29.000Z</time>
      </trkpt>
      <trkpt lat="47.29753" lon="-2.37944">
        <ele>16.799999237061</ele>
        <time>2020-09-06T09:59:32.000Z</time>
      </trkpt>
      <trkpt lat="47.29743" lon="-2.37963">
        <ele>16.799999237061</ele>
        <time>2020-09-06T09:59:35.000Z</time>
      </trkpt>
      <trkpt lat="47.2974" lon="-2.3797">
        <ele>16.39999961853</ele>
        <time>2020-09-06T09:59:36.000Z</time>
      </trkpt>
      <trkpt lat="47.29738" lon="-2.37977">
        <ele>15.800000190735</ele>
        <time>2020-09-06T09:59:37.000Z</time>
      </trkpt>
      <trkpt lat="47.29735" lon="-2.37983">
        <ele>15.199999809265</ele>
        <time>2020-09-06T09:59:38.000Z</time>
      </trkpt>
      <trkpt lat="47.29734" lon="-2.3799">
        <ele>14.60000038147</ele>
        <time>2020-09-06T09:59:39.000Z</time>
      </trkpt>
      <trkpt lat="47.29733" lon="-2.37997">
        <ele>14</ele>
        <time>2020-09-06T09:59:40.000Z</time>
      </trkpt>
      <trkpt lat="47.29733" lon="-2.38005">
        <ele>13.39999961853</ele>
        <time>2020-09-06T09:59:41.000Z</time>
      </trkpt>
      <trkpt lat="47.29734" lon="-2.38012">
        <ele>12.800000190735</ele>
        <time>2020-09-06T09:59:42.000Z</time>
      </trkpt>
      <trkpt lat="47.29735" lon="-2.38018">
        <ele>12</ele>
        <time>2020-09-06T09:59:43.000Z</time>
      </trkpt>
      <trkpt lat="47.29736" lon="-2.38025">
        <ele>11.39999961853</ele>
        <time>2020-09-06T09:59:44.000Z</time>
      </trkpt>
      <trkpt lat="47.29736" lon="-2.3803">
        <ele>10.39999961853</ele>
        <time>2020-09-06T09:59:45.000Z</time>
      </trkpt>
      <trkpt lat="47.29734" lon="-2.38035">
        <ele>9.3999996185303</ele>
        <time>2020-09-06T09:59:46.000Z</time>
      </trkpt>
      <trkpt lat="47.2973" lon="-2.38038">
        <ele>8.3999996185303</ele>
        <time>2020-09-06T09:59:47.000Z</time>
      </trkpt>
      <trkpt lat="47.29725" lon="-2.38042">
        <ele>7.5999999046326</ele>
        <time>2020-09-06T09:59:48.000Z</time>
      </trkpt>
      <trkpt lat="47.29719" lon="-2.38047">
        <ele>6.5999999046326</ele>
        <time>2020-09-06T09:59:49.000Z</time>
      </trkpt>
      <trkpt lat="47.29713" lon="-2.38052">
        <ele>6.5999999046326</ele>
        <time>2020-09-06T09:59:50.000Z</time>
      </trkpt>
      <trkpt lat="47.29706" lon="-2.38058">
        <ele>6.1999998092651</ele>
        <time>2020-09-06T09:59:51.000Z</time>
      </trkpt>
      <trkpt lat="47.29699" lon="-2.38066">
        <ele>5.5999999046326</ele>
        <time>2020-09-06T09:59:52.000Z</time>
      </trkpt>
      <trkpt lat="47.29691" lon="-2.38072">
        <ele>5.1999998092651</ele>
        <time>2020-09-06T09:59:53.000Z</time>
      </trkpt>
      <trkpt lat="47.29683" lon="-2.38077">
        <ele>4.5999999046326</ele>
        <time>2020-09-06T09:59:54.000Z</time>
      </trkpt>
      <trkpt lat="47.29674" lon="-2.38083">
        <ele>3.5999999046326</ele>
        <time>2020-09-06T09:59:55.000Z</time>
      </trkpt>
      <trkpt lat="47.29665" lon="-2.38088">
        <ele>3</ele>
        <time>2020-09-06T09:59:56.000Z</time>
      </trkpt>
      <trkpt lat="47.29655" lon="-2.38093">
        <ele>2.2000000476837</ele>
        <time>2020-09-06T09:59:57.000Z</time>
      </trkpt>
      <trkpt lat="47.29646" lon="-2.38098">
        <ele>1.3999999761581</ele>
        <time>2020-09-06T09:59:58.000Z</time>
      </trkpt>
      <trkpt lat="47.29637" lon="-2.38104">
        <ele>0.80000001192093</ele>
        <time>2020-09-06T09:59:59.000Z</time>
      </trkpt>
      <trkpt lat="47.29628" lon="-2.38108">
        <ele>12.6</ele>
        <time>2020-09-06T10:00:00.000Z</time>
      </trkpt>
      <trkpt lat="47.29619" lon="-2.38112">
        <ele>-0.60000002384186</ele>
        <time>2020-09-06T10:00:01.000Z</time>
      </trkpt>
      <trkpt lat="47.2961" lon="-2.38115">
        <ele>-1.3999999761581</ele>
        <time>2020-09-06T10:00:02.000Z</time>
      </trkpt>
      <trkpt lat="47.29601" lon="-2.38117">
        <ele>-2.2000000476837</ele>
        <time>2020-09-06T10:00:03.000Z</time>
      </trkpt>
      <trkpt lat="47.29592" lon="-2.3812">
        <ele>-2.5999999046326</ele>
        <time>2020-09-06T10:00:04.000Z</time>
      </trkpt>
      <trkpt lat="47.29583" lon="-2.38121">
        <ele>-3.2000000476837</ele>
        <time>2020-09-06T10:00:05.000Z</time>
      </trkpt>
      <trkpt lat="47.29574" lon="-2.38123">
        <ele>-3.7999999523163</ele>
        <time>2020-09-06T10:00:06.000Z</time>
      </trkpt>
      <trkpt lat="47.29564" lon="-2.38125">
        <ele>-4.4000000953674</ele>
        <time>2020-09-06T10:00:07.000Z</time>
      </trkpt>
      <trkpt lat="47.29555" lon="-2.38126">
        <ele>-5</ele>
        <time>2020-09-06T10:00:08.000Z</time>
      </trkpt>
      <trkpt lat="47.29537" lon="-2.38126">
        <ele>-5.4000000953674</ele>
        <time>2020-09-06T10:00:10.000Z</time>
      </trkpt>
      <trkpt lat="47.29528" lon="-2.38126">
        <ele>-5.8000001907349</ele>
        <time>2020-09-06T10:00:11.000Z</time>
      </trkpt>
      <trkpt lat="47.29519" lon="-2.38125">
        <ele>-6.1999998092651</ele>
        <time>2020-09-06T10:00:12.000Z</time>
      </trkpt>
      <trkpt lat="47.2951" lon="-2.38124">
        <ele>-6.5999999046326</ele>
        <time>2020-09-06T10:00:13.000Z</time>
      </trkpt>
      <trkpt lat="47.29501" lon="-2.38123">
        <ele>-7</ele>
        <time>2020-09-06T10:00:14.000Z</time>
      </trkpt>
      <trkpt lat="47.29493" lon="-2.38125">
        <ele>-7</ele>
        <time>2020-09-06T10:00:15.000Z</time>
      </trkpt>
      <trkpt lat="47.29485" lon="-2.3813">
        <ele>-7.5999999046326</ele>
        <time>2020-09-06T10:00:16.000Z</time>
      </trkpt>
      <trkpt lat="47.29478" lon="-2.38134">
        <ele>-8</ele>
        <time>2020-09-06T10:00:17.000Z</time>
      </trkpt>
      <trkpt lat="47.29471" lon="-2.3814">
        <ele>-8.6000003814697</ele>
        <time>2020-09-06T10:00:18.000Z</time>
      </trkpt>
      <trkpt lat="47.29465" lon="-2.38144">
        <ele>-9.3999996185303</ele>
        <time>2020-09-06T10:00:19.000Z</time>
      </trkpt>
      <trkpt lat="47.29459" lon="-2.38148">
        <ele>-10</ele>
        <time>2020-09-06T10:00:20.000Z</time>
      </trkpt>
      <trkpt lat="47.29455" lon="-2.38151">
        <ele>-10.39999961853</ele>
        <time>2020-09-06T10:00:21.000Z</time>
      </trkpt>
      <trkpt lat="47.29451" lon="-2.38152">
        <ele>-10.800000190735</ele>
        <time>2020-09-06T10:00:22.000Z</time>
      </trkpt>
      <trkpt lat="47.29447" lon="-2.38152">
        <ele>-11.199999809265</ele>
        <time>2020-09-06T10:00:23.000Z</time>
      </trkpt>
      <trkpt lat="47.29444" lon="-2.38148">
        <ele>-11.800000190735</ele>
        <time>2020-09-06T10:00:24.000Z</time>
      </trkpt>
      <trkpt lat="47.29441" lon="-2.38142">
        <ele>-12.199999809265</ele>
        <time>2020-09-06T10:00:25.000Z</time>
      </trkpt>
      <trkpt lat="47.29438" lon="-2.38134">
        <ele>-12.800000190735</ele>
        <time>2020-09-06T10:00:26.000Z</time>
      </trkpt>
      <trkpt lat="47.29435" lon="-2.38125">
        <ele>-13.39999961853</ele>
        <time>2020-09-06T10:00:27.000Z</time>
      </trkpt>
      <trkpt lat="47.29432" lon="-2.38116">
        <ele>-14</ele>
        <time>2020-09-06T10:00:28.000Z</time>
      </trkpt>
      <trkpt lat="47.29429" lon="-2.38107">
        <ele>-14</ele>
        <time>2020-09-06T10:00:29.000Z</time>
      </trkpt>
      <trkpt lat="47.29404" lon="-2.38035">
        <ele>-14</ele>
        <time>2020-09-06T10:00:37.000Z</time>
      </trkpt>
      <trkpt lat="47.29388" lon="-2.37983">
        <ele>-14</ele>
        <time>2020-09-06T10:00:44.000Z</time>
      </trkpt>
      <trkpt lat="47.29379" lon="-2.37955">
        <ele>-13.60000038147</ele>
        <time>2020-09-06T10:00:48.000Z</time>
      </trkpt>
      <trkpt lat="47.29376" lon="-2.37949">
        <ele>-13.199999809265</ele>
        <time>2020-09-06T10:00:49.000Z</time>
      </trkpt>
      <trkpt lat="47.29374" lon="-2.37942">
        <ele>-12.60000038147</ele>
        <time>2020-09-06T10:00:50.000Z</time>
      </trkpt>
      <trkpt lat="47.29371" lon="-2.37936">
        <ele>-12.199999809265</ele>
        <time>2020-09-06T10:00:51.000Z</time>
      </trkpt>
      <trkpt lat="47.29369" lon="-2.37929">
        <ele>-11.800000190735</ele>
        <time>2020-09-06T10:00:52.000Z</time>
      </trkpt>
      <trkpt lat="47.29363" lon="-2.37916">
        <ele>-11.800000190735</ele>
        <time>2020-09-06T10:00:54.000Z</time>
      </trkpt>
      <trkpt lat="47.29356" lon="-2.37895">
        <ele>-11.800000190735</ele>
        <time>2020-09-06T10:00:57.000Z</time>
      </trkpt>
      <trkpt lat="47.29342" lon="-2.37852">
        <ele>-11.39999961853</ele>
        <time>2020-09-06T10:01:03.000Z</time>
      </trkpt>
      <trkpt lat="47.2934" lon="-2.37845">
        <ele>-11</ele>
        <time>2020-09-06T10:01:04.000Z</time>
      </trkpt>
      <trkpt lat="47.29338" lon="-2.37837">
        <ele>-10.60000038147</ele>
        <time>2020-09-06T10:01:05.000Z</time>
      </trkpt>
      <trkpt lat="47.29337" lon="-2.37829">
        <ele>-10.199999809265</ele>
        <time>2020-09-06T10:01:06.000Z</time>
      </trkpt>
      <trkpt lat="47.29336" lon="-2.37821">
        <ele>-9.8000001907349</ele>
        <time>2020-09-06T10:01:07.000Z</time>
      </trkpt>
      <trkpt lat="47.29334" lon="-2.37797">
        <ele>-9.8000001907349</ele>
        <time>2020-09-06T10:01:10.000Z</time>
      </trkpt>
      <trkpt lat="47.29333" lon="-2.37757">
        <ele>-9.1999998092651</ele>
        <time>2020-09-06T10:01:15.000Z</time>
      </trkpt>
      <trkpt lat="47.29333" lon="-2.37749">
        <ele>-8.8000001907349</ele>
        <time>2020-09-06T10:01:16.000Z</time>
      </trkpt>
      <trkpt lat="47.29333" lon="-2.37741">
        <ele>-8.3999996185303</ele>
        <time>2020-09-06T10:01:17.000Z</time>
      </trkpt>
      <trkpt lat="47.29333" lon="-2.37733">
        <ele>-8</ele>
        <time>2020-09-06T10:01:18.000Z</time>
      </trkpt>
      <trkpt lat="47.29332" lon="-2.37726">
        <ele>-7.4000000953674</ele>
        <time>2020-09-06T10:01:19.000Z</time>
      </trkpt>
      <trkpt lat="47.29331" lon="-2.37704">
        <ele>-7</ele>
        <time>2020-09-06T10:01:22.000Z</time>
      </trkpt>
      <trkpt lat="47.29331" lon="-2.37697">
        <ele>-6.5999999046326</ele>
        <time>2020-09-06T10:01:23.000Z</time>
      </trkpt>
      <trkpt lat="47.29331" lon="-2.37689">
        <ele>-6.1999998092651</ele>
        <time>2020-09-06T10:01:24.000Z</time>
      </trkpt>
      <trkpt lat="47.29331" lon="-2.37682">
        <ele>-5.5999999046326</ele>
        <time>2020-09-06T10:01:25.000Z</time>
      </trkpt>
      <trkpt lat="47.2933" lon="-2.37675">
        <ele>-5.1999998092651</ele>
        <time>2020-09-06T10:01:26.000Z</time>
      </trkpt>
      <trkpt lat="47.29329" lon="-2.37653">
        <ele>-4.8000001907349</ele>
        <time>2020-09-06T10:01:29.000Z</time>
      </trkpt>
      <trkpt lat="47.29327" lon="-2.37646">
        <ele>-4.4000000953674</ele>
        <time>2020-09-06T10:01:30.000Z</time>
      </trkpt>
      <trkpt lat="47.29326" lon="-2.37639">
        <ele>-4</ele>
        <time>2020-09-06T10:01:31.000Z</time>
      </trkpt>
      <trkpt lat="47.29324" lon="-2.37632">
        <ele>-3.5999999046326</ele>
        <time>2020-09-06T10:01:32.000Z</time>
      </trkpt>
      <trkpt lat="47.29322" lon="-2.37625">
        <ele>-3.2000000476837</ele>
        <time>2020-09-06T10:01:33.000Z</time>
      </trkpt>
      <trkpt lat="47.29317" lon="-2.37611">
        <ele>-3.2000000476837</ele>
        <time>2020-09-06T10:01:35.000Z</time>
      </trkpt>
      <trkpt lat="47.29314" lon="-2.37605">
        <ele>-3.2000000476837</ele>
        <time>2020-09-06T10:01:36.000Z</time>
      </trkpt>
      <trkpt lat="47.2929" lon="-2.37566">
        <ele>-3.2000000476837</ele>
        <time>2020-09-06T10:01:42.000Z</time>
      </trkpt>
      <trkpt lat="47.29265" lon="-2.37523">
        <ele>-3.2000000476837</ele>
        <time>2020-09-06T10:01:48.000Z</time>
      </trkpt>
      <trkpt lat="47.29244" lon="-2.37495">
        <ele>-3.2000000476837</ele>
        <time>2020-09-06T10:01:53.000Z</time>
      </trkpt>
      <trkpt lat="47.2924" lon="-2.37489">
        <ele>-3.2000000476837</ele>
        <time>2020-09-06T10:01:54.000Z</time>
      </trkpt>
      <trkpt lat="47.29236" lon="-2.37484">
        <ele>-2.7999999523163</ele>
        <time>2020-09-06T10:01:55.000Z</time>
      </trkpt>
      <trkpt lat="47.29233" lon="-2.37478">
        <ele>-2.4000000953674</ele>
        <time>2020-09-06T10:01:56.000Z</time>
      </trkpt>
      <trkpt lat="47.29229" lon="-2.37472">
        <ele>-2</ele>
        <time>2020-09-06T10:01:57.000Z</time>
      </trkpt>
      <trkpt lat="47.29225" lon="-2.37466">
        <ele>-1.2000000476837</ele>
        <time>2020-09-06T10:01:58.000Z</time>
      </trkpt>
      <trkpt lat="47.29211" lon="-2.37443">
        <ele>-1.2000000476837</ele>
        <time>2020-09-06T10:02:02.000Z</time>
      </trkpt>
      <trkpt lat="47.29204" lon="-2.37431">
        <ele>-0.60000002384186</ele>
        <time>2020-09-06T10:02:04.000Z</time>
      </trkpt>
      <trkpt lat="47.292" lon="-2.37426">
        <ele>-0.20000000298023</ele>
        <time>2020-09-06T10:02:05.000Z</time>
      </trkpt>
      <trkpt lat="47.29197" lon="-2.37421">
        <ele>0.20000000298023</ele>
        <time>2020-09-06T10:02:06.000Z</time>
      </trkpt>
      <trkpt lat="47.29194" lon="-2.37416">
        <ele>0.60000002384186</ele>
        <time>2020-09-06T10:02:07.000Z</time>
      </trkpt>
      <trkpt lat="47.2919" lon="-2.37411">
        <ele>1.2000000476837</ele>
        <time>2020-09-06T10:02:08.000Z</time>
      </trkpt>
      <trkpt lat="47.29187" lon="-2.37405">
        <ele>1.2000000476837</ele>
        <time>2020-09-06T10:02:09.000Z</time>
      </trkpt>
      <trkpt lat="47.29184" lon="-2.374">
        <ele>1.2000000476837</ele>
        <time>2020-09-06T10:02:10.000Z</time>
      </trkpt>
      <trkpt lat="47.29171" lon="-2.37379">
        <ele>1.2000000476837</ele>
        <time>2020-09-06T10:02:14.000Z</time>
      </trkpt>
      <trkpt lat="47.29155" lon="-2.37344">
        <ele>1.6000000238419</ele>
        <time>2020-09-06T10:02:20.000Z</time>
      </trkpt>
      <trkpt lat="47.29152" lon="-2.37338">
        <ele>2</ele>
        <time>2020-09-06T10:02:21.000Z</time>
      </trkpt>
      <trkpt lat="47.2915" lon="-2.37331">
        <ele>2.7999999523163</ele>
        <time>2020-09-06T10:02:22.000Z</time>
      </trkpt>
      <trkpt lat="47.29147" lon="-2.37326">
        <ele>3.2000000476837</ele>
        <time>2020-09-06T10:02:23.000Z</time>
      </trkpt>
      <trkpt lat="47.29141" lon="-2.37315">
        <ele>3.2000000476837</ele>
        <time>2020-09-06T10:02:25.000Z</time>
      </trkpt>
      <trkpt lat="47.29134" lon="-2.37306">
        <ele>3.2000000476837</ele>
        <time>2020-09-06T10:02:27.000Z</time>
      </trkpt>
      <trkpt lat="47.29102" lon="-2.37272">
        <ele>3.2000000476837</ele>
        <time>2020-09-06T10:02:34.000Z</time>
      </trkpt>
      <trkpt lat="47.2907" lon="-2.37241">
        <ele>3.2000000476837</ele>
        <time>2020-09-06T10:02:40.000Z</time>
      </trkpt>
      <trkpt lat="47.29025" lon="-2.37196">
        <ele>3.2000000476837</ele>
        <time>2020-09-06T10:02:48.000Z</time>
      </trkpt>
      <trkpt lat="47.29014" lon="-2.37184">
        <ele>2.7999999523163</ele>
        <time>2020-09-06T10:02:50.000Z</time>
      </trkpt>
      <trkpt lat="47.2901" lon="-2.37178">
        <ele>2.2000000476837</ele>
        <time>2020-09-06T10:02:51.000Z</time>
      </trkpt>
      <trkpt lat="47.29007" lon="-2.37172">
        <ele>1.7999999523163</ele>
        <time>2020-09-06T10:02:52.000Z</time>
      </trkpt>
      <trkpt lat="47.29004" lon="-2.37167">
        <ele>1.3999999761581</ele>
        <time>2020-09-06T10:02:53.000Z</time>
      </trkpt>
      <trkpt lat="47.29004" lon="-2.37159">
        <ele>0.80000001192093</ele>
        <time>2020-09-06T10:02:54.000Z</time>
      </trkpt>
      <trkpt lat="47.29004" lon="-2.37153">
        <ele>0.20000000298023</ele>
        <time>2020-09-06T10:02:55.000Z</time>
      </trkpt>
      <trkpt lat="47.29003" lon="-2.37146">
        <ele>-0.40000000596046</ele>
        <time>2020-09-06T10:02:56.000Z</time>
      </trkpt>
      <trkpt lat="47.29002" lon="-2.3714">
        <ele>-0.80000001192093</ele>
        <time>2020-09-06T10:02:57.000Z</time>
      </trkpt>
      <trkpt lat="47.29" lon="-2.37134">
        <ele>-1.3999999761581</ele>
        <time>2020-09-06T10:02:58.000Z</time>
      </trkpt>
      <trkpt lat="47.28994" lon="-2.37124">
        <ele>-1.3999999761581</ele>
        <time>2020-09-06T10:03:00.000Z</time>
      </trkpt>
      <trkpt lat="47.28982" lon="-2.371">
        <ele>-1</ele>
        <time>2020-09-06T10:03:04.000Z</time>
      </trkpt>
      <trkpt lat="47.2898" lon="-2.37094">
        <ele>-0.60000002384186</ele>
        <time>2020-09-06T10:03:05.000Z</time>
      </trkpt>
      <trkpt lat="47.28978" lon="-2.37088">
        <ele>-0.20000000298023</ele>
        <time>2020-09-06T10:03:06.000Z</time>
      </trkpt>
      <trkpt lat="47.28975" lon="-2.37081">
        <ele>0.40000000596046</ele>
        <time>2020-09-06T10:03:07.000Z</time>
      </trkpt>
      <trkpt lat="47.28973" lon="-2.37075">
        <ele>0.80000001192093</ele>
        <time>2020-09-06T10:03:08.000Z</time>
      </trkpt>
      <trkpt lat="47.28965" lon="-2.37048">
        <ele>1.6000000238419</ele>
        <time>2020-09-06T10:03:12.000Z</time>
      </trkpt>
      <trkpt lat="47.28962" lon="-2.37041">
        <ele>2.2000000476837</ele>
        <time>2020-09-06T10:03:13.000Z</time>
      </trkpt>
      <trkpt lat="47.2896" lon="-2.37035">
        <ele>2.5999999046326</ele>
        <time>2020-09-06T10:03:14.000Z</time>
      </trkpt>
      <trkpt lat="47.28957" lon="-2.37029">
        <ele>3</ele>
        <time>2020-09-06T10:03:15.000Z</time>
      </trkpt>
      <trkpt lat="47.28939" lon="-2.37">
        <ele>3</ele>
        <time>2020-09-06T10:03:20.000Z</time>
      </trkpt>
      <trkpt lat="47.28917" lon="-2.36963">
        <ele>3</ele>
        <time>2020-09-06T10:03:26.000Z</time>
      </trkpt>
      <trkpt lat="47.28896" lon="-2.36935">
        <ele>3</ele>
        <time>2020-09-06T10:03:31.000Z</time>
      </trkpt>
      <trkpt lat="47.28891" lon="-2.3693">
        <ele>3</ele>
        <time>2020-09-06T10:03:32.000Z</time>
      </trkpt>
      <trkpt lat="47.28861" lon="-2.36898">
        <ele>3</ele>
        <time>2020-09-06T10:03:39.000Z</time>
      </trkpt>
      <trkpt lat="47.28857" lon="-2.36896">
        <ele>3</ele>
        <time>2020-09-06T10:03:40.000Z</time>
      </trkpt>
      <trkpt lat="47.28849" lon="-2.3689">
        <ele>3</ele>
        <time>2020-09-06T10:03:43.000Z</time>
      </trkpt>
      <trkpt lat="47.28837" lon="-2.36874">
        <ele>2.5999999046326</ele>
        <time>2020-09-06T10:03:47.000Z</time>
      </trkpt>
      <trkpt lat="47.28833" lon="-2.36867">
        <ele>2</ele>
        <time>2020-09-06T10:03:48.000Z</time>
      </trkpt>
      <trkpt lat="47.28829" lon="-2.3686">
        <ele>1.6000000238419</ele>
        <time>2020-09-06T10:03:49.000Z</time>
      </trkpt>
      <trkpt lat="47.28825" lon="-2.36851">
        <ele>1.2000000476837</ele>
        <time>2020-09-06T10:03:50.000Z</time>
      </trkpt>
      <trkpt lat="47.28822" lon="-2.36841">
        <ele>0.60000002384186</ele>
        <time>2020-09-06T10:03:51.000Z</time>
      </trkpt>
      <trkpt lat="47.28818" lon="-2.36832">
        <ele>14.1</ele>
        <time>2020-09-06T10:03:52.000Z</time>
      </trkpt>
      <trkpt lat="47.28814" lon="-2.36824">
        <ele>-0.60000002384186</ele>
        <time>2020-09-06T10:03:53.000Z</time>
      </trkpt>
      <trkpt lat="47.2881" lon="-2.36819">
        <ele>-1.3999999761581</ele>
        <time>2020-09-06T10:03:54.000Z</time>
      </trkpt>
      <trkpt lat="47.28807" lon="-2.36816">
        <ele>-2.2000000476837</ele>
        <time>2020-09-06T10:03:55.000Z</time>
      </trkpt>
      <trkpt lat="47.28804" lon="-2.36815">
        <ele>-3</ele>
        <time>2020-09-06T10:03:56.000Z</time>
      </trkpt>
      <trkpt lat="47.28802" lon="-2.36817">
        <ele>-3.7999999523163</ele>
        <time>2020-09-06T10:03:57.000Z</time>
      </trkpt>
      <trkpt lat="47.288" lon="-2.36821">
        <ele>-4.5999999046326</ele>
        <time>2020-09-06T10:03:58.000Z</time>
      </trkpt>
      <trkpt lat="47.28797" lon="-2.36826">
        <ele>-5.4000000953674</ele>
        <time>2020-09-06T10:03:59.000Z</time>
      </trkpt>
      <trkpt lat="47.28794" lon="-2.36832">
        <ele>-6.1999998092651</ele>
        <time>2020-09-06T10:04:00.000Z</time>
      </trkpt>
      <trkpt lat="47.28792" lon="-2.36839">
        <ele>-7</ele>
        <time>2020-09-06T10:04:01.000Z</time>
      </trkpt>
      <trkpt lat="47.28791" lon="-2.36846">
        <ele>-7</ele>
        <time>2020-09-06T10:04:02.000Z</time>
      </trkpt>
      <trkpt lat="47.28789" lon="-2.36853">
        <ele>-7</ele>
        <time>2020-09-06T10:04:03.000Z</time>
      </trkpt>
      <trkpt lat="47.2878" lon="-2.36897">
        <ele>-7</ele>
        <time>2020-09-06T10:04:09.000Z</time>
      </trkpt>
      <trkpt lat="47.28775" lon="-2.3691">
        <ele>-7</ele>
        <time>2020-09-06T10:04:12.000Z</time>
      </trkpt>
      <trkpt lat="47.28764" lon="-2.36909">
        <ele>-7</ele>
        <time>2020-09-06T10:04:16.000Z</time>
      </trkpt>
      <trkpt lat="47.28751" lon="-2.36909">
        <ele>-7</ele>
        <time>2020-09-06T10:04:21.000Z</time>
      </trkpt>
      <trkpt lat="47.28746" lon="-2.36911">
        <ele>-7</ele>
        <time>2020-09-06T10:04:23.000Z</time>
      </trkpt>
      <trkpt lat="47.28741" lon="-2.36913">
        <ele>-6.5999999046326</ele>
        <time>2020-09-06T10:04:25.000Z</time>
      </trkpt>
      <trkpt lat="47.28739" lon="-2.36915">
        <ele>-5.8000001907349</ele>
        <time>2020-09-06T10:04:26.000Z</time>
      </trkpt>
      <trkpt lat="47.28735" lon="-2.36916">
        <ele>-5.4000000953674</ele>
        <time>2020-09-06T10:04:27.000Z</time>
      </trkpt>
      <trkpt lat="47.28732" lon="-2.36916">
        <ele>-5</ele>
        <time>2020-09-06T10:04:28.000Z</time>
      </trkpt>
      <trkpt lat="47.28726" lon="-2.36914">
        <ele>-4.5999999046326</ele>
        <time>2020-09-06T10:04:30.000Z</time>
      </trkpt>
      <trkpt lat="47.28724" lon="-2.36912">
        <ele>-4.1999998092651</ele>
        <time>2020-09-06T10:04:31.000Z</time>
      </trkpt>
      <trkpt lat="47.28722" lon="-2.36911">
        <ele>-3.5999999046326</ele>
        <time>2020-09-06T10:04:32.000Z</time>
      </trkpt>
      <trkpt lat="47.2872" lon="-2.36908">
        <ele>-3.2000000476837</ele>
        <time>2020-09-06T10:04:33.000Z</time>
      </trkpt>
      <trkpt lat="47.28718" lon="-2.36906">
        <ele>-2.7999999523163</ele>
        <time>2020-09-06T10:04:34.000Z</time>
      </trkpt>
      <trkpt lat="47.28715" lon="-2.36901">
        <ele>-2.4000000953674</ele>
        <time>2020-09-06T10:04:36.000Z</time>
      </trkpt>
      <trkpt lat="47.28713" lon="-2.36898">
        <ele>-2</ele>
        <time>2020-09-06T10:04:37.000Z</time>
      </trkpt>
      <trkpt lat="47.28712" lon="-2.36894">
        <ele>-1.6000000238419</ele>
        <time>2020-09-06T10:04:38.000Z</time>
      </trkpt>
      <trkpt lat="47.2871" lon="-2.36891">
        <ele>-1</ele>
        <time>2020-09-06T10:04:39.000Z</time>
      </trkpt>
      <trkpt lat="47.28709" lon="-2.36887">
        <ele>-0.60000002384186</ele>
        <time>2020-09-06T10:04:40.000Z</time>
      </trkpt>
      <trkpt lat="47.28695" lon="-2.3686">
        <ele>-0.60000002384186</ele>
        <time>2020-09-06T10:04:47.000Z</time>
      </trkpt>
      <trkpt lat="47.2869" lon="-2.36843">
        <ele>0.20000000298023</ele>
        <time>2020-09-06T10:04:51.000Z</time>
      </trkpt>
      <trkpt lat="47.28688" lon="-2.36839">
        <ele>0.60000002384186</ele>
        <time>2020-09-06T10:04:52.000Z</time>
      </trkpt>
      <trkpt lat="47.28687" lon="-2.36835">
        <ele>1</ele>
        <time>2020-09-06T10:04:53.000Z</time>
      </trkpt>
      <trkpt lat="47.28684" lon="-2.3683">
        <ele>1.3999999761581</ele>
        <time>2020-09-06T10:04:54.000Z</time>
      </trkpt>
      <trkpt lat="47.28674" lon="-2.36812">
        <ele>1.3999999761581</ele>
        <time>2020-09-06T10:04:59.000Z</time>
      </trkpt>
      <trkpt lat="47.28669" lon="-2.36808">
        <ele>1.3999999761581</ele>
        <time>2020-09-06T10:05:00.000Z</time>
      </trkpt>
      <trkpt lat="47.28662" lon="-2.3681">
        <ele>1.3999999761581</ele>
        <time>2020-09-06T10:05:02.000Z</time>
      </trkpt>
      <trkpt lat="47.28648" lon="-2.36822">
        <ele>1.3999999761581</ele>
        <time>2020-09-06T10:05:05.000Z</time>
      </trkpt>
      <trkpt lat="47.28644" lon="-2.36827">
        <ele>1.3999999761581</ele>
        <time>2020-09-06T10:05:06.000Z</time>
      </trkpt>
      <trkpt lat="47.28622" lon="-2.36847">
        <ele>1.3999999761581</ele>
        <time>2020-09-06T10:05:10.000Z</time>
      </trkpt>
      <trkpt lat="47.28616" lon="-2.3685">
        <ele>1.3999999761581</ele>
        <time>2020-09-06T10:05:11.000Z</time>
      </trkpt>
      <trkpt lat="47.28598" lon="-2.36845">
        <ele>1.3999999761581</ele>
        <time>2020-09-06T10:05:14.000Z</time>
      </trkpt>
      <trkpt lat="47.28584" lon="-2.36823">
        <ele>1.3999999761581</ele>
        <time>2020-09-06T10:05:17.000Z</time>
      </trkpt>
      <trkpt lat="47.2858" lon="-2.36816">
        <ele>1.3999999761581</ele>
        <time>2020-09-06T10:05:18.000Z</time>
      </trkpt>
      <trkpt lat="47.28558" lon="-2.36775">
        <ele>1.3999999761581</ele>
        <time>2020-09-06T10:05:24.000Z</time>
      </trkpt>
      <trkpt lat="47.28539" lon="-2.36739">
        <ele>1.3999999761581</ele>
        <time>2020-09-06T10:05:30.000Z</time>
      </trkpt>
      <trkpt lat="47.2853" lon="-2.36724">
        <ele>1.3999999761581</ele>
        <time>2020-09-06T10:05:33.000Z</time>
      </trkpt>
      <trkpt lat="47.28522" lon="-2.36706">
        <ele>1.3999999761581</ele>
        <time>2020-09-06T10:05:37.000Z</time>
      </trkpt>
      <trkpt lat="47.28519" lon="-2.36698">
        <ele>1.7999999523163</ele>
        <time>2020-09-06T10:05:39.000Z</time>
      </trkpt>
      <trkpt lat="47.28518" lon="-2.36696">
        <ele>2.5999999046326</ele>
        <time>2020-09-06T10:05:40.000Z</time>
      </trkpt>
      <trkpt lat="47.28516" lon="-2.36692">
        <ele>3</ele>
        <time>2020-09-06T10:05:41.000Z</time>
      </trkpt>
      <trkpt lat="47.28514" lon="-2.3669">
        <ele>3.5999999046326</ele>
        <time>2020-09-06T10:05:42.000Z</time>
      </trkpt>
      <trkpt lat="47.28513" lon="-2.36688">
        <ele>3.5999999046326</ele>
        <time>2020-09-06T10:05:43.000Z</time>
      </trkpt>
      <trkpt lat="47.2851" lon="-2.36684">
        <ele>4</ele>
        <time>2020-09-06T10:05:47.000Z</time>
      </trkpt>
      <trkpt lat="47.28506" lon="-2.36683">
        <ele>5.5999999046326</ele>
        <time>2020-09-06T10:05:58.000Z</time>
      </trkpt>
      <trkpt lat="47.28492" lon="-2.36685">
        <ele>5.5999999046326</ele>
        <time>2020-09-06T10:06:02.000Z</time>
      </trkpt>
      <trkpt lat="47.28476" lon="-2.36701">
        <ele>5.5999999046326</ele>
        <time>2020-09-06T10:06:06.000Z</time>
      </trkpt>
      <trkpt lat="47.28453" lon="-2.36722">
        <ele>5.5999999046326</ele>
        <time>2020-09-06T10:06:12.000Z</time>
      </trkpt>
      <trkpt lat="47.2845" lon="-2.36724">
        <ele>5.5999999046326</ele>
        <time>2020-09-06T10:06:13.000Z</time>
      </trkpt>
      <trkpt lat="47.28444" lon="-2.36715">
        <ele>5.5999999046326</ele>
        <time>2020-09-06T10:06:15.000Z</time>
      </trkpt>
      <trkpt lat="47.2844" lon="-2.36703">
        <ele>5.5999999046326</ele>
        <time>2020-09-06T10:06:17.000Z</time>
      </trkpt>
      <trkpt lat="47.28426" lon="-2.36671">
        <ele>5.5999999046326</ele>
        <time>2020-09-06T10:06:22.000Z</time>
      </trkpt>
      <trkpt lat="47.28421" lon="-2.36658">
        <ele>5.5999999046326</ele>
        <time>2020-09-06T10:06:24.000Z</time>
      </trkpt>
      <trkpt lat="47.28409" lon="-2.36641">
        <ele>5.5999999046326</ele>
        <time>2020-09-06T10:06:27.000Z</time>
      </trkpt>
      <trkpt lat="47.28394" lon="-2.36619">
        <ele>5.1999998092651</ele>
        <time>2020-09-06T10:06:30.000Z</time>
      </trkpt>
      <trkpt lat="47.28389" lon="-2.3661">
        <ele>4.8000001907349</ele>
        <time>2020-09-06T10:06:31.000Z</time>
      </trkpt>
      <trkpt lat="47.28384" lon="-2.36602">
        <ele>4.4000000953674</ele>
        <time>2020-09-06T10:06:32.000Z</time>
      </trkpt>
      <trkpt lat="47.28378" lon="-2.36594">
        <ele>4</ele>
        <time>2020-09-06T10:06:33.000Z</time>
      </trkpt>
      <trkpt lat="47.28374" lon="-2.36586">
        <ele>3.4000000953674</ele>
        <time>2020-09-06T10:06:34.000Z</time>
      </trkpt>
      <trkpt lat="47.28369" lon="-2.3658">
        <ele>3</ele>
        <time>2020-09-06T10:06:35.000Z</time>
      </trkpt>
      <trkpt lat="47.28363" lon="-2.36577">
        <ele>2.4000000953674</ele>
        <time>2020-09-06T10:06:36.000Z</time>
      </trkpt>
      <trkpt lat="47.28357" lon="-2.36577">
        <ele>1.7999999523163</ele>
        <time>2020-09-06T10:06:37.000Z</time>
      </trkpt>
      <trkpt lat="47.2835" lon="-2.3658">
        <ele>1.2000000476837</ele>
        <time>2020-09-06T10:06:38.000Z</time>
      </trkpt>
      <trkpt lat="47.28344" lon="-2.36588">
        <ele>0.60000002384186</ele>
        <time>2020-09-06T10:06:39.000Z</time>
      </trkpt>
      <trkpt lat="47.28339" lon="-2.36595">
        <ele>15.1</ele>
        <time>2020-09-06T10:06:40.000Z</time>
      </trkpt>
      <trkpt lat="47.28333" lon="-2.36602">
        <ele>-0.80000001192093</ele>
        <time>2020-09-06T10:06:41.000Z</time>
      </trkpt>
      <trkpt lat="47.28327" lon="-2.36609">
        <ele>-0.80000001192093</ele>
        <time>2020-09-06T10:06:42.000Z</time>
      </trkpt>
      <trkpt lat="47.28307" lon="-2.36632">
        <ele>-1.2000000476837</ele>
        <time>2020-09-06T10:06:45.000Z</time>
      </trkpt>
      <trkpt lat="47.283" lon="-2.3664">
        <ele>-1.7999999523163</ele>
        <time>2020-09-06T10:06:46.000Z</time>
      </trkpt>
      <trkpt lat="47.28293" lon="-2.36648">
        <ele>-2.4000000953674</ele>
        <time>2020-09-06T10:06:47.000Z</time>
      </trkpt>
      <trkpt lat="47.28286" lon="-2.36655">
        <ele>-2.7999999523163</ele>
        <time>2020-09-06T10:06:48.000Z</time>
      </trkpt>
      <trkpt lat="47.28279" lon="-2.36663">
        <ele>-3.4000000953674</ele>
        <time>2020-09-06T10:06:49.000Z</time>
      </trkpt>
      <trkpt lat="47.28265" lon="-2.36679">
        <ele>-3.7999999523163</ele>
        <time>2020-09-06T10:06:51.000Z</time>
      </trkpt>
      <trkpt lat="47.28258" lon="-2.36688">
        <ele>-4.1999998092651</ele>
        <time>2020-09-06T10:06:52.000Z</time>
      </trkpt>
      <trkpt lat="47.28251" lon="-2.36697">
        <ele>-4.8000001907349</ele>
        <time>2020-09-06T10:06:53.000Z</time>
      </trkpt>
      <trkpt lat="47.28245" lon="-2.36705">
        <ele>-5.5999999046326</ele>
        <time>2020-09-06T10:06:54.000Z</time>
      </trkpt>
      <trkpt lat="47.28224" lon="-2.36728">
        <ele>-6</ele>
        <time>2020-09-06T10:06:57.000Z</time>
      </trkpt>
      <trkpt lat="47.28218" lon="-2.36736">
        <ele>-6.4000000953674</ele>
        <time>2020-09-06T10:06:58.000Z</time>
      </trkpt>
      <trkpt lat="47.28211" lon="-2.36743">
        <ele>-6.8000001907349</ele>
        <time>2020-09-06T10:06:59.000Z</time>
      </trkpt>
      <trkpt lat="47.28205" lon="-2.3675">
        <ele>-7.4000000953674</ele>
        <time>2020-09-06T10:07:00.000Z</time>
      </trkpt>
      <trkpt lat="47.28199" lon="-2.36756">
        <ele>-7.8000001907349</ele>
        <time>2020-09-06T10:07:01.000Z</time>
      </trkpt>
      <trkpt lat="47.28193" lon="-2.36763">
        <ele>-8.1999998092651</ele>
        <time>2020-09-06T10:07:02.000Z</time>
      </trkpt>
      <trkpt lat="47.28187" lon="-2.3677">
        <ele>-8.8000001907349</ele>
        <time>2020-09-06T10:07:03.000Z</time>
      </trkpt>
      <trkpt lat="47.28181" lon="-2.36776">
        <ele>-9.1999998092651</ele>
        <time>2020-09-06T10:07:04.000Z</time>
      </trkpt>
      <trkpt lat="47.28175" lon="-2.36783">
        <ele>-9.8000001907349</ele>
        <time>2020-09-06T10:07:05.000Z</time>
      </trkpt>
      <trkpt lat="47.28169" lon="-2.36789">
        <ele>-9.8000001907349</ele>
        <time>2020-09-06T10:07:06.000Z</time>
      </trkpt>
      <trkpt lat="47.28148" lon="-2.36818">
        <ele>-10.199999809265</ele>
        <time>2020-09-06T10:07:10.000Z</time>
      </trkpt>
      <trkpt lat="47.28144" lon="-2.36827">
        <ele>-10.60000038147</ele>
        <time>2020-09-06T10:07:11.000Z</time>
      </trkpt>
      <trkpt lat="47.28141" lon="-2.36837">
        <ele>-11</ele>
        <time>2020-09-06T10:07:12.000Z</time>
      </trkpt>
      <trkpt lat="47.2814" lon="-2.36847">
        <ele>-11.39999961853</ele>
        <time>2020-09-06T10:07:13.000Z</time>
      </trkpt>
      <trkpt lat="47.28139" lon="-2.36857">
        <ele>-11.800000190735</ele>
        <time>2020-09-06T10:07:14.000Z</time>
      </trkpt>
      <trkpt lat="47.28131" lon="-2.36881">
        <ele>-11.800000190735</ele>
        <time>2020-09-06T10:07:17.000Z</time>
      </trkpt>
      <trkpt lat="47.28116" lon="-2.36891">
        <ele>-11.800000190735</ele>
        <time>2020-09-06T10:07:20.000Z</time>
      </trkpt>
      <trkpt lat="47.281" lon="-2.36888">
        <ele>-12.199999809265</ele>
        <time>2020-09-06T10:07:23.000Z</time>
      </trkpt>
      <trkpt lat="47.28095" lon="-2.36885">
        <ele>-12.60000038147</ele>
        <time>2020-09-06T10:07:24.000Z</time>
      </trkpt>
      <trkpt lat="47.28091" lon="-2.36885">
        <ele>-13.199999809265</ele>
        <time>2020-09-06T10:07:25.000Z</time>
      </trkpt>
      <trkpt lat="47.28088" lon="-2.36885">
        <ele>-13.60000038147</ele>
        <time>2020-09-06T10:07:26.000Z</time>
      </trkpt>
      <trkpt lat="47.28084" lon="-2.36887">
        <ele>-14</ele>
        <time>2020-09-06T10:07:27.000Z</time>
      </trkpt>
      <trkpt lat="47.28078" lon="-2.36894">
        <ele>-14</ele>
        <time>2020-09-06T10:07:29.000Z</time>
      </trkpt>
      <trkpt lat="47.28075" lon="-2.36899">
        <ele>-14</ele>
        <time>2020-09-06T10:07:30.000Z</time>
      </trkpt>
      <trkpt lat="47.28071" lon="-2.36904">
        <ele>-14</ele>
        <time>2020-09-06T10:07:31.000Z</time>
      </trkpt>
      <trkpt lat="47.28067" lon="-2.36908">
        <ele>-14</ele>
        <time>2020-09-06T10:07:32.000Z</time>
      </trkpt>
      <trkpt lat="47.28053" lon="-2.36922">
        <ele>-14</ele>
        <time>2020-09-06T10:07:35.000Z</time>
      </trkpt>
      <trkpt lat="47.28028" lon="-2.36948">
        <ele>-14</ele>
        <time>2020-09-06T10:07:41.000Z</time>
      </trkpt>
      <trkpt lat="47.28012" lon="-2.36971">
        <ele>-14</ele>
        <time>2020-09-06T10:07:45.000Z</time>
      </trkpt>
      <trkpt lat="47.2798" lon="-2.37009">
        <ele>-14</ele>
        <time>2020-09-06T10:07:52.000Z</time>
      </trkpt>
      <trkpt lat="47.27953" lon="-2.3704">
        <ele>-14</ele>
        <time>2020-09-06T10:07:58.000Z</time>
      </trkpt>
      <trkpt lat="47.27938" lon="-2.37059">
        <ele>-13.60000038147</ele>
        <time>2020-09-06T10:08:02.000Z</time>
      </trkpt>
      <trkpt lat="47.27935" lon="-2.37064">
        <ele>-13.199999809265</ele>
        <time>2020-09-06T10:08:03.000Z</time>
      </trkpt>
      <trkpt lat="47.27931" lon="-2.37068">
        <ele>-12.800000190735</ele>
        <time>2020-09-06T10:08:04.000Z</time>
      </trkpt>
      <trkpt lat="47.27927" lon="-2.37072">
        <ele>-12.39999961853</ele>
        <time>2020-09-06T10:08:05.000Z</time>
      </trkpt>
      <trkpt lat="47.27923" lon="-2.37077">
        <ele>-11.800000190735</ele>
        <time>2020-09-06T10:08:06.000Z</time>
      </trkpt>
      <trkpt lat="47.27898" lon="-2.37107">
        <ele>-11.800000190735</ele>
        <time>2020-09-06T10:08:12.000Z</time>
      </trkpt>
      <trkpt lat="47.27869" lon="-2.37141">
        <ele>-11.800000190735</ele>
        <time>2020-09-06T10:08:19.000Z</time>
      </trkpt>
      <trkpt lat="47.27843" lon="-2.3717">
        <ele>-11.800000190735</ele>
        <time>2020-09-06T10:08:26.000Z</time>
      </trkpt>
      <trkpt lat="47.2784" lon="-2.37174">
        <ele>-11.800000190735</ele>
        <time>2020-09-06T10:08:29.000Z</time>
      </trkpt>
      <trkpt lat="47.27837" lon="-2.37176">
        <ele>-11.800000190735</ele>
        <time>2020-09-06T10:08:32.000Z</time>
      </trkpt>
      <trkpt lat="47.27834" lon="-2.37182">
        <ele>-11.800000190735</ele>
        <time>2020-09-06T10:08:34.000Z</time>
      </trkpt>
      <trkpt lat="47.27825" lon="-2.37198">
        <ele>-11.800000190735</ele>
        <time>2020-09-06T10:08:38.000Z</time>
      </trkpt>
      <trkpt lat="47.27816" lon="-2.37187">
        <ele>-11.800000190735</ele>
        <time>2020-09-06T10:08:41.000Z</time>
      </trkpt>
      <trkpt lat="47.27813" lon="-2.37173">
        <ele>-11.800000190735</ele>
        <time>2020-09-06T10:08:43.000Z</time>
      </trkpt>
      <trkpt lat="47.27811" lon="-2.37166">
        <ele>-11.800000190735</ele>
        <time>2020-09-06T10:08:44.000Z</time>
      </trkpt>
      <trkpt lat="47.27809" lon="-2.3716">
        <ele>-11.800000190735</ele>
        <time>2020-09-06T10:08:45.000Z</time>
      </trkpt>
      <trkpt lat="47.27801" lon="-2.37139">
        <ele>-11.800000190735</ele>
        <time>2020-09-06T10:08:48.000Z</time>
      </trkpt>
      <trkpt lat="47.27796" lon="-2.37116">
        <ele>-11.800000190735</ele>
        <time>2020-09-06T10:08:51.000Z</time>
      </trkpt>
      <trkpt lat="47.27781" lon="-2.37053">
        <ele>-11.800000190735</ele>
        <time>2020-09-06T10:08:59.000Z</time>
      </trkpt>
      <trkpt lat="47.2776" lon="-2.3698">
        <ele>-11.800000190735</ele>
        <time>2020-09-06T10:09:08.000Z</time>
      </trkpt>
      <trkpt lat="47.27737" lon="-2.36902">
        <ele>-11.800000190735</ele>
        <time>2020-09-06T10:09:17.000Z</time>
      </trkpt>
      <trkpt lat="47.27735" lon="-2.36894">
        <ele>-11.800000190735</ele>
        <time>2020-09-06T10:09:18.000Z</time>
      </trkpt>
      <trkpt lat="47.27717" lon="-2.3683">
        <ele>-11.800000190735</ele>
        <time>2020-09-06T10:09:25.000Z</time>
      </trkpt>
      <trkpt lat="47.27693" lon="-2.36753">
        <ele>-11.800000190735</ele>
        <time>2020-09-06T10:09:33.000Z</time>
      </trkpt>
      <trkpt lat="47.27669" lon="-2.36684">
        <ele>-11.800000190735</ele>
        <time>2020-09-06T10:09:40.000Z</time>
      </trkpt>
      <trkpt lat="47.27665" lon="-2.36674">
        <ele>-11.800000190735</ele>
        <time>2020-09-06T10:09:41.000Z</time>
      </trkpt>
      <trkpt lat="47.27644" lon="-2.36615">
        <ele>-11.800000190735</ele>
        <time>2020-09-06T10:09:47.000Z</time>
      </trkpt>
      <trkpt lat="47.2762" lon="-2.36542">
        <ele>-11.800000190735</ele>
        <time>2020-09-06T10:09:54.000Z</time>
      </trkpt>
      <trkpt lat="47.27613" lon="-2.36522">
        <ele>-11.800000190735</ele>
        <time>2020-09-06T10:09:56.000Z</time>
      </trkpt>
      <trkpt lat="47.27588" lon="-2.36449">
        <ele>-11.800000190735</ele>
        <time>2020-09-06T10:10:03.000Z</time>
      </trkpt>
      <trkpt lat="47.27583" lon="-2.36439">
        <ele>-11.800000190735</ele>
        <time>2020-09-06T10:10:04.000Z</time>
      </trkpt>
      <trkpt lat="47.27558" lon="-2.36371">
        <ele>-11.800000190735</ele>
        <time>2020-09-06T10:10:10.000Z</time>
      </trkpt>
      <trkpt lat="47.27527" lon="-2.36292">
        <ele>-11.800000190735</ele>
        <time>2020-09-06T10:10:17.000Z</time>
      </trkpt>
      <trkpt lat="47.27517" lon="-2.36269">
        <ele>-11.39999961853</ele>
        <time>2020-09-06T10:10:19.000Z</time>
      </trkpt>
      <trkpt lat="47.27513" lon="-2.36257">
        <ele>-11</ele>
        <time>2020-09-06T10:10:20.000Z</time>
      </trkpt>
      <trkpt lat="47.27508" lon="-2.36246">
        <ele>-10.60000038147</ele>
        <time>2020-09-06T10:10:21.000Z</time>
      </trkpt>
      <trkpt lat="47.27504" lon="-2.36235">
        <ele>-10.199999809265</ele>
        <time>2020-09-06T10:10:22.000Z</time>
      </trkpt>
      <trkpt lat="47.275" lon="-2.36223">
        <ele>-9.8000001907349</ele>
        <time>2020-09-06T10:10:23.000Z</time>
      </trkpt>
      <trkpt lat="47.27483" lon="-2.36179">
        <ele>-9.8000001907349</ele>
        <time>2020-09-06T10:10:27.000Z</time>
      </trkpt>
      <trkpt lat="47.27464" lon="-2.36127">
        <ele>-9.8000001907349</ele>
        <time>2020-09-06T10:10:32.000Z</time>
      </trkpt>
      <trkpt lat="47.27461" lon="-2.36115">
        <ele>-9.8000001907349</ele>
        <time>2020-09-06T10:10:33.000Z</time>
      </trkpt>
      <trkpt lat="47.27457" lon="-2.36106">
        <ele>-9.8000001907349</ele>
        <time>2020-09-06T10:10:34.000Z</time>
      </trkpt>
      <trkpt lat="47.27444" lon="-2.36078">
        <ele>-9.8000001907349</ele>
        <time>2020-09-06T10:10:37.000Z</time>
      </trkpt>
      <trkpt lat="47.2743" lon="-2.36036">
        <ele>-9.8000001907349</ele>
        <time>2020-09-06T10:10:41.000Z</time>
      </trkpt>
      <trkpt lat="47.27398" lon="-2.3596">
        <ele>-9.8000001907349</ele>
        <time>2020-09-06T10:10:48.000Z</time>
      </trkpt>
      <trkpt lat="47.27369" lon="-2.3589">
        <ele>-9.8000001907349</ele>
        <time>2020-09-06T10:10:54.000Z</time>
      </trkpt>
      <trkpt lat="47.27356" lon="-2.35854">
        <ele>-9.8000001907349</ele>
        <time>2020-09-06T10:10:57.000Z</time>
      </trkpt>
      <trkpt lat="47.27326" lon="-2.35775">
        <ele>-9.8000001907349</ele>
        <time>2020-09-06T10:11:04.000Z</time>
      </trkpt>
      <trkpt lat="47.27323" lon="-2.35764">
        <ele>-9.8000001907349</ele>
        <time>2020-09-06T10:11:05.000Z</time>
      </trkpt>
      <trkpt lat="47.27319" lon="-2.35754">
        <ele>-10.199999809265</ele>
        <time>2020-09-06T10:11:06.000Z</time>
      </trkpt>
      <trkpt lat="47.27314" lon="-2.35746">
        <ele>-10.60000038147</ele>
        <time>2020-09-06T10:11:07.000Z</time>
      </trkpt>
      <trkpt lat="47.27309" lon="-2.35737">
        <ele>-11</ele>
        <time>2020-09-06T10:11:08.000Z</time>
      </trkpt>
      <trkpt lat="47.27306" lon="-2.35727">
        <ele>-11.39999961853</ele>
        <time>2020-09-06T10:11:09.000Z</time>
      </trkpt>
      <trkpt lat="47.27304" lon="-2.35716">
        <ele>-12</ele>
        <time>2020-09-06T10:11:10.000Z</time>
      </trkpt>
      <trkpt lat="47.2729" lon="-2.3569">
        <ele>-12</ele>
        <time>2020-09-06T10:11:13.000Z</time>
      </trkpt>
      <trkpt lat="47.27275" lon="-2.35661">
        <ele>-12</ele>
        <time>2020-09-06T10:11:16.000Z</time>
      </trkpt>
      <trkpt lat="47.27266" lon="-2.3564">
        <ele>-12</ele>
        <time>2020-09-06T10:11:18.000Z</time>
      </trkpt>
      <trkpt lat="47.27234" lon="-2.35568">
        <ele>-12</ele>
        <time>2020-09-06T10:11:25.000Z</time>
      </trkpt>
      <trkpt lat="47.27225" lon="-2.35547">
        <ele>-12</ele>
        <time>2020-09-06T10:11:27.000Z</time>
      </trkpt>
      <trkpt lat="47.27191" lon="-2.35475">
        <ele>-12</ele>
        <time>2020-09-06T10:11:34.000Z</time>
      </trkpt>
      <trkpt lat="47.27186" lon="-2.35465">
        <ele>-12</ele>
        <time>2020-09-06T10:11:35.000Z</time>
      </trkpt>
      <trkpt lat="47.27154" lon="-2.35403">
        <ele>-11.39999961853</ele>
        <time>2020-09-06T10:11:41.000Z</time>
      </trkpt>
      <trkpt lat="47.27148" lon="-2.35393">
        <ele>-11</ele>
        <time>2020-09-06T10:11:42.000Z</time>
      </trkpt>
      <trkpt lat="47.27143" lon="-2.35383">
        <ele>-10.60000038147</ele>
        <time>2020-09-06T10:11:43.000Z</time>
      </trkpt>
      <trkpt lat="47.27137" lon="-2.35373">
        <ele>-10.199999809265</ele>
        <time>2020-09-06T10:11:44.000Z</time>
      </trkpt>
      <trkpt lat="47.27131" lon="-2.35363">
        <ele>-9.8000001907349</ele>
        <time>2020-09-06T10:11:45.000Z</time>
      </trkpt>
      <trkpt lat="47.27107" lon="-2.35325">
        <ele>-9.8000001907349</ele>
        <time>2020-09-06T10:11:49.000Z</time>
      </trkpt>
      <trkpt lat="47.27065" lon="-2.35256">
        <ele>-9.8000001907349</ele>
        <time>2020-09-06T10:11:56.000Z</time>
      </trkpt>
      <trkpt lat="47.27026" lon="-2.35196">
        <ele>-9.8000001907349</ele>
        <time>2020-09-06T10:12:02.000Z</time>
      </trkpt>
      <trkpt lat="47.27006" lon="-2.35165">
        <ele>-9.8000001907349</ele>
        <time>2020-09-06T10:12:05.000Z</time>
      </trkpt>
      <trkpt lat="47.26966" lon="-2.35106">
        <ele>-9.8000001907349</ele>
        <time>2020-09-06T10:12:11.000Z</time>
      </trkpt>
      <trkpt lat="47.26929" lon="-2.35048">
        <ele>-9.8000001907349</ele>
        <time>2020-09-06T10:12:17.000Z</time>
      </trkpt>
      <trkpt lat="47.26917" lon="-2.3503">
        <ele>-9.8000001907349</ele>
        <time>2020-09-06T10:12:19.000Z</time>
      </trkpt>
      <trkpt lat="47.26906" lon="-2.35012">
        <ele>-10.199999809265</ele>
        <time>2020-09-06T10:12:21.000Z</time>
      </trkpt>
      <trkpt lat="47.269" lon="-2.35004">
        <ele>-10.60000038147</ele>
        <time>2020-09-06T10:12:22.000Z</time>
      </trkpt>
      <trkpt lat="47.26894" lon="-2.34996">
        <ele>-11.199999809265</ele>
        <time>2020-09-06T10:12:23.000Z</time>
      </trkpt>
      <trkpt lat="47.26888" lon="-2.34987">
        <ele>-11.60000038147</ele>
        <time>2020-09-06T10:12:24.000Z</time>
      </trkpt>
      <trkpt lat="47.26882" lon="-2.34979">
        <ele>-12</ele>
        <time>2020-09-06T10:12:25.000Z</time>
      </trkpt>
      <trkpt lat="47.26871" lon="-2.34961">
        <ele>-12</ele>
        <time>2020-09-06T10:12:27.000Z</time>
      </trkpt>
      <trkpt lat="47.26831" lon="-2.34901">
        <ele>-12</ele>
        <time>2020-09-06T10:12:34.000Z</time>
      </trkpt>
      <trkpt lat="47.26825" lon="-2.34892">
        <ele>-12</ele>
        <time>2020-09-06T10:12:35.000Z</time>
      </trkpt>
      <trkpt lat="47.26788" lon="-2.34839">
        <ele>-12</ele>
        <time>2020-09-06T10:12:42.000Z</time>
      </trkpt>
      <trkpt lat="47.26768" lon="-2.34813">
        <ele>-12</ele>
        <time>2020-09-06T10:12:46.000Z</time>
      </trkpt>
      <trkpt lat="47.26759" lon="-2.34801">
        <ele>-12</ele>
        <time>2020-09-06T10:12:48.000Z</time>
      </trkpt>
      <trkpt lat="47.2673" lon="-2.34761">
        <ele>-12</ele>
        <time>2020-09-06T10:12:55.000Z</time>
      </trkpt>
      <trkpt lat="47.267" lon="-2.34726">
        <ele>-12</ele>
        <time>2020-09-06T10:13:02.000Z</time>
      </trkpt>
      <trkpt lat="47.26661" lon="-2.34679">
        <ele>-12</ele>
        <time>2020-09-06T10:13:11.000Z</time>
      </trkpt>
      <trkpt lat="47.26618" lon="-2.34626">
        <ele>-12</ele>
        <time>2020-09-06T10:13:20.000Z</time>
      </trkpt>
      <trkpt lat="47.26613" lon="-2.34621">
        <ele>-12</ele>
        <time>2020-09-06T10:13:21.000Z</time>
      </trkpt>
      <trkpt lat="47.26582" lon="-2.34584">
        <ele>-12</ele>
        <time>2020-09-06T10:13:28.000Z</time>
      </trkpt>
      <trkpt lat="47.26552" lon="-2.34551">
        <ele>-12</ele>
        <time>2020-09-06T10:13:35.000Z</time>
      </trkpt>
      <trkpt lat="47.26523" lon="-2.34525">
        <ele>-12</ele>
        <time>2020-09-06T10:13:41.000Z</time>
      </trkpt>
      <trkpt lat="47.26485" lon="-2.34497">
        <ele>-12</ele>
        <time>2020-09-06T10:13:47.000Z</time>
      </trkpt>
      <trkpt lat="47.26439" lon="-2.34463">
        <ele>-12</ele>
        <time>2020-09-06T10:13:54.000Z</time>
      </trkpt>
      <trkpt lat="47.26385" lon="-2.34422">
        <ele>-12</ele>
        <time>2020-09-06T10:14:02.000Z</time>
      </trkpt>
      <trkpt lat="47.26379" lon="-2.34416">
        <ele>-12</ele>
        <time>2020-09-06T10:14:03.000Z</time>
      </trkpt>
      <trkpt lat="47.26333" lon="-2.34379">
        <ele>-12</ele>
        <time>2020-09-06T10:14:10.000Z</time>
      </trkpt>
      <trkpt lat="47.2632" lon="-2.34369">
        <ele>-12</ele>
        <time>2020-09-06T10:14:12.000Z</time>
      </trkpt>
      <trkpt lat="47.26309" lon="-2.34352">
        <ele>-12</ele>
        <time>2020-09-06T10:14:14.000Z</time>
      </trkpt>
      <trkpt lat="47.26278" lon="-2.3432">
        <ele>-12</ele>
        <time>2020-09-06T10:14:19.000Z</time>
      </trkpt>
      <trkpt lat="47.26235" lon="-2.34274">
        <ele>-12</ele>
        <time>2020-09-06T10:14:26.000Z</time>
      </trkpt>
      <trkpt lat="47.26185" lon="-2.34222">
        <ele>-12</ele>
        <time>2020-09-06T10:14:34.000Z</time>
      </trkpt>
      <trkpt lat="47.26145" lon="-2.34184">
        <ele>-12</ele>
        <time>2020-09-06T10:14:41.000Z</time>
      </trkpt>
      <trkpt lat="47.26128" lon="-2.34178">
        <ele>-12</ele>
        <time>2020-09-06T10:14:44.000Z</time>
      </trkpt>
      <trkpt lat="47.26124" lon="-2.34172">
        <ele>-12</ele>
        <time>2020-09-06T10:14:45.000Z</time>
      </trkpt>
      <trkpt lat="47.26102" lon="-2.34155">
        <ele>-12</ele>
        <time>2020-09-06T10:14:49.000Z</time>
      </trkpt>
      <trkpt lat="47.26054" lon="-2.3413">
        <ele>-12</ele>
        <time>2020-09-06T10:14:56.000Z</time>
      </trkpt>
      <trkpt lat="47.25996" lon="-2.34101">
        <ele>-12</ele>
        <time>2020-09-06T10:15:04.000Z</time>
      </trkpt>
      <trkpt lat="47.25952" lon="-2.34083">
        <ele>-12</ele>
        <time>2020-09-06T10:15:10.000Z</time>
      </trkpt>
      <trkpt lat="47.25933" lon="-2.34075">
        <ele>-12.39999961853</ele>
        <time>2020-09-06T10:15:13.000Z</time>
      </trkpt>
      <trkpt lat="47.2593" lon="-2.34075">
        <ele>-12.800000190735</ele>
        <time>2020-09-06T10:15:14.000Z</time>
      </trkpt>
      <trkpt lat="47.25926" lon="-2.34075">
        <ele>-13.199999809265</ele>
        <time>2020-09-06T10:15:15.000Z</time>
      </trkpt>
      <trkpt lat="47.25923" lon="-2.34076">
        <ele>-13.60000038147</ele>
        <time>2020-09-06T10:15:16.000Z</time>
      </trkpt>
      <trkpt lat="47.25919" lon="-2.34077">
        <ele>-14</ele>
        <time>2020-09-06T10:15:17.000Z</time>
      </trkpt>
      <trkpt lat="47.25907" lon="-2.34087">
        <ele>-14</ele>
        <time>2020-09-06T10:15:20.000Z</time>
      </trkpt>
      <trkpt lat="47.25893" lon="-2.34117">
        <ele>-14</ele>
        <time>2020-09-06T10:15:24.000Z</time>
      </trkpt>
      <trkpt lat="47.2588" lon="-2.34155">
        <ele>-14</ele>
        <time>2020-09-06T10:15:29.000Z</time>
      </trkpt>
      <trkpt lat="47.25876" lon="-2.34167">
        <ele>-14</ele>
        <time>2020-09-06T10:15:33.000Z</time>
      </trkpt>
      <trkpt lat="47.25873" lon="-2.34171">
        <ele>-14</ele>
        <time>2020-09-06T10:15:36.000Z</time>
      </trkpt>
      <trkpt lat="47.2587" lon="-2.34167">
        <ele>-14</ele>
        <time>2020-09-06T10:15:38.000Z</time>
      </trkpt>
      <trkpt lat="47.25861" lon="-2.34164">
        <ele>-14</ele>
        <time>2020-09-06T10:15:41.000Z</time>
      </trkpt>
      <trkpt lat="47.2585" lon="-2.34161">
        <ele>-14</ele>
        <time>2020-09-06T10:15:45.000Z</time>
      </trkpt>
      <trkpt lat="47.25847" lon="-2.34159">
        <ele>-14</ele>
        <time>2020-09-06T10:15:46.000Z</time>
      </trkpt>
      <trkpt lat="47.25841" lon="-2.34158">
        <ele>-14</ele>
        <time>2020-09-06T10:15:48.000Z</time>
      </trkpt>
      <trkpt lat="47.25838" lon="-2.34167">
        <ele>-14</ele>
        <time>2020-09-06T10:15:50.000Z</time>
      </trkpt>
      <trkpt lat="47.25828" lon="-2.34181">
        <ele>-14</ele>
        <time>2020-09-06T10:15:54.000Z</time>
      </trkpt>
      <trkpt lat="47.25808" lon="-2.34178">
        <ele>-14</ele>
        <time>2020-09-06T10:15:58.000Z</time>
      </trkpt>
      <trkpt lat="47.25787" lon="-2.34174">
        <ele>-14</ele>
        <time>2020-09-06T10:16:02.000Z</time>
      </trkpt>
      <trkpt lat="47.25776" lon="-2.34177">
        <ele>-14</ele>
        <time>2020-09-06T10:16:04.000Z</time>
      </trkpt>
      <trkpt lat="47.25738" lon="-2.3418">
        <ele>-14</ele>
        <time>2020-09-06T10:16:10.000Z</time>
      </trkpt>
      <trkpt lat="47.25726" lon="-2.34183">
        <ele>-14</ele>
        <time>2020-09-06T10:16:12.000Z</time>
      </trkpt>
      <trkpt lat="47.25705" lon="-2.3419">
        <ele>-14</ele>
        <time>2020-09-06T10:16:16.000Z</time>
      </trkpt>
      <trkpt lat="47.25689" lon="-2.34192">
        <ele>-14</ele>
        <time>2020-09-06T10:16:19.000Z</time>
      </trkpt>
      <trkpt lat="47.25684" lon="-2.34193">
        <ele>-13.60000038147</ele>
        <time>2020-09-06T10:16:20.000Z</time>
      </trkpt>
      <trkpt lat="47.25679" lon="-2.34192">
        <ele>-13.199999809265</ele>
        <time>2020-09-06T10:16:21.000Z</time>
      </trkpt>
      <trkpt lat="47.25674" lon="-2.34191">
        <ele>-12.800000190735</ele>
        <time>2020-09-06T10:16:22.000Z</time>
      </trkpt>
      <trkpt lat="47.2567" lon="-2.34186">
        <ele>-11.800000190735</ele>
        <time>2020-09-06T10:16:23.000Z</time>
      </trkpt>
      <trkpt lat="47.25663" lon="-2.34173">
        <ele>-11.800000190735</ele>
        <time>2020-09-06T10:16:25.000Z</time>
      </trkpt>
      <trkpt lat="47.25659" lon="-2.34167">
        <ele>-11.800000190735</ele>
        <time>2020-09-06T10:16:26.000Z</time>
      </trkpt>
      <trkpt lat="47.25647" lon="-2.3414">
        <ele>-11.800000190735</ele>
        <time>2020-09-06T10:16:30.000Z</time>
      </trkpt>
      <trkpt lat="47.25643" lon="-2.34125">
        <ele>-11.800000190735</ele>
        <time>2020-09-06T10:16:32.000Z</time>
      </trkpt>
      <trkpt lat="47.2564" lon="-2.34084">
        <ele>-11.800000190735</ele>
        <time>2020-09-06T10:16:37.000Z</time>
      </trkpt>
      <trkpt lat="47.25648" lon="-2.34035">
        <ele>-11.800000190735</ele>
        <time>2020-09-06T10:16:43.000Z</time>
      </trkpt>
      <trkpt lat="47.25657" lon="-2.33989">
        <ele>-11.800000190735</ele>
        <time>2020-09-06T10:16:49.000Z</time>
      </trkpt>
      <trkpt lat="47.25663" lon="-2.33949">
        <ele>-11.800000190735</ele>
        <time>2020-09-06T10:16:54.000Z</time>
      </trkpt>
      <trkpt lat="47.25662" lon="-2.3394">
        <ele>-11.800000190735</ele>
        <time>2020-09-06T10:16:55.000Z</time>
      </trkpt>
      <trkpt lat="47.25649" lon="-2.33875">
        <ele>-11.800000190735</ele>
        <time>2020-09-06T10:17:03.000Z</time>
      </trkpt>
      <trkpt lat="47.25641" lon="-2.33835">
        <ele>-11.800000190735</ele>
        <time>2020-09-06T10:17:08.000Z</time>
      </trkpt>
      <trkpt lat="47.25639" lon="-2.33818">
        <ele>-11.800000190735</ele>
        <time>2020-09-06T10:17:10.000Z</time>
      </trkpt>
      <trkpt lat="47.2563" lon="-2.33781">
        <ele>-11.800000190735</ele>
        <time>2020-09-06T10:17:15.000Z</time>
      </trkpt>
      <trkpt lat="47.25628" lon="-2.33775">
        <ele>-11.800000190735</ele>
        <time>2020-09-06T10:17:16.000Z</time>
      </trkpt>
      <trkpt lat="47.25617" lon="-2.33763">
        <ele>-11.800000190735</ele>
        <time>2020-09-06T10:17:19.000Z</time>
      </trkpt>
      <trkpt lat="47.25613" lon="-2.3376">
        <ele>-11.800000190735</ele>
        <time>2020-09-06T10:17:20.000Z</time>
      </trkpt>
      <trkpt lat="47.25607" lon="-2.33758">
        <ele>-11.800000190735</ele>
        <time>2020-09-06T10:17:21.000Z</time>
      </trkpt>
      <trkpt lat="47.25588" lon="-2.33757">
        <ele>-11.800000190735</ele>
        <time>2020-09-06T10:17:24.000Z</time>
      </trkpt>
      <trkpt lat="47.25582" lon="-2.33757">
        <ele>-11.800000190735</ele>
        <time>2020-09-06T10:17:25.000Z</time>
      </trkpt>
      <trkpt lat="47.25569" lon="-2.33758">
        <ele>-11.39999961853</ele>
        <time>2020-09-06T10:17:27.000Z</time>
      </trkpt>
      <trkpt lat="47.25563" lon="-2.33759">
        <ele>-11</ele>
        <time>2020-09-06T10:17:28.000Z</time>
      </trkpt>
      <trkpt lat="47.25557" lon="-2.33759">
        <ele>-10.60000038147</ele>
        <time>2020-09-06T10:17:29.000Z</time>
      </trkpt>
      <trkpt lat="47.2555" lon="-2.33759">
        <ele>-10.199999809265</ele>
        <time>2020-09-06T10:17:30.000Z</time>
      </trkpt>
      <trkpt lat="47.25543" lon="-2.3376">
        <ele>-9.8000001907349</ele>
        <time>2020-09-06T10:17:31.000Z</time>
      </trkpt>
      <trkpt lat="47.25495" lon="-2.33757">
        <ele>-9.8000001907349</ele>
        <time>2020-09-06T10:17:38.000Z</time>
      </trkpt>
      <trkpt lat="47.25481" lon="-2.33755">
        <ele>-9.8000001907349</ele>
        <time>2020-09-06T10:17:40.000Z</time>
      </trkpt>
      <trkpt lat="47.25469" lon="-2.33749">
        <ele>-9.8000001907349</ele>
        <time>2020-09-06T10:17:42.000Z</time>
      </trkpt>
      <trkpt lat="47.25454" lon="-2.33735">
        <ele>-9.8000001907349</ele>
        <time>2020-09-06T10:17:45.000Z</time>
      </trkpt>
      <trkpt lat="47.25452" lon="-2.33726">
        <ele>-9.8000001907349</ele>
        <time>2020-09-06T10:17:46.000Z</time>
      </trkpt>
      <trkpt lat="47.25449" lon="-2.33697">
        <ele>-9.8000001907349</ele>
        <time>2020-09-06T10:17:49.000Z</time>
      </trkpt>
      <trkpt lat="47.25445" lon="-2.33656">
        <ele>-10.199999809265</ele>
        <time>2020-09-06T10:17:54.000Z</time>
      </trkpt>
      <trkpt lat="47.25444" lon="-2.33649">
        <ele>-10.60000038147</ele>
        <time>2020-09-06T10:17:55.000Z</time>
      </trkpt>
      <trkpt lat="47.25442" lon="-2.33642">
        <ele>-11</ele>
        <time>2020-09-06T10:17:56.000Z</time>
      </trkpt>
      <trkpt lat="47.25441" lon="-2.33636">
        <ele>-11.60000038147</ele>
        <time>2020-09-06T10:17:57.000Z</time>
      </trkpt>
      <trkpt lat="47.2544" lon="-2.33629">
        <ele>-12</ele>
        <time>2020-09-06T10:17:58.000Z</time>
      </trkpt>
      <trkpt lat="47.25438" lon="-2.33609">
        <ele>-12</ele>
        <time>2020-09-06T10:18:01.000Z</time>
      </trkpt>
      <trkpt lat="47.25441" lon="-2.33586">
        <ele>-12</ele>
        <time>2020-09-06T10:18:05.000Z</time>
      </trkpt>
      <trkpt lat="47.25453" lon="-2.3358">
        <ele>-12</ele>
        <time>2020-09-06T10:18:08.000Z</time>
      </trkpt>
      <trkpt lat="47.25456" lon="-2.33568">
        <ele>-12</ele>
        <time>2020-09-06T10:18:11.000Z</time>
      </trkpt>
      <trkpt lat="47.25455" lon="-2.33563">
        <ele>-12</ele>
        <time>2020-09-06T10:18:12.000Z</time>
      </trkpt>
      <trkpt lat="47.25449" lon="-2.33534">
        <ele>-12</ele>
        <time>2020-09-06T10:18:17.000Z</time>
      </trkpt>
      <trkpt lat="47.25438" lon="-2.33481">
        <ele>-12</ele>
        <time>2020-09-06T10:18:25.000Z</time>
      </trkpt>
      <trkpt lat="47.25432" lon="-2.33457">
        <ele>-12</ele>
        <time>2020-09-06T10:18:29.000Z</time>
      </trkpt>
      <trkpt lat="47.25429" lon="-2.33435">
        <ele>-12</ele>
        <time>2020-09-06T10:18:32.000Z</time>
      </trkpt>
      <trkpt lat="47.25429" lon="-2.33419">
        <ele>-12</ele>
        <time>2020-09-06T10:18:34.000Z</time>
      </trkpt>
      <trkpt lat="47.2543" lon="-2.33372">
        <ele>-12</ele>
        <time>2020-09-06T10:18:40.000Z</time>
      </trkpt>
      <trkpt lat="47.25431" lon="-2.33357">
        <ele>-12</ele>
        <time>2020-09-06T10:18:42.000Z</time>
      </trkpt>
      <trkpt lat="47.25433" lon="-2.33341">
        <ele>-12</ele>
        <time>2020-09-06T10:18:44.000Z</time>
      </trkpt>
      <trkpt lat="47.25438" lon="-2.33327">
        <ele>-12</ele>
        <time>2020-09-06T10:18:46.000Z</time>
      </trkpt>
      <trkpt lat="47.25448" lon="-2.33299">
        <ele>-12</ele>
        <time>2020-09-06T10:18:50.000Z</time>
      </trkpt>
      <trkpt lat="47.25449" lon="-2.33283">
        <ele>-12</ele>
        <time>2020-09-06T10:18:52.000Z</time>
      </trkpt>
      <trkpt lat="47.25442" lon="-2.33261">
        <ele>-12</ele>
        <time>2020-09-06T10:18:55.000Z</time>
      </trkpt>
      <trkpt lat="47.25439" lon="-2.33254">
        <ele>-12</ele>
        <time>2020-09-06T10:18:56.000Z</time>
      </trkpt>
      <trkpt lat="47.25421" lon="-2.33212">
        <ele>-12</ele>
        <time>2020-09-06T10:19:02.000Z</time>
      </trkpt>
      <trkpt lat="47.254" lon="-2.33164">
        <ele>-12</ele>
        <time>2020-09-06T10:19:09.000Z</time>
      </trkpt>
      <trkpt lat="47.25386" lon="-2.33142">
        <ele>-12</ele>
        <time>2020-09-06T10:19:14.000Z</time>
      </trkpt>
      <trkpt lat="47.25378" lon="-2.33126">
        <ele>-12</ele>
        <time>2020-09-06T10:19:19.000Z</time>
      </trkpt>
      <trkpt lat="47.25376" lon="-2.33119">
        <ele>-12</ele>
        <time>2020-09-06T10:19:22.000Z</time>
      </trkpt>
      <trkpt lat="47.25372" lon="-2.33109">
        <ele>-12</ele>
        <time>2020-09-06T10:31:00.000Z</time>
      </trkpt>
      <trkpt lat="47.25372" lon="-2.33104">
        <ele>-12</ele>
        <time>2020-09-06T10:31:02.000Z</time>
      </trkpt>
      <trkpt lat="47.25368" lon="-2.33095">
        <ele>-12</ele>
        <time>2020-09-06T10:31:06.000Z</time>
      </trkpt>
      <trkpt lat="47.25363" lon="-2.3308">
        <ele>-11.199999809265</ele>
        <time>2020-09-06T10:31:12.000Z</time>
      </trkpt>
      <trkpt lat="47.25362" lon="-2.33077">
        <ele>-10.800000190735</ele>
        <time>2020-09-06T10:31:13.000Z</time>
      </trkpt>
      <trkpt lat="47.25361" lon="-2.33073">
        <ele>-10.39999961853</ele>
        <time>2020-09-06T10:31:14.000Z</time>
      </trkpt>
      <trkpt lat="47.25359" lon="-2.3307">
        <ele>-10</ele>
        <time>2020-09-06T10:31:15.000Z</time>
      </trkpt>
      <trkpt lat="47.25353" lon="-2.33055">
        <ele>-10</ele>
        <time>2020-09-06T10:31:18.000Z</time>
      </trkpt>
      <trkpt lat="47.25343" lon="-2.33026">
        <ele>-10</ele>
        <time>2020-09-06T10:31:23.000Z</time>
      </trkpt>
      <trkpt lat="47.25322" lon="-2.32975">
        <ele>-10</ele>
        <time>2020-09-06T10:31:31.000Z</time>
      </trkpt>
      <trkpt lat="47.25308" lon="-2.32932">
        <ele>-10</ele>
        <time>2020-09-06T10:31:38.000Z</time>
      </trkpt>
      <trkpt lat="47.25313" lon="-2.32915">
        <ele>-10</ele>
        <time>2020-09-06T10:31:41.000Z</time>
      </trkpt>
      <trkpt lat="47.2532" lon="-2.32908">
        <ele>-10</ele>
        <time>2020-09-06T10:31:43.000Z</time>
      </trkpt>
      <trkpt lat="47.25329" lon="-2.32901">
        <ele>-10</ele>
        <time>2020-09-06T10:31:45.000Z</time>
      </trkpt>
      <trkpt lat="47.25344" lon="-2.32886">
        <ele>-9.6000003814697</ele>
        <time>2020-09-06T10:31:49.000Z</time>
      </trkpt>
      <trkpt lat="47.25348" lon="-2.32883">
        <ele>-9.1999998092651</ele>
        <time>2020-09-06T10:31:50.000Z</time>
      </trkpt>
      <trkpt lat="47.25352" lon="-2.32879">
        <ele>-8.8000001907349</ele>
        <time>2020-09-06T10:31:51.000Z</time>
      </trkpt>
      <trkpt lat="47.25355" lon="-2.32875">
        <ele>-8.1999998092651</ele>
        <time>2020-09-06T10:31:52.000Z</time>
      </trkpt>
      <trkpt lat="47.25359" lon="-2.32871">
        <ele>-7.8000001907349</ele>
        <time>2020-09-06T10:31:53.000Z</time>
      </trkpt>
      <trkpt lat="47.25363" lon="-2.32868">
        <ele>-7.8000001907349</ele>
        <time>2020-09-06T10:31:54.000Z</time>
      </trkpt>
      <trkpt lat="47.25393" lon="-2.32834">
        <ele>-7.8000001907349</ele>
        <time>2020-09-06T10:32:02.000Z</time>
      </trkpt>
      <trkpt lat="47.25396" lon="-2.3283">
        <ele>-7.8000001907349</ele>
        <time>2020-09-06T10:32:03.000Z</time>
      </trkpt>
      <trkpt lat="47.25423" lon="-2.32793">
        <ele>-7.8000001907349</ele>
        <time>2020-09-06T10:32:11.000Z</time>
      </trkpt>
      <trkpt lat="47.25425" lon="-2.32788">
        <ele>-7.8000001907349</ele>
        <time>2020-09-06T10:32:12.000Z</time>
      </trkpt>
      <trkpt lat="47.25433" lon="-2.32769">
        <ele>-7.8000001907349</ele>
        <time>2020-09-06T10:32:16.000Z</time>
      </trkpt>
      <trkpt lat="47.25452" lon="-2.32744">
        <ele>-7.8000001907349</ele>
        <time>2020-09-06T10:32:22.000Z</time>
      </trkpt>
      <trkpt lat="47.25468" lon="-2.32721">
        <ele>-7.4000000953674</ele>
        <time>2020-09-06T10:32:27.000Z</time>
      </trkpt>
      <trkpt lat="47.25471" lon="-2.32717">
        <ele>-7</ele>
        <time>2020-09-06T10:32:28.000Z</time>
      </trkpt>
      <trkpt lat="47.25474" lon="-2.32713">
        <ele>-6.5999999046326</ele>
        <time>2020-09-06T10:32:29.000Z</time>
      </trkpt>
      <trkpt lat="47.25477" lon="-2.32709">
        <ele>-6.1999998092651</ele>
        <time>2020-09-06T10:32:30.000Z</time>
      </trkpt>
      <trkpt lat="47.25481" lon="-2.32704">
        <ele>-5.8000001907349</ele>
        <time>2020-09-06T10:32:31.000Z</time>
      </trkpt>
      <trkpt lat="47.25486" lon="-2.32695">
        <ele>-5.8000001907349</ele>
        <time>2020-09-06T10:32:33.000Z</time>
      </trkpt>
      <trkpt lat="47.2549" lon="-2.32676">
        <ele>-5.8000001907349</ele>
        <time>2020-09-06T10:32:36.000Z</time>
      </trkpt>
      <trkpt lat="47.25488" lon="-2.3265">
        <ele>-5.8000001907349</ele>
        <time>2020-09-06T10:32:40.000Z</time>
      </trkpt>
      <trkpt lat="47.25487" lon="-2.32644">
        <ele>-5.8000001907349</ele>
        <time>2020-09-06T10:32:41.000Z</time>
      </trkpt>
      <trkpt lat="47.25485" lon="-2.3263">
        <ele>-5.8000001907349</ele>
        <time>2020-09-06T10:32:43.000Z</time>
      </trkpt>
      <trkpt lat="47.25481" lon="-2.32603">
        <ele>-5.8000001907349</ele>
        <time>2020-09-06T10:32:47.000Z</time>
      </trkpt>
      <trkpt lat="47.25477" lon="-2.32585">
        <ele>-5.8000001907349</ele>
        <time>2020-09-06T10:32:50.000Z</time>
      </trkpt>
      <trkpt lat="47.25479" lon="-2.32568">
        <ele>-5.8000001907349</ele>
        <time>2020-09-06T10:32:53.000Z</time>
      </trkpt>
      <trkpt lat="47.2549" lon="-2.3255">
        <ele>-5.8000001907349</ele>
        <time>2020-09-06T10:32:57.000Z</time>
      </trkpt>
      <trkpt lat="47.25495" lon="-2.32546">
        <ele>-5.8000001907349</ele>
        <time>2020-09-06T10:32:58.000Z</time>
      </trkpt>
      <trkpt lat="47.25519" lon="-2.32525">
        <ele>-5.8000001907349</ele>
        <time>2020-09-06T10:33:03.000Z</time>
      </trkpt>
      <trkpt lat="47.25551" lon="-2.32494">
        <ele>-5.8000001907349</ele>
        <time>2020-09-06T10:33:09.000Z</time>
      </trkpt>
      <trkpt lat="47.25587" lon="-2.32458">
        <ele>-5.8000001907349</ele>
        <time>2020-09-06T10:33:15.000Z</time>
      </trkpt>
      <trkpt lat="47.256" lon="-2.32445">
        <ele>-6.1999998092651</ele>
        <time>2020-09-06T10:33:17.000Z</time>
      </trkpt>
      <trkpt lat="47.25606" lon="-2.32438">
        <ele>-6.5999999046326</ele>
        <time>2020-09-06T10:33:18.000Z</time>
      </trkpt>
      <trkpt lat="47.25612" lon="-2.32431">
        <ele>-7.1999998092651</ele>
        <time>2020-09-06T10:33:19.000Z</time>
      </trkpt>
      <trkpt lat="47.25619" lon="-2.32424">
        <ele>-7.5999999046326</ele>
        <time>2020-09-06T10:33:20.000Z</time>
      </trkpt>
      <trkpt lat="47.25625" lon="-2.32418">
        <ele>-8</ele>
        <time>2020-09-06T10:33:21.000Z</time>
      </trkpt>
      <trkpt lat="47.25631" lon="-2.32412">
        <ele>-8.3999996185303</ele>
        <time>2020-09-06T10:33:22.000Z</time>
      </trkpt>
      <trkpt lat="47.25638" lon="-2.32406">
        <ele>-8.8000001907349</ele>
        <time>2020-09-06T10:33:23.000Z</time>
      </trkpt>
      <trkpt lat="47.25644" lon="-2.32403">
        <ele>-9.1999998092651</ele>
        <time>2020-09-06T10:33:24.000Z</time>
      </trkpt>
      <trkpt lat="47.2565" lon="-2.32402">
        <ele>-9.6000003814697</ele>
        <time>2020-09-06T10:33:25.000Z</time>
      </trkpt>
      <trkpt lat="47.25657" lon="-2.32403">
        <ele>-10</ele>
        <time>2020-09-06T10:33:27.000Z</time>
      </trkpt>
      <trkpt lat="47.25667" lon="-2.32409">
        <ele>-10</ele>
        <time>2020-09-06T10:33:29.000Z</time>
      </trkpt>
      <trkpt lat="47.25688" lon="-2.3242">
        <ele>-10</ele>
        <time>2020-09-06T10:33:33.000Z</time>
      </trkpt>
      <trkpt lat="47.25694" lon="-2.32421">
        <ele>-10</ele>
        <time>2020-09-06T10:33:34.000Z</time>
      </trkpt>
      <trkpt lat="47.2573" lon="-2.32423">
        <ele>-10</ele>
        <time>2020-09-06T10:33:40.000Z</time>
      </trkpt>
      <trkpt lat="47.25747" lon="-2.32424">
        <ele>-10.60000038147</ele>
        <time>2020-09-06T10:33:43.000Z</time>
      </trkpt>
      <trkpt lat="47.25752" lon="-2.32424">
        <ele>-11</ele>
        <time>2020-09-06T10:33:44.000Z</time>
      </trkpt>
      <trkpt lat="47.25757" lon="-2.32423">
        <ele>-11.39999961853</ele>
        <time>2020-09-06T10:33:45.000Z</time>
      </trkpt>
      <trkpt lat="47.25762" lon="-2.32422">
        <ele>-11.800000190735</ele>
        <time>2020-09-06T10:33:46.000Z</time>
      </trkpt>
      <trkpt lat="47.25766" lon="-2.3242">
        <ele>-12.199999809265</ele>
        <time>2020-09-06T10:33:47.000Z</time>
      </trkpt>
      <trkpt lat="47.25782" lon="-2.32416">
        <ele>-12.199999809265</ele>
        <time>2020-09-06T10:33:51.000Z</time>
      </trkpt>
      <trkpt lat="47.25795" lon="-2.32433">
        <ele>-12.199999809265</ele>
        <time>2020-09-06T10:33:55.000Z</time>
      </trkpt>
      <trkpt lat="47.25797" lon="-2.32439">
        <ele>-12.199999809265</ele>
        <time>2020-09-06T10:33:56.000Z</time>
      </trkpt>
      <trkpt lat="47.25805" lon="-2.32449">
        <ele>-12.199999809265</ele>
        <time>2020-09-06T10:33:58.000Z</time>
      </trkpt>
      <trkpt lat="47.25814" lon="-2.32456">
        <ele>-12.199999809265</ele>
        <time>2020-09-06T10:34:00.000Z</time>
      </trkpt>
      <trkpt lat="47.2585" lon="-2.32472">
        <ele>-12.199999809265</ele>
        <time>2020-09-06T10:34:07.000Z</time>
      </trkpt>
      <trkpt lat="47.2586" lon="-2.32473">
        <ele>-12.199999809265</ele>
        <time>2020-09-06T10:34:09.000Z</time>
      </trkpt>
      <trkpt lat="47.25874" lon="-2.32471">
        <ele>-12.199999809265</ele>
        <time>2020-09-06T10:34:12.000Z</time>
      </trkpt>
      <trkpt lat="47.25894" lon="-2.32467">
        <ele>-12.199999809265</ele>
        <time>2020-09-06T10:34:16.000Z</time>
      </trkpt>
      <trkpt lat="47.25902" lon="-2.32458">
        <ele>-12.199999809265</ele>
        <time>2020-09-06T10:34:18.000Z</time>
      </trkpt>
      <trkpt lat="47.25928" lon="-2.32428">
        <ele>-12.199999809265</ele>
        <time>2020-09-06T10:34:24.000Z</time>
      </trkpt>
      <trkpt lat="47.25958" lon="-2.32388">
        <ele>-12.199999809265</ele>
        <time>2020-09-06T10:34:32.000Z</time>
      </trkpt>
      <trkpt lat="47.25993" lon="-2.32342">
        <ele>-12.199999809265</ele>
        <time>2020-09-06T10:34:41.000Z</time>
      </trkpt>
      <trkpt lat="47.26026" lon="-2.32301">
        <ele>-12.199999809265</ele>
        <time>2020-09-06T10:34:49.000Z</time>
      </trkpt>
      <trkpt lat="47.26055" lon="-2.32268">
        <ele>-12.199999809265</ele>
        <time>2020-09-06T10:34:56.000Z</time>
      </trkpt>
      <trkpt lat="47.26068" lon="-2.32254">
        <ele>-12.199999809265</ele>
        <time>2020-09-06T10:34:59.000Z</time>
      </trkpt>
      <trkpt lat="47.26083" lon="-2.32234">
        <ele>-12.199999809265</ele>
        <time>2020-09-06T10:35:03.000Z</time>
      </trkpt>
      <trkpt lat="47.2609" lon="-2.32223">
        <ele>-12.199999809265</ele>
        <time>2020-09-06T10:35:05.000Z</time>
      </trkpt>
      <trkpt lat="47.26102" lon="-2.32199">
        <ele>-12.199999809265</ele>
        <time>2020-09-06T10:35:09.000Z</time>
      </trkpt>
      <trkpt lat="47.26111" lon="-2.32181">
        <ele>-12.199999809265</ele>
        <time>2020-09-06T10:35:12.000Z</time>
      </trkpt>
      <trkpt lat="47.26121" lon="-2.32155">
        <ele>-12.199999809265</ele>
        <time>2020-09-06T10:35:16.000Z</time>
      </trkpt>
      <trkpt lat="47.26128" lon="-2.32135">
        <ele>-12.199999809265</ele>
        <time>2020-09-06T10:35:19.000Z</time>
      </trkpt>
      <trkpt lat="47.26132" lon="-2.32121">
        <ele>-12.199999809265</ele>
        <time>2020-09-06T10:35:21.000Z</time>
      </trkpt>
      <trkpt lat="47.26144" lon="-2.32072">
        <ele>-12.199999809265</ele>
        <time>2020-09-06T10:35:28.000Z</time>
      </trkpt>
      <trkpt lat="47.26161" lon="-2.32022">
        <ele>-12.199999809265</ele>
        <time>2020-09-06T10:35:36.000Z</time>
      </trkpt>
      <trkpt lat="47.26167" lon="-2.32017">
        <ele>-12.199999809265</ele>
        <time>2020-09-06T10:35:39.000Z</time>
      </trkpt>
      <trkpt lat="47.26168" lon="-2.32017">
        <ele>-12.199999809265</ele>
        <time>2020-09-06T10:35:40.000Z</time>
      </trkpt>
      <trkpt lat="47.26174" lon="-2.32018">
        <ele>-12.199999809265</ele>
        <time>2020-09-06T10:35:46.000Z</time>
      </trkpt>
      <trkpt lat="47.26182" lon="-2.32021">
        <ele>-12.199999809265</ele>
        <time>2020-09-06T10:35:54.000Z</time>
      </trkpt>
      <trkpt lat="47.26191" lon="-2.32024">
        <ele>-12.199999809265</ele>
        <time>2020-09-06T10:35:58.000Z</time>
      </trkpt>
      <trkpt lat="47.26198" lon="-2.3202">
        <ele>-12.199999809265</ele>
        <time>2020-09-06T10:36:02.000Z</time>
      </trkpt>
      <trkpt lat="47.262" lon="-2.32008">
        <ele>-12.199999809265</ele>
        <time>2020-09-06T10:36:05.000Z</time>
      </trkpt>
      <trkpt lat="47.26201" lon="-2.32006">
        <ele>-12.199999809265</ele>
        <time>2020-09-06T10:36:06.000Z</time>
      </trkpt>
      <trkpt lat="47.2621" lon="-2.31997">
        <ele>-12.199999809265</ele>
        <time>2020-09-06T10:36:10.000Z</time>
      </trkpt>
      <trkpt lat="47.26213" lon="-2.31994">
        <ele>-12.199999809265</ele>
        <time>2020-09-06T10:36:11.000Z</time>
      </trkpt>
      <trkpt lat="47.2622" lon="-2.31983">
        <ele>-12.199999809265</ele>
        <time>2020-09-06T10:36:14.000Z</time>
      </trkpt>
      <trkpt lat="47.26226" lon="-2.31981">
        <ele>-12.199999809265</ele>
        <time>2020-09-06T10:36:16.000Z</time>
      </trkpt>
      <trkpt lat="47.26237" lon="-2.31972">
        <ele>-12.199999809265</ele>
        <time>2020-09-06T10:36:20.000Z</time>
      </trkpt>
      <trkpt lat="47.26249" lon="-2.31951">
        <ele>-12.199999809265</ele>
        <time>2020-09-06T10:36:24.000Z</time>
      </trkpt>
      <trkpt lat="47.26265" lon="-2.31928">
        <ele>-12.199999809265</ele>
        <time>2020-09-06T10:36:29.000Z</time>
      </trkpt>
      <trkpt lat="47.26285" lon="-2.31905">
        <ele>-12.199999809265</ele>
        <time>2020-09-06T10:36:35.000Z</time>
      </trkpt>
      <trkpt lat="47.263" lon="-2.3189">
        <ele>-12.199999809265</ele>
        <time>2020-09-06T10:36:40.000Z</time>
      </trkpt>
      <trkpt lat="47.26302" lon="-2.31884">
        <ele>-12.199999809265</ele>
        <time>2020-09-06T10:36:41.000Z</time>
      </trkpt>
      <trkpt lat="47.26303" lon="-2.31871">
        <ele>-12.199999809265</ele>
        <time>2020-09-06T10:36:43.000Z</time>
      </trkpt>
      <trkpt lat="47.26305" lon="-2.31821">
        <ele>-12.199999809265</ele>
        <time>2020-09-06T10:36:51.000Z</time>
      </trkpt>
      <trkpt lat="47.26305" lon="-2.31785">
        <ele>-12.199999809265</ele>
        <time>2020-09-06T10:36:57.000Z</time>
      </trkpt>
      <trkpt lat="47.26302" lon="-2.31741">
        <ele>-12.199999809265</ele>
        <time>2020-09-06T10:37:04.000Z</time>
      </trkpt>
      <trkpt lat="47.26304" lon="-2.31722">
        <ele>-12.199999809265</ele>
        <time>2020-09-06T10:37:07.000Z</time>
      </trkpt>
      <trkpt lat="47.26306" lon="-2.31717">
        <ele>-12.199999809265</ele>
        <time>2020-09-06T10:37:08.000Z</time>
      </trkpt>
      <trkpt lat="47.26319" lon="-2.31709">
        <ele>-12.199999809265</ele>
        <time>2020-09-06T10:37:12.000Z</time>
      </trkpt>
      <trkpt lat="47.26334" lon="-2.31696">
        <ele>-12.199999809265</ele>
        <time>2020-09-06T10:37:17.000Z</time>
      </trkpt>
      <trkpt lat="47.26339" lon="-2.3169">
        <ele>-11.800000190735</ele>
        <time>2020-09-06T10:37:19.000Z</time>
      </trkpt>
      <trkpt lat="47.26342" lon="-2.31689">
        <ele>-11.39999961853</ele>
        <time>2020-09-06T10:37:20.000Z</time>
      </trkpt>
      <trkpt lat="47.26344" lon="-2.31687">
        <ele>-11</ele>
        <time>2020-09-06T10:37:21.000Z</time>
      </trkpt>
      <trkpt lat="47.26347" lon="-2.31686">
        <ele>-10.199999809265</ele>
        <time>2020-09-06T10:37:22.000Z</time>
      </trkpt>
      <trkpt lat="47.26365" lon="-2.31676">
        <ele>-10.199999809265</ele>
        <time>2020-09-06T10:37:28.000Z</time>
      </trkpt>
      <trkpt lat="47.26385" lon="-2.31665">
        <ele>-10.199999809265</ele>
        <time>2020-09-06T10:37:34.000Z</time>
      </trkpt>
      <trkpt lat="47.26395" lon="-2.3166">
        <ele>-9.8000001907349</ele>
        <time>2020-09-06T10:37:37.000Z</time>
      </trkpt>
      <trkpt lat="47.26397" lon="-2.31659">
        <ele>-9.1999998092651</ele>
        <time>2020-09-06T10:37:38.000Z</time>
      </trkpt>
      <trkpt lat="47.264" lon="-2.31657">
        <ele>-8.8000001907349</ele>
        <time>2020-09-06T10:37:39.000Z</time>
      </trkpt>
      <trkpt lat="47.26403" lon="-2.31656">
        <ele>-8.3999996185303</ele>
        <time>2020-09-06T10:37:40.000Z</time>
      </trkpt>
      <trkpt lat="47.26405" lon="-2.31654">
        <ele>-8</ele>
        <time>2020-09-06T10:37:41.000Z</time>
      </trkpt>
      <trkpt lat="47.2641" lon="-2.31646">
        <ele>-8</ele>
        <time>2020-09-06T10:37:43.000Z</time>
      </trkpt>
      <trkpt lat="47.2641" lon="-2.31642">
        <ele>-8</ele>
        <time>2020-09-06T10:37:44.000Z</time>
      </trkpt>
      <trkpt lat="47.26412" lon="-2.31605">
        <ele>-8</ele>
        <time>2020-09-06T10:37:51.000Z</time>
      </trkpt>
      <trkpt lat="47.26411" lon="-2.31572">
        <ele>-8</ele>
        <time>2020-09-06T10:37:58.000Z</time>
      </trkpt>
      <trkpt lat="47.26414" lon="-2.31553">
        <ele>-8</ele>
        <time>2020-09-06T10:38:03.000Z</time>
      </trkpt>
      <trkpt lat="47.26416" lon="-2.31552">
        <ele>-8</ele>
        <time>2020-09-06T10:38:04.000Z</time>
      </trkpt>
      <trkpt lat="47.26418" lon="-2.31553">
        <ele>-8</ele>
        <time>2020-09-06T10:38:08.000Z</time>
      </trkpt>
    </trkseg>
  </trk>
</gpx>